<?xml version="1.0"?>
<gpx xmlns="http://www.topografix.com/GPX/1/1" xmlns:xsi="http://www.w3.org/2001/XMLSchema-instance" xmlns:wptx1="http://www.garmin.com/xmlschemas/WaypointExtension/v1" xmlns:gpxtrx="http://www.garmin.com/xmlschemas/GpxExtensions/v3" xmlns:gpxtpx="http://www.garmin.com/xmlschemas/TrackPointExtension/v1" xmlns:gpxx="http://www.garmin.com/xmlschemas/GpxExtensions/v3" xmlns:trp="http://www.garmin.com/xmlschemas/TripExtensions/v1" xmlns:adv="http://www.garmin.com/xmlschemas/AdventuresExtensions/v1" xmlns:prs="http://www.garmin.com/xmlschemas/PressureExtension/v1" xmlns:tmd="http://www.garmin.com/xmlschemas/TripMetaDataExtensions/v1" xmlns:vptm="http://www.garmin.com/xmlschemas/ViaPointTransportationModeExtensions/v1" xmlns:ctx="http://www.garmin.com/xmlschemas/CreationTimeExtension/v1" creator="Garmin Desktop App" version="1.1" xsi:schemaLocation="http://www.topografix.com/GPX/1/1 http://www.topografix.com/GPX/1/1/gpx.xsd http://www.garmin.com/xmlschemas/WaypointExtension/v1 http://www8.garmin.com/xmlschemas/WaypointExtensionv1.xsd http://www.garmin.com/xmlschemas/TrackPointExtension/v1 http://www.garmin.com/xmlschemas/TrackPointExtensionv1.xsd http://www.garmin.com/xmlschemas/GpxExtensions/v3 http://www8.garmin.com/xmlschemas/GpxExtensionsv3.xsd http://www.garmin.com/xmlschemas/ActivityExtension/v1 http://www8.garmin.com/xmlschemas/ActivityExtensionv1.xsd http://www.garmin.com/xmlschemas/AdventuresExtensions/v1 http://www8.garmin.com/xmlschemas/AdventuresExtensionv1.xsd http://www.garmin.com/xmlschemas/PressureExtension/v1 http://www.garmin.com/xmlschemas/PressureExtensionv1.xsd http://www.garmin.com/xmlschemas/TripExtensions/v1 http://www.garmin.com/xmlschemas/TripExtensionsv1.xsd http://www.garmin.com/xmlschemas/TripMetaDataExtensions/v1 http://www.garmin.com/xmlschemas/TripMetaDataExtensionsv1.xsd http://www.garmin.com/xmlschemas/ViaPointTransportationModeExtensions/v1 http://www.garmin.com/xmlschemas/ViaPointTransportationModeExtensionsv1.xsd http://www.garmin.com/xmlschemas/CreationTimeExtensions/v1 http://www.garmin.com/xmlschemas/CreationTimeExtensionsv1.xsd">

  <metadata>
    <link href="http://www.garmin.com">
      <text>Garmin International</text>
    </link>
    <time>2013-08-24T20:09:12Z</time>
    <bounds maxlat="47.486203908920288" maxlon="11.258585248142481" minlat="47.360418699681759" minlon="10.920867891982198"/>
  </metadata>

  <trk>
    <name>Wettersteinumrundung 2013.08.24</name>
    <extensions>
      <gpxx:TrackExtension>
        <gpxx:DisplayColor>Green</gpxx:DisplayColor>
      </gpxx:TrackExtension>
    </extensions>
    <trkseg>
      <trkpt lat="47.482165340334177" lon="11.119077354669571">
        <ele>720.6455078125</ele>
        <time>2013-08-24T08:18:51Z</time>
      </trkpt>
      <trkpt lat="47.482165172696114" lon="11.119077019393444">
        <ele>720.164794921875</ele>
        <time>2013-08-24T08:18:53Z</time>
      </trkpt>
      <trkpt lat="47.482164837419987" lon="11.119077270850539">
        <ele>719.684326171875</ele>
        <time>2013-08-24T08:18:54Z</time>
      </trkpt>
      <trkpt lat="47.482172967866063" lon="11.119080539792776">
        <ele>720.6455078125</ele>
        <time>2013-08-24T08:19:15Z</time>
      </trkpt>
      <trkpt lat="47.482168860733509" lon="11.119079785421491">
        <ele>719.684326171875</ele>
        <time>2013-08-24T08:19:20Z</time>
      </trkpt>
      <trkpt lat="47.482158718630672" lon="11.119065033271909">
        <ele>719.684326171875</ele>
        <time>2013-08-24T08:19:25Z</time>
      </trkpt>
      <trkpt lat="47.482138350605965" lon="11.118868142366409">
        <ele>719.684326171875</ele>
        <time>2013-08-24T08:19:32Z</time>
      </trkpt>
      <trkpt lat="47.482190988957882" lon="11.118383249267936">
        <ele>720.164794921875</ele>
        <time>2013-08-24T08:19:41Z</time>
      </trkpt>
      <trkpt lat="47.48231009580195" lon="11.11817286349833">
        <ele>719.20361328125</ele>
        <time>2013-08-24T08:19:46Z</time>
      </trkpt>
      <trkpt lat="47.482416126877069" lon="11.118084853515029">
        <ele>720.6455078125</ele>
        <time>2013-08-24T08:19:49Z</time>
      </trkpt>
      <trkpt lat="47.482499526813626" lon="11.117915203794837">
        <ele>720.6455078125</ele>
        <time>2013-08-24T08:19:53Z</time>
      </trkpt>
      <trkpt lat="47.482520481571555" lon="11.117382450029254">
        <ele>719.684326171875</ele>
        <time>2013-08-24T08:20:01Z</time>
      </trkpt>
      <trkpt lat="47.482608575373888" lon="11.117021525278687">
        <ele>719.684326171875</ele>
        <time>2013-08-24T08:20:07Z</time>
      </trkpt>
      <trkpt lat="47.48277042992413" lon="11.116688763722777">
        <ele>720.164794921875</ele>
        <time>2013-08-24T08:20:15Z</time>
      </trkpt>
      <trkpt lat="47.48296832665801" lon="11.116111418232322">
        <ele>719.684326171875</ele>
        <time>2013-08-24T08:20:24Z</time>
      </trkpt>
      <trkpt lat="47.483036303892732" lon="11.115553937852383">
        <ele>720.6455078125</ele>
        <time>2013-08-24T08:20:31Z</time>
      </trkpt>
      <trkpt lat="47.483065305277705" lon="11.115247579291463">
        <ele>719.20361328125</ele>
        <time>2013-08-24T08:20:35Z</time>
      </trkpt>
      <trkpt lat="47.483137976378202" lon="11.114376280456781">
        <ele>718.2421875</ele>
        <time>2013-08-24T08:20:45Z</time>
      </trkpt>
      <trkpt lat="47.483145017176867" lon="11.114288689568639">
        <ele>718.722900390625</ele>
        <time>2013-08-24T08:20:46Z</time>
      </trkpt>
      <trkpt lat="47.483132528141141" lon="11.114015942439437">
        <ele>717.281005859375</ele>
        <time>2013-08-24T08:20:49Z</time>
      </trkpt>
      <trkpt lat="47.483145603910089" lon="11.113856351003051">
        <ele>716.80029296875</ele>
        <time>2013-08-24T08:20:51Z</time>
      </trkpt>
      <trkpt lat="47.483187010511756" lon="11.11373657360673">
        <ele>717.761474609375</ele>
        <time>2013-08-24T08:20:53Z</time>
      </trkpt>
      <trkpt lat="47.48323755338788" lon="11.113223768770695">
        <ele>716.80029296875</ele>
        <time>2013-08-24T08:21:02Z</time>
      </trkpt>
      <trkpt lat="47.483239229768515" lon="11.113151013851166">
        <ele>716.80029296875</ele>
        <time>2013-08-24T08:21:03Z</time>
      </trkpt>
      <trkpt lat="47.483276277780533" lon="11.112364958971739">
        <ele>717.761474609375</ele>
        <time>2013-08-24T08:21:13Z</time>
      </trkpt>
      <trkpt lat="47.48327661305666" lon="11.112143341451883">
        <ele>719.20361328125</ele>
        <time>2013-08-24T08:21:16Z</time>
      </trkpt>
      <trkpt lat="47.48333134688437" lon="11.111471028998494">
        <ele>717.761474609375</ele>
        <time>2013-08-24T08:21:25Z</time>
      </trkpt>
      <trkpt lat="47.483341488987207" lon="11.111312862485647">
        <ele>718.722900390625</ele>
        <time>2013-08-24T08:21:27Z</time>
      </trkpt>
      <trkpt lat="47.483376190066338" lon="11.111004324629903">
        <ele>721.606689453125</ele>
        <time>2013-08-24T08:21:32Z</time>
      </trkpt>
      <trkpt lat="47.483497560024261" lon="11.110315416008234">
        <ele>721.606689453125</ele>
        <time>2013-08-24T08:21:44Z</time>
      </trkpt>
      <trkpt lat="47.483699982985854" lon="11.10969171859324">
        <ele>720.6455078125</ele>
        <time>2013-08-24T08:21:52Z</time>
      </trkpt>
      <trkpt lat="47.484039030969143" lon="11.108567118644714">
        <ele>717.761474609375</ele>
        <time>2013-08-24T08:22:05Z</time>
      </trkpt>
      <trkpt lat="47.484429711475968" lon="11.107264989987016">
        <ele>717.761474609375</ele>
        <time>2013-08-24T08:22:20Z</time>
      </trkpt>
      <trkpt lat="47.484596008434892" lon="11.106704156845808">
        <ele>717.761474609375</ele>
        <time>2013-08-24T08:22:28Z</time>
      </trkpt>
      <trkpt lat="47.484594667330384" lon="11.106691416352987">
        <ele>718.722900390625</ele>
        <time>2013-08-24T08:22:33Z</time>
      </trkpt>
      <trkpt lat="47.484599947929382" lon="11.106616398319602">
        <ele>717.281005859375</ele>
        <time>2013-08-24T08:23:02Z</time>
      </trkpt>
      <trkpt lat="47.484689382836223" lon="11.10628891736269">
        <ele>717.761474609375</ele>
        <time>2013-08-24T08:23:08Z</time>
      </trkpt>
      <trkpt lat="47.48488468118012" lon="11.105604534968734">
        <ele>715.358154296875</ele>
        <time>2013-08-24T08:23:17Z</time>
      </trkpt>
      <trkpt lat="47.485169833526015" lon="11.104660900309682">
        <ele>714.87744140625</ele>
        <time>2013-08-24T08:23:28Z</time>
      </trkpt>
      <trkpt lat="47.485303021967411" lon="11.104187658056617">
        <ele>713.435546875</ele>
        <time>2013-08-24T08:23:33Z</time>
      </trkpt>
      <trkpt lat="47.485322300344706" lon="11.10376856289804">
        <ele>713.435546875</ele>
        <time>2013-08-24T08:23:37Z</time>
      </trkpt>
      <trkpt lat="47.485368819907308" lon="11.103416187688708">
        <ele>711.99365234375</ele>
        <time>2013-08-24T08:23:41Z</time>
      </trkpt>
      <trkpt lat="47.485479461029172" lon="11.103287860751152">
        <ele>711.0322265625</ele>
        <time>2013-08-24T08:23:43Z</time>
      </trkpt>
      <trkpt lat="47.485685404390097" lon="11.102735409513116">
        <ele>710.551513671875</ele>
        <time>2013-08-24T08:23:49Z</time>
      </trkpt>
      <trkpt lat="47.485771821811795" lon="11.10243072733283">
        <ele>709.109619140625</ele>
        <time>2013-08-24T08:23:52Z</time>
      </trkpt>
      <trkpt lat="47.486079772934318" lon="11.101438142359257">
        <ele>708.1484375</ele>
        <time>2013-08-24T08:24:02Z</time>
      </trkpt>
      <trkpt lat="47.486181948333979" lon="11.101164724677801">
        <ele>707.667724609375</ele>
        <time>2013-08-24T08:24:05Z</time>
      </trkpt>
      <trkpt lat="47.486203908920288" lon="11.100789299234748">
        <ele>708.62890625</ele>
        <time>2013-08-24T08:24:09Z</time>
      </trkpt>
      <trkpt lat="47.486082119867206" lon="11.100414292886853">
        <ele>707.667724609375</ele>
        <time>2013-08-24T08:24:13Z</time>
      </trkpt>
      <trkpt lat="47.485992768779397" lon="11.100148418918252">
        <ele>706.706298828125</ele>
        <time>2013-08-24T08:24:16Z</time>
      </trkpt>
      <trkpt lat="47.485924456268549" lon="11.099869385361671">
        <ele>707.667724609375</ele>
        <time>2013-08-24T08:24:19Z</time>
      </trkpt>
      <trkpt lat="47.485901406034827" lon="11.099667716771364">
        <ele>707.18701171875</ele>
        <time>2013-08-24T08:24:21Z</time>
      </trkpt>
      <trkpt lat="47.485893359407783" lon="11.09947451390326">
        <ele>706.706298828125</ele>
        <time>2013-08-24T08:24:23Z</time>
      </trkpt>
      <trkpt lat="47.485961839556694" lon="11.098990207538009">
        <ele>705.7451171875</ele>
        <time>2013-08-24T08:24:28Z</time>
      </trkpt>
      <trkpt lat="47.485911212861538" lon="11.098601873964071">
        <ele>707.18701171875</ele>
        <time>2013-08-24T08:24:32Z</time>
      </trkpt>
      <trkpt lat="47.485804008319974" lon="11.098452340811491">
        <ele>706.2255859375</ele>
        <time>2013-08-24T08:24:34Z</time>
      </trkpt>
      <trkpt lat="47.485351804643869" lon="11.097919167950749">
        <ele>708.1484375</ele>
        <time>2013-08-24T08:24:44Z</time>
      </trkpt>
      <trkpt lat="47.485044104978442" lon="11.097352467477322">
        <ele>708.1484375</ele>
        <time>2013-08-24T08:24:53Z</time>
      </trkpt>
      <trkpt lat="47.484737662598491" lon="11.096694739535451">
        <ele>709.59033203125</ele>
        <time>2013-08-24T08:25:02Z</time>
      </trkpt>
      <trkpt lat="47.484488300979137" lon="11.096029216423631">
        <ele>710.551513671875</ele>
        <time>2013-08-24T08:25:11Z</time>
      </trkpt>
      <trkpt lat="47.48424656689167" lon="11.09543401747942">
        <ele>711.99365234375</ele>
        <time>2013-08-24T08:25:20Z</time>
      </trkpt>
      <trkpt lat="47.48420306481421" lon="11.095315162092447">
        <ele>712.954833984375</ele>
        <time>2013-08-24T08:25:22Z</time>
      </trkpt>
      <trkpt lat="47.484063170850277" lon="11.094794059172273">
        <ele>714.396728515625</ele>
        <time>2013-08-24T08:25:32Z</time>
      </trkpt>
      <trkpt lat="47.483861921355128" lon="11.094277985394001">
        <ele>711.99365234375</ele>
        <time>2013-08-24T08:25:40Z</time>
      </trkpt>
      <trkpt lat="47.48363770544529" lon="11.093611372634768">
        <ele>712.47412109375</ele>
        <time>2013-08-24T08:25:49Z</time>
      </trkpt>
      <trkpt lat="47.483520358800888" lon="11.093311216682196">
        <ele>712.47412109375</ele>
        <time>2013-08-24T08:25:53Z</time>
      </trkpt>
      <trkpt lat="47.483341656625271" lon="11.092974599450827">
        <ele>711.0322265625</ele>
        <time>2013-08-24T08:25:58Z</time>
      </trkpt>
      <trkpt lat="47.483294969424605" lon="11.092741917818785">
        <ele>711.512939453125</ele>
        <time>2013-08-24T08:26:03Z</time>
      </trkpt>
      <trkpt lat="47.48330301605165" lon="11.092627923935652">
        <ele>711.512939453125</ele>
        <time>2013-08-24T08:26:08Z</time>
      </trkpt>
      <trkpt lat="47.483205953612924" lon="11.092452742159367">
        <ele>711.0322265625</ele>
        <time>2013-08-24T08:26:11Z</time>
      </trkpt>
      <trkpt lat="47.48320285230875" lon="11.092378981411457">
        <ele>710.551513671875</ele>
        <time>2013-08-24T08:26:12Z</time>
      </trkpt>
      <trkpt lat="47.483100006356835" lon="11.091533917933702">
        <ele>709.59033203125</ele>
        <time>2013-08-24T08:26:22Z</time>
      </trkpt>
      <trkpt lat="47.482905462384224" lon="11.090632192790508">
        <ele>706.706298828125</ele>
        <time>2013-08-24T08:26:32Z</time>
      </trkpt>
      <trkpt lat="47.482587704434991" lon="11.089763576164842">
        <ele>704.78369140625</ele>
        <time>2013-08-24T08:26:41Z</time>
      </trkpt>
      <trkpt lat="47.482207166031003" lon="11.089076511561871">
        <ele>702.861083984375</ele>
        <time>2013-08-24T08:26:48Z</time>
      </trkpt>
      <trkpt lat="47.481832159683108" lon="11.088060876354575">
        <ele>702.861083984375</ele>
        <time>2013-08-24T08:26:58Z</time>
      </trkpt>
      <trkpt lat="47.481730319559574" lon="11.087765581905842">
        <ele>702.861083984375</ele>
        <time>2013-08-24T08:27:01Z</time>
      </trkpt>
      <trkpt lat="47.481582127511501" lon="11.0867281537503">
        <ele>702.38037109375</ele>
        <time>2013-08-24T08:27:11Z</time>
      </trkpt>
      <trkpt lat="47.481561591848731" lon="11.085649654269218">
        <ele>702.861083984375</ele>
        <time>2013-08-24T08:27:22Z</time>
      </trkpt>
      <trkpt lat="47.481572739779949" lon="11.084681209176779">
        <ele>703.822509765625</ele>
        <time>2013-08-24T08:27:33Z</time>
      </trkpt>
      <trkpt lat="47.481565363705158" lon="11.083618467673659">
        <ele>703.822509765625</ele>
        <time>2013-08-24T08:27:45Z</time>
      </trkpt>
      <trkpt lat="47.481534602120519" lon="11.082543237134814">
        <ele>704.30322265625</ele>
        <time>2013-08-24T08:27:57Z</time>
      </trkpt>
      <trkpt lat="47.481531584635377" lon="11.082456316798925">
        <ele>704.30322265625</ele>
        <time>2013-08-24T08:27:58Z</time>
      </trkpt>
      <trkpt lat="47.48149654828012" lon="11.082204021513462">
        <ele>704.30322265625</ele>
        <time>2013-08-24T08:28:01Z</time>
      </trkpt>
      <trkpt lat="47.481468133628368" lon="11.081973854452372">
        <ele>704.78369140625</ele>
        <time>2013-08-24T08:28:04Z</time>
      </trkpt>
      <trkpt lat="47.481473246589303" lon="11.081410171464086">
        <ele>705.264404296875</ele>
        <time>2013-08-24T08:28:11Z</time>
      </trkpt>
      <trkpt lat="47.481463020667434" lon="11.081011276692152">
        <ele>704.78369140625</ele>
        <time>2013-08-24T08:28:16Z</time>
      </trkpt>
      <trkpt lat="47.481333687901497" lon="11.08057776466012">
        <ele>705.7451171875</ele>
        <time>2013-08-24T08:28:22Z</time>
      </trkpt>
      <trkpt lat="47.481300747022033" lon="11.080353716388345">
        <ele>706.706298828125</ele>
        <time>2013-08-24T08:28:25Z</time>
      </trkpt>
      <trkpt lat="47.481278451159596" lon="11.08004953712225">
        <ele>706.706298828125</ele>
        <time>2013-08-24T08:28:29Z</time>
      </trkpt>
      <trkpt lat="47.481337962672114" lon="11.079636560752988">
        <ele>705.7451171875</ele>
        <time>2013-08-24T08:28:34Z</time>
      </trkpt>
      <trkpt lat="47.481363695114851" lon="11.079306481406093">
        <ele>705.264404296875</ele>
        <time>2013-08-24T08:28:38Z</time>
      </trkpt>
      <trkpt lat="47.481311308220029" lon="11.078906916081905">
        <ele>705.264404296875</ele>
        <time>2013-08-24T08:28:43Z</time>
      </trkpt>
      <trkpt lat="47.48128792271018" lon="11.078142235055566">
        <ele>706.706298828125</ele>
        <time>2013-08-24T08:28:53Z</time>
      </trkpt>
      <trkpt lat="47.481222711503506" lon="11.07737822458148">
        <ele>707.667724609375</ele>
        <time>2013-08-24T08:29:04Z</time>
      </trkpt>
      <trkpt lat="47.481205528602004" lon="11.076979162171483">
        <ele>707.667724609375</ele>
        <time>2013-08-24T08:29:10Z</time>
      </trkpt>
      <trkpt lat="47.481176862493157" lon="11.076554954051971">
        <ele>709.109619140625</ele>
        <time>2013-08-24T08:29:16Z</time>
      </trkpt>
      <trkpt lat="47.481174180284142" lon="11.076277680695057">
        <ele>709.109619140625</ele>
        <time>2013-08-24T08:29:20Z</time>
      </trkpt>
      <trkpt lat="47.481057671830058" lon="11.075414596125484">
        <ele>711.0322265625</ele>
        <time>2013-08-24T08:29:33Z</time>
      </trkpt>
      <trkpt lat="47.481034705415368" lon="11.075010756030679">
        <ele>711.99365234375</ele>
        <time>2013-08-24T08:29:41Z</time>
      </trkpt>
      <trkpt lat="47.481024898588657" lon="11.074593923985958">
        <ele>710.07080078125</ele>
        <time>2013-08-24T08:29:47Z</time>
      </trkpt>
      <trkpt lat="47.481008637696505" lon="11.074441624805331">
        <ele>711.0322265625</ele>
        <time>2013-08-24T08:29:49Z</time>
      </trkpt>
      <trkpt lat="47.480953987687826" lon="11.074156640097499">
        <ele>710.551513671875</ele>
        <time>2013-08-24T08:29:53Z</time>
      </trkpt>
      <trkpt lat="47.480872683227062" lon="11.073807533830404">
        <ele>710.551513671875</ele>
        <time>2013-08-24T08:29:58Z</time>
      </trkpt>
      <trkpt lat="47.480729687958956" lon="11.073499247431755">
        <ele>711.0322265625</ele>
        <time>2013-08-24T08:30:03Z</time>
      </trkpt>
      <trkpt lat="47.480582082644105" lon="11.073240833356977">
        <ele>710.551513671875</ele>
        <time>2013-08-24T08:30:08Z</time>
      </trkpt>
      <trkpt lat="47.480463730171323" lon="11.072486294433475">
        <ele>709.59033203125</ele>
        <time>2013-08-24T08:30:17Z</time>
      </trkpt>
      <trkpt lat="47.480283100157976" lon="11.071716919541359">
        <ele>711.0322265625</ele>
        <time>2013-08-24T08:30:29Z</time>
      </trkpt>
      <trkpt lat="47.479956038296223" lon="11.070840759202838">
        <ele>711.512939453125</ele>
        <time>2013-08-24T08:30:41Z</time>
      </trkpt>
      <trkpt lat="47.479833159595728" lon="11.070499699562788">
        <ele>711.99365234375</ele>
        <time>2013-08-24T08:30:46Z</time>
      </trkpt>
      <trkpt lat="47.479710197076201" lon="11.070112120360136">
        <ele>712.47412109375</ele>
        <time>2013-08-24T08:30:52Z</time>
      </trkpt>
      <trkpt lat="47.479637106880546" lon="11.069831913337111">
        <ele>714.396728515625</ele>
        <time>2013-08-24T08:30:57Z</time>
      </trkpt>
      <trkpt lat="47.479594191536307" lon="11.069519435986876">
        <ele>714.396728515625</ele>
        <time>2013-08-24T08:31:03Z</time>
      </trkpt>
      <trkpt lat="47.479516826570034" lon="11.068985508754849">
        <ele>714.87744140625</ele>
        <time>2013-08-24T08:31:12Z</time>
      </trkpt>
      <trkpt lat="47.479481790214777" lon="11.06854135170579">
        <ele>715.358154296875</ele>
        <time>2013-08-24T08:31:19Z</time>
      </trkpt>
      <trkpt lat="47.479506265372038" lon="11.068279836326838">
        <ele>715.8388671875</ele>
        <time>2013-08-24T08:31:23Z</time>
      </trkpt>
      <trkpt lat="47.479503666982055" lon="11.068220408633351">
        <ele>716.319580078125</ele>
        <time>2013-08-24T08:31:24Z</time>
      </trkpt>
      <trkpt lat="47.479416914284229" lon="11.067577181383967">
        <ele>715.8388671875</ele>
        <time>2013-08-24T08:31:33Z</time>
      </trkpt>
      <trkpt lat="47.479401575401425" lon="11.067360090091825">
        <ele>716.319580078125</ele>
        <time>2013-08-24T08:31:36Z</time>
      </trkpt>
      <trkpt lat="47.479362012818456" lon="11.067137634381652">
        <ele>716.319580078125</ele>
        <time>2013-08-24T08:31:39Z</time>
      </trkpt>
      <trkpt lat="47.479313565418124" lon="11.066874442622066">
        <ele>716.80029296875</ele>
        <time>2013-08-24T08:31:43Z</time>
      </trkpt>
      <trkpt lat="47.479240894317627" lon="11.066618291661143">
        <ele>717.761474609375</ele>
        <time>2013-08-24T08:31:47Z</time>
      </trkpt>
      <trkpt lat="47.479158751666546" lon="11.066371193155646">
        <ele>717.281005859375</ele>
        <time>2013-08-24T08:31:51Z</time>
      </trkpt>
      <trkpt lat="47.478993963450193" lon="11.065962156280875">
        <ele>716.80029296875</ele>
        <time>2013-08-24T08:31:58Z</time>
      </trkpt>
      <trkpt lat="47.478792546316981" lon="11.065649427473545">
        <ele>718.722900390625</ele>
        <time>2013-08-24T08:32:05Z</time>
      </trkpt>
      <trkpt lat="47.47877242974937" lon="11.065379278734326">
        <ele>719.20361328125</ele>
        <time>2013-08-24T08:32:11Z</time>
      </trkpt>
      <trkpt lat="47.478638319298625" lon="11.065131928771734">
        <ele>719.684326171875</ele>
        <time>2013-08-24T08:32:18Z</time>
      </trkpt>
      <trkpt lat="47.4786033667624" lon="11.065053725615144">
        <ele>719.684326171875</ele>
        <time>2013-08-24T08:32:23Z</time>
      </trkpt>
      <trkpt lat="47.478599427267909" lon="11.065058670938015">
        <ele>720.164794921875</ele>
        <time>2013-08-24T08:32:54Z</time>
      </trkpt>
      <trkpt lat="47.478700680658221" lon="11.065124804154038">
        <ele>719.684326171875</ele>
        <time>2013-08-24T08:32:59Z</time>
      </trkpt>
      <trkpt lat="47.479021456092596" lon="11.065255058929324">
        <ele>718.722900390625</ele>
        <time>2013-08-24T08:33:06Z</time>
      </trkpt>
      <trkpt lat="47.479077279567719" lon="11.065247347578406">
        <ele>719.20361328125</ele>
        <time>2013-08-24T08:33:07Z</time>
      </trkpt>
      <trkpt lat="47.479243827983737" lon="11.065180543810129">
        <ele>718.2421875</ele>
        <time>2013-08-24T08:33:10Z</time>
      </trkpt>
      <trkpt lat="47.479595197364688" lon="11.064828336238861">
        <ele>717.761474609375</ele>
        <time>2013-08-24T08:33:17Z</time>
      </trkpt>
      <trkpt lat="47.480128956958652" lon="11.064264737069607">
        <ele>717.281005859375</ele>
        <time>2013-08-24T08:33:29Z</time>
      </trkpt>
      <trkpt lat="47.480543358251452" lon="11.063816472887993">
        <ele>717.281005859375</ele>
        <time>2013-08-24T08:33:39Z</time>
      </trkpt>
      <trkpt lat="47.48062776401639" lon="11.063663419336081">
        <ele>717.281005859375</ele>
        <time>2013-08-24T08:33:42Z</time>
      </trkpt>
      <trkpt lat="47.480550482869148" lon="11.063373573124409">
        <ele>718.2421875</ele>
        <time>2013-08-24T08:33:47Z</time>
      </trkpt>
      <trkpt lat="47.48040396720171" lon="11.063101077452302">
        <ele>717.281005859375</ele>
        <time>2013-08-24T08:33:52Z</time>
      </trkpt>
      <trkpt lat="47.480066679418087" lon="11.062557343393564">
        <ele>718.2421875</ele>
        <time>2013-08-24T08:34:01Z</time>
      </trkpt>
      <trkpt lat="47.479839278385043" lon="11.062163226306438">
        <ele>719.20361328125</ele>
        <time>2013-08-24T08:34:08Z</time>
      </trkpt>
      <trkpt lat="47.479807594791055" lon="11.062116036191583">
        <ele>719.20361328125</ele>
        <time>2013-08-24T08:34:09Z</time>
      </trkpt>
      <trkpt lat="47.479628389701247" lon="11.062192562967539">
        <ele>720.164794921875</ele>
        <time>2013-08-24T08:34:14Z</time>
      </trkpt>
      <trkpt lat="47.479523029178381" lon="11.062297839671373">
        <ele>721.126220703125</ele>
        <time>2013-08-24T08:34:20Z</time>
      </trkpt>
      <trkpt lat="47.479536440223455" lon="11.062279734760523">
        <ele>719.684326171875</ele>
        <time>2013-08-24T08:34:51Z</time>
      </trkpt>
      <trkpt lat="47.479570638388395" lon="11.062320638448">
        <ele>719.684326171875</ele>
        <time>2013-08-24T08:34:56Z</time>
      </trkpt>
      <trkpt lat="47.479591593146324" lon="11.062291972339153">
        <ele>718.722900390625</ele>
        <time>2013-08-24T08:34:57Z</time>
      </trkpt>
      <trkpt lat="47.479729559272528" lon="11.062042694538832">
        <ele>719.684326171875</ele>
        <time>2013-08-24T08:35:03Z</time>
      </trkpt>
      <trkpt lat="47.479751268401742" lon="11.061916798353195">
        <ele>720.6455078125</ele>
        <time>2013-08-24T08:35:06Z</time>
      </trkpt>
      <trkpt lat="47.479544822126627" lon="11.061522178351879">
        <ele>720.6455078125</ele>
        <time>2013-08-24T08:35:13Z</time>
      </trkpt>
      <trkpt lat="47.479249108582735" lon="11.060901582241058">
        <ele>720.6455078125</ele>
        <time>2013-08-24T08:35:24Z</time>
      </trkpt>
      <trkpt lat="47.478996478021145" lon="11.060474524274468">
        <ele>722.08740234375</ele>
        <time>2013-08-24T08:35:32Z</time>
      </trkpt>
      <trkpt lat="47.478654412552714" lon="11.060018381103873">
        <ele>722.08740234375</ele>
        <time>2013-08-24T08:35:42Z</time>
      </trkpt>
      <trkpt lat="47.478501610457897" lon="11.059845630079508">
        <ele>723.529541015625</ele>
        <time>2013-08-24T08:35:46Z</time>
      </trkpt>
      <trkpt lat="47.47842944227159" lon="11.059756865724921">
        <ele>723.048828125</ele>
        <time>2013-08-24T08:35:48Z</time>
      </trkpt>
      <trkpt lat="47.478231294080615" lon="11.05940155684948">
        <ele>723.529541015625</ele>
        <time>2013-08-24T08:35:55Z</time>
      </trkpt>
      <trkpt lat="47.477878583595157" lon="11.058969050645828">
        <ele>724.971435546875</ele>
        <time>2013-08-24T08:36:05Z</time>
      </trkpt>
      <trkpt lat="47.477700635790825" lon="11.058743828907609">
        <ele>726.413330078125</ele>
        <time>2013-08-24T08:36:11Z</time>
      </trkpt>
      <trkpt lat="47.477666353806853" lon="11.058721700683236">
        <ele>725.9326171875</ele>
        <time>2013-08-24T08:36:12Z</time>
      </trkpt>
      <trkpt lat="47.477560322731733" lon="11.058519277721643">
        <ele>725.9326171875</ele>
        <time>2013-08-24T08:36:16Z</time>
      </trkpt>
      <trkpt lat="47.477501481771469" lon="11.058240830898285">
        <ele>725.451904296875</ele>
        <time>2013-08-24T08:36:20Z</time>
      </trkpt>
      <trkpt lat="47.477409532293677" lon="11.057963725179434">
        <ele>725.451904296875</ele>
        <time>2013-08-24T08:36:24Z</time>
      </trkpt>
      <trkpt lat="47.477321019396186" lon="11.057702293619514">
        <ele>725.9326171875</ele>
        <time>2013-08-24T08:36:28Z</time>
      </trkpt>
      <trkpt lat="47.477178694680333" lon="11.057187393307686">
        <ele>726.413330078125</ele>
        <time>2013-08-24T08:36:36Z</time>
      </trkpt>
      <trkpt lat="47.477127648890018" lon="11.057000644505024">
        <ele>726.89404296875</ele>
        <time>2013-08-24T08:36:39Z</time>
      </trkpt>
      <trkpt lat="47.477024300023913" lon="11.056692022830248">
        <ele>728.816650390625</ele>
        <time>2013-08-24T08:36:44Z</time>
      </trkpt>
      <trkpt lat="47.476958585903049" lon="11.056534359231591">
        <ele>727.855224609375</ele>
        <time>2013-08-24T08:36:47Z</time>
      </trkpt>
      <trkpt lat="47.476804107427597" lon="11.056480463594198">
        <ele>727.374755859375</ele>
        <time>2013-08-24T08:36:51Z</time>
      </trkpt>
      <trkpt lat="47.476710649207234" lon="11.056495131924748">
        <ele>728.816650390625</ele>
        <time>2013-08-24T08:36:53Z</time>
      </trkpt>
      <trkpt lat="47.476577879860997" lon="11.056392285972834">
        <ele>728.816650390625</ele>
        <time>2013-08-24T08:36:57Z</time>
      </trkpt>
      <trkpt lat="47.476453157141805" lon="11.055927090346813">
        <ele>727.855224609375</ele>
        <time>2013-08-24T08:37:04Z</time>
      </trkpt>
      <trkpt lat="47.476299433037639" lon="11.055283360183239">
        <ele>728.816650390625</ele>
        <time>2013-08-24T08:37:13Z</time>
      </trkpt>
      <trkpt lat="47.476078066974878" lon="11.05466871522367">
        <ele>728.816650390625</ele>
        <time>2013-08-24T08:37:22Z</time>
      </trkpt>
      <trkpt lat="47.47587095014751" lon="11.054127495735884">
        <ele>729.297119140625</ele>
        <time>2013-08-24T08:37:30Z</time>
      </trkpt>
      <trkpt lat="47.475816886872053" lon="11.054002018645406">
        <ele>729.297119140625</ele>
        <time>2013-08-24T08:37:32Z</time>
      </trkpt>
      <trkpt lat="47.475679088383913" lon="11.053697504103184">
        <ele>729.77783203125</ele>
        <time>2013-08-24T08:37:37Z</time>
      </trkpt>
      <trkpt lat="47.475458644330502" lon="11.053281761705875">
        <ele>731.219970703125</ele>
        <time>2013-08-24T08:37:45Z</time>
      </trkpt>
      <trkpt lat="47.475404161959887" lon="11.053177239373326">
        <ele>730.258544921875</ele>
        <time>2013-08-24T08:37:47Z</time>
      </trkpt>
      <trkpt lat="47.475153375416994" lon="11.052713971585035">
        <ele>732.181396484375</ele>
        <time>2013-08-24T08:37:56Z</time>
      </trkpt>
      <trkpt lat="47.475011721253395" lon="11.052434518933296">
        <ele>732.181396484375</ele>
        <time>2013-08-24T08:38:01Z</time>
      </trkpt>
      <trkpt lat="47.474693125113845" lon="11.051566489040852">
        <ele>733.142578125</ele>
        <time>2013-08-24T08:38:15Z</time>
      </trkpt>
      <trkpt lat="47.474649203941226" lon="11.051447046920657">
        <ele>733.623291015625</ele>
        <time>2013-08-24T08:38:17Z</time>
      </trkpt>
      <trkpt lat="47.474356172606349" lon="11.050943797454238">
        <ele>734.10400390625</ele>
        <time>2013-08-24T08:38:27Z</time>
      </trkpt>
      <trkpt lat="47.474072948098183" lon="11.050425292924047">
        <ele>736.026611328125</ele>
        <time>2013-08-24T08:38:37Z</time>
      </trkpt>
      <trkpt lat="47.473782682791352" lon="11.049912488088012">
        <ele>736.026611328125</ele>
        <time>2013-08-24T08:38:47Z</time>
      </trkpt>
      <trkpt lat="47.473522759974003" lon="11.04936414398253">
        <ele>738.429931640625</ele>
        <time>2013-08-24T08:38:58Z</time>
      </trkpt>
      <trkpt lat="47.473481856286526" lon="11.049160463735461">
        <ele>738.429931640625</ele>
        <time>2013-08-24T08:39:02Z</time>
      </trkpt>
      <trkpt lat="47.473405413329601" lon="11.048832396045327">
        <ele>738.429931640625</ele>
        <time>2013-08-24T08:39:07Z</time>
      </trkpt>
      <trkpt lat="47.473384710028768" lon="11.048633828759193">
        <ele>738.91064453125</ele>
        <time>2013-08-24T08:39:10Z</time>
      </trkpt>
      <trkpt lat="47.473363671451807" lon="11.048448756337166">
        <ele>739.871826171875</ele>
        <time>2013-08-24T08:39:13Z</time>
      </trkpt>
      <trkpt lat="47.473259149119258" lon="11.048164274543524">
        <ele>739.39111328125</ele>
        <time>2013-08-24T08:39:18Z</time>
      </trkpt>
      <trkpt lat="47.473002746701241" lon="11.047670328989625">
        <ele>740.3525390625</ele>
        <time>2013-08-24T08:39:27Z</time>
      </trkpt>
      <trkpt lat="47.472777524963021" lon="11.0471535846591">
        <ele>741.313720703125</ele>
        <time>2013-08-24T08:39:36Z</time>
      </trkpt>
      <trkpt lat="47.472717259079218" lon="11.04679006151855">
        <ele>741.79443359375</ele>
        <time>2013-08-24T08:39:42Z</time>
      </trkpt>
      <trkpt lat="47.472495725378394" lon="11.045996211469173">
        <ele>743.236328125</ele>
        <time>2013-08-24T08:39:54Z</time>
      </trkpt>
      <trkpt lat="47.47235675342381" lon="11.045664707198739">
        <ele>743.236328125</ele>
        <time>2013-08-24T08:39:59Z</time>
      </trkpt>
      <trkpt lat="47.472243178635836" lon="11.045368742197752">
        <ele>743.717041015625</ele>
        <time>2013-08-24T08:40:04Z</time>
      </trkpt>
      <trkpt lat="47.472069840878248" lon="11.044923327863216">
        <ele>743.236328125</ele>
        <time>2013-08-24T08:40:12Z</time>
      </trkpt>
      <trkpt lat="47.471944615244865" lon="11.044612778350711">
        <ele>744.19775390625</ele>
        <time>2013-08-24T08:40:17Z</time>
      </trkpt>
      <trkpt lat="47.47188032604754" lon="11.044313292950392">
        <ele>744.19775390625</ele>
        <time>2013-08-24T08:40:22Z</time>
      </trkpt>
      <trkpt lat="47.471793489530683" lon="11.044036271050572">
        <ele>744.67822265625</ele>
        <time>2013-08-24T08:40:26Z</time>
      </trkpt>
      <trkpt lat="47.471771445125341" lon="11.043972400948405">
        <ele>744.67822265625</ele>
        <time>2013-08-24T08:40:27Z</time>
      </trkpt>
      <trkpt lat="47.471623672172427" lon="11.043380303308368">
        <ele>745.158935546875</ele>
        <time>2013-08-24T08:40:36Z</time>
      </trkpt>
      <trkpt lat="47.471525939181447" lon="11.043062377721071">
        <ele>745.6396484375</ele>
        <time>2013-08-24T08:40:41Z</time>
      </trkpt>
      <trkpt lat="47.471497775986791" lon="11.042940085753798">
        <ele>746.60107421875</ele>
        <time>2013-08-24T08:40:43Z</time>
      </trkpt>
      <trkpt lat="47.471387051045895" lon="11.042470363900065">
        <ele>747.562255859375</ele>
        <time>2013-08-24T08:40:50Z</time>
      </trkpt>
      <trkpt lat="47.471254784613848" lon="11.041820682585239">
        <ele>747.08154296875</ele>
        <time>2013-08-24T08:40:59Z</time>
      </trkpt>
      <trkpt lat="47.471095360815525" lon="11.040993556380272">
        <ele>747.08154296875</ele>
        <time>2013-08-24T08:41:10Z</time>
      </trkpt>
      <trkpt lat="47.470985725522041" lon="11.04060254059732">
        <ele>747.562255859375</ele>
        <time>2013-08-24T08:41:17Z</time>
      </trkpt>
      <trkpt lat="47.47094658203423" lon="11.040389891713858">
        <ele>748.043212890625</ele>
        <time>2013-08-24T08:41:23Z</time>
      </trkpt>
      <trkpt lat="47.470916574820876" lon="11.040387293323874">
        <ele>748.523681640625</ele>
        <time>2013-08-24T08:41:30Z</time>
      </trkpt>
      <trkpt lat="47.470840383321047" lon="11.040271036326885">
        <ele>748.523681640625</ele>
        <time>2013-08-24T08:41:35Z</time>
      </trkpt>
      <trkpt lat="47.470803586766124" lon="11.040161484852433">
        <ele>748.523681640625</ele>
        <time>2013-08-24T08:41:37Z</time>
      </trkpt>
      <trkpt lat="47.470751283690333" lon="11.039979932829738">
        <ele>749.00439453125</ele>
        <time>2013-08-24T08:41:40Z</time>
      </trkpt>
      <trkpt lat="47.470701914280653" lon="11.039563519880176">
        <ele>747.562255859375</ele>
        <time>2013-08-24T08:41:46Z</time>
      </trkpt>
      <trkpt lat="47.470735944807529" lon="11.03871401399374">
        <ele>746.60107421875</ele>
        <time>2013-08-24T08:41:56Z</time>
      </trkpt>
      <trkpt lat="47.470637373626232" lon="11.038063997402787">
        <ele>746.120361328125</ele>
        <time>2013-08-24T08:42:04Z</time>
      </trkpt>
      <trkpt lat="47.470605690032244" lon="11.037906333804131">
        <ele>745.6396484375</ele>
        <time>2013-08-24T08:42:06Z</time>
      </trkpt>
      <trkpt lat="47.470506113022566" lon="11.037290683016181">
        <ele>745.6396484375</ele>
        <time>2013-08-24T08:42:14Z</time>
      </trkpt>
      <trkpt lat="47.470426568761468" lon="11.036749631166458">
        <ele>746.120361328125</ele>
        <time>2013-08-24T08:42:21Z</time>
      </trkpt>
      <trkpt lat="47.470413660630584" lon="11.03651518933475">
        <ele>745.158935546875</ele>
        <time>2013-08-24T08:42:24Z</time>
      </trkpt>
      <trkpt lat="47.470539305359125" lon="11.03581253439188">
        <ele>744.67822265625</ele>
        <time>2013-08-24T08:42:33Z</time>
      </trkpt>
      <trkpt lat="47.470541652292013" lon="11.035732990130782">
        <ele>745.158935546875</ele>
        <time>2013-08-24T08:42:34Z</time>
      </trkpt>
      <trkpt lat="47.470466801896691" lon="11.035168301314116">
        <ele>745.6396484375</ele>
        <time>2013-08-24T08:42:42Z</time>
      </trkpt>
      <trkpt lat="47.47028642334044" lon="11.034587686881423">
        <ele>745.6396484375</ele>
        <time>2013-08-24T08:42:50Z</time>
      </trkpt>
      <trkpt lat="47.470167148858309" lon="11.03429825976491">
        <ele>744.67822265625</ele>
        <time>2013-08-24T08:42:54Z</time>
      </trkpt>
      <trkpt lat="47.469908483326435" lon="11.033797860145569">
        <ele>745.6396484375</ele>
        <time>2013-08-24T08:43:02Z</time>
      </trkpt>
      <trkpt lat="47.469850145280361" lon="11.033683614805341">
        <ele>745.6396484375</ele>
        <time>2013-08-24T08:43:04Z</time>
      </trkpt>
      <trkpt lat="47.469806978479028" lon="11.033277763053775">
        <ele>746.60107421875</ele>
        <time>2013-08-24T08:43:10Z</time>
      </trkpt>
      <trkpt lat="47.469843523576856" lon="11.033133091405034">
        <ele>746.120361328125</ele>
        <time>2013-08-24T08:43:12Z</time>
      </trkpt>
      <trkpt lat="47.469933461397886" lon="11.032242765650153">
        <ele>744.67822265625</ele>
        <time>2013-08-24T08:43:23Z</time>
      </trkpt>
      <trkpt lat="47.469993308186531" lon="11.031156135722995">
        <ele>745.158935546875</ele>
        <time>2013-08-24T08:43:36Z</time>
      </trkpt>
      <trkpt lat="47.469920301809907" lon="11.03041710332036">
        <ele>743.236328125</ele>
        <time>2013-08-24T08:43:44Z</time>
      </trkpt>
      <trkpt lat="47.469828436151147" lon="11.030061542987823">
        <ele>743.236328125</ele>
        <time>2013-08-24T08:43:48Z</time>
      </trkpt>
      <trkpt lat="47.469819635152817" lon="11.029624762013555">
        <ele>743.717041015625</ele>
        <time>2013-08-24T08:43:53Z</time>
      </trkpt>
      <trkpt lat="47.469952488318086" lon="11.029346818104386">
        <ele>744.19775390625</ele>
        <time>2013-08-24T08:43:57Z</time>
      </trkpt>
      <trkpt lat="47.470178715884686" lon="11.029247995465994">
        <ele>744.19775390625</ele>
        <time>2013-08-24T08:44:01Z</time>
      </trkpt>
      <trkpt lat="47.470241244882345" lon="11.029245397076011">
        <ele>744.19775390625</ele>
        <time>2013-08-24T08:44:02Z</time>
      </trkpt>
      <trkpt lat="47.470431346446276" lon="11.029267022386193">
        <ele>743.717041015625</ele>
        <time>2013-08-24T08:44:05Z</time>
      </trkpt>
      <trkpt lat="47.470710212364793" lon="11.029148753732443">
        <ele>743.717041015625</ele>
        <time>2013-08-24T08:44:10Z</time>
      </trkpt>
      <trkpt lat="47.470791768282652" lon="11.028921604156494">
        <ele>743.236328125</ele>
        <time>2013-08-24T08:44:13Z</time>
      </trkpt>
      <trkpt lat="47.470792690292001" lon="11.028834013268352">
        <ele>743.236328125</ele>
        <time>2013-08-24T08:44:14Z</time>
      </trkpt>
      <trkpt lat="47.470766790211201" lon="11.02858716621995">
        <ele>743.717041015625</ele>
        <time>2013-08-24T08:44:17Z</time>
      </trkpt>
      <trkpt lat="47.470775675028563" lon="11.028424808755517">
        <ele>742.755859375</ele>
        <time>2013-08-24T08:44:19Z</time>
      </trkpt>
      <trkpt lat="47.470784727483988" lon="11.027619475498796">
        <ele>745.6396484375</ele>
        <time>2013-08-24T08:44:29Z</time>
      </trkpt>
      <trkpt lat="47.470798389986157" lon="11.027119578793645">
        <ele>748.043212890625</ele>
        <time>2013-08-24T08:44:38Z</time>
      </trkpt>
      <trkpt lat="47.470818925648928" lon="11.027018241584301">
        <ele>748.043212890625</ele>
        <time>2013-08-24T08:44:41Z</time>
      </trkpt>
      <trkpt lat="47.470836360007524" lon="11.026997873559594">
        <ele>749.00439453125</ele>
        <time>2013-08-24T08:44:47Z</time>
      </trkpt>
      <trkpt lat="47.470836862921715" lon="11.026969710364938">
        <ele>748.043212890625</ele>
        <time>2013-08-24T08:45:20Z</time>
      </trkpt>
      <trkpt lat="47.470702333375812" lon="11.026715068146586">
        <ele>749.00439453125</ele>
        <time>2013-08-24T08:45:26Z</time>
      </trkpt>
      <trkpt lat="47.470677690580487" lon="11.026650108397007">
        <ele>749.9658203125</ele>
        <time>2013-08-24T08:45:28Z</time>
      </trkpt>
      <trkpt lat="47.470546178519726" lon="11.026417594403028">
        <ele>750.927001953125</ele>
        <time>2013-08-24T08:45:36Z</time>
      </trkpt>
      <trkpt lat="47.470388682559133" lon="11.026233108714223">
        <ele>753.330322265625</ele>
        <time>2013-08-24T08:45:44Z</time>
      </trkpt>
      <trkpt lat="47.470346940681338" lon="11.026015682145953">
        <ele>753.330322265625</ele>
        <time>2013-08-24T08:45:50Z</time>
      </trkpt>
      <trkpt lat="47.470327243208885" lon="11.025596922263503">
        <ele>753.330322265625</ele>
        <time>2013-08-24T08:45:58Z</time>
      </trkpt>
      <trkpt lat="47.47029522433877" lon="11.025288635864854">
        <ele>753.330322265625</ele>
        <time>2013-08-24T08:46:03Z</time>
      </trkpt>
      <trkpt lat="47.470187684521079" lon="11.024838611483574">
        <ele>752.849609375</ele>
        <time>2013-08-24T08:46:10Z</time>
      </trkpt>
      <trkpt lat="47.470120629295707" lon="11.02436495013535">
        <ele>753.330322265625</ele>
        <time>2013-08-24T08:46:17Z</time>
      </trkpt>
      <trkpt lat="47.470059441402555" lon="11.024047946557403">
        <ele>754.291748046875</ele>
        <time>2013-08-24T08:46:22Z</time>
      </trkpt>
      <trkpt lat="47.469960870221257" lon="11.023374460637569">
        <ele>754.772216796875</ele>
        <time>2013-08-24T08:46:34Z</time>
      </trkpt>
      <trkpt lat="47.469919798895717" lon="11.022821255028248">
        <ele>757.65625</ele>
        <time>2013-08-24T08:46:44Z</time>
      </trkpt>
      <trkpt lat="47.469863053411245" lon="11.02216268889606">
        <ele>760.059326171875</ele>
        <time>2013-08-24T08:46:56Z</time>
      </trkpt>
      <trkpt lat="47.469820221886039" lon="11.021323492750525">
        <ele>761.982177734375</ele>
        <time>2013-08-24T08:47:11Z</time>
      </trkpt>
      <trkpt lat="47.46972450055182" lon="11.020656879991293">
        <ele>762.462646484375</ele>
        <time>2013-08-24T08:47:22Z</time>
      </trkpt>
      <trkpt lat="47.469547893851995" lon="11.019964115694165">
        <ele>763.424072265625</ele>
        <time>2013-08-24T08:47:34Z</time>
      </trkpt>
      <trkpt lat="47.469354523345828" lon="11.019350811839104">
        <ele>764.8662109375</ele>
        <time>2013-08-24T08:47:46Z</time>
      </trkpt>
      <trkpt lat="47.469128966331482" lon="11.018787380307913">
        <ele>767.75</ele>
        <time>2013-08-24T08:48:00Z</time>
      </trkpt>
      <trkpt lat="47.468997118994594" lon="11.018499713391066">
        <ele>769.192138671875</ele>
        <time>2013-08-24T08:48:09Z</time>
      </trkpt>
      <trkpt lat="47.468842137604952" lon="11.018169969320297">
        <ele>772.075927734375</ele>
        <time>2013-08-24T08:48:20Z</time>
      </trkpt>
      <trkpt lat="47.468771981075406" lon="11.01787886582315">
        <ele>773.037353515625</ele>
        <time>2013-08-24T08:48:29Z</time>
      </trkpt>
      <trkpt lat="47.468667291104794" lon="11.017286097630858">
        <ele>775.921142578125</ele>
        <time>2013-08-24T08:48:46Z</time>
      </trkpt>
      <trkpt lat="47.468581460416317" lon="11.016714200377464">
        <ele>778.324462890625</ele>
        <time>2013-08-24T08:49:02Z</time>
      </trkpt>
      <trkpt lat="47.468489678576589" lon="11.016227547079325">
        <ele>779.766357421875</ele>
        <time>2013-08-24T08:49:16Z</time>
      </trkpt>
      <trkpt lat="47.468365207314491" lon="11.015690686181188">
        <ele>782.169921875</ele>
        <time>2013-08-24T08:49:31Z</time>
      </trkpt>
      <trkpt lat="47.468293039128184" lon="11.015362534672022">
        <ele>783.131103515625</ele>
        <time>2013-08-24T08:49:40Z</time>
      </trkpt>
      <trkpt lat="47.46820486150682" lon="11.014911085367203">
        <ele>785.053955078125</ele>
        <time>2013-08-24T08:49:52Z</time>
      </trkpt>
      <trkpt lat="47.46812716126442" lon="11.014354862272739">
        <ele>787.45703125</ele>
        <time>2013-08-24T08:50:07Z</time>
      </trkpt>
      <trkpt lat="47.468061028048396" lon="11.013883715495467">
        <ele>789.379638671875</ele>
        <time>2013-08-24T08:50:21Z</time>
      </trkpt>
      <trkpt lat="47.468008138239384" lon="11.013482809066772">
        <ele>791.782958984375</ele>
        <time>2013-08-24T08:50:35Z</time>
      </trkpt>
      <trkpt lat="47.467940915375948" lon="11.013100259006023">
        <ele>793.70556640625</ele>
        <time>2013-08-24T08:50:48Z</time>
      </trkpt>
      <trkpt lat="47.467723153531551" lon="11.01231487467885">
        <ele>797.0703125</ele>
        <time>2013-08-24T08:51:12Z</time>
      </trkpt>
      <trkpt lat="47.46763170696795" lon="11.011915309354663">
        <ele>799.4736328125</ele>
        <time>2013-08-24T08:51:25Z</time>
      </trkpt>
      <trkpt lat="47.467541014775634" lon="11.011368641629815">
        <ele>802.357421875</ele>
        <time>2013-08-24T08:51:43Z</time>
      </trkpt>
      <trkpt lat="47.467489717528224" lon="11.011005872860551">
        <ele>804.2802734375</ele>
        <time>2013-08-24T08:51:55Z</time>
      </trkpt>
      <trkpt lat="47.467448562383652" lon="11.010572528466582">
        <ele>806.683349609375</ele>
        <time>2013-08-24T08:52:09Z</time>
      </trkpt>
      <trkpt lat="47.467408329248428" lon="11.010128287598491">
        <ele>809.086669921875</ele>
        <time>2013-08-24T08:52:24Z</time>
      </trkpt>
      <trkpt lat="47.467394499108195" lon="11.009819749742746">
        <ele>811.00927734375</ele>
        <time>2013-08-24T08:52:34Z</time>
      </trkpt>
      <trkpt lat="47.46739374473691" lon="11.009536357596517">
        <ele>812.451416015625</ele>
        <time>2013-08-24T08:52:43Z</time>
      </trkpt>
      <trkpt lat="47.467421824112535" lon="11.009276015684009">
        <ele>813.893310546875</ele>
        <time>2013-08-24T08:52:51Z</time>
      </trkpt>
      <trkpt lat="47.467420902103186" lon="11.009164284914732">
        <ele>814.3740234375</ele>
        <time>2013-08-24T08:52:58Z</time>
      </trkpt>
      <trkpt lat="47.467443197965622" lon="11.009156657382846">
        <ele>814.3740234375</ele>
        <time>2013-08-24T08:53:10Z</time>
      </trkpt>
      <trkpt lat="47.467448897659779" lon="11.009148107841611">
        <ele>814.854736328125</ele>
        <time>2013-08-24T08:53:13Z</time>
      </trkpt>
      <trkpt lat="47.467460548505187" lon="11.00912849418819">
        <ele>814.3740234375</ele>
        <time>2013-08-24T08:53:16Z</time>
      </trkpt>
      <trkpt lat="47.467435402795672" lon="11.008976362645626">
        <ele>814.854736328125</ele>
        <time>2013-08-24T08:53:22Z</time>
      </trkpt>
      <trkpt lat="47.467301543802023" lon="11.008672937750816">
        <ele>816.77734375</ele>
        <time>2013-08-24T08:53:33Z</time>
      </trkpt>
      <trkpt lat="47.467163410037756" lon="11.008426006883383">
        <ele>820.141845703125</ele>
        <time>2013-08-24T08:53:44Z</time>
      </trkpt>
      <trkpt lat="47.467111609876156" lon="11.008238838985562">
        <ele>820.62255859375</ele>
        <time>2013-08-24T08:53:52Z</time>
      </trkpt>
      <trkpt lat="47.467051846906543" lon="11.00787372328341">
        <ele>823.506591796875</ele>
        <time>2013-08-24T08:54:06Z</time>
      </trkpt>
      <trkpt lat="47.46698428876698" lon="11.007686806842685">
        <ele>824.948486328125</ele>
        <time>2013-08-24T08:54:13Z</time>
      </trkpt>
      <trkpt lat="47.466861829161644" lon="11.007320350036025">
        <ele>827.351806640625</ele>
        <time>2013-08-24T08:54:28Z</time>
      </trkpt>
      <trkpt lat="47.466716319322586" lon="11.007042909041047">
        <ele>830.716552734375</ele>
        <time>2013-08-24T08:54:40Z</time>
      </trkpt>
      <trkpt lat="47.466558404266834" lon="11.006655832752585">
        <ele>833.600341796875</ele>
        <time>2013-08-24T08:54:57Z</time>
      </trkpt>
      <trkpt lat="47.466504089534283" lon="11.006510155275464">
        <ele>834.0810546875</ele>
        <time>2013-08-24T08:55:05Z</time>
      </trkpt>
      <trkpt lat="47.466485816985369" lon="11.006483249366283">
        <ele>834.561767578125</ele>
        <time>2013-08-24T08:55:16Z</time>
      </trkpt>
      <trkpt lat="47.466453462839127" lon="11.006483165547252">
        <ele>835.04248046875</ele>
        <time>2013-08-24T08:55:28Z</time>
      </trkpt>
      <trkpt lat="47.466443823650479" lon="11.006470760330558">
        <ele>835.04248046875</ele>
        <time>2013-08-24T08:56:19Z</time>
      </trkpt>
      <trkpt lat="47.466444661840796" lon="11.006472688168287">
        <ele>835.52294921875</ele>
        <time>2013-08-24T08:56:20Z</time>
      </trkpt>
      <trkpt lat="47.466430831700563" lon="11.006471430882812">
        <ele>835.04248046875</ele>
        <time>2013-08-24T08:56:23Z</time>
      </trkpt>
      <trkpt lat="47.466324549168348" lon="11.006310414522886">
        <ele>837.92626953125</ele>
        <time>2013-08-24T08:56:31Z</time>
      </trkpt>
      <trkpt lat="47.466164119541645" lon="11.006106650456786">
        <ele>837.92626953125</ele>
        <time>2013-08-24T08:56:41Z</time>
      </trkpt>
      <trkpt lat="47.465920457616448" lon="11.005946053192019">
        <ele>840.81005859375</ele>
        <time>2013-08-24T08:56:55Z</time>
      </trkpt>
      <trkpt lat="47.46570898219943" lon="11.005805321037769">
        <ele>842.73291015625</ele>
        <time>2013-08-24T08:57:07Z</time>
      </trkpt>
      <trkpt lat="47.46557604521513" lon="11.005625361576676">
        <ele>844.175048828125</ele>
        <time>2013-08-24T08:57:17Z</time>
      </trkpt>
      <trkpt lat="47.465510414913297" lon="11.005573142319918">
        <ele>845.616943359375</ele>
        <time>2013-08-24T08:57:22Z</time>
      </trkpt>
      <trkpt lat="47.465403294190764" lon="11.005474235862494">
        <ele>847.53955078125</ele>
        <time>2013-08-24T08:57:31Z</time>
      </trkpt>
      <trkpt lat="47.465328527614474" lon="11.00539879873395">
        <ele>848.500732421875</ele>
        <time>2013-08-24T08:57:35Z</time>
      </trkpt>
      <trkpt lat="47.465267674997449" lon="11.005325876176357">
        <ele>848.9814453125</ele>
        <time>2013-08-24T08:57:39Z</time>
      </trkpt>
      <trkpt lat="47.465232638642192" lon="11.005279272794724">
        <ele>848.9814453125</ele>
        <time>2013-08-24T08:57:41Z</time>
      </trkpt>
      <trkpt lat="47.465126188471913" lon="11.005009794607759">
        <ele>849.94287109375</ele>
        <time>2013-08-24T08:57:50Z</time>
      </trkpt>
      <trkpt lat="47.465130127966404" lon="11.004976099357009">
        <ele>850.423583984375</ele>
        <time>2013-08-24T08:57:51Z</time>
      </trkpt>
      <trkpt lat="47.465141778811812" lon="11.004883144050837">
        <ele>850.423583984375</ele>
        <time>2013-08-24T08:57:54Z</time>
      </trkpt>
      <trkpt lat="47.465179245918989" lon="11.004655323922634">
        <ele>851.384765625</ele>
        <time>2013-08-24T08:58:01Z</time>
      </trkpt>
      <trkpt lat="47.465190226212144" lon="11.004501767456532">
        <ele>852.345947265625</ele>
        <time>2013-08-24T08:58:06Z</time>
      </trkpt>
      <trkpt lat="47.465185532346368" lon="11.004253830760717">
        <ele>854.268798828125</ele>
        <time>2013-08-24T08:58:16Z</time>
      </trkpt>
      <trkpt lat="47.46513825841248" lon="11.00408292375505">
        <ele>854.749267578125</ele>
        <time>2013-08-24T08:58:23Z</time>
      </trkpt>
      <trkpt lat="47.465095343068242" lon="11.003998601809144">
        <ele>856.191162109375</ele>
        <time>2013-08-24T08:58:26Z</time>
      </trkpt>
      <trkpt lat="47.465044632554054" lon="11.003867592662573">
        <ele>856.191162109375</ele>
        <time>2013-08-24T08:58:33Z</time>
      </trkpt>
      <trkpt lat="47.465052343904972" lon="11.003871029242873">
        <ele>855.710693359375</ele>
        <time>2013-08-24T08:58:41Z</time>
      </trkpt>
      <trkpt lat="47.465052176266909" lon="11.003870023414493">
        <ele>852.345947265625</ele>
        <time>2013-08-24T08:59:00Z</time>
      </trkpt>
      <trkpt lat="47.465052176266909" lon="11.003869939595461">
        <ele>858.114013671875</ele>
        <time>2013-08-24T08:59:01Z</time>
      </trkpt>
      <trkpt lat="47.465052511543036" lon="11.00387086160481">
        <ele>855.710693359375</ele>
        <time>2013-08-24T08:59:04Z</time>
      </trkpt>
      <trkpt lat="47.464984115213156" lon="11.00368713028729">
        <ele>855.710693359375</ele>
        <time>2013-08-24T08:59:13Z</time>
      </trkpt>
      <trkpt lat="47.464836593717337" lon="11.003310531377792">
        <ele>855.710693359375</ele>
        <time>2013-08-24T08:59:23Z</time>
      </trkpt>
      <trkpt lat="47.464601481333375" lon="11.002795547246933">
        <ele>855.710693359375</ele>
        <time>2013-08-24T08:59:36Z</time>
      </trkpt>
      <trkpt lat="47.464438369497657" lon="11.002275785431266">
        <ele>858.594482421875</ele>
        <time>2013-08-24T08:59:50Z</time>
      </trkpt>
      <trkpt lat="47.464278778061271" lon="11.001697769388556">
        <ele>860.517333984375</ele>
        <time>2013-08-24T09:00:06Z</time>
      </trkpt>
      <trkpt lat="47.464267546311021" lon="11.00166323594749">
        <ele>860.517333984375</ele>
        <time>2013-08-24T09:00:07Z</time>
      </trkpt>
      <trkpt lat="47.46406814083457" lon="11.001178091391921">
        <ele>861.95947265625</ele>
        <time>2013-08-24T09:00:22Z</time>
      </trkpt>
      <trkpt lat="47.463950794190168" lon="11.000885060057044">
        <ele>863.4013671875</ele>
        <time>2013-08-24T09:00:33Z</time>
      </trkpt>
      <trkpt lat="47.463878961279988" lon="11.000630417838693">
        <ele>863.4013671875</ele>
        <time>2013-08-24T09:00:43Z</time>
      </trkpt>
      <trkpt lat="47.463993290439248" lon="11.00052916444838">
        <ele>864.362548828125</ele>
        <time>2013-08-24T09:00:50Z</time>
      </trkpt>
      <trkpt lat="47.4641253054142" lon="11.000474598258734">
        <ele>864.84326171875</ele>
        <time>2013-08-24T09:00:56Z</time>
      </trkpt>
      <trkpt lat="47.464288249611855" lon="11.000413158908486">
        <ele>865.323974609375</ele>
        <time>2013-08-24T09:01:03Z</time>
      </trkpt>
      <trkpt lat="47.464312976226211" lon="11.000284999608994">
        <ele>866.765869140625</ele>
        <time>2013-08-24T09:01:11Z</time>
      </trkpt>
      <trkpt lat="47.464299146085978" lon="11.000270582735538">
        <ele>867.72705078125</ele>
        <time>2013-08-24T09:01:12Z</time>
      </trkpt>
      <trkpt lat="47.464198144152761" lon="11.000218698754907">
        <ele>868.207763671875</ele>
        <time>2013-08-24T09:01:18Z</time>
      </trkpt>
      <trkpt lat="47.464000834152102" lon="11.000089114531875">
        <ele>871.091796875</ele>
        <time>2013-08-24T09:01:30Z</time>
      </trkpt>
      <trkpt lat="47.463824981823564" lon="11.00000630132854">
        <ele>871.091796875</ele>
        <time>2013-08-24T09:01:40Z</time>
      </trkpt>
      <trkpt lat="47.46377787552774" lon="10.999970594421029">
        <ele>872.53369140625</ele>
        <time>2013-08-24T09:01:43Z</time>
      </trkpt>
      <trkpt lat="47.46366404928267" lon="10.999892558902502">
        <ele>873.9755859375</ele>
        <time>2013-08-24T09:01:50Z</time>
      </trkpt>
      <trkpt lat="47.463510828092694" lon="10.999821983277798">
        <ele>875.41748046875</ele>
        <time>2013-08-24T09:02:00Z</time>
      </trkpt>
      <trkpt lat="47.463404545560479" lon="10.999773200601339">
        <ele>878.3017578125</ele>
        <time>2013-08-24T09:02:08Z</time>
      </trkpt>
      <trkpt lat="47.463268088176847" lon="10.999673372134566">
        <ele>880.705078125</ele>
        <time>2013-08-24T09:02:18Z</time>
      </trkpt>
      <trkpt lat="47.463188376277685" lon="10.999635988846421">
        <ele>882.14697265625</ele>
        <time>2013-08-24T09:02:25Z</time>
      </trkpt>
      <trkpt lat="47.463154597207904" lon="10.99962467327714">
        <ele>883.108154296875</ele>
        <time>2013-08-24T09:02:28Z</time>
      </trkpt>
      <trkpt lat="47.463017972186208" lon="10.999592654407024">
        <ele>884.55029296875</ele>
        <time>2013-08-24T09:02:38Z</time>
      </trkpt>
      <trkpt lat="47.462891908362508" lon="10.999574968591332">
        <ele>886.953369140625</ele>
        <time>2013-08-24T09:02:46Z</time>
      </trkpt>
      <trkpt lat="47.462753942236304" lon="10.99965937435627">
        <ele>888.876220703125</ele>
        <time>2013-08-24T09:02:56Z</time>
      </trkpt>
      <trkpt lat="47.462741201743484" lon="10.999669013544917">
        <ele>887.914794921875</ele>
        <time>2013-08-24T09:02:57Z</time>
      </trkpt>
      <trkpt lat="47.462666602805257" lon="10.999820223078132">
        <ele>890.798583984375</ele>
        <time>2013-08-24T09:03:06Z</time>
      </trkpt>
      <trkpt lat="47.462609857320786" lon="11.000021724030375">
        <ele>893.2021484375</ele>
        <time>2013-08-24T09:03:17Z</time>
      </trkpt>
      <trkpt lat="47.462539365515113" lon="11.00017343647778">
        <ele>895.60546875</ele>
        <time>2013-08-24T09:03:28Z</time>
      </trkpt>
      <trkpt lat="47.462444566190243" lon="11.000363873317838">
        <ele>898.0087890625</ele>
        <time>2013-08-24T09:03:39Z</time>
      </trkpt>
      <trkpt lat="47.462354209274054" lon="11.000556573271751">
        <ele>899.931396484375</ele>
        <time>2013-08-24T09:03:50Z</time>
      </trkpt>
      <trkpt lat="47.462286567315459" lon="11.000639721751213">
        <ele>901.85400390625</ele>
        <time>2013-08-24T09:03:56Z</time>
      </trkpt>
      <trkpt lat="47.462212052196264" lon="11.000701496377587">
        <ele>902.815185546875</ele>
        <time>2013-08-24T09:04:02Z</time>
      </trkpt>
      <trkpt lat="47.462087329477072" lon="11.000731252133846">
        <ele>903.776611328125</ele>
        <time>2013-08-24T09:04:11Z</time>
      </trkpt>
      <trkpt lat="47.461956236511469" lon="11.000654557719827">
        <ele>905.218505859375</ele>
        <time>2013-08-24T09:04:18Z</time>
      </trkpt>
      <trkpt lat="47.461926564574242" lon="11.000614743679762">
        <ele>906.1796875</ele>
        <time>2013-08-24T09:04:20Z</time>
      </trkpt>
      <trkpt lat="47.461901921778917" lon="11.000569397583604">
        <ele>906.1796875</ele>
        <time>2013-08-24T09:04:22Z</time>
      </trkpt>
      <trkpt lat="47.461739061400294" lon="11.000452302396297">
        <ele>908.583251953125</ele>
        <time>2013-08-24T09:04:34Z</time>
      </trkpt>
      <trkpt lat="47.461724393069744" lon="11.000446686521173">
        <ele>909.06396484375</ele>
        <time>2013-08-24T09:04:35Z</time>
      </trkpt>
      <trkpt lat="47.461616350337863" lon="11.000369908288121">
        <ele>910.025146484375</ele>
        <time>2013-08-24T09:04:43Z</time>
      </trkpt>
      <trkpt lat="47.461513336747885" lon="11.000254740938544">
        <ele>910.986572265625</ele>
        <time>2013-08-24T09:04:51Z</time>
      </trkpt>
      <trkpt lat="47.461431361734867" lon="11.000190619379282">
        <ele>912.9091796875</ele>
        <time>2013-08-24T09:04:57Z</time>
      </trkpt>
      <trkpt lat="47.46132985688746" lon="11.000117110088468">
        <ele>914.35107421875</ele>
        <time>2013-08-24T09:05:05Z</time>
      </trkpt>
      <trkpt lat="47.461198596283793" lon="11.000020802021027">
        <ele>914.831787109375</ele>
        <time>2013-08-24T09:05:14Z</time>
      </trkpt>
      <trkpt lat="47.461090385913849" lon="10.999881997704506">
        <ele>917.235107421875</ele>
        <time>2013-08-24T09:05:24Z</time>
      </trkpt>
      <trkpt lat="47.460996424779296" lon="10.999723076820374">
        <ele>918.677001953125</ele>
        <time>2013-08-24T09:05:34Z</time>
      </trkpt>
      <trkpt lat="47.460921574383974" lon="10.999625762924552">
        <ele>918.677001953125</ele>
        <time>2013-08-24T09:05:40Z</time>
      </trkpt>
      <trkpt lat="47.46079919859767" lon="10.999520653858781">
        <ele>920.599609375</ele>
        <time>2013-08-24T09:05:48Z</time>
      </trkpt>
      <trkpt lat="47.460683779790998" lon="10.999392746016383">
        <ele>921.560791015625</ele>
        <time>2013-08-24T09:05:56Z</time>
      </trkpt>
      <trkpt lat="47.460566600784659" lon="10.999329965561628">
        <ele>923.483642578125</ele>
        <time>2013-08-24T09:06:04Z</time>
      </trkpt>
      <trkpt lat="47.460551094263792" lon="10.999319991096854">
        <ele>923.483642578125</ele>
        <time>2013-08-24T09:06:05Z</time>
      </trkpt>
      <trkpt lat="47.460455624386668" lon="10.99921521730721">
        <ele>924.445068359375</ele>
        <time>2013-08-24T09:06:12Z</time>
      </trkpt>
      <trkpt lat="47.460410697385669" lon="10.99909208714962">
        <ele>926.36767578125</ele>
        <time>2013-08-24T09:06:18Z</time>
      </trkpt>
      <trkpt lat="47.460355963557959" lon="10.998986810445786">
        <ele>927.3291015625</ele>
        <time>2013-08-24T09:06:24Z</time>
      </trkpt>
      <trkpt lat="47.46028907597065" lon="10.998925035819411">
        <ele>929.732177734375</ele>
        <time>2013-08-24T09:06:31Z</time>
      </trkpt>
      <trkpt lat="47.460242304950953" lon="10.998808443546295">
        <ele>930.693603515625</ele>
        <time>2013-08-24T09:06:37Z</time>
      </trkpt>
      <trkpt lat="47.460183296352625" lon="10.998681960627437">
        <ele>932.135498046875</ele>
        <time>2013-08-24T09:06:44Z</time>
      </trkpt>
      <trkpt lat="47.460110625252128" lon="10.998528320342302">
        <ele>934.05810546875</ele>
        <time>2013-08-24T09:06:53Z</time>
      </trkpt>
      <trkpt lat="47.4600222799927" lon="10.99844760261476">
        <ele>934.538818359375</ele>
        <time>2013-08-24T09:07:00Z</time>
      </trkpt>
      <trkpt lat="47.459953716024756" lon="10.998338721692562">
        <ele>935.5</ele>
        <time>2013-08-24T09:07:07Z</time>
      </trkpt>
      <trkpt lat="47.459824299439788" lon="10.998237216845155">
        <ele>936.94189453125</ele>
        <time>2013-08-24T09:07:16Z</time>
      </trkpt>
      <trkpt lat="47.459664791822433" lon="10.99824576638639">
        <ele>939.34521484375</ele>
        <time>2013-08-24T09:07:25Z</time>
      </trkpt>
      <trkpt lat="47.459553647786379" lon="10.998223135247827">
        <ele>941.26806640625</ele>
        <time>2013-08-24T09:07:34Z</time>
      </trkpt>
      <trkpt lat="47.459426242858171" lon="10.998164545744658">
        <ele>942.710205078125</ele>
        <time>2013-08-24T09:07:41Z</time>
      </trkpt>
      <trkpt lat="47.459296407178044" lon="10.998089443892241">
        <ele>943.190673828125</ele>
        <time>2013-08-24T09:07:49Z</time>
      </trkpt>
      <trkpt lat="47.459182748571038" lon="10.998157169669867">
        <ele>945.11328125</ele>
        <time>2013-08-24T09:07:58Z</time>
      </trkpt>
      <trkpt lat="47.459106221795082" lon="10.998175526037812">
        <ele>946.555419921875</ele>
        <time>2013-08-24T09:08:04Z</time>
      </trkpt>
      <trkpt lat="47.459056600928307" lon="10.9981485363096">
        <ele>947.035888671875</ele>
        <time>2013-08-24T09:08:08Z</time>
      </trkpt>
      <trkpt lat="47.459021816030145" lon="10.998047366738319">
        <ele>947.997314453125</ele>
        <time>2013-08-24T09:08:13Z</time>
      </trkpt>
      <trkpt lat="47.458977643400431" lon="10.997919291257858">
        <ele>949.439208984375</ele>
        <time>2013-08-24T09:08:18Z</time>
      </trkpt>
      <trkpt lat="47.458967082202435" lon="10.997755005955696">
        <ele>949.919921875</ele>
        <time>2013-08-24T09:08:24Z</time>
      </trkpt>
      <trkpt lat="47.458906816318631" lon="10.997608238831162">
        <ele>950.881103515625</ele>
        <time>2013-08-24T09:08:29Z</time>
      </trkpt>
      <trkpt lat="47.458816710859537" lon="10.997521234676242">
        <ele>951.36181640625</ele>
        <time>2013-08-24T09:08:35Z</time>
      </trkpt>
      <trkpt lat="47.458796259015799" lon="10.997495334595442">
        <ele>951.842529296875</ele>
        <time>2013-08-24T09:08:37Z</time>
      </trkpt>
      <trkpt lat="47.458811430260539" lon="10.997397936880589">
        <ele>952.322998046875</ele>
        <time>2013-08-24T09:08:43Z</time>
      </trkpt>
      <trkpt lat="47.458871444687247" lon="10.997295007109642">
        <ele>954.245849609375</ele>
        <time>2013-08-24T09:08:49Z</time>
      </trkpt>
      <trkpt lat="47.458908911794424" lon="10.997233064845204">
        <ele>954.245849609375</ele>
        <time>2013-08-24T09:08:52Z</time>
      </trkpt>
      <trkpt lat="47.458937913179398" lon="10.997104486450553">
        <ele>955.687744140625</ele>
        <time>2013-08-24T09:08:57Z</time>
      </trkpt>
      <trkpt lat="47.458939338102937" lon="10.997005915269256">
        <ele>956.649169921875</ele>
        <time>2013-08-24T09:09:01Z</time>
      </trkpt>
      <trkpt lat="47.458983846008778" lon="10.996799720451236">
        <ele>958.57177734375</ele>
        <time>2013-08-24T09:09:10Z</time>
      </trkpt>
      <trkpt lat="47.45899323374033" lon="10.996629651635885">
        <ele>960.494384765625</ele>
        <time>2013-08-24T09:09:17Z</time>
      </trkpt>
      <trkpt lat="47.459080154076219" lon="10.996432676911354">
        <ele>961.9365234375</ele>
        <time>2013-08-24T09:09:27Z</time>
      </trkpt>
      <trkpt lat="47.459079651162028" lon="10.996283981949091">
        <ele>963.85888671875</ele>
        <time>2013-08-24T09:09:35Z</time>
      </trkpt>
      <trkpt lat="47.459059786051512" lon="10.996273001655936">
        <ele>964.339599609375</ele>
        <time>2013-08-24T09:09:43Z</time>
      </trkpt>
      <trkpt lat="47.458959957584739" lon="10.996373584493995">
        <ele>965.78173828125</ele>
        <time>2013-08-24T09:09:52Z</time>
      </trkpt>
      <trkpt lat="47.458829618990421" lon="10.996415577828884">
        <ele>967.7041015625</ele>
        <time>2013-08-24T09:10:01Z</time>
      </trkpt>
      <trkpt lat="47.458690060302615" lon="10.996441645547748">
        <ele>970.107421875</ele>
        <time>2013-08-24T09:10:12Z</time>
      </trkpt>
      <trkpt lat="47.458567349240184" lon="10.99644860252738">
        <ele>971.54931640625</ele>
        <time>2013-08-24T09:10:22Z</time>
      </trkpt>
      <trkpt lat="47.458473807200789" lon="10.996465031057596">
        <ele>972.510986328125</ele>
        <time>2013-08-24T09:10:30Z</time>
      </trkpt>
      <trkpt lat="47.458386970683932" lon="10.996461762115359">
        <ele>974.43359375</ele>
        <time>2013-08-24T09:10:37Z</time>
      </trkpt>
      <trkpt lat="47.458347072824836" lon="10.996447512879968">
        <ele>974.43359375</ele>
        <time>2013-08-24T09:10:39Z</time>
      </trkpt>
      <trkpt lat="47.458203742280602" lon="10.996356820687652">
        <ele>975.394775390625</ele>
        <time>2013-08-24T09:10:49Z</time>
      </trkpt>
      <trkpt lat="47.458206843584776" lon="10.996344415470958">
        <ele>976.356201171875</ele>
        <time>2013-08-24T09:11:00Z</time>
      </trkpt>
      <trkpt lat="47.458176417276263" lon="10.996310384944081">
        <ele>977.798095703125</ele>
        <time>2013-08-24T09:11:07Z</time>
      </trkpt>
      <trkpt lat="47.458051946014166" lon="10.996174346655607">
        <ele>978.759521484375</ele>
        <time>2013-08-24T09:11:17Z</time>
      </trkpt>
      <trkpt lat="47.457929402589798" lon="10.995991453528404">
        <ele>980.68212890625</ele>
        <time>2013-08-24T09:11:28Z</time>
      </trkpt>
      <trkpt lat="47.457863772287965" lon="10.995858265087008">
        <ele>982.604736328125</ele>
        <time>2013-08-24T09:11:38Z</time>
      </trkpt>
      <trkpt lat="47.457838458940387" lon="10.995723903179169">
        <ele>984.046630859375</ele>
        <time>2013-08-24T09:11:45Z</time>
      </trkpt>
      <trkpt lat="47.457744497805834" lon="10.995650561526418">
        <ele>985.008056640625</ele>
        <time>2013-08-24T09:11:54Z</time>
      </trkpt>
      <trkpt lat="47.457659002393484" lon="10.995605802163482">
        <ele>986.930419921875</ele>
        <time>2013-08-24T09:12:01Z</time>
      </trkpt>
      <trkpt lat="47.45763192884624" lon="10.995560036972165">
        <ele>987.4111328125</ele>
        <time>2013-08-24T09:12:04Z</time>
      </trkpt>
      <trkpt lat="47.457626732066274" lon="10.995373204350471">
        <ele>989.333984375</ele>
        <time>2013-08-24T09:12:14Z</time>
      </trkpt>
      <trkpt lat="47.45766319334507" lon="10.995191317051649">
        <ele>990.77587890625</ele>
        <time>2013-08-24T09:12:24Z</time>
      </trkpt>
      <trkpt lat="47.457673754543066" lon="10.99516985937953">
        <ele>990.29541015625</ele>
        <time>2013-08-24T09:12:26Z</time>
      </trkpt>
      <trkpt lat="47.457664785906672" lon="10.995132643729448">
        <ele>990.29541015625</ele>
        <time>2013-08-24T09:12:34Z</time>
      </trkpt>
      <trkpt lat="47.457651123404503" lon="10.995077239349484">
        <ele>990.77587890625</ele>
        <time>2013-08-24T09:12:41Z</time>
      </trkpt>
      <trkpt lat="47.457656152546406" lon="10.994972717016935">
        <ele>991.7373046875</ele>
        <time>2013-08-24T09:12:49Z</time>
      </trkpt>
      <trkpt lat="47.457653218880296" lon="10.994963413104415">
        <ele>992.218017578125</ele>
        <time>2013-08-24T09:12:51Z</time>
      </trkpt>
      <trkpt lat="47.457671323791146" lon="10.994843803346157">
        <ele>992.218017578125</ele>
        <time>2013-08-24T09:12:58Z</time>
      </trkpt>
      <trkpt lat="47.457673000171781" lon="10.994659401476383">
        <ele>991.7373046875</ele>
        <time>2013-08-24T09:13:04Z</time>
      </trkpt>
      <trkpt lat="47.457699570804834" lon="10.994324795901775">
        <ele>990.77587890625</ele>
        <time>2013-08-24T09:13:13Z</time>
      </trkpt>
      <trkpt lat="47.457695882767439" lon="10.993909807875752">
        <ele>987.891845703125</ele>
        <time>2013-08-24T09:13:19Z</time>
      </trkpt>
      <trkpt lat="47.45765833184123" lon="10.993586014956236">
        <ele>986.930419921875</ele>
        <time>2013-08-24T09:13:21Z</time>
      </trkpt>
      <trkpt lat="47.457630587741733" lon="10.993343191221356">
        <ele>985.008056640625</ele>
        <time>2013-08-24T09:13:23Z</time>
      </trkpt>
      <trkpt lat="47.457513576373458" lon="10.992688480764627">
        <ele>983.085205078125</ele>
        <time>2013-08-24T09:13:29Z</time>
      </trkpt>
      <trkpt lat="47.457503601908684" lon="10.992649672552943">
        <ele>982.604736328125</ele>
        <time>2013-08-24T09:13:30Z</time>
      </trkpt>
      <trkpt lat="47.457397654652596" lon="10.992524195462465">
        <ele>982.1240234375</ele>
        <time>2013-08-24T09:13:35Z</time>
      </trkpt>
      <trkpt lat="47.457365971058607" lon="10.992399137467146">
        <ele>981.643310546875</ele>
        <time>2013-08-24T09:13:38Z</time>
      </trkpt>
      <trkpt lat="47.457240577787161" lon="10.9923739079386">
        <ele>980.201416015625</ele>
        <time>2013-08-24T09:13:45Z</time>
      </trkpt>
      <trkpt lat="47.457142844796181" lon="10.992336608469486">
        <ele>980.68212890625</ele>
        <time>2013-08-24T09:13:48Z</time>
      </trkpt>
      <trkpt lat="47.457023402675986" lon="10.992178525775671">
        <ele>979.720703125</ele>
        <time>2013-08-24T09:13:53Z</time>
      </trkpt>
      <trkpt lat="47.457101186737418" lon="10.991984065622091">
        <ele>979.720703125</ele>
        <time>2013-08-24T09:13:59Z</time>
      </trkpt>
      <trkpt lat="47.457104874774814" lon="10.991967720910907">
        <ele>979.720703125</ele>
        <time>2013-08-24T09:14:00Z</time>
      </trkpt>
      <trkpt lat="47.457126500084996" lon="10.991940479725599">
        <ele>979.239990234375</ele>
        <time>2013-08-24T09:14:02Z</time>
      </trkpt>
      <trkpt lat="47.457227585837245" lon="10.991635378450155">
        <ele>977.317626953125</ele>
        <time>2013-08-24T09:14:09Z</time>
      </trkpt>
      <trkpt lat="47.457173857837915" lon="10.991213098168373">
        <ele>974.914306640625</ele>
        <time>2013-08-24T09:14:15Z</time>
      </trkpt>
      <trkpt lat="47.457106802612543" lon="10.990976896136999">
        <ele>974.914306640625</ele>
        <time>2013-08-24T09:14:19Z</time>
      </trkpt>
      <trkpt lat="47.45707930997014" lon="10.990837505087256">
        <ele>973.952880859375</ele>
        <time>2013-08-24T09:14:21Z</time>
      </trkpt>
      <trkpt lat="47.457057600840926" lon="10.990584455430508">
        <ele>973.952880859375</ele>
        <time>2013-08-24T09:14:26Z</time>
      </trkpt>
      <trkpt lat="47.456933381035924" lon="10.990614462643862">
        <ele>973.472412109375</ele>
        <time>2013-08-24T09:14:33Z</time>
      </trkpt>
      <trkpt lat="47.456913432106376" lon="10.99061924032867">
        <ele>973.952880859375</ele>
        <time>2013-08-24T09:14:34Z</time>
      </trkpt>
      <trkpt lat="47.456856267526746" lon="10.990606248378754">
        <ele>973.952880859375</ele>
        <time>2013-08-24T09:14:41Z</time>
      </trkpt>
      <trkpt lat="47.456927848979831" lon="10.9904795140028">
        <ele>972.99169921875</ele>
        <time>2013-08-24T09:15:44Z</time>
      </trkpt>
      <trkpt lat="47.4570123385638" lon="10.990442465990782">
        <ele>973.472412109375</ele>
        <time>2013-08-24T09:15:46Z</time>
      </trkpt>
      <trkpt lat="47.45718190446496" lon="10.99028212018311">
        <ele>972.99169921875</ele>
        <time>2013-08-24T09:15:52Z</time>
      </trkpt>
      <trkpt lat="47.457113759592175" lon="10.990031417459249">
        <ele>972.510986328125</ele>
        <time>2013-08-24T09:15:57Z</time>
      </trkpt>
      <trkpt lat="47.457149047404528" lon="10.98991222679615">
        <ele>972.0302734375</ele>
        <time>2013-08-24T09:16:01Z</time>
      </trkpt>
      <trkpt lat="47.457143515348434" lon="10.989874172955751">
        <ele>972.510986328125</ele>
        <time>2013-08-24T09:16:02Z</time>
      </trkpt>
      <trkpt lat="47.456992054358125" lon="10.989563288167119">
        <ele>974.43359375</ele>
        <time>2013-08-24T09:16:11Z</time>
      </trkpt>
      <trkpt lat="47.456850567832589" lon="10.989307556301355">
        <ele>973.472412109375</ele>
        <time>2013-08-24T09:16:18Z</time>
      </trkpt>
      <trkpt lat="47.456741603091359" lon="10.989141678437591">
        <ele>971.06884765625</ele>
        <time>2013-08-24T09:16:21Z</time>
      </trkpt>
      <trkpt lat="47.456612605601549" lon="10.988915450870991">
        <ele>968.66552734375</ele>
        <time>2013-08-24T09:16:25Z</time>
      </trkpt>
      <trkpt lat="47.45647438801825" lon="10.988531392067671">
        <ele>968.184814453125</ele>
        <time>2013-08-24T09:16:30Z</time>
      </trkpt>
      <trkpt lat="47.456311611458659" lon="10.988249341025949">
        <ele>969.146240234375</ele>
        <time>2013-08-24T09:16:36Z</time>
      </trkpt>
      <trkpt lat="47.456181859597564" lon="10.987976342439651">
        <ele>969.146240234375</ele>
        <time>2013-08-24T09:16:44Z</time>
      </trkpt>
      <trkpt lat="47.456139279529452" lon="10.987778445705771">
        <ele>969.626953125</ele>
        <time>2013-08-24T09:16:51Z</time>
      </trkpt>
      <trkpt lat="47.45601455681026" lon="10.98765917122364">
        <ele>970.588134765625</ele>
        <time>2013-08-24T09:16:58Z</time>
      </trkpt>
      <trkpt lat="47.455909866839647" lon="10.987556744366884">
        <ele>972.510986328125</ele>
        <time>2013-08-24T09:17:07Z</time>
      </trkpt>
      <trkpt lat="47.455888241529465" lon="10.987534699961543">
        <ele>972.510986328125</ele>
        <time>2013-08-24T09:17:09Z</time>
      </trkpt>
      <trkpt lat="47.455835435539484" lon="10.987439481541514">
        <ele>973.472412109375</ele>
        <time>2013-08-24T09:17:16Z</time>
      </trkpt>
      <trkpt lat="47.455831160768867" lon="10.987417185679078">
        <ele>973.952880859375</ele>
        <time>2013-08-24T09:17:17Z</time>
      </trkpt>
      <trkpt lat="47.455668300390244" lon="10.987314255908132">
        <ele>974.914306640625</ele>
        <time>2013-08-24T09:17:28Z</time>
      </trkpt>
      <trkpt lat="47.455632677301764" lon="10.98729070276022">
        <ele>974.914306640625</ele>
        <time>2013-08-24T09:17:31Z</time>
      </trkpt>
      <trkpt lat="47.455515079200268" lon="10.987273100763559">
        <ele>976.356201171875</ele>
        <time>2013-08-24T09:17:39Z</time>
      </trkpt>
      <trkpt lat="47.455482054501772" lon="10.987252397462726">
        <ele>976.8369140625</ele>
        <time>2013-08-24T09:17:41Z</time>
      </trkpt>
      <trkpt lat="47.455414747819304" lon="10.987224066630006">
        <ele>976.8369140625</ele>
        <time>2013-08-24T09:17:46Z</time>
      </trkpt>
      <trkpt lat="47.455281056463718" lon="10.987323559820652">
        <ele>978.27880859375</ele>
        <time>2013-08-24T09:17:55Z</time>
      </trkpt>
      <trkpt lat="47.455168152227998" lon="10.9874471090734">
        <ele>979.239990234375</ele>
        <time>2013-08-24T09:18:02Z</time>
      </trkpt>
      <trkpt lat="47.455107467249036" lon="10.987544925883412">
        <ele>980.201416015625</ele>
        <time>2013-08-24T09:18:07Z</time>
      </trkpt>
      <trkpt lat="47.455099923536181" lon="10.987636623904109">
        <ele>980.201416015625</ele>
        <time>2013-08-24T09:18:12Z</time>
      </trkpt>
      <trkpt lat="47.45498601347208" lon="10.987783810123801">
        <ele>981.643310546875</ele>
        <time>2013-08-24T09:18:22Z</time>
      </trkpt>
      <trkpt lat="47.454969836398959" lon="10.987808452919126">
        <ele>982.1240234375</ele>
        <time>2013-08-24T09:18:24Z</time>
      </trkpt>
      <trkpt lat="47.454908648505807" lon="10.987940635532141">
        <ele>982.604736328125</ele>
        <time>2013-08-24T09:18:31Z</time>
      </trkpt>
      <trkpt lat="47.454819129779935" lon="10.987965110689402">
        <ele>983.085205078125</ele>
        <time>2013-08-24T09:18:38Z</time>
      </trkpt>
      <trkpt lat="47.454771688207984" lon="10.987961338832974">
        <ele>983.56591796875</ele>
        <time>2013-08-24T09:18:41Z</time>
      </trkpt>
      <trkpt lat="47.454614695161581" lon="10.98801389336586">
        <ele>984.52734375</ele>
        <time>2013-08-24T09:18:50Z</time>
      </trkpt>
      <trkpt lat="47.454486954957247" lon="10.988057982176542">
        <ele>986.449951171875</ele>
        <time>2013-08-24T09:18:57Z</time>
      </trkpt>
      <trkpt lat="47.45435711927712" lon="10.988068375736475">
        <ele>987.4111328125</ele>
        <time>2013-08-24T09:19:05Z</time>
      </trkpt>
      <trkpt lat="47.454235581681132" lon="10.988115398213267">
        <ele>988.372802734375</ele>
        <time>2013-08-24T09:19:13Z</time>
      </trkpt>
      <trkpt lat="47.454178165644407" lon="10.988164516165853">
        <ele>988.372802734375</ele>
        <time>2013-08-24T09:19:17Z</time>
      </trkpt>
      <trkpt lat="47.454109769314528" lon="10.988195445388556">
        <ele>988.372802734375</ele>
        <time>2013-08-24T09:19:21Z</time>
      </trkpt>
      <trkpt lat="47.45391589589417" lon="10.988196618855">
        <ele>989.333984375</ele>
        <time>2013-08-24T09:19:32Z</time>
      </trkpt>
      <trkpt lat="47.453853199258447" lon="10.988168874755502">
        <ele>990.29541015625</ele>
        <time>2013-08-24T09:19:36Z</time>
      </trkpt>
      <trkpt lat="47.453685561195016" lon="10.98808329552412">
        <ele>991.256591796875</ele>
        <time>2013-08-24T09:19:45Z</time>
      </trkpt>
      <trkpt lat="47.453570896759629" lon="10.987927978858352">
        <ele>992.69873046875</ele>
        <time>2013-08-24T09:19:54Z</time>
      </trkpt>
      <trkpt lat="47.453444916754961" lon="10.987824881449342">
        <ele>994.140625</ele>
        <time>2013-08-24T09:20:03Z</time>
      </trkpt>
      <trkpt lat="47.453328827396035" lon="10.987762603908777">
        <ele>995.101806640625</ele>
        <time>2013-08-24T09:20:13Z</time>
      </trkpt>
      <trkpt lat="47.453215839341283" lon="10.987728908658028">
        <ele>995.58251953125</ele>
        <time>2013-08-24T09:20:21Z</time>
      </trkpt>
      <trkpt lat="47.453171331435442" lon="10.987723795697093">
        <ele>996.5439453125</ele>
        <time>2013-08-24T09:20:24Z</time>
      </trkpt>
      <trkpt lat="47.453039148822427" lon="10.987701835110784">
        <ele>997.0244140625</ele>
        <time>2013-08-24T09:20:33Z</time>
      </trkpt>
      <trkpt lat="47.452889531850815" lon="10.987630588933825">
        <ele>999.427734375</ele>
        <time>2013-08-24T09:20:45Z</time>
      </trkpt>
      <trkpt lat="47.45284141972661" lon="10.98758096806705">
        <ele>1000.38916015625</ele>
        <time>2013-08-24T09:20:49Z</time>
      </trkpt>
      <trkpt lat="47.452691551297903" lon="10.987505363300443">
        <ele>1001.350341796875</ele>
        <time>2013-08-24T09:20:58Z</time>
      </trkpt>
      <trkpt lat="47.452537911012769" lon="10.987457167357206">
        <ele>1002.792236328125</ele>
        <time>2013-08-24T09:21:08Z</time>
      </trkpt>
      <trkpt lat="47.452500779181719" lon="10.987422717735171">
        <ele>1004.234619140625</ele>
        <time>2013-08-24T09:21:11Z</time>
      </trkpt>
      <trkpt lat="47.452340936288238" lon="10.987266730517149">
        <ele>1005.676513671875</ele>
        <time>2013-08-24T09:21:24Z</time>
      </trkpt>
      <trkpt lat="47.452292907983065" lon="10.987222893163562">
        <ele>1006.6376953125</ele>
        <time>2013-08-24T09:21:28Z</time>
      </trkpt>
      <trkpt lat="47.452182685956359" lon="10.987125327810645">
        <ele>1007.118408203125</ele>
        <time>2013-08-24T09:21:36Z</time>
      </trkpt>
      <trkpt lat="47.452072631567717" lon="10.986974872648716">
        <ele>1009.041015625</ele>
        <time>2013-08-24T09:21:45Z</time>
      </trkpt>
      <trkpt lat="47.452063076198101" lon="10.986951990053058">
        <ele>1008.560302734375</ele>
        <time>2013-08-24T09:21:46Z</time>
      </trkpt>
      <trkpt lat="47.451919158920646" lon="10.986963976174593">
        <ele>1009.521728515625</ele>
        <time>2013-08-24T09:21:54Z</time>
      </trkpt>
      <trkpt lat="47.451743222773075" lon="10.987020554021001">
        <ele>1010.002197265625</ele>
        <time>2013-08-24T09:22:02Z</time>
      </trkpt>
      <trkpt lat="47.451705420389771" lon="10.986952995881438">
        <ele>1010.48291015625</ele>
        <time>2013-08-24T09:22:06Z</time>
      </trkpt>
      <trkpt lat="47.451466703787446" lon="10.986989876255393">
        <ele>1011.925048828125</ele>
        <time>2013-08-24T09:22:17Z</time>
      </trkpt>
      <trkpt lat="47.451324379071593" lon="10.98693891428411">
        <ele>1012.405517578125</ele>
        <time>2013-08-24T09:22:25Z</time>
      </trkpt>
      <trkpt lat="47.451222622767091" lon="10.986779909580946">
        <ele>1013.847412109375</ele>
        <time>2013-08-24T09:22:34Z</time>
      </trkpt>
      <trkpt lat="47.451165039092302" lon="10.986581342294812">
        <ele>1014.328125</ele>
        <time>2013-08-24T09:22:42Z</time>
      </trkpt>
      <trkpt lat="47.451138719916344" lon="10.986361065879464">
        <ele>1015.770263671875</ele>
        <time>2013-08-24T09:22:50Z</time>
      </trkpt>
      <trkpt lat="47.45109798386693" lon="10.986132239922881">
        <ele>1017.212158203125</ele>
        <time>2013-08-24T09:22:59Z</time>
      </trkpt>
      <trkpt lat="47.451108042150736" lon="10.986041547730565">
        <ele>1017.692626953125</ele>
        <time>2013-08-24T09:23:02Z</time>
      </trkpt>
      <trkpt lat="47.451150119304657" lon="10.9858014062047">
        <ele>1018.17333984375</ele>
        <time>2013-08-24T09:23:09Z</time>
      </trkpt>
      <trkpt lat="47.451162189245224" lon="10.985655058175325">
        <ele>1018.654052734375</ele>
        <time>2013-08-24T09:23:15Z</time>
      </trkpt>
      <trkpt lat="47.451157914474607" lon="10.985626056790352">
        <ele>1019.134765625</ele>
        <time>2013-08-24T09:23:16Z</time>
      </trkpt>
      <trkpt lat="47.451145509257913" lon="10.985506027936935">
        <ele>1019.134765625</ele>
        <time>2013-08-24T09:23:20Z</time>
      </trkpt>
      <trkpt lat="47.451121788471937" lon="10.985336378216743">
        <ele>1020.09619140625</ele>
        <time>2013-08-24T09:23:26Z</time>
      </trkpt>
      <trkpt lat="47.451143749058247" lon="10.985216600820422">
        <ele>1021.0576171875</ele>
        <time>2013-08-24T09:23:31Z</time>
      </trkpt>
      <trkpt lat="47.451157160103321" lon="10.985123310238123">
        <ele>1021.5380859375</ele>
        <time>2013-08-24T09:23:35Z</time>
      </trkpt>
      <trkpt lat="47.45118641294539" lon="10.98503571934998">
        <ele>1022.018798828125</ele>
        <time>2013-08-24T09:23:39Z</time>
      </trkpt>
      <trkpt lat="47.451238380745053" lon="10.984844192862511">
        <ele>1023.4609375</ele>
        <time>2013-08-24T09:23:47Z</time>
      </trkpt>
      <trkpt lat="47.451241230592132" lon="10.984637495130301">
        <ele>1024.422119140625</ele>
        <time>2013-08-24T09:23:55Z</time>
      </trkpt>
      <trkpt lat="47.451280122622848" lon="10.984389474615455">
        <ele>1024.90283203125</ele>
        <time>2013-08-24T09:24:06Z</time>
      </trkpt>
      <trkpt lat="47.451233016327024" lon="10.984220411628485">
        <ele>1026.825439453125</ele>
        <time>2013-08-24T09:24:15Z</time>
      </trkpt>
      <trkpt lat="47.451121620833874" lon="10.984291909262538">
        <ele>1027.78662109375</ele>
        <time>2013-08-24T09:24:24Z</time>
      </trkpt>
      <trkpt lat="47.45106085203588" lon="10.984429623931646">
        <ele>1029.228515625</ele>
        <time>2013-08-24T09:24:31Z</time>
      </trkpt>
      <trkpt lat="47.451067389920354" lon="10.984730953350663">
        <ele>1029.709228515625</ele>
        <time>2013-08-24T09:24:42Z</time>
      </trkpt>
      <trkpt lat="47.450990946963429" lon="10.984997916966677">
        <ele>1031.1513671875</ele>
        <time>2013-08-24T09:24:52Z</time>
      </trkpt>
      <trkpt lat="47.450926573947072" lon="10.98529857583344">
        <ele>1031.1513671875</ele>
        <time>2013-08-24T09:25:04Z</time>
      </trkpt>
      <trkpt lat="47.450854992493987" lon="10.985614489763975">
        <ele>1032.59326171875</ele>
        <time>2013-08-24T09:25:15Z</time>
      </trkpt>
      <trkpt lat="47.450810736045241" lon="10.985925374552608">
        <ele>1034.515869140625</ele>
        <time>2013-08-24T09:25:25Z</time>
      </trkpt>
      <trkpt lat="47.450889609754086" lon="10.986171718686819">
        <ele>1033.07373046875</ele>
        <time>2013-08-24T09:25:33Z</time>
      </trkpt>
      <trkpt lat="47.450914839282632" lon="10.986579917371273">
        <ele>1034.03515625</ele>
        <time>2013-08-24T09:25:44Z</time>
      </trkpt>
      <trkpt lat="47.450947612524033" lon="10.986768342554569">
        <ele>1033.554443359375</ele>
        <time>2013-08-24T09:25:50Z</time>
      </trkpt>
      <trkpt lat="47.45102078653872" lon="10.986998928710818">
        <ele>1034.99658203125</ele>
        <time>2013-08-24T09:26:00Z</time>
      </trkpt>
      <trkpt lat="47.451088177040219" lon="10.987143348902464">
        <ele>1036.438720703125</ele>
        <time>2013-08-24T09:26:08Z</time>
      </trkpt>
      <trkpt lat="47.451131176203489" lon="10.987241752445698">
        <ele>1037.39990234375</ele>
        <time>2013-08-24T09:26:13Z</time>
      </trkpt>
      <trkpt lat="47.451189262792468" lon="10.987392710521817">
        <ele>1037.880615234375</ele>
        <time>2013-08-24T09:26:20Z</time>
      </trkpt>
      <trkpt lat="47.451223712414503" lon="10.987452557310462">
        <ele>1037.39990234375</ele>
        <time>2013-08-24T09:26:23Z</time>
      </trkpt>
      <trkpt lat="47.451242739334702" lon="10.987507961690426">
        <ele>1039.322509765625</ele>
        <time>2013-08-24T09:26:26Z</time>
      </trkpt>
      <trkpt lat="47.451300574466586" lon="10.987598402425647">
        <ele>1039.80322265625</ele>
        <time>2013-08-24T09:26:32Z</time>
      </trkpt>
      <trkpt lat="47.451356984674931" lon="10.987683059647679">
        <ele>1039.80322265625</ele>
        <time>2013-08-24T09:26:37Z</time>
      </trkpt>
      <trkpt lat="47.451452789828181" lon="10.987787079066038">
        <ele>1042.687255859375</ele>
        <time>2013-08-24T09:26:45Z</time>
      </trkpt>
      <trkpt lat="47.451514564454556" lon="10.987830916419625">
        <ele>1043.167724609375</ele>
        <time>2013-08-24T09:26:49Z</time>
      </trkpt>
      <trkpt lat="47.451609363779426" lon="10.987966284155846">
        <ele>1045.09033203125</ele>
        <time>2013-08-24T09:26:58Z</time>
      </trkpt>
      <trkpt lat="47.451637024059892" lon="10.988019509240985">
        <ele>1045.09033203125</ele>
        <time>2013-08-24T09:27:01Z</time>
      </trkpt>
      <trkpt lat="47.45169754140079" lon="10.988128390163183">
        <ele>1046.0517578125</ele>
        <time>2013-08-24T09:27:07Z</time>
      </trkpt>
      <trkpt lat="47.451790329068899" lon="10.988260740414262">
        <ele>1047.012939453125</ele>
        <time>2013-08-24T09:27:15Z</time>
      </trkpt>
      <trkpt lat="47.451852774247527" lon="10.988345732912421">
        <ele>1047.49365234375</ele>
        <time>2013-08-24T09:27:20Z</time>
      </trkpt>
      <trkpt lat="47.451864760369062" lon="10.988380769267678">
        <ele>1047.012939453125</ele>
        <time>2013-08-24T09:27:22Z</time>
      </trkpt>
      <trkpt lat="47.45194673538208" lon="10.988521166145802">
        <ele>1049.416259765625</ele>
        <time>2013-08-24T09:27:30Z</time>
      </trkpt>
      <trkpt lat="47.451969115063548" lon="10.988604733720422">
        <ele>1049.89697265625</ele>
        <time>2013-08-24T09:27:34Z</time>
      </trkpt>
      <trkpt lat="47.451992500573397" lon="10.98867405205965">
        <ele>1051.3388671875</ele>
        <time>2013-08-24T09:27:37Z</time>
      </trkpt>
      <trkpt lat="47.452037511393428" lon="10.9888338111341">
        <ele>1052.30029296875</ele>
        <time>2013-08-24T09:27:44Z</time>
      </trkpt>
      <trkpt lat="47.45205326937139" lon="10.989019051194191">
        <ele>1054.22314453125</ele>
        <time>2013-08-24T09:27:53Z</time>
      </trkpt>
      <trkpt lat="47.452055113390088" lon="10.989041682332754">
        <ele>1054.22314453125</ele>
        <time>2013-08-24T09:27:54Z</time>
      </trkpt>
      <trkpt lat="47.452070619910955" lon="10.9892862662673">
        <ele>1055.6650390625</ele>
        <time>2013-08-24T09:28:05Z</time>
      </trkpt>
      <trkpt lat="47.452055113390088" lon="10.989508805796504">
        <ele>1057.587646484375</ele>
        <time>2013-08-24T09:28:16Z</time>
      </trkpt>
      <trkpt lat="47.451999122276902" lon="10.989682143554091">
        <ele>1059.029541015625</ele>
        <time>2013-08-24T09:28:26Z</time>
      </trkpt>
      <trkpt lat="47.451940029859543" lon="10.989819187670946">
        <ele>1059.99072265625</ele>
        <time>2013-08-24T09:28:33Z</time>
      </trkpt>
      <trkpt lat="47.451876662671566" lon="10.989967631176114">
        <ele>1062.39404296875</ele>
        <time>2013-08-24T09:28:41Z</time>
      </trkpt>
      <trkpt lat="47.4517781753093" lon="10.990206934511662">
        <ele>1062.39404296875</ele>
        <time>2013-08-24T09:28:52Z</time>
      </trkpt>
      <trkpt lat="47.451689410954714" lon="10.990450428798795">
        <ele>1064.79736328125</ele>
        <time>2013-08-24T09:29:03Z</time>
      </trkpt>
      <trkpt lat="47.451646830886602" lon="10.99057330749929">
        <ele>1066.719970703125</ele>
        <time>2013-08-24T09:29:09Z</time>
      </trkpt>
      <trkpt lat="47.451587403193116" lon="10.990742454305291">
        <ele>1068.162109375</ele>
        <time>2013-08-24T09:29:18Z</time>
      </trkpt>
      <trkpt lat="47.451542560011148" lon="10.990848401561379">
        <ele>1068.642822265625</ele>
        <time>2013-08-24T09:29:24Z</time>
      </trkpt>
      <trkpt lat="47.451493693515658" lon="10.9909906424582">
        <ele>1069.604248046875</ele>
        <time>2013-08-24T09:29:31Z</time>
      </trkpt>
      <trkpt lat="47.45143124833703" lon="10.99115970544517">
        <ele>1070.5654296875</ele>
        <time>2013-08-24T09:29:40Z</time>
      </trkpt>
      <trkpt lat="47.451400989666581" lon="10.991357015445828">
        <ele>1072.488037109375</ele>
        <time>2013-08-24T09:29:49Z</time>
      </trkpt>
      <trkpt lat="47.451403588056564" lon="10.991583997383714">
        <ele>1073.929931640625</ele>
        <time>2013-08-24T09:29:59Z</time>
      </trkpt>
      <trkpt lat="47.451360085979104" lon="10.991833275184035">
        <ele>1075.8525390625</ele>
        <time>2013-08-24T09:30:11Z</time>
      </trkpt>
      <trkpt lat="47.451270064339042" lon="10.992021281272173">
        <ele>1078.255859375</ele>
        <time>2013-08-24T09:30:21Z</time>
      </trkpt>
      <trkpt lat="47.451126230880618" lon="10.992136029526591">
        <ele>1079.217041015625</ele>
        <time>2013-08-24T09:30:32Z</time>
      </trkpt>
      <trkpt lat="47.451051129028201" lon="10.992181459441781">
        <ele>1080.6591796875</ele>
        <time>2013-08-24T09:30:38Z</time>
      </trkpt>
      <trkpt lat="47.450965046882629" lon="10.992264105007052">
        <ele>1081.620361328125</ele>
        <time>2013-08-24T09:30:45Z</time>
      </trkpt>
      <trkpt lat="47.450955407693982" lon="10.992281874641776">
        <ele>1082.10107421875</ele>
        <time>2013-08-24T09:30:46Z</time>
      </trkpt>
      <trkpt lat="47.450922299176455" lon="10.992377428337932">
        <ele>1084.02392578125</ele>
        <time>2013-08-24T09:30:51Z</time>
      </trkpt>
      <trkpt lat="47.450896818190813" lon="10.992543222382665">
        <ele>1084.504638671875</ele>
        <time>2013-08-24T09:30:59Z</time>
      </trkpt>
      <trkpt lat="47.450896147638559" lon="10.992605332285166">
        <ele>1084.9853515625</ele>
        <time>2013-08-24T09:31:03Z</time>
      </trkpt>
      <trkpt lat="47.45093671604991" lon="10.992747824639082">
        <ele>1086.42724609375</ele>
        <time>2013-08-24T09:31:11Z</time>
      </trkpt>
      <trkpt lat="47.450928166508675" lon="10.992975309491158">
        <ele>1088.349853515625</ele>
        <time>2013-08-24T09:31:23Z</time>
      </trkpt>
      <trkpt lat="47.450931267812848" lon="10.992956953123212">
        <ele>1089.31103515625</ele>
        <time>2013-08-24T09:31:31Z</time>
      </trkpt>
      <trkpt lat="47.450935794040561" lon="10.993060134351254">
        <ele>1092.195068359375</ele>
        <time>2013-08-24T09:34:35Z</time>
      </trkpt>
      <trkpt lat="47.450969824567437" lon="10.993201537057757">
        <ele>1093.15625</ele>
        <time>2013-08-24T09:34:41Z</time>
      </trkpt>
      <trkpt lat="47.451005950570107" lon="10.993394237011671">
        <ele>1095.078857421875</ele>
        <time>2013-08-24T09:34:50Z</time>
      </trkpt>
      <trkpt lat="47.451066803187132" lon="10.993601186200976">
        <ele>1095.5595703125</ele>
        <time>2013-08-24T09:34:59Z</time>
      </trkpt>
      <trkpt lat="47.451079292222857" lon="10.993689699098468">
        <ele>1096.52099609375</ele>
        <time>2013-08-24T09:35:03Z</time>
      </trkpt>
      <trkpt lat="47.451083399355412" lon="10.993776954710484">
        <ele>1097.962890625</ele>
        <time>2013-08-24T09:35:07Z</time>
      </trkpt>
      <trkpt lat="47.451045010238886" lon="10.994038889184594">
        <ele>1100.366455078125</ele>
        <time>2013-08-24T09:35:19Z</time>
      </trkpt>
      <trkpt lat="47.450996059924364" lon="10.994291938841343">
        <ele>1100.846923828125</ele>
        <time>2013-08-24T09:35:31Z</time>
      </trkpt>
      <trkpt lat="47.450998239219189" lon="10.994441471993923">
        <ele>1103.250244140625</ele>
        <time>2013-08-24T09:35:38Z</time>
      </trkpt>
      <trkpt lat="47.451002430170774" lon="10.994603997096419">
        <ele>1104.692138671875</ele>
        <time>2013-08-24T09:35:46Z</time>
      </trkpt>
      <trkpt lat="47.451014164835215" lon="10.994748417288065">
        <ele>1105.653564453125</ele>
        <time>2013-08-24T09:35:53Z</time>
      </trkpt>
      <trkpt lat="47.451041908934712" lon="10.994856124743819">
        <ele>1105.653564453125</ele>
        <time>2013-08-24T09:35:58Z</time>
      </trkpt>
      <trkpt lat="47.451036712154746" lon="10.995050333440304">
        <ele>1108.537353515625</ele>
        <time>2013-08-24T09:36:07Z</time>
      </trkpt>
      <trkpt lat="47.450998239219189" lon="10.995311429724097">
        <ele>1109.498779296875</ele>
        <time>2013-08-24T09:36:19Z</time>
      </trkpt>
      <trkpt lat="47.450946941971779" lon="10.995548218488693">
        <ele>1111.42138671875</ele>
        <time>2013-08-24T09:36:30Z</time>
      </trkpt>
      <trkpt lat="47.450928166508675" lon="10.995703618973494">
        <ele>1113.824462890625</ele>
        <time>2013-08-24T09:36:38Z</time>
      </trkpt>
      <trkpt lat="47.450918527320027" lon="10.995789533481002">
        <ele>1113.824462890625</ele>
        <time>2013-08-24T09:36:42Z</time>
      </trkpt>
      <trkpt lat="47.450928334146738" lon="10.995875867083669">
        <ele>1114.30517578125</ele>
        <time>2013-08-24T09:36:46Z</time>
      </trkpt>
      <trkpt lat="47.450937638059258" lon="10.996035290881991">
        <ele>1116.22802734375</ele>
        <time>2013-08-24T09:36:54Z</time>
      </trkpt>
      <trkpt lat="47.450960772112012" lon="10.996153308078647">
        <ele>1116.708740234375</ele>
        <time>2013-08-24T09:37:01Z</time>
      </trkpt>
      <trkpt lat="47.450982732698321" lon="10.9962541423738">
        <ele>1117.669921875</ele>
        <time>2013-08-24T09:37:07Z</time>
      </trkpt>
      <trkpt lat="47.451018858700991" lon="10.99642219953239">
        <ele>1119.112060546875</ele>
        <time>2013-08-24T09:37:15Z</time>
      </trkpt>
      <trkpt lat="47.451032688841224" lon="10.99648623727262">
        <ele>1120.0732421875</ele>
        <time>2013-08-24T09:37:18Z</time>
      </trkpt>
      <trkpt lat="47.451051631942391" lon="10.996565697714686">
        <ele>1121.03466796875</ele>
        <time>2013-08-24T09:37:22Z</time>
      </trkpt>
      <trkpt lat="47.451092535629869" lon="10.996707351878285">
        <ele>1122.4765625</ele>
        <time>2013-08-24T09:37:29Z</time>
      </trkpt>
      <trkpt lat="47.451121620833874" lon="10.996817070990801">
        <ele>1122.957275390625</ele>
        <time>2013-08-24T09:37:34Z</time>
      </trkpt>
      <trkpt lat="47.45115271769464" lon="10.996978003531694">
        <ele>1124.399169921875</ele>
        <time>2013-08-24T09:37:41Z</time>
      </trkpt>
      <trkpt lat="47.451179204508662" lon="10.997112533077598">
        <ele>1124.8798828125</ele>
        <time>2013-08-24T09:37:47Z</time>
      </trkpt>
      <trkpt lat="47.451190100982785" lon="10.997319901362062">
        <ele>1126.802490234375</ele>
        <time>2013-08-24T09:37:56Z</time>
      </trkpt>
      <trkpt lat="47.451188759878278" lon="10.99734278395772">
        <ele>1126.802490234375</ele>
        <time>2013-08-24T09:37:57Z</time>
      </trkpt>
      <trkpt lat="47.451187586411834" lon="10.997364828363061">
        <ele>1126.32177734375</ele>
        <time>2013-08-24T09:37:58Z</time>
      </trkpt>
      <trkpt lat="47.451170571148396" lon="10.997507991269231">
        <ele>1127.763671875</ele>
        <time>2013-08-24T09:38:05Z</time>
      </trkpt>
      <trkpt lat="47.451152801513672" lon="10.997676216065884">
        <ele>1129.20556640625</ele>
        <time>2013-08-24T09:38:13Z</time>
      </trkpt>
      <trkpt lat="47.451128410175443" lon="10.99786514416337">
        <ele>1130.647705078125</ele>
        <time>2013-08-24T09:38:22Z</time>
      </trkpt>
      <trkpt lat="47.451054817065597" lon="10.997981652617455">
        <ele>1132.08984375</ele>
        <time>2013-08-24T09:38:29Z</time>
      </trkpt>
      <trkpt lat="47.450840743258595" lon="10.99809723906219">
        <ele>1134.012451171875</ele>
        <time>2013-08-24T09:38:40Z</time>
      </trkpt>
      <trkpt lat="47.450712081044912" lon="10.998150296509266">
        <ele>1134.4931640625</ele>
        <time>2013-08-24T09:38:48Z</time>
      </trkpt>
      <trkpt lat="47.450552741065621" lon="10.998083157464862">
        <ele>1137.376953125</ele>
        <time>2013-08-24T09:38:58Z</time>
      </trkpt>
      <trkpt lat="47.450478645041585" lon="10.997915519401431">
        <ele>1137.857666015625</ele>
        <time>2013-08-24T09:39:06Z</time>
      </trkpt>
      <trkpt lat="47.450488787144423" lon="10.997786857187748">
        <ele>1139.7802734375</ele>
        <time>2013-08-24T09:39:11Z</time>
      </trkpt>
      <trkpt lat="47.450489290058613" lon="10.997741343453526">
        <ele>1139.299560546875</ele>
        <time>2013-08-24T09:39:13Z</time>
      </trkpt>
      <trkpt lat="47.450461629778147" lon="10.997575800865889">
        <ele>1139.7802734375</ele>
        <time>2013-08-24T09:39:21Z</time>
      </trkpt>
      <trkpt lat="47.450429359450936" lon="10.997504554688931">
        <ele>1141.22216796875</ele>
        <time>2013-08-24T09:39:25Z</time>
      </trkpt>
      <trkpt lat="47.450365573167801" lon="10.99742048420012">
        <ele>1141.702880859375</ele>
        <time>2013-08-24T09:39:31Z</time>
      </trkpt>
      <trkpt lat="47.450296757742763" lon="10.997301712632179">
        <ele>1143.144775390625</ele>
        <time>2013-08-24T09:39:39Z</time>
      </trkpt>
      <trkpt lat="47.450221991166472" lon="10.997147485613823">
        <ele>1145.0673828125</ele>
        <time>2013-08-24T09:39:48Z</time>
      </trkpt>
      <trkpt lat="47.450183937326074" lon="10.997090991586447">
        <ele>1145.548095703125</ele>
        <time>2013-08-24T09:39:52Z</time>
      </trkpt>
      <trkpt lat="47.450111769139767" lon="10.997021505609155">
        <ele>1146.989990234375</ele>
        <time>2013-08-24T09:39:57Z</time>
      </trkpt>
      <trkpt lat="47.449990985915065" lon="10.996768791228533">
        <ele>1148.912841796875</ele>
        <time>2013-08-24T09:40:11Z</time>
      </trkpt>
      <trkpt lat="47.449898030608892" lon="10.996600398793817">
        <ele>1150.35498046875</ele>
        <time>2013-08-24T09:40:20Z</time>
      </trkpt>
      <trkpt lat="47.449785461649299" lon="10.996460756286979">
        <ele>1151.796875</ele>
        <time>2013-08-24T09:40:31Z</time>
      </trkpt>
      <trkpt lat="47.449684794992208" lon="10.99633963778615">
        <ele>1153.719482421875</ele>
        <time>2013-08-24T09:40:40Z</time>
      </trkpt>
      <trkpt lat="47.449633162468672" lon="10.99626780487597">
        <ele>1153.719482421875</ele>
        <time>2013-08-24T09:40:44Z</time>
      </trkpt>
      <trkpt lat="47.449521347880363" lon="10.996132018044591">
        <ele>1155.161376953125</ele>
        <time>2013-08-24T09:40:54Z</time>
      </trkpt>
      <trkpt lat="47.449430320411921" lon="10.99600151181221">
        <ele>1156.603271484375</ele>
        <time>2013-08-24T09:41:03Z</time>
      </trkpt>
      <trkpt lat="47.449385561048985" lon="10.99595608189702">
        <ele>1158.04541015625</ele>
        <time>2013-08-24T09:41:07Z</time>
      </trkpt>
      <trkpt lat="47.449343651533127" lon="10.99592674523592">
        <ele>1158.04541015625</ele>
        <time>2013-08-24T09:41:10Z</time>
      </trkpt>
      <trkpt lat="47.449296712875366" lon="10.995818031951785">
        <ele>1159.006591796875</ele>
        <time>2013-08-24T09:41:16Z</time>
      </trkpt>
      <trkpt lat="47.449291767552495" lon="10.995800429955125">
        <ele>1159.4873046875</ele>
        <time>2013-08-24T09:41:17Z</time>
      </trkpt>
      <trkpt lat="47.449276680126786" lon="10.995702864602208">
        <ele>1159.9677734375</ele>
        <time>2013-08-24T09:41:22Z</time>
      </trkpt>
      <trkpt lat="47.449236866086721" lon="10.995520306751132">
        <ele>1161.409912109375</ele>
        <time>2013-08-24T09:41:30Z</time>
      </trkpt>
      <trkpt lat="47.449141060933471" lon="10.995406648144126">
        <ele>1163.33251953125</ele>
        <time>2013-08-24T09:41:38Z</time>
      </trkpt>
      <trkpt lat="47.449035113677382" lon="10.995301119983196">
        <ele>1164.774658203125</ele>
        <time>2013-08-24T09:41:46Z</time>
      </trkpt>
      <trkpt lat="47.449019942432642" lon="10.995265496894717">
        <ele>1164.2939453125</ele>
        <time>2013-08-24T09:41:48Z</time>
      </trkpt>
      <trkpt lat="47.448947271332145" lon="10.995028372853994">
        <ele>1166.216552734375</ele>
        <time>2013-08-24T09:41:58Z</time>
      </trkpt>
      <trkpt lat="47.448940398171544" lon="10.99500616081059">
        <ele>1166.697265625</ele>
        <time>2013-08-24T09:41:59Z</time>
      </trkpt>
      <trkpt lat="47.448998149484396" lon="10.994770964607596">
        <ele>1167.658447265625</ele>
        <time>2013-08-24T09:42:08Z</time>
      </trkpt>
      <trkpt lat="47.449102755635977" lon="10.994481453672051">
        <ele>1170.061767578125</ele>
        <time>2013-08-24T09:42:20Z</time>
      </trkpt>
      <trkpt lat="47.449078448116779" lon="10.994370644912124">
        <ele>1171.023193359375</ele>
        <time>2013-08-24T09:42:26Z</time>
      </trkpt>
      <trkpt lat="47.449004352092743" lon="10.994234522804618">
        <ele>1171.984375</ele>
        <time>2013-08-24T09:42:35Z</time>
      </trkpt>
      <trkpt lat="47.44896562770009" lon="10.994149362668395">
        <ele>1173.426513671875</ele>
        <time>2013-08-24T09:42:41Z</time>
      </trkpt>
      <trkpt lat="47.448946265503764" lon="10.994119523093104">
        <ele>1173.426513671875</ele>
        <time>2013-08-24T09:42:43Z</time>
      </trkpt>
      <trkpt lat="47.448904439806938" lon="10.994023215025663">
        <ele>1174.3876953125</ele>
        <time>2013-08-24T09:42:48Z</time>
      </trkpt>
      <trkpt lat="47.448875606060028" lon="10.993930092081428">
        <ele>1175.348876953125</ele>
        <time>2013-08-24T09:42:53Z</time>
      </trkpt>
      <trkpt lat="47.448851717635989" lon="10.99381098523736">
        <ele>1176.310302734375</ele>
        <time>2013-08-24T09:42:59Z</time>
      </trkpt>
      <trkpt lat="47.448796648532152" lon="10.993601186200976">
        <ele>1178.713623046875</ele>
        <time>2013-08-24T09:43:09Z</time>
      </trkpt>
      <trkpt lat="47.448684079572558" lon="10.993447126820683">
        <ele>1180.15576171875</ele>
        <time>2013-08-24T09:43:19Z</time>
      </trkpt>
      <trkpt lat="47.448607804253697" lon="10.993337240070105">
        <ele>1181.1171875</ele>
        <time>2013-08-24T09:43:26Z</time>
      </trkpt>
      <trkpt lat="47.448583580553532" lon="10.993309412151575">
        <ele>1181.59765625</ele>
        <time>2013-08-24T09:43:28Z</time>
      </trkpt>
      <trkpt lat="47.448523063212633" lon="10.993221066892147">
        <ele>1182.078369140625</ele>
        <time>2013-08-24T09:43:33Z</time>
      </trkpt>
      <trkpt lat="47.448461372405291" lon="10.993054267019033">
        <ele>1184.481689453125</ele>
        <time>2013-08-24T09:43:41Z</time>
      </trkpt>
      <trkpt lat="47.448425916954875" lon="10.992899453267455">
        <ele>1184.96240234375</ele>
        <time>2013-08-24T09:43:48Z</time>
      </trkpt>
      <trkpt lat="47.448397502303123" lon="10.992731312289834">
        <ele>1187.365478515625</ele>
        <time>2013-08-24T09:43:55Z</time>
      </trkpt>
      <trkpt lat="47.448347797617316" lon="10.992557974532247">
        <ele>1188.326904296875</ele>
        <time>2013-08-24T09:44:02Z</time>
      </trkpt>
      <trkpt lat="47.448434298858047" lon="10.992219848558307">
        <ele>1191.210693359375</ele>
        <time>2013-08-24T09:44:14Z</time>
      </trkpt>
      <trkpt lat="47.448463970795274" lon="10.992028657346964">
        <ele>1192.172119140625</ele>
        <time>2013-08-24T09:44:22Z</time>
      </trkpt>
      <trkpt lat="47.448455337435007" lon="10.991905611008406">
        <ele>1193.614013671875</ele>
        <time>2013-08-24T09:44:28Z</time>
      </trkpt>
      <trkpt lat="47.448440082371235" lon="10.991798238828778">
        <ele>1194.5751953125</ele>
        <time>2013-08-24T09:44:33Z</time>
      </trkpt>
      <trkpt lat="47.448429521173239" lon="10.991575866937637">
        <ele>1196.978759765625</ele>
        <time>2013-08-24T09:44:43Z</time>
      </trkpt>
      <trkpt lat="47.448352575302124" lon="10.991441253572702">
        <ele>1198.420654296875</ele>
        <time>2013-08-24T09:44:50Z</time>
      </trkpt>
      <trkpt lat="47.448252411559224" lon="10.991368079558015">
        <ele>1200.343505859375</ele>
        <time>2013-08-24T09:44:56Z</time>
      </trkpt>
      <trkpt lat="47.448154594749212" lon="10.991335138678551">
        <ele>1199.86279296875</ele>
        <time>2013-08-24T09:45:01Z</time>
      </trkpt>
      <trkpt lat="47.448100196197629" lon="10.991320051252842">
        <ele>1200.823974609375</ele>
        <time>2013-08-24T09:45:04Z</time>
      </trkpt>
      <trkpt lat="47.44805526919663" lon="10.991292390972376">
        <ele>1201.3046875</ele>
        <time>2013-08-24T09:45:07Z</time>
      </trkpt>
      <trkpt lat="47.448014114052057" lon="10.991212595254183">
        <ele>1202.265869140625</ele>
        <time>2013-08-24T09:45:11Z</time>
      </trkpt>
      <trkpt lat="47.447954518720508" lon="10.990970525890589">
        <ele>1204.188720703125</ele>
        <time>2013-08-24T09:45:20Z</time>
      </trkpt>
      <trkpt lat="47.447935156524181" lon="10.990802720189095">
        <ele>1206.591796875</ele>
        <time>2013-08-24T09:45:27Z</time>
      </trkpt>
      <trkpt lat="47.447867095470428" lon="10.990579258650541">
        <ele>1208.9951171875</ele>
        <time>2013-08-24T09:45:37Z</time>
      </trkpt>
      <trkpt lat="47.447773721069098" lon="10.99040717817843">
        <ele>1209.956298828125</ele>
        <time>2013-08-24T09:45:47Z</time>
      </trkpt>
      <trkpt lat="47.44766341522336" lon="10.990274073556066">
        <ele>1211.3984375</ele>
        <time>2013-08-24T09:45:56Z</time>
      </trkpt>
      <trkpt lat="47.447606334462762" lon="10.990186063572764">
        <ele>1212.35986328125</ele>
        <time>2013-08-24T09:46:01Z</time>
      </trkpt>
      <trkpt lat="47.447535926476121" lon="10.989977438002825">
        <ele>1215.243896484375</ele>
        <time>2013-08-24T09:46:13Z</time>
      </trkpt>
      <trkpt lat="47.44748018682003" lon="10.989792617037892">
        <ele>1216.685791015625</ele>
        <time>2013-08-24T09:46:22Z</time>
      </trkpt>
      <trkpt lat="47.447423525154591" lon="10.989686083048582">
        <ele>1218.127685546875</ele>
        <time>2013-08-24T09:46:28Z</time>
      </trkpt>
      <trkpt lat="47.447282373905182" lon="10.989493634551764">
        <ele>1220.05029296875</ele>
        <time>2013-08-24T09:46:41Z</time>
      </trkpt>
      <trkpt lat="47.44717282243073" lon="10.989354075863957">
        <ele>1222.934326171875</ele>
        <time>2013-08-24T09:46:51Z</time>
      </trkpt>
      <trkpt lat="47.447058912366629" lon="10.989259527996182">
        <ele>1223.8955078125</ele>
        <time>2013-08-24T09:47:00Z</time>
      </trkpt>
      <trkpt lat="47.446930082514882" lon="10.989094823598862">
        <ele>1225.33740234375</ele>
        <time>2013-08-24T09:47:11Z</time>
      </trkpt>
      <trkpt lat="47.446858501061797" lon="10.988910086452961">
        <ele>1227.26025390625</ele>
        <time>2013-08-24T09:47:21Z</time>
      </trkpt>
      <trkpt lat="47.446882138028741" lon="10.988831128925085">
        <ele>1227.26025390625</ele>
        <time>2013-08-24T09:47:28Z</time>
      </trkpt>
      <trkpt lat="47.446890100836754" lon="10.988833894953132">
        <ele>1227.26025390625</ele>
        <time>2013-08-24T09:47:44Z</time>
      </trkpt>
      <trkpt lat="47.446891022846103" lon="10.988839846104383">
        <ele>1225.818115234375</ele>
        <time>2013-08-24T09:48:00Z</time>
      </trkpt>
      <trkpt lat="47.446895213797688" lon="10.988846300169826">
        <ele>1228.702392578125</ele>
        <time>2013-08-24T09:51:26Z</time>
      </trkpt>
      <trkpt lat="47.446895465254784" lon="10.988847389817238">
        <ele>1227.26025390625</ele>
        <time>2013-08-24T09:51:54Z</time>
      </trkpt>
      <trkpt lat="47.446888592094183" lon="10.98884210921824">
        <ele>1229.182861328125</ele>
        <time>2013-08-24T09:52:55Z</time>
      </trkpt>
      <trkpt lat="47.446894124150276" lon="10.988843869417906">
        <ele>1227.74072265625</ele>
        <time>2013-08-24T09:53:12Z</time>
      </trkpt>
      <trkpt lat="47.44689529761672" lon="10.988842695951462">
        <ele>1228.702392578125</ele>
        <time>2013-08-24T09:53:46Z</time>
      </trkpt>
      <trkpt lat="47.446865122765303" lon="10.988878319039941">
        <ele>1229.66357421875</ele>
        <time>2013-08-24T09:54:53Z</time>
      </trkpt>
      <trkpt lat="47.446843916550279" lon="10.988886449486017">
        <ele>1229.66357421875</ele>
        <time>2013-08-24T09:55:01Z</time>
      </trkpt>
      <trkpt lat="47.446824386715889" lon="10.988904470577836">
        <ele>1230.625</ele>
        <time>2013-08-24T09:55:07Z</time>
      </trkpt>
      <trkpt lat="47.446768647059798" lon="10.988866752013564">
        <ele>1230.625</ele>
        <time>2013-08-24T09:55:13Z</time>
      </trkpt>
      <trkpt lat="47.44665683247149" lon="10.988734234124422">
        <ele>1231.586181640625</ele>
        <time>2013-08-24T09:55:23Z</time>
      </trkpt>
      <trkpt lat="47.446534037590027" lon="10.988604063168168">
        <ele>1233.989501953125</ele>
        <time>2013-08-24T09:55:33Z</time>
      </trkpt>
      <trkpt lat="47.446403615176678" lon="10.988417733460665">
        <ele>1235.912109375</ele>
        <time>2013-08-24T09:55:45Z</time>
      </trkpt>
      <trkpt lat="47.446274030953646" lon="10.98827188834548">
        <ele>1238.3154296875</ele>
        <time>2013-08-24T09:55:56Z</time>
      </trkpt>
      <trkpt lat="47.446141010150313" lon="10.988150183111429">
        <ele>1240.238037109375</ele>
        <time>2013-08-24T09:56:07Z</time>
      </trkpt>
      <trkpt lat="47.44599424302578" lon="10.988038117066026">
        <ele>1242.641357421875</ele>
        <time>2013-08-24T09:56:19Z</time>
      </trkpt>
      <trkpt lat="47.445849990472198" lon="10.987944155931473">
        <ele>1244.08349609375</ele>
        <time>2013-08-24T09:56:29Z</time>
      </trkpt>
      <trkpt lat="47.445749491453171" lon="10.987847177311778">
        <ele>1245.044677734375</ele>
        <time>2013-08-24T09:56:37Z</time>
      </trkpt>
      <trkpt lat="47.44561362080276" lon="10.987745085731149">
        <ele>1246.96728515625</ele>
        <time>2013-08-24T09:56:47Z</time>
      </trkpt>
      <trkpt lat="47.445481773465872" lon="10.98763519898057">
        <ele>1248.4091796875</ele>
        <time>2013-08-24T09:56:57Z</time>
      </trkpt>
      <trkpt lat="47.445395942777395" lon="10.98744610324502">
        <ele>1249.851318359375</ele>
        <time>2013-08-24T09:57:07Z</time>
      </trkpt>
      <trkpt lat="47.445275159552693" lon="10.987283578142524">
        <ele>1250.8125</ele>
        <time>2013-08-24T09:57:18Z</time>
      </trkpt>
      <trkpt lat="47.445152029395103" lon="10.987141337245703">
        <ele>1253.2158203125</ele>
        <time>2013-08-24T09:57:28Z</time>
      </trkpt>
      <trkpt lat="47.445080615580082" lon="10.987056847661734">
        <ele>1254.17724609375</ele>
        <time>2013-08-24T09:57:34Z</time>
      </trkpt>
      <trkpt lat="47.4450174998492" lon="10.986901028081775">
        <ele>1255.138427734375</ele>
        <time>2013-08-24T09:57:42Z</time>
      </trkpt>
      <trkpt lat="47.444991432130337" lon="10.986777562648058">
        <ele>1255.619140625</ele>
        <time>2013-08-24T09:57:47Z</time>
      </trkpt>
      <trkpt lat="47.44495346210897" lon="10.986602380871773">
        <ele>1257.06103515625</ele>
        <time>2013-08-24T09:57:55Z</time>
      </trkpt>
      <trkpt lat="47.444927897304296" lon="10.986548066139221">
        <ele>1258.0224609375</ele>
        <time>2013-08-24T09:57:58Z</time>
      </trkpt>
      <trkpt lat="47.444799905642867" lon="10.98644002340734">
        <ele>1257.541748046875</ele>
        <time>2013-08-24T09:58:07Z</time>
      </trkpt>
      <trkpt lat="47.444706782698631" lon="10.986267188563943">
        <ele>1258.983642578125</ele>
        <time>2013-08-24T09:58:15Z</time>
      </trkpt>
      <trkpt lat="47.444696556776762" lon="10.986223937943578">
        <ele>1259.94482421875</ele>
        <time>2013-08-24T09:58:17Z</time>
      </trkpt>
      <trkpt lat="47.444617347791791" lon="10.986024616286159">
        <ele>1261.867919921875</ele>
        <time>2013-08-24T09:58:28Z</time>
      </trkpt>
      <trkpt lat="47.444509053602815" lon="10.985849853605032">
        <ele>1263.790283203125</ele>
        <time>2013-08-24T09:58:39Z</time>
      </trkpt>
      <trkpt lat="47.444367315620184" lon="10.985716748982668">
        <ele>1264.27099609375</ele>
        <time>2013-08-24T09:58:50Z</time>
      </trkpt>
      <trkpt lat="47.444245275110006" lon="10.985613064840436">
        <ele>1266.193603515625</ele>
        <time>2013-08-24T09:58:59Z</time>
      </trkpt>
      <trkpt lat="47.444108817726374" lon="10.985488593578339">
        <ele>1267.635498046875</ele>
        <time>2013-08-24T09:59:08Z</time>
      </trkpt>
      <trkpt lat="47.443989710882306" lon="10.985426902770996">
        <ele>1268.596923828125</ele>
        <time>2013-08-24T09:59:16Z</time>
      </trkpt>
      <trkpt lat="47.443929528817534" lon="10.985373174771667">
        <ele>1270.038818359375</ele>
        <time>2013-08-24T09:59:21Z</time>
      </trkpt>
      <trkpt lat="47.44382131844759" lon="10.985318943858147">
        <ele>1270.51953125</ele>
        <time>2013-08-24T09:59:28Z</time>
      </trkpt>
      <trkpt lat="47.443657452240586" lon="10.985232777893543">
        <ele>1271.480712890625</ele>
        <time>2013-08-24T09:59:39Z</time>
      </trkpt>
      <trkpt lat="47.443603137508035" lon="10.985172763466835">
        <ele>1272.442138671875</ele>
        <time>2013-08-24T09:59:43Z</time>
      </trkpt>
      <trkpt lat="47.443502051755786" lon="10.985063714906573">
        <ele>1273.403564453125</ele>
        <time>2013-08-24T09:59:51Z</time>
      </trkpt>
      <trkpt lat="47.443463914096355" lon="10.985008645802736">
        <ele>1273.884033203125</ele>
        <time>2013-08-24T09:59:54Z</time>
      </trkpt>
      <trkpt lat="47.443380346521735" lon="10.98484218120575">
        <ele>1275.806640625</ele>
        <time>2013-08-24T10:00:03Z</time>
      </trkpt>
      <trkpt lat="47.443300718441606" lon="10.984691139310598">
        <ele>1276.28759765625</ele>
        <time>2013-08-24T10:00:11Z</time>
      </trkpt>
      <trkpt lat="47.443222850561142" lon="10.984569182619452">
        <ele>1277.7294921875</ele>
        <time>2013-08-24T10:00:18Z</time>
      </trkpt>
      <trkpt lat="47.443138528615236" lon="10.984416212886572">
        <ele>1278.69091796875</ele>
        <time>2013-08-24T10:00:27Z</time>
      </trkpt>
      <trkpt lat="47.443055296316743" lon="10.984180010855198">
        <ele>1280.1328125</ele>
        <time>2013-08-24T10:00:37Z</time>
      </trkpt>
      <trkpt lat="47.443030988797545" lon="10.984111530706286">
        <ele>1280.613525390625</ele>
        <time>2013-08-24T10:00:40Z</time>
      </trkpt>
      <trkpt lat="47.442980026826262" lon="10.983932157978415">
        <ele>1282.055419921875</ele>
        <time>2013-08-24T10:00:48Z</time>
      </trkpt>
      <trkpt lat="47.442946750670671" lon="10.983794359490275">
        <ele>1283.0166015625</ele>
        <time>2013-08-24T10:00:54Z</time>
      </trkpt>
      <trkpt lat="47.442939626052976" lon="10.983680533245206">
        <ele>1283.97802734375</ele>
        <time>2013-08-24T10:00:59Z</time>
      </trkpt>
      <trkpt lat="47.442839881405234" lon="10.983521696180105">
        <ele>1284.458740234375</ele>
        <time>2013-08-24T10:01:09Z</time>
      </trkpt>
      <trkpt lat="47.442733347415924" lon="10.98346084356308">
        <ele>1285.419921875</ele>
        <time>2013-08-24T10:01:16Z</time>
      </trkpt>
      <trkpt lat="47.442665118724108" lon="10.983438799157739">
        <ele>1285.900634765625</ele>
        <time>2013-08-24T10:01:20Z</time>
      </trkpt>
      <trkpt lat="47.442550035193563" lon="10.983282392844558">
        <ele>1286.86181640625</ele>
        <time>2013-08-24T10:01:29Z</time>
      </trkpt>
      <trkpt lat="47.442529499530792" lon="10.983201507478952">
        <ele>1288.303955078125</ele>
        <time>2013-08-24T10:01:32Z</time>
      </trkpt>
      <trkpt lat="47.442562356591225" lon="10.982969580218196">
        <ele>1288.78466796875</ele>
        <time>2013-08-24T10:01:40Z</time>
      </trkpt>
      <trkpt lat="47.442617174237967" lon="10.982764223590493">
        <ele>1290.2265625</ele>
        <time>2013-08-24T10:01:46Z</time>
      </trkpt>
      <trkpt lat="47.442719601094723" lon="10.982483178377151">
        <ele>1291.66845703125</ele>
        <time>2013-08-24T10:01:55Z</time>
      </trkpt>
      <trkpt lat="47.442774754017591" lon="10.982355689629912">
        <ele>1291.187744140625</ele>
        <time>2013-08-24T10:02:00Z</time>
      </trkpt>
      <trkpt lat="47.442806018516421" lon="10.982277318835258">
        <ele>1293.110595703125</ele>
        <time>2013-08-24T10:02:06Z</time>
      </trkpt>
      <trkpt lat="47.442856226116419" lon="10.98210490308702">
        <ele>1294.072021484375</ele>
        <time>2013-08-24T10:02:13Z</time>
      </trkpt>
      <trkpt lat="47.442867709323764" lon="10.981959141790867">
        <ele>1294.072021484375</ele>
        <time>2013-08-24T10:02:19Z</time>
      </trkpt>
      <trkpt lat="47.442955551669002" lon="10.981757305562496">
        <ele>1295.513916015625</ele>
        <time>2013-08-24T10:02:27Z</time>
      </trkpt>
      <trkpt lat="47.442969130352139" lon="10.981710199266672">
        <ele>1295.99462890625</ele>
        <time>2013-08-24T10:02:29Z</time>
      </trkpt>
      <trkpt lat="47.44286167435348" lon="10.981539376080036">
        <ele>1296.475341796875</ele>
        <time>2013-08-24T10:02:37Z</time>
      </trkpt>
      <trkpt lat="47.442779028788209" lon="10.981520684435964">
        <ele>1297.917236328125</ele>
        <time>2013-08-24T10:02:42Z</time>
      </trkpt>
      <trkpt lat="47.442696802318096" lon="10.981546668335795">
        <ele>1298.397705078125</ele>
        <time>2013-08-24T10:02:48Z</time>
      </trkpt>
      <trkpt lat="47.442499492317438" lon="10.981506770476699">
        <ele>1299.83984375</ele>
        <time>2013-08-24T10:02:59Z</time>
      </trkpt>
      <trkpt lat="47.442400837317109" lon="10.981463436037302">
        <ele>1300.801025390625</ele>
        <time>2013-08-24T10:03:05Z</time>
      </trkpt>
      <trkpt lat="47.442371668294072" lon="10.981448432430625">
        <ele>1301.28173828125</ele>
        <time>2013-08-24T10:03:07Z</time>
      </trkpt>
      <trkpt lat="47.442323556169868" lon="10.98141054622829">
        <ele>1302.242919921875</ele>
        <time>2013-08-24T10:03:11Z</time>
      </trkpt>
      <trkpt lat="47.442263038828969" lon="10.981377772986889">
        <ele>1300.801025390625</ele>
        <time>2013-08-24T10:03:15Z</time>
      </trkpt>
      <trkpt lat="47.442104620859027" lon="10.981306526809931">
        <ele>1302.242919921875</ele>
        <time>2013-08-24T10:03:22Z</time>
      </trkpt>
      <trkpt lat="47.441967157647014" lon="10.981252044439316">
        <ele>1303.204345703125</ele>
        <time>2013-08-24T10:03:29Z</time>
      </trkpt>
      <trkpt lat="47.441892893984914" lon="10.981218600645661">
        <ele>1303.68505859375</ele>
        <time>2013-08-24T10:03:33Z</time>
      </trkpt>
      <trkpt lat="47.441757693886757" lon="10.981087423861027">
        <ele>1305.126953125</ele>
        <time>2013-08-24T10:03:42Z</time>
      </trkpt>
      <trkpt lat="47.441762052476406" lon="10.980932777747512">
        <ele>1306.088134765625</ele>
        <time>2013-08-24T10:03:48Z</time>
      </trkpt>
      <trkpt lat="47.441896749660373" lon="10.980646619573236">
        <ele>1306.56884765625</ele>
        <time>2013-08-24T10:03:57Z</time>
      </trkpt>
      <trkpt lat="47.441914770752192" lon="10.98059406504035">
        <ele>1307.5302734375</ele>
        <time>2013-08-24T10:03:59Z</time>
      </trkpt>
      <trkpt lat="47.441931115463376" lon="10.980373453348875">
        <ele>1308.49169921875</ele>
        <time>2013-08-24T10:04:08Z</time>
      </trkpt>
      <trkpt lat="47.441936815157533" lon="10.980203719809651">
        <ele>1308.49169921875</ele>
        <time>2013-08-24T10:04:15Z</time>
      </trkpt>
      <trkpt lat="47.441947376355529" lon="10.980126103386283">
        <ele>1308.49169921875</ele>
        <time>2013-08-24T10:04:18Z</time>
      </trkpt>
      <trkpt lat="47.442022226750851" lon="10.979952430352569">
        <ele>1310.414306640625</ele>
        <time>2013-08-24T10:04:25Z</time>
      </trkpt>
      <trkpt lat="47.442209227010608" lon="10.979797868058085">
        <ele>1311.8564453125</ele>
        <time>2013-08-24T10:04:34Z</time>
      </trkpt>
      <trkpt lat="47.442335207015276" lon="10.979721006006002">
        <ele>1312.817626953125</ele>
        <time>2013-08-24T10:04:41Z</time>
      </trkpt>
      <trkpt lat="47.44234861806035" lon="10.979558397084475">
        <ele>1313.29833984375</ele>
        <time>2013-08-24T10:04:49Z</time>
      </trkpt>
      <trkpt lat="47.442264379933476" lon="10.979377599433064">
        <ele>1314.259521484375</ele>
        <time>2013-08-24T10:04:57Z</time>
      </trkpt>
      <trkpt lat="47.442149883136153" lon="10.979146175086498">
        <ele>1315.70166015625</ele>
        <time>2013-08-24T10:05:07Z</time>
      </trkpt>
      <trkpt lat="47.442102441564202" lon="10.979078449308872">
        <ele>1315.70166015625</ele>
        <time>2013-08-24T10:05:11Z</time>
      </trkpt>
      <trkpt lat="47.442015437409282" lon="10.97901089116931">
        <ele>1317.1435546875</ele>
        <time>2013-08-24T10:05:17Z</time>
      </trkpt>
      <trkpt lat="47.441868335008621" lon="10.978835541754961">
        <ele>1318.58544921875</ele>
        <time>2013-08-24T10:05:27Z</time>
      </trkpt>
      <trkpt lat="47.441763142123818" lon="10.978720625862479">
        <ele>1320.02734375</ele>
        <time>2013-08-24T10:05:35Z</time>
      </trkpt>
      <trkpt lat="47.441739840433002" lon="10.97867963835597">
        <ele>1320.02734375</ele>
        <time>2013-08-24T10:05:43Z</time>
      </trkpt>
      <trkpt lat="47.441658116877079" lon="10.978617612272501">
        <ele>1320.02734375</ele>
        <time>2013-08-24T10:07:31Z</time>
      </trkpt>
      <trkpt lat="47.441597180441022" lon="10.978521890938282">
        <ele>1320.02734375</ele>
        <time>2013-08-24T10:07:35Z</time>
      </trkpt>
      <trkpt lat="47.441540602594614" lon="10.978394988924265">
        <ele>1321.46923828125</ele>
        <time>2013-08-24T10:07:40Z</time>
      </trkpt>
      <trkpt lat="47.441484862938523" lon="10.978323072195053">
        <ele>1321.46923828125</ele>
        <time>2013-08-24T10:07:44Z</time>
      </trkpt>
      <trkpt lat="47.44140992872417" lon="10.978133054450154">
        <ele>1323.39208984375</ele>
        <time>2013-08-24T10:07:52Z</time>
      </trkpt>
      <trkpt lat="47.441273303702474" lon="10.977906491607428">
        <ele>1325.79541015625</ele>
        <time>2013-08-24T10:08:03Z</time>
      </trkpt>
      <trkpt lat="47.44124623015523" lon="10.977810518816113">
        <ele>1326.276123046875</ele>
        <time>2013-08-24T10:08:07Z</time>
      </trkpt>
      <trkpt lat="47.441308256238699" lon="10.97763885743916">
        <ele>1327.237548828125</ele>
        <time>2013-08-24T10:08:15Z</time>
      </trkpt>
      <trkpt lat="47.441400624811649" lon="10.97748689353466">
        <ele>1328.19873046875</ele>
        <time>2013-08-24T10:08:23Z</time>
      </trkpt>
      <trkpt lat="47.441526940092444" lon="10.977422436699271">
        <ele>1330.121337890625</ele>
        <time>2013-08-24T10:08:29Z</time>
      </trkpt>
      <trkpt lat="47.441635988652706" lon="10.977396368980408">
        <ele>1331.082763671875</ele>
        <time>2013-08-24T10:08:35Z</time>
      </trkpt>
      <trkpt lat="47.441672449931502" lon="10.977383712306619">
        <ele>1331.563232421875</ele>
        <time>2013-08-24T10:08:37Z</time>
      </trkpt>
      <trkpt lat="47.441829610615969" lon="10.977293690666556">
        <ele>1332.524658203125</ele>
        <time>2013-08-24T10:08:45Z</time>
      </trkpt>
      <trkpt lat="47.441859785467386" lon="10.977262929081917">
        <ele>1333.005126953125</ele>
        <time>2013-08-24T10:08:47Z</time>
      </trkpt>
      <trkpt lat="47.441939162090421" lon="10.977185815572739">
        <ele>1333.48583984375</ele>
        <time>2013-08-24T10:08:52Z</time>
      </trkpt>
      <trkpt lat="47.442063968628645" lon="10.977085484191775">
        <ele>1334.927978515625</ele>
        <time>2013-08-24T10:09:01Z</time>
      </trkpt>
      <trkpt lat="47.442200258374214" lon="10.976945506408811">
        <ele>1336.369873046875</ele>
        <time>2013-08-24T10:09:10Z</time>
      </trkpt>
      <trkpt lat="47.442336464300752" lon="10.97682380117476">
        <ele>1337.811767578125</ele>
        <time>2013-08-24T10:09:18Z</time>
      </trkpt>
      <trkpt lat="47.442453391849995" lon="10.976711148396134">
        <ele>1338.29248046875</ele>
        <time>2013-08-24T10:09:26Z</time>
      </trkpt>
      <trkpt lat="47.442477867007256" lon="10.976670915260911">
        <ele>1338.29248046875</ele>
        <time>2013-08-24T10:09:28Z</time>
      </trkpt>
      <trkpt lat="47.442566212266684" lon="10.976460529491305">
        <ele>1339.734375</ele>
        <time>2013-08-24T10:09:37Z</time>
      </trkpt>
      <trkpt lat="47.442611306905746" lon="10.976409651339054">
        <ele>1340.21533203125</ele>
        <time>2013-08-24T10:09:41Z</time>
      </trkpt>
      <trkpt lat="47.442700490355492" lon="10.976352486759424">
        <ele>1341.176513671875</ele>
        <time>2013-08-24T10:09:48Z</time>
      </trkpt>
      <trkpt lat="47.442769389599562" lon="10.976295992732048">
        <ele>1341.6572265625</ele>
        <time>2013-08-24T10:09:53Z</time>
      </trkpt>
      <trkpt lat="47.442878102883697" lon="10.976166240870953">
        <ele>1343.579833984375</ele>
        <time>2013-08-24T10:09:59Z</time>
      </trkpt>
      <trkpt lat="47.443026462569833" lon="10.975977815687656">
        <ele>1344.541015625</ele>
        <time>2013-08-24T10:10:09Z</time>
      </trkpt>
      <trkpt lat="47.44313140399754" lon="10.975774805992842">
        <ele>1345.50244140625</ele>
        <time>2013-08-24T10:10:18Z</time>
      </trkpt>
      <trkpt lat="47.443235423415899" lon="10.975595265626907">
        <ele>1345.983154296875</ele>
        <time>2013-08-24T10:10:26Z</time>
      </trkpt>
      <trkpt lat="47.443363917991519" lon="10.975410025566816">
        <ele>1347.90576171875</ele>
        <time>2013-08-24T10:10:36Z</time>
      </trkpt>
      <trkpt lat="47.443381603807211" lon="10.975347077473998">
        <ele>1347.90576171875</ele>
        <time>2013-08-24T10:10:40Z</time>
      </trkpt>
      <trkpt lat="47.443362325429916" lon="10.975262504070997">
        <ele>1348.866943359375</ele>
        <time>2013-08-24T10:10:44Z</time>
      </trkpt>
      <trkpt lat="47.443316224962473" lon="10.97508137114346">
        <ele>1349.34765625</ele>
        <time>2013-08-24T10:10:51Z</time>
      </trkpt>
      <trkpt lat="47.443291414529085" lon="10.974954972043633">
        <ele>1350.78955078125</ele>
        <time>2013-08-24T10:10:57Z</time>
      </trkpt>
      <trkpt lat="47.443292923271656" lon="10.974937034770846">
        <ele>1350.78955078125</ele>
        <time>2013-08-24T10:10:58Z</time>
      </trkpt>
      <trkpt lat="47.443316392600536" lon="10.974847096949816">
        <ele>1351.270263671875</ele>
        <time>2013-08-24T10:11:02Z</time>
      </trkpt>
      <trkpt lat="47.443427117541432" lon="10.974604776129127">
        <ele>1352.2314453125</ele>
        <time>2013-08-24T10:11:10Z</time>
      </trkpt>
      <trkpt lat="47.443547565490007" lon="10.97436061128974">
        <ele>1354.154296875</ele>
        <time>2013-08-24T10:11:19Z</time>
      </trkpt>
      <trkpt lat="47.443645717576146" lon="10.974215436726809">
        <ele>1354.634765625</ele>
        <time>2013-08-24T10:11:27Z</time>
      </trkpt>
      <trkpt lat="47.443672707304358" lon="10.974176125600934">
        <ele>1354.634765625</ele>
        <time>2013-08-24T10:11:30Z</time>
      </trkpt>
      <trkpt lat="47.443745043128729" lon="10.974167995154858">
        <ele>1355.115478515625</ele>
        <time>2013-08-24T10:11:36Z</time>
      </trkpt>
      <trkpt lat="47.443774379789829" lon="10.974164893850684">
        <ele>1355.59619140625</ele>
        <time>2013-08-24T10:11:38Z</time>
      </trkpt>
      <trkpt lat="47.443828443065286" lon="10.974157517775893">
        <ele>1356.5576171875</ele>
        <time>2013-08-24T10:11:42Z</time>
      </trkpt>
      <trkpt lat="47.443863898515701" lon="10.97414125688374">
        <ele>1357.038330078125</ele>
        <time>2013-08-24T10:11:44Z</time>
      </trkpt>
      <trkpt lat="47.444032542407513" lon="10.973998680710793">
        <ele>1358.480224609375</ele>
        <time>2013-08-24T10:11:51Z</time>
      </trkpt>
      <trkpt lat="47.444173358380795" lon="10.973898265510798">
        <ele>1358.9609375</ele>
        <time>2013-08-24T10:11:58Z</time>
      </trkpt>
      <trkpt lat="47.444296656176448" lon="10.973806986585259">
        <ele>1360.40283203125</ele>
        <time>2013-08-24T10:12:04Z</time>
      </trkpt>
      <trkpt lat="47.444366058334708" lon="10.973648149520159">
        <ele>1361.3642578125</ele>
        <time>2013-08-24T10:12:13Z</time>
      </trkpt>
      <trkpt lat="47.444356754422188" lon="10.973528288304806">
        <ele>1362.325439453125</ele>
        <time>2013-08-24T10:12:18Z</time>
      </trkpt>
      <trkpt lat="47.444353150203824" lon="10.973468357697129">
        <ele>1363.286865234375</ele>
        <time>2013-08-24T10:12:20Z</time>
      </trkpt>
      <trkpt lat="47.444360693916678" lon="10.973222516477108">
        <ele>1363.767333984375</ele>
        <time>2013-08-24T10:12:29Z</time>
      </trkpt>
      <trkpt lat="47.444348121061921" lon="10.973099386319518">
        <ele>1364.248046875</ele>
        <time>2013-08-24T10:12:35Z</time>
      </trkpt>
      <trkpt lat="47.4443285074085" lon="10.972935520112514">
        <ele>1364.728759765625</ele>
        <time>2013-08-24T10:12:41Z</time>
      </trkpt>
      <trkpt lat="47.444357676431537" lon="10.972756566479802">
        <ele>1364.728759765625</ele>
        <time>2013-08-24T10:12:47Z</time>
      </trkpt>
      <trkpt lat="47.444414170458913" lon="10.972518688067794">
        <ele>1365.20947265625</ele>
        <time>2013-08-24T10:12:54Z</time>
      </trkpt>
      <trkpt lat="47.444536378607154" lon="10.972192883491516">
        <ele>1366.6513671875</ele>
        <time>2013-08-24T10:13:01Z</time>
      </trkpt>
      <trkpt lat="47.444696053862572" lon="10.971910497173667">
        <ele>1367.132080078125</ele>
        <time>2013-08-24T10:13:11Z</time>
      </trkpt>
      <trkpt lat="47.444772329181433" lon="10.971685107797384">
        <ele>1368.09326171875</ele>
        <time>2013-08-24T10:13:19Z</time>
      </trkpt>
      <trkpt lat="47.444717176258564" lon="10.97140247002244">
        <ele>1367.132080078125</ele>
        <time>2013-08-24T10:13:25Z</time>
      </trkpt>
      <trkpt lat="47.444688426330686" lon="10.9711092710495">
        <ele>1368.573974609375</ele>
        <time>2013-08-24T10:13:31Z</time>
      </trkpt>
      <trkpt lat="47.444736706092954" lon="10.970838032662868">
        <ele>1369.0546875</ele>
        <time>2013-08-24T10:13:38Z</time>
      </trkpt>
      <trkpt lat="47.444768976420164" lon="10.970740970224142">
        <ele>1369.0546875</ele>
        <time>2013-08-24T10:13:40Z</time>
      </trkpt>
      <trkpt lat="47.444964442402124" lon="10.970305362716317">
        <ele>1369.0546875</ele>
        <time>2013-08-24T10:13:48Z</time>
      </trkpt>
      <trkpt lat="47.445155382156372" lon="10.970089361071587">
        <ele>1369.0546875</ele>
        <time>2013-08-24T10:13:54Z</time>
      </trkpt>
      <trkpt lat="47.4452886544168" lon="10.969738746061921">
        <ele>1368.573974609375</ele>
        <time>2013-08-24T10:14:01Z</time>
      </trkpt>
      <trkpt lat="47.445288402959704" lon="10.969462729990482">
        <ele>1368.09326171875</ele>
        <time>2013-08-24T10:14:05Z</time>
      </trkpt>
      <trkpt lat="47.445222437381744" lon="10.969130974262953">
        <ele>1368.09326171875</ele>
        <time>2013-08-24T10:14:10Z</time>
      </trkpt>
      <trkpt lat="47.445209193974733" lon="10.968996025621891">
        <ele>1368.573974609375</ele>
        <time>2013-08-24T10:14:12Z</time>
      </trkpt>
      <trkpt lat="47.445281697437167" lon="10.968738868832588">
        <ele>1368.09326171875</ele>
        <time>2013-08-24T10:14:18Z</time>
      </trkpt>
      <trkpt lat="47.445387225598097" lon="10.968568380922079">
        <ele>1367.132080078125</ele>
        <time>2013-08-24T10:14:22Z</time>
      </trkpt>
      <trkpt lat="47.445676987990737" lon="10.96820536069572">
        <ele>1368.09326171875</ele>
        <time>2013-08-24T10:14:30Z</time>
      </trkpt>
      <trkpt lat="47.445765668526292" lon="10.968032442033291">
        <ele>1368.09326171875</ele>
        <time>2013-08-24T10:14:33Z</time>
      </trkpt>
      <trkpt lat="47.445986196398735" lon="10.967757012695074">
        <ele>1367.612548828125</ele>
        <time>2013-08-24T10:14:39Z</time>
      </trkpt>
      <trkpt lat="47.446069847792387" lon="10.967676043510437">
        <ele>1367.612548828125</ele>
        <time>2013-08-24T10:14:41Z</time>
      </trkpt>
      <trkpt lat="47.44622927159071" lon="10.967516452074051">
        <ele>1367.612548828125</ele>
        <time>2013-08-24T10:14:45Z</time>
      </trkpt>
      <trkpt lat="47.446366902440786" lon="10.967212188988924">
        <ele>1367.132080078125</ele>
        <time>2013-08-24T10:14:51Z</time>
      </trkpt>
      <trkpt lat="47.446451978757977" lon="10.966812707483768">
        <ele>1367.612548828125</ele>
        <time>2013-08-24T10:14:58Z</time>
      </trkpt>
      <trkpt lat="47.446477962657809" lon="10.9664795268327">
        <ele>1367.612548828125</ele>
        <time>2013-08-24T10:15:04Z</time>
      </trkpt>
      <trkpt lat="47.446370590478182" lon="10.966120110824704">
        <ele>1369.535400390625</ele>
        <time>2013-08-24T10:15:11Z</time>
      </trkpt>
      <trkpt lat="47.446314012631774" lon="10.96587267704308">
        <ele>1370.015869140625</ele>
        <time>2013-08-24T10:15:18Z</time>
      </trkpt>
      <trkpt lat="47.446356508880854" lon="10.965605294331908">
        <ele>1370.49658203125</ele>
        <time>2013-08-24T10:15:26Z</time>
      </trkpt>
      <trkpt lat="47.446383498609066" lon="10.965189216658473">
        <ele>1371.9384765625</ele>
        <time>2013-08-24T10:15:38Z</time>
      </trkpt>
      <trkpt lat="47.446425827220082" lon="10.964913871139288">
        <ele>1372.900146484375</ele>
        <time>2013-08-24T10:15:44Z</time>
      </trkpt>
      <trkpt lat="47.446575528010726" lon="10.964700635522604">
        <ele>1374.82275390625</ele>
        <time>2013-08-24T10:15:52Z</time>
      </trkpt>
      <trkpt lat="47.446716092526913" lon="10.964503493160009">
        <ele>1376.2646484375</ele>
        <time>2013-08-24T10:16:02Z</time>
      </trkpt>
      <trkpt lat="47.446820782497525" lon="10.964290592819452">
        <ele>1376.745361328125</ele>
        <time>2013-08-24T10:16:11Z</time>
      </trkpt>
      <trkpt lat="47.446945421397686" lon="10.964125385507941">
        <ele>1377.70654296875</ele>
        <time>2013-08-24T10:16:20Z</time>
      </trkpt>
      <trkpt lat="47.447077855467796" lon="10.963977361097932">
        <ele>1379.629150390625</ele>
        <time>2013-08-24T10:16:29Z</time>
      </trkpt>
      <trkpt lat="47.447217246517539" lon="10.963778961449862">
        <ele>1380.10986328125</ele>
        <time>2013-08-24T10:16:38Z</time>
      </trkpt>
      <trkpt lat="47.447345908731222" lon="10.963590452447534">
        <ele>1380.590576171875</ele>
        <time>2013-08-24T10:16:46Z</time>
      </trkpt>
      <trkpt lat="47.447483204305172" lon="10.963377468287945">
        <ele>1381.0712890625</ele>
        <time>2013-08-24T10:16:55Z</time>
      </trkpt>
      <trkpt lat="47.447572723031044" lon="10.963183343410492">
        <ele>1381.5517578125</ele>
        <time>2013-08-24T10:17:02Z</time>
      </trkpt>
      <trkpt lat="47.447716221213341" lon="10.962983602657914">
        <ele>1381.5517578125</ele>
        <time>2013-08-24T10:17:10Z</time>
      </trkpt>
      <trkpt lat="47.447832310572267" lon="10.962841780856252">
        <ele>1382.032470703125</ele>
        <time>2013-08-24T10:17:17Z</time>
      </trkpt>
      <trkpt lat="47.447840357199311" lon="10.962813533842564">
        <ele>1382.032470703125</ele>
        <time>2013-08-24T10:17:18Z</time>
      </trkpt>
      <trkpt lat="47.447882937267423" lon="10.962639944627881">
        <ele>1382.99365234375</ele>
        <time>2013-08-24T10:17:26Z</time>
      </trkpt>
      <trkpt lat="47.447888972237706" lon="10.962585378438234">
        <ele>1383.955078125</ele>
        <time>2013-08-24T10:17:30Z</time>
      </trkpt>
      <trkpt lat="47.447906155139208" lon="10.962460739538074">
        <ele>1384.91650390625</ele>
        <time>2013-08-24T10:17:34Z</time>
      </trkpt>
      <trkpt lat="47.447919733822346" lon="10.962393432855606">
        <ele>1385.39697265625</ele>
        <time>2013-08-24T10:17:36Z</time>
      </trkpt>
      <trkpt lat="47.447952339425683" lon="10.962180532515049">
        <ele>1387.80029296875</ele>
        <time>2013-08-24T10:17:45Z</time>
      </trkpt>
      <trkpt lat="47.447980754077435" lon="10.962016079574823">
        <ele>1390.203857421875</ele>
        <time>2013-08-24T10:17:52Z</time>
      </trkpt>
      <trkpt lat="47.448048479855061" lon="10.961840897798538">
        <ele>1391.1650390625</ele>
        <time>2013-08-24T10:18:00Z</time>
      </trkpt>
      <trkpt lat="47.44806507602334" lon="10.961773674935102">
        <ele>1392.12646484375</ele>
        <time>2013-08-24T10:18:05Z</time>
      </trkpt>
      <trkpt lat="47.448031799867749" lon="10.961787085980177">
        <ele>1393.087646484375</ele>
        <time>2013-08-24T10:18:21Z</time>
      </trkpt>
      <trkpt lat="47.448048815131187" lon="10.961673678830266">
        <ele>1395.490966796875</ele>
        <time>2013-08-24T10:18:30Z</time>
      </trkpt>
      <trkpt lat="47.448080917820334" lon="10.961536634713411">
        <ele>1397.41357421875</ele>
        <time>2013-08-24T10:18:40Z</time>
      </trkpt>
      <trkpt lat="47.448000535368919" lon="10.961443008854985">
        <ele>1400.297607421875</ele>
        <time>2013-08-24T10:18:52Z</time>
      </trkpt>
      <trkpt lat="47.448004642501473" lon="10.961244190111756">
        <ele>1403.662109375</ele>
        <time>2013-08-24T10:19:06Z</time>
      </trkpt>
      <trkpt lat="47.448087874799967" lon="10.961048975586891">
        <ele>1406.0654296875</ele>
        <time>2013-08-24T10:19:18Z</time>
      </trkpt>
      <trkpt lat="47.448113858699799" lon="10.960928527638316">
        <ele>1407.98828125</ele>
        <time>2013-08-24T10:19:30Z</time>
      </trkpt>
      <trkpt lat="47.448114864528179" lon="10.96082123927772">
        <ele>1409.91064453125</ele>
        <time>2013-08-24T10:19:42Z</time>
      </trkpt>
      <trkpt lat="47.448133639991283" lon="10.960796931758523">
        <ele>1410.391357421875</ele>
        <time>2013-08-24T10:19:49Z</time>
      </trkpt>
      <trkpt lat="47.448220225051045" lon="10.960630383342505">
        <ele>1409.91064453125</ele>
        <time>2013-08-24T10:19:58Z</time>
      </trkpt>
      <trkpt lat="47.448302367702127" lon="10.960404491052032">
        <ele>1411.352783203125</ele>
        <time>2013-08-24T10:20:06Z</time>
      </trkpt>
      <trkpt lat="47.448367075994611" lon="10.960177928209305">
        <ele>1411.352783203125</ele>
        <time>2013-08-24T10:20:13Z</time>
      </trkpt>
      <trkpt lat="47.448408817872405" lon="10.959932506084442">
        <ele>1412.31396484375</ele>
        <time>2013-08-24T10:20:21Z</time>
      </trkpt>
      <trkpt lat="47.44843102991581" lon="10.959875173866749">
        <ele>1413.275390625</ele>
        <time>2013-08-24T10:20:23Z</time>
      </trkpt>
      <trkpt lat="47.448516441509128" lon="10.95977115444839">
        <ele>1413.755859375</ele>
        <time>2013-08-24T10:20:28Z</time>
      </trkpt>
      <trkpt lat="47.448695227503777" lon="10.959881963208318">
        <ele>1414.236572265625</ele>
        <time>2013-08-24T10:20:36Z</time>
      </trkpt>
      <trkpt lat="47.448893124237657" lon="10.959974667057395">
        <ele>1415.197998046875</ele>
        <time>2013-08-24T10:20:45Z</time>
      </trkpt>
      <trkpt lat="47.449006531387568" lon="10.960031496360898">
        <ele>1416.639892578125</ele>
        <time>2013-08-24T10:20:51Z</time>
      </trkpt>
      <trkpt lat="47.449152544140816" lon="10.959947090595961">
        <ele>1417.60107421875</ele>
        <time>2013-08-24T10:21:00Z</time>
      </trkpt>
      <trkpt lat="47.449130415916443" lon="10.959836533293128">
        <ele>1418.081787109375</ele>
        <time>2013-08-24T10:21:05Z</time>
      </trkpt>
      <trkpt lat="47.449098564684391" lon="10.959562612697482">
        <ele>1420.004638671875</ele>
        <time>2013-08-24T10:21:15Z</time>
      </trkpt>
      <trkpt lat="47.449089009314775" lon="10.959541574120522">
        <ele>1420.004638671875</ele>
        <time>2013-08-24T10:21:16Z</time>
      </trkpt>
      <trkpt lat="47.448988258838654" lon="10.959470998495817">
        <ele>1420.4853515625</ele>
        <time>2013-08-24T10:21:22Z</time>
      </trkpt>
      <trkpt lat="47.448876025155187" lon="10.959318531677127">
        <ele>1422.888671875</ele>
        <time>2013-08-24T10:21:31Z</time>
      </trkpt>
      <trkpt lat="47.448868062347174" lon="10.959202945232391">
        <ele>1423.369384765625</ele>
        <time>2013-08-24T10:21:36Z</time>
      </trkpt>
      <trkpt lat="47.448898823931813" lon="10.958997085690498">
        <ele>1425.291748046875</ele>
        <time>2013-08-24T10:21:44Z</time>
      </trkpt>
      <trkpt lat="47.448937548324466" lon="10.958801032975316">
        <ele>1425.7724609375</ele>
        <time>2013-08-24T10:21:53Z</time>
      </trkpt>
      <trkpt lat="47.448951881378889" lon="10.958760213106871">
        <ele>1426.253173828125</ele>
        <time>2013-08-24T10:21:55Z</time>
      </trkpt>
      <trkpt lat="47.448986247181892" lon="10.958685111254454">
        <ele>1426.73388671875</ele>
        <time>2013-08-24T10:21:59Z</time>
      </trkpt>
      <trkpt lat="47.449097223579884" lon="10.958537170663476">
        <ele>1428.17578125</ele>
        <time>2013-08-24T10:22:08Z</time>
      </trkpt>
      <trkpt lat="47.449191939085722" lon="10.958567094057798">
        <ele>1428.656494140625</ele>
        <time>2013-08-24T10:22:15Z</time>
      </trkpt>
      <trkpt lat="47.44929981417954" lon="10.958636831492186">
        <ele>1430.5791015625</ele>
        <time>2013-08-24T10:22:21Z</time>
      </trkpt>
      <trkpt lat="47.449360080063343" lon="10.958659965544939">
        <ele>1431.059814453125</ele>
        <time>2013-08-24T10:22:24Z</time>
      </trkpt>
      <trkpt lat="47.449532328173518" lon="10.958661222830415">
        <ele>1432.02099609375</ele>
        <time>2013-08-24T10:22:33Z</time>
      </trkpt>
      <trkpt lat="47.449592761695385" lon="10.958581427112222">
        <ele>1432.982177734375</ele>
        <time>2013-08-24T10:22:40Z</time>
      </trkpt>
      <trkpt lat="47.449573399499059" lon="10.958416890352964">
        <ele>1434.42431640625</ele>
        <time>2013-08-24T10:22:47Z</time>
      </trkpt>
      <trkpt lat="47.449664678424597" lon="10.958193093538284">
        <ele>1434.905029296875</ele>
        <time>2013-08-24T10:22:55Z</time>
      </trkpt>
      <trkpt lat="47.449754448607564" lon="10.95809418708086">
        <ele>1436.34716796875</ele>
        <time>2013-08-24T10:23:01Z</time>
      </trkpt>
      <trkpt lat="47.449878584593534" lon="10.958161074668169">
        <ele>1437.7890625</ele>
        <time>2013-08-24T10:23:10Z</time>
      </trkpt>
      <trkpt lat="47.449904149398208" lon="10.95823097974062">
        <ele>1437.7890625</ele>
        <time>2013-08-24T10:23:13Z</time>
      </trkpt>
      <trkpt lat="47.449916638433933" lon="10.958343464881182">
        <ele>1437.7890625</ele>
        <time>2013-08-24T10:23:17Z</time>
      </trkpt>
      <trkpt lat="47.449921667575836" lon="10.958463912829757">
        <ele>1438.269775390625</ele>
        <time>2013-08-24T10:23:21Z</time>
      </trkpt>
      <trkpt lat="47.449889397248626" lon="10.958667509257793">
        <ele>1439.23095703125</ele>
        <time>2013-08-24T10:23:28Z</time>
      </trkpt>
      <trkpt lat="47.449845811352134" lon="10.958880158141255">
        <ele>1441.153564453125</ele>
        <time>2013-08-24T10:23:37Z</time>
      </trkpt>
      <trkpt lat="47.449995093047619" lon="10.958999935537577">
        <ele>1442.595703125</ele>
        <time>2013-08-24T10:23:45Z</time>
      </trkpt>
      <trkpt lat="47.450112774968147" lon="10.958863226696849">
        <ele>1443.556884765625</ele>
        <time>2013-08-24T10:23:54Z</time>
      </trkpt>
      <trkpt lat="47.450151080265641" lon="10.958713022992015">
        <ele>1444.51806640625</ele>
        <time>2013-08-24T10:24:03Z</time>
      </trkpt>
      <trkpt lat="47.450156528502703" lon="10.958681842312217">
        <ele>1444.998779296875</ele>
        <time>2013-08-24T10:24:05Z</time>
      </trkpt>
      <trkpt lat="47.450227187946439" lon="10.958565166220069">
        <ele>1446.92138671875</ele>
        <time>2013-08-24T10:24:13Z</time>
      </trkpt>
      <trkpt lat="47.450254764407873" lon="10.958502888679504">
        <ele>1446.92138671875</ele>
        <time>2013-08-24T10:24:16Z</time>
      </trkpt>
      <trkpt lat="47.450323747470975" lon="10.958245983347297">
        <ele>1447.8828125</ele>
        <time>2013-08-24T10:24:27Z</time>
      </trkpt>
      <trkpt lat="47.450341265648603" lon="10.958168031647801">
        <ele>1448.843994140625</ele>
        <time>2013-08-24T10:24:33Z</time>
      </trkpt>
      <trkpt lat="47.4503552634269" lon="10.95807021483779">
        <ele>1448.843994140625</ele>
        <time>2013-08-24T10:24:37Z</time>
      </trkpt>
      <trkpt lat="47.450348725542426" lon="10.957699986174703">
        <ele>1449.805419921875</ele>
        <time>2013-08-24T10:24:44Z</time>
      </trkpt>
      <trkpt lat="47.450333973392844" lon="10.95761239528656">
        <ele>1449.805419921875</ele>
        <time>2013-08-24T10:24:46Z</time>
      </trkpt>
      <trkpt lat="47.450297009199858" lon="10.957535449415445">
        <ele>1451.247314453125</ele>
        <time>2013-08-24T10:24:49Z</time>
      </trkpt>
      <trkpt lat="47.450145380571485" lon="10.957439728081226">
        <ele>1451.247314453125</ele>
        <time>2013-08-24T10:24:56Z</time>
      </trkpt>
      <trkpt lat="47.45009534060955" lon="10.95740376971662">
        <ele>1452.208740234375</ele>
        <time>2013-08-24T10:25:00Z</time>
      </trkpt>
      <trkpt lat="47.450056532397866" lon="10.957228923216462">
        <ele>1453.65087890625</ele>
        <time>2013-08-24T10:25:08Z</time>
      </trkpt>
      <trkpt lat="47.450017388910055" lon="10.957017447799444">
        <ele>1454.131591796875</ele>
        <time>2013-08-24T10:25:14Z</time>
      </trkpt>
      <trkpt lat="47.450008252635598" lon="10.95698936842382">
        <ele>1454.612060546875</ele>
        <time>2013-08-24T10:25:15Z</time>
      </trkpt>
      <trkpt lat="47.449957290664315" lon="10.956884007900953">
        <ele>1455.573486328125</ele>
        <time>2013-08-24T10:25:20Z</time>
      </trkpt>
      <trkpt lat="47.449903562664986" lon="10.956796919927001">
        <ele>1455.0927734375</ele>
        <time>2013-08-24T10:25:25Z</time>
      </trkpt>
      <trkpt lat="47.449879674240947" lon="10.956761883571744">
        <ele>1455.573486328125</ele>
        <time>2013-08-24T10:25:27Z</time>
      </trkpt>
      <trkpt lat="47.449784204363823" lon="10.956670856103301">
        <ele>1456.53466796875</ele>
        <time>2013-08-24T10:25:34Z</time>
      </trkpt>
      <trkpt lat="47.449689907953143" lon="10.956641184166074">
        <ele>1457.49609375</ele>
        <time>2013-08-24T10:25:40Z</time>
      </trkpt>
      <trkpt lat="47.449674401432276" lon="10.956645542755723">
        <ele>1457.49609375</ele>
        <time>2013-08-24T10:25:41Z</time>
      </trkpt>
      <trkpt lat="47.449615728110075" lon="10.956693235784769">
        <ele>1457.49609375</ele>
        <time>2013-08-24T10:25:45Z</time>
      </trkpt>
      <trkpt lat="47.449587984010577" lon="10.956715447828174">
        <ele>1457.976806640625</ele>
        <time>2013-08-24T10:25:47Z</time>
      </trkpt>
      <trkpt lat="47.449464434757829" lon="10.956709077581763">
        <ele>1458.93798828125</ele>
        <time>2013-08-24T10:25:53Z</time>
      </trkpt>
      <trkpt lat="47.449359325692058" lon="10.956689799204469">
        <ele>1459.899169921875</ele>
        <time>2013-08-24T10:25:57Z</time>
      </trkpt>
      <trkpt lat="47.449285732582211" lon="10.956666497513652">
        <ele>1459.899169921875</ele>
        <time>2013-08-24T10:26:00Z</time>
      </trkpt>
      <trkpt lat="47.449192190542817" lon="10.956578068435192">
        <ele>1460.860595703125</ele>
        <time>2013-08-24T10:26:06Z</time>
      </trkpt>
      <trkpt lat="47.449165619909763" lon="10.956552252173424">
        <ele>1461.34130859375</ele>
        <time>2013-08-24T10:26:08Z</time>
      </trkpt>
      <trkpt lat="47.449037041515112" lon="10.956495003774762">
        <ele>1461.822021484375</ele>
        <time>2013-08-24T10:26:15Z</time>
      </trkpt>
      <trkpt lat="47.448973003774881" lon="10.956474719569087">
        <ele>1463.263916015625</ele>
        <time>2013-08-24T10:26:19Z</time>
      </trkpt>
      <trkpt lat="47.448852304369211" lon="10.956481844186783">
        <ele>1464.22509765625</ele>
        <time>2013-08-24T10:26:28Z</time>
      </trkpt>
      <trkpt lat="47.448828332126141" lon="10.956491651013494">
        <ele>1465.1865234375</ele>
        <time>2013-08-24T10:26:30Z</time>
      </trkpt>
      <trkpt lat="47.448745770379901" lon="10.956543702632189">
        <ele>1465.667236328125</ele>
        <time>2013-08-24T10:26:37Z</time>
      </trkpt>
      <trkpt lat="47.448655245825648" lon="10.956604806706309">
        <ele>1466.62841796875</ele>
        <time>2013-08-24T10:26:44Z</time>
      </trkpt>
      <trkpt lat="47.448565727099776" lon="10.956740928813815">
        <ele>1467.589599609375</ele>
        <time>2013-08-24T10:26:52Z</time>
      </trkpt>
      <trkpt lat="47.448527254164219" lon="10.956818629056215">
        <ele>1468.55126953125</ele>
        <time>2013-08-24T10:26:56Z</time>
      </trkpt>
      <trkpt lat="47.448507137596607" lon="10.956853246316314">
        <ele>1469.031982421875</ele>
        <time>2013-08-24T10:26:58Z</time>
      </trkpt>
      <trkpt lat="47.448406722396612" lon="10.956951314583421">
        <ele>1469.031982421875</ele>
        <time>2013-08-24T10:27:05Z</time>
      </trkpt>
      <trkpt lat="47.448298512026668" lon="10.957017447799444">
        <ele>1469.031982421875</ele>
        <time>2013-08-24T10:27:11Z</time>
      </trkpt>
      <trkpt lat="47.448176639154553" lon="10.957109145820141">
        <ele>1470.95458984375</ele>
        <time>2013-08-24T10:27:19Z</time>
      </trkpt>
      <trkpt lat="47.448083264753222" lon="10.957187348976731">
        <ele>1471.915771484375</ele>
        <time>2013-08-24T10:27:26Z</time>
      </trkpt>
      <trkpt lat="47.447975054383278" lon="10.957291200757027">
        <ele>1471.915771484375</ele>
        <time>2013-08-24T10:27:32Z</time>
      </trkpt>
      <trkpt lat="47.447871286422014" lon="10.957381390035152">
        <ele>1472.396484375</ele>
        <time>2013-08-24T10:27:39Z</time>
      </trkpt>
      <trkpt lat="47.447746898978949" lon="10.957463532686234">
        <ele>1472.877197265625</ele>
        <time>2013-08-24T10:27:45Z</time>
      </trkpt>
      <trkpt lat="47.447669450193644" lon="10.957505945116282">
        <ele>1472.877197265625</ele>
        <time>2013-08-24T10:27:49Z</time>
      </trkpt>
      <trkpt lat="47.447618488222361" lon="10.957560762763023">
        <ele>1473.35791015625</ele>
        <time>2013-08-24T10:27:52Z</time>
      </trkpt>
      <trkpt lat="47.447481108829379" lon="10.957824625074863">
        <ele>1474.319091796875</ele>
        <time>2013-08-24T10:28:01Z</time>
      </trkpt>
      <trkpt lat="47.447329647839069" lon="10.95798765309155">
        <ele>1474.319091796875</ele>
        <time>2013-08-24T10:28:08Z</time>
      </trkpt>
      <trkpt lat="47.447089003399014" lon="10.958247995004058">
        <ele>1475.760986328125</ele>
        <time>2013-08-24T10:28:18Z</time>
      </trkpt>
      <trkpt lat="47.447046339511871" lon="10.958290994167328">
        <ele>1476.24169921875</ele>
        <time>2013-08-24T10:28:20Z</time>
      </trkpt>
      <trkpt lat="47.446827571839094" lon="10.958169121295214">
        <ele>1477.203125</ele>
        <time>2013-08-24T10:28:28Z</time>
      </trkpt>
      <trkpt lat="47.446712907403708" lon="10.958026712760329">
        <ele>1477.68359375</ele>
        <time>2013-08-24T10:28:35Z</time>
      </trkpt>
      <trkpt lat="47.44671449996531" lon="10.958030736073852">
        <ele>1476.722412109375</ele>
        <time>2013-08-24T10:28:46Z</time>
      </trkpt>
      <trkpt lat="47.446726569905877" lon="10.958019588142633">
        <ele>1477.203125</ele>
        <time>2013-08-24T10:28:54Z</time>
      </trkpt>
      <trkpt lat="47.446660352870822" lon="10.957936188206077">
        <ele>1477.68359375</ele>
        <time>2013-08-24T10:28:59Z</time>
      </trkpt>
      <trkpt lat="47.446498665958643" lon="10.957827977836132">
        <ele>1478.164306640625</ele>
        <time>2013-08-24T10:29:05Z</time>
      </trkpt>
      <trkpt lat="47.446232540532947" lon="10.957659920677543">
        <ele>1479.12548828125</ele>
        <time>2013-08-24T10:29:15Z</time>
      </trkpt>
      <trkpt lat="47.446190798655152" lon="10.957620525732636">
        <ele>1479.606201171875</ele>
        <time>2013-08-24T10:29:17Z</time>
      </trkpt>
      <trkpt lat="47.446092898026109" lon="10.957535617053509">
        <ele>1480.0869140625</ele>
        <time>2013-08-24T10:29:21Z</time>
      </trkpt>
      <trkpt lat="47.446044199168682" lon="10.957451378926635">
        <ele>1481.04833984375</ele>
        <time>2013-08-24T10:29:24Z</time>
      </trkpt>
      <trkpt lat="47.445972952991724" lon="10.95735783688724">
        <ele>1481.04833984375</ele>
        <time>2013-08-24T10:29:28Z</time>
      </trkpt>
      <trkpt lat="47.445913022384048" lon="10.957307545468211">
        <ele>1481.52880859375</ele>
        <time>2013-08-24T10:29:32Z</time>
      </trkpt>
      <trkpt lat="47.44584764353931" lon="10.957275442779064">
        <ele>1482.009521484375</ele>
        <time>2013-08-24T10:29:36Z</time>
      </trkpt>
      <trkpt lat="47.445711605250835" lon="10.957295978441834">
        <ele>1483.451416015625</ele>
        <time>2013-08-24T10:29:43Z</time>
      </trkpt>
      <trkpt lat="47.445631893351674" lon="10.957252811640501">
        <ele>1484.893798828125</ele>
        <time>2013-08-24T10:29:49Z</time>
      </trkpt>
      <trkpt lat="47.445482611656189" lon="10.957199754193425">
        <ele>1485.374267578125</ele>
        <time>2013-08-24T10:29:55Z</time>
      </trkpt>
      <trkpt lat="47.445305837318301" lon="10.957121970131993">
        <ele>1486.816162109375</ele>
        <time>2013-08-24T10:30:02Z</time>
      </trkpt>
      <trkpt lat="47.445250516757369" lon="10.957116354256868">
        <ele>1486.335693359375</ele>
        <time>2013-08-24T10:30:04Z</time>
      </trkpt>
      <trkpt lat="47.445170134305954" lon="10.957109145820141">
        <ele>1487.296875</ele>
        <time>2013-08-24T10:30:09Z</time>
      </trkpt>
      <trkpt lat="47.445026887580752" lon="10.957196401432157">
        <ele>1487.777587890625</ele>
        <time>2013-08-24T10:30:17Z</time>
      </trkpt>
      <trkpt lat="47.444972153753042" lon="10.957202771678567">
        <ele>1490.180908203125</ele>
        <time>2013-08-24T10:30:21Z</time>
      </trkpt>
      <trkpt lat="47.444850029423833" lon="10.957176284864545">
        <ele>1490.180908203125</ele>
        <time>2013-08-24T10:30:27Z</time>
      </trkpt>
      <trkpt lat="47.444733940064907" lon="10.957110654562712">
        <ele>1491.622802734375</ele>
        <time>2013-08-24T10:30:33Z</time>
      </trkpt>
      <trkpt lat="47.444684486836195" lon="10.957093890756369">
        <ele>1492.103515625</ele>
        <time>2013-08-24T10:30:35Z</time>
      </trkpt>
      <trkpt lat="47.44453034363687" lon="10.957080814987421">
        <ele>1491.622802734375</ele>
        <time>2013-08-24T10:30:42Z</time>
      </trkpt>
      <trkpt lat="47.444504527375102" lon="10.957076204940677">
        <ele>1492.584228515625</ele>
        <time>2013-08-24T10:30:49Z</time>
      </trkpt>
      <trkpt lat="47.444471418857574" lon="10.957063883543015">
        <ele>1493.064697265625</ele>
        <time>2013-08-24T10:31:11Z</time>
      </trkpt>
      <trkpt lat="47.44433831423521" lon="10.957086514681578">
        <ele>1490.661376953125</ele>
        <time>2013-08-24T10:31:18Z</time>
      </trkpt>
      <trkpt lat="47.444307636469603" lon="10.957095231860876">
        <ele>1490.661376953125</ele>
        <time>2013-08-24T10:31:19Z</time>
      </trkpt>
      <trkpt lat="47.444270756095648" lon="10.95710520632565">
        <ele>1490.661376953125</ele>
        <time>2013-08-24T10:31:20Z</time>
      </trkpt>
      <trkpt lat="47.444189367815852" lon="10.957146445289254">
        <ele>1488.739013671875</ele>
        <time>2013-08-24T10:31:22Z</time>
      </trkpt>
      <trkpt lat="47.444030530750751" lon="10.957340486347675">
        <ele>1484.893798828125</ele>
        <time>2013-08-24T10:31:26Z</time>
      </trkpt>
      <trkpt lat="47.443972444161773" lon="10.957429669797421">
        <ele>1484.4130859375</ele>
        <time>2013-08-24T10:31:27Z</time>
      </trkpt>
      <trkpt lat="47.443830370903015" lon="10.957574425265193">
        <ele>1483.93212890625</ele>
        <time>2013-08-24T10:31:29Z</time>
      </trkpt>
      <trkpt lat="47.443589810281992" lon="10.957880029454827">
        <ele>1482.970703125</ele>
        <time>2013-08-24T10:31:33Z</time>
      </trkpt>
      <trkpt lat="47.44348662905395" lon="10.958240367472172">
        <ele>1480.567626953125</ele>
        <time>2013-08-24T10:31:36Z</time>
      </trkpt>
      <trkpt lat="47.443415885791183" lon="10.958429044112563">
        <ele>1481.52880859375</ele>
        <time>2013-08-24T10:31:38Z</time>
      </trkpt>
      <trkpt lat="47.443192005157471" lon="10.958680501207709">
        <ele>1481.52880859375</ele>
        <time>2013-08-24T10:31:43Z</time>
      </trkpt>
      <trkpt lat="47.443054961040616" lon="10.958733726292849">
        <ele>1481.52880859375</ele>
        <time>2013-08-24T10:31:46Z</time>
      </trkpt>
      <trkpt lat="47.442870642989874" lon="10.959030613303185">
        <ele>1480.567626953125</ele>
        <time>2013-08-24T10:31:52Z</time>
      </trkpt>
      <trkpt lat="47.442863769829273" lon="10.95911250449717">
        <ele>1480.567626953125</ele>
        <time>2013-08-24T10:31:53Z</time>
      </trkpt>
      <trkpt lat="47.442841893061996" lon="10.959363039582968">
        <ele>1479.12548828125</ele>
        <time>2013-08-24T10:31:56Z</time>
      </trkpt>
      <trkpt lat="47.442681128159165" lon="10.959597900509834">
        <ele>1476.24169921875</ele>
        <time>2013-08-24T10:32:00Z</time>
      </trkpt>
      <trkpt lat="47.442603092640638" lon="10.959622291848063">
        <ele>1475.760986328125</ele>
        <time>2013-08-24T10:32:01Z</time>
      </trkpt>
      <trkpt lat="47.442382983863354" lon="10.95974181778729">
        <ele>1472.396484375</ele>
        <time>2013-08-24T10:32:04Z</time>
      </trkpt>
      <trkpt lat="47.44221861474216" lon="10.959971146658063">
        <ele>1471.915771484375</ele>
        <time>2013-08-24T10:32:07Z</time>
      </trkpt>
      <trkpt lat="47.442019293084741" lon="10.96018991433084">
        <ele>1471.915771484375</ele>
        <time>2013-08-24T10:32:11Z</time>
      </trkpt>
      <trkpt lat="47.441962799057364" lon="10.960170049220324">
        <ele>1470.95458984375</ele>
        <time>2013-08-24T10:32:12Z</time>
      </trkpt>
      <trkpt lat="47.441766913980246" lon="10.960019761696458">
        <ele>1467.589599609375</ele>
        <time>2013-08-24T10:32:15Z</time>
      </trkpt>
      <trkpt lat="47.441696505993605" lon="10.959965446963906">
        <ele>1466.62841796875</ele>
        <time>2013-08-24T10:32:16Z</time>
      </trkpt>
      <trkpt lat="47.441392662003636" lon="10.959853213280439">
        <ele>1462.783203125</ele>
        <time>2013-08-24T10:32:19Z</time>
      </trkpt>
      <trkpt lat="47.441036934033036" lon="10.959641402587295">
        <ele>1462.302490234375</ele>
        <time>2013-08-24T10:32:23Z</time>
      </trkpt>
      <trkpt lat="47.440746501088142" lon="10.959413079544902">
        <ele>1463.263916015625</ele>
        <time>2013-08-24T10:32:27Z</time>
      </trkpt>
      <trkpt lat="47.440528320148587" lon="10.959346946328878">
        <ele>1461.34130859375</ele>
        <time>2013-08-24T10:32:31Z</time>
      </trkpt>
      <trkpt lat="47.44048741646111" lon="10.95942129381001">
        <ele>1460.860595703125</ele>
        <time>2013-08-24T10:32:32Z</time>
      </trkpt>
      <trkpt lat="47.440439639613032" lon="10.95960988663137">
        <ele>1458.93798828125</ele>
        <time>2013-08-24T10:32:34Z</time>
      </trkpt>
      <trkpt lat="47.440338470041752" lon="10.959824630990624">
        <ele>1456.53466796875</ele>
        <time>2013-08-24T10:32:37Z</time>
      </trkpt>
      <trkpt lat="47.44015415199101" lon="10.959835695102811">
        <ele>1454.131591796875</ele>
        <time>2013-08-24T10:32:40Z</time>
      </trkpt>
      <trkpt lat="47.440061699599028" lon="10.959805771708488">
        <ele>1452.208740234375</ele>
        <time>2013-08-24T10:32:42Z</time>
      </trkpt>
      <trkpt lat="47.439893810078502" lon="10.959750702604651">
        <ele>1451.247314453125</ele>
        <time>2013-08-24T10:32:48Z</time>
      </trkpt>
      <trkpt lat="47.439871681854129" lon="10.959535455331206">
        <ele>1448.843994140625</ele>
        <time>2013-08-24T10:32:53Z</time>
      </trkpt>
      <trkpt lat="47.439862377941608" lon="10.959416851401329">
        <ele>1448.36328125</ele>
        <time>2013-08-24T10:32:55Z</time>
      </trkpt>
      <trkpt lat="47.439880734309554" lon="10.959202358499169">
        <ele>1445.4794921875</ele>
        <time>2013-08-24T10:32:58Z</time>
      </trkpt>
      <trkpt lat="47.439900850877166" lon="10.959136309102178">
        <ele>1444.51806640625</ele>
        <time>2013-08-24T10:32:59Z</time>
      </trkpt>
      <trkpt lat="47.439906466752291" lon="10.958913266658783">
        <ele>1441.153564453125</ele>
        <time>2013-08-24T10:33:03Z</time>
      </trkpt>
      <trkpt lat="47.439859863370657" lon="10.958867920562625">
        <ele>1441.153564453125</ele>
        <time>2013-08-24T10:33:04Z</time>
      </trkpt>
      <trkpt lat="47.439798340201378" lon="10.95883347094059">
        <ele>1440.1923828125</ele>
        <time>2013-08-24T10:33:05Z</time>
      </trkpt>
      <trkpt lat="47.439574208110571" lon="10.958764823153615">
        <ele>1438.75048828125</ele>
        <time>2013-08-24T10:33:08Z</time>
      </trkpt>
      <trkpt lat="47.439495334401727" lon="10.958738503977656">
        <ele>1439.23095703125</ele>
        <time>2013-08-24T10:33:09Z</time>
      </trkpt>
      <trkpt lat="47.439244715496898" lon="10.958492578938603">
        <ele>1438.75048828125</ele>
        <time>2013-08-24T10:33:14Z</time>
      </trkpt>
      <trkpt lat="47.43923407047987" lon="10.958396522328258">
        <ele>1439.711669921875</ele>
        <time>2013-08-24T10:33:16Z</time>
      </trkpt>
      <trkpt lat="47.439243625849485" lon="10.958338938653469">
        <ele>1439.23095703125</ele>
        <time>2013-08-24T10:33:21Z</time>
      </trkpt>
      <trkpt lat="47.439218144863844" lon="10.958254281431437">
        <ele>1438.75048828125</ele>
        <time>2013-08-24T10:33:58Z</time>
      </trkpt>
      <trkpt lat="47.439155951142311" lon="10.958072058856487">
        <ele>1438.75048828125</ele>
        <time>2013-08-24T10:34:02Z</time>
      </trkpt>
      <trkpt lat="47.438961742445827" lon="10.957880951464176">
        <ele>1434.905029296875</ele>
        <time>2013-08-24T10:34:06Z</time>
      </trkpt>
      <trkpt lat="47.438841378316283" lon="10.957819763571024">
        <ele>1433.943603515625</ele>
        <time>2013-08-24T10:34:08Z</time>
      </trkpt>
      <trkpt lat="47.438630992546678" lon="10.95779319293797">
        <ele>1431.540283203125</ele>
        <time>2013-08-24T10:34:12Z</time>
      </trkpt>
      <trkpt lat="47.438434604555368" lon="10.957722030580044">
        <ele>1426.73388671875</ele>
        <time>2013-08-24T10:34:15Z</time>
      </trkpt>
      <trkpt lat="47.438374841585755" lon="10.957656484097242">
        <ele>1426.253173828125</ele>
        <time>2013-08-24T10:34:16Z</time>
      </trkpt>
      <trkpt lat="47.438249615952373" lon="10.957499491050839">
        <ele>1422.888671875</ele>
        <time>2013-08-24T10:34:18Z</time>
      </trkpt>
      <trkpt lat="47.438084408640862" lon="10.95737393014133">
        <ele>1420.966064453125</ele>
        <time>2013-08-24T10:34:20Z</time>
      </trkpt>
      <trkpt lat="47.437759190797806" lon="10.957062626257539">
        <ele>1415.6787109375</ele>
        <time>2013-08-24T10:34:24Z</time>
      </trkpt>
      <trkpt lat="47.43762013502419" lon="10.956799434497952">
        <ele>1411.83349609375</ele>
        <time>2013-08-24T10:34:26Z</time>
      </trkpt>
      <trkpt lat="47.437544027343392" lon="10.956659791991115">
        <ele>1411.352783203125</ele>
        <time>2013-08-24T10:34:27Z</time>
      </trkpt>
      <trkpt lat="47.437362391501665" lon="10.956368101760745">
        <ele>1406.546142578125</ele>
        <time>2013-08-24T10:34:29Z</time>
      </trkpt>
      <trkpt lat="47.43707288056612" lon="10.955945150926709">
        <ele>1404.14306640625</ele>
        <time>2013-08-24T10:34:32Z</time>
      </trkpt>
      <trkpt lat="47.436976069584489" lon="10.955802323296666">
        <ele>1401.2587890625</ele>
        <time>2013-08-24T10:34:33Z</time>
      </trkpt>
      <trkpt lat="47.436486147344112" lon="10.955385491251945">
        <ele>1396.932861328125</ele>
        <time>2013-08-24T10:34:37Z</time>
      </trkpt>
      <trkpt lat="47.436229744926095" lon="10.955213997513056">
        <ele>1393.568359375</ele>
        <time>2013-08-24T10:34:39Z</time>
      </trkpt>
      <trkpt lat="47.436098484322429" lon="10.955141074955463">
        <ele>1394.529541015625</ele>
        <time>2013-08-24T10:34:40Z</time>
      </trkpt>
      <trkpt lat="47.435632953420281" lon="10.954906214028597">
        <ele>1395.490966796875</ele>
        <time>2013-08-24T10:34:44Z</time>
      </trkpt>
      <trkpt lat="47.435467578470707" lon="10.954532297328115">
        <ele>1394.529541015625</ele>
        <time>2013-08-24T10:34:48Z</time>
      </trkpt>
      <trkpt lat="47.435321398079395" lon="10.954257203266025">
        <ele>1393.568359375</ele>
        <time>2013-08-24T10:34:52Z</time>
      </trkpt>
      <trkpt lat="47.435124507173896" lon="10.954003566876054">
        <ele>1387.80029296875</ele>
        <time>2013-08-24T10:34:57Z</time>
      </trkpt>
      <trkpt lat="47.435128781944513" lon="10.953881610184908">
        <ele>1388.761962890625</ele>
        <time>2013-08-24T10:34:58Z</time>
      </trkpt>
      <trkpt lat="47.435077736154199" lon="10.953607521951199">
        <ele>1385.877685546875</ele>
        <time>2013-08-24T10:35:01Z</time>
      </trkpt>
      <trkpt lat="47.434935746714473" lon="10.953615233302116">
        <ele>1384.435791015625</ele>
        <time>2013-08-24T10:35:03Z</time>
      </trkpt>
      <trkpt lat="47.434791577979922" lon="10.953755797818303">
        <ele>1382.51318359375</ele>
        <time>2013-08-24T10:35:05Z</time>
      </trkpt>
      <trkpt lat="47.434675572440028" lon="10.953877670690417">
        <ele>1383.474365234375</ele>
        <time>2013-08-24T10:39:41Z</time>
      </trkpt>
      <trkpt lat="47.434485554695129" lon="10.953916478902102">
        <ele>1381.0712890625</ele>
        <time>2013-08-24T10:39:46Z</time>
      </trkpt>
      <trkpt lat="47.434352114796638" lon="10.953773064538836">
        <ele>1378.187255859375</ele>
        <time>2013-08-24T10:39:51Z</time>
      </trkpt>
      <trkpt lat="47.434345241636038" lon="10.95365353859961">
        <ele>1377.70654296875</ele>
        <time>2013-08-24T10:39:53Z</time>
      </trkpt>
      <trkpt lat="47.434333842247725" lon="10.953466622158885">
        <ele>1376.2646484375</ele>
        <time>2013-08-24T10:39:56Z</time>
      </trkpt>
      <trkpt lat="47.434371309354901" lon="10.953273167833686">
        <ele>1373.380859375</ele>
        <time>2013-08-24T10:39:59Z</time>
      </trkpt>
      <trkpt lat="47.43443576619029" lon="10.952958175912499">
        <ele>1370.49658203125</ele>
        <time>2013-08-24T10:40:03Z</time>
      </trkpt>
      <trkpt lat="47.434429563581944" lon="10.952765224501491">
        <ele>1368.573974609375</ele>
        <time>2013-08-24T10:40:06Z</time>
      </trkpt>
      <trkpt lat="47.434323951601982" lon="10.952502284198999">
        <ele>1365.20947265625</ele>
        <time>2013-08-24T10:40:11Z</time>
      </trkpt>
      <trkpt lat="47.434267122298479" lon="10.952411005273461">
        <ele>1364.248046875</ele>
        <time>2013-08-24T10:40:13Z</time>
      </trkpt>
      <trkpt lat="47.434171820059419" lon="10.952284103259444">
        <ele>1361.3642578125</ele>
        <time>2013-08-24T10:40:16Z</time>
      </trkpt>
      <trkpt lat="47.434059167280793" lon="10.952203134074807">
        <ele>1359.441650390625</ele>
        <time>2013-08-24T10:40:19Z</time>
      </trkpt>
      <trkpt lat="47.433952800929546" lon="10.952192656695843">
        <ele>1357.51904296875</ele>
        <time>2013-08-24T10:40:22Z</time>
      </trkpt>
      <trkpt lat="47.433933354914188" lon="10.952195171266794">
        <ele>1357.038330078125</ele>
        <time>2013-08-24T10:40:23Z</time>
      </trkpt>
      <trkpt lat="47.433899156749249" lon="10.952280666679144">
        <ele>1357.038330078125</ele>
        <time>2013-08-24T10:40:29Z</time>
      </trkpt>
      <trkpt lat="47.433660356327891" lon="10.952435145154595">
        <ele>1352.712158203125</ele>
        <time>2013-08-24T10:40:36Z</time>
      </trkpt>
      <trkpt lat="47.433585757389665" lon="10.952477306127548">
        <ele>1351.7509765625</ele>
        <time>2013-08-24T10:40:38Z</time>
      </trkpt>
      <trkpt lat="47.433505710214376" lon="10.952483676373959">
        <ele>1350.78955078125</ele>
        <time>2013-08-24T10:40:40Z</time>
      </trkpt>
      <trkpt lat="47.433338491246104" lon="10.952442856505513">
        <ele>1348.866943359375</ele>
        <time>2013-08-24T10:40:45Z</time>
      </trkpt>
      <trkpt lat="47.433239920064807" lon="10.952357025817037">
        <ele>1348.38623046875</ele>
        <time>2013-08-24T10:40:50Z</time>
      </trkpt>
      <trkpt lat="47.433093907311559" lon="10.952204810455441">
        <ele>1347.425048828125</ele>
        <time>2013-08-24T10:40:54Z</time>
      </trkpt>
      <trkpt lat="47.433030791580677" lon="10.952149238437414">
        <ele>1347.90576171875</ele>
        <time>2013-08-24T10:40:55Z</time>
      </trkpt>
      <trkpt lat="47.432755026966333" lon="10.951960561797023">
        <ele>1345.50244140625</ele>
        <time>2013-08-24T10:40:59Z</time>
      </trkpt>
      <trkpt lat="47.432662239298224" lon="10.951821086928248">
        <ele>1341.176513671875</ele>
        <time>2013-08-24T10:41:41Z</time>
      </trkpt>
      <trkpt lat="47.432654863223433" lon="10.951704410836101">
        <ele>1339.734375</ele>
        <time>2013-08-24T10:41:43Z</time>
      </trkpt>
      <trkpt lat="47.432663161307573" lon="10.95150550827384">
        <ele>1336.369873046875</ele>
        <time>2013-08-24T10:41:46Z</time>
      </trkpt>
      <trkpt lat="47.43267816491425" lon="10.951246507465839">
        <ele>1333.48583984375</ele>
        <time>2013-08-24T10:41:50Z</time>
      </trkpt>
      <trkpt lat="47.432651175186038" lon="10.951018938794732">
        <ele>1332.524658203125</ele>
        <time>2013-08-24T10:41:54Z</time>
      </trkpt>
      <trkpt lat="47.43269425816834" lon="10.950934449210763">
        <ele>1330.60205078125</ele>
        <time>2013-08-24T10:41:57Z</time>
      </trkpt>
      <trkpt lat="47.432741951197386" lon="10.950823640450835">
        <ele>1329.159912109375</ele>
        <time>2013-08-24T10:42:03Z</time>
      </trkpt>
      <trkpt lat="47.432787632569671" lon="10.950783407315612">
        <ele>1326.7568359375</ele>
        <time>2013-08-24T10:42:08Z</time>
      </trkpt>
      <trkpt lat="47.432825518772006" lon="10.950693050399423">
        <ele>1325.79541015625</ele>
        <time>2013-08-24T10:42:12Z</time>
      </trkpt>
      <trkpt lat="47.432863572612405" lon="10.950607974082232">
        <ele>1324.353515625</ele>
        <time>2013-08-24T10:42:16Z</time>
      </trkpt>
      <trkpt lat="47.432856699451804" lon="10.950439665466547">
        <ele>1323.87255859375</ele>
        <time>2013-08-24T10:42:22Z</time>
      </trkpt>
      <trkpt lat="47.432853346690536" lon="10.950396750122309">
        <ele>1323.39208984375</ele>
        <time>2013-08-24T10:42:24Z</time>
      </trkpt>
      <trkpt lat="47.432842701673508" lon="10.950375124812126">
        <ele>1322.911376953125</ele>
        <time>2013-08-24T10:42:26Z</time>
      </trkpt>
      <trkpt lat="47.432853011414409" lon="10.950246546417475">
        <ele>1320.508056640625</ele>
        <time>2013-08-24T10:42:31Z</time>
      </trkpt>
      <trkpt lat="47.432943619787693" lon="10.950152250006795">
        <ele>1318.104736328125</ele>
        <time>2013-08-24T10:42:37Z</time>
      </trkpt>
      <trkpt lat="47.432950995862484" lon="10.950142694637179">
        <ele>1317.6240234375</ele>
        <time>2013-08-24T10:42:38Z</time>
      </trkpt>
      <trkpt lat="47.432957533746958" lon="10.950031718239188">
        <ele>1316.662841796875</ele>
        <time>2013-08-24T10:42:43Z</time>
      </trkpt>
      <trkpt lat="47.432952839881182" lon="10.950008416548371">
        <ele>1315.220947265625</ele>
        <time>2013-08-24T10:42:49Z</time>
      </trkpt>
      <trkpt lat="47.432936578989029" lon="10.950005063787103">
        <ele>1316.18212890625</ele>
        <time>2013-08-24T10:42:58Z</time>
      </trkpt>
      <trkpt lat="47.432911852374673" lon="10.949990814551711">
        <ele>1317.1435546875</ele>
        <time>2013-08-24T10:43:05Z</time>
      </trkpt>
      <trkpt lat="47.432901123538613" lon="10.949973128736019">
        <ele>1317.1435546875</ele>
        <time>2013-08-24T10:43:16Z</time>
      </trkpt>
      <trkpt lat="47.432841276749969" lon="10.949842119589448">
        <ele>1316.18212890625</ele>
        <time>2013-08-24T10:43:24Z</time>
      </trkpt>
      <trkpt lat="47.432883437722921" lon="10.949780093505979">
        <ele>1315.220947265625</ele>
        <time>2013-08-24T10:43:31Z</time>
      </trkpt>
      <trkpt lat="47.432871535420418" lon="10.949778584763408">
        <ele>1315.220947265625</ele>
        <time>2013-08-24T10:43:37Z</time>
      </trkpt>
      <trkpt lat="47.432857621461153" lon="10.949717480689287">
        <ele>1315.220947265625</ele>
        <time>2013-08-24T10:43:42Z</time>
      </trkpt>
      <trkpt lat="47.432819819077849" lon="10.949693005532026">
        <ele>1316.18212890625</ele>
        <time>2013-08-24T10:43:50Z</time>
      </trkpt>
      <trkpt lat="47.432825099676847" lon="10.949694430455565">
        <ele>1316.18212890625</ele>
        <time>2013-08-24T10:43:52Z</time>
      </trkpt>
      <trkpt lat="47.432764749974012" lon="10.949567863717675">
        <ele>1314.740234375</ele>
        <time>2013-08-24T10:43:58Z</time>
      </trkpt>
      <trkpt lat="47.432738346979022" lon="10.949457641690969">
        <ele>1313.29833984375</ele>
        <time>2013-08-24T10:44:02Z</time>
      </trkpt>
      <trkpt lat="47.432802719995379" lon="10.949211297556758">
        <ele>1310.89501953125</ele>
        <time>2013-08-24T10:44:07Z</time>
      </trkpt>
      <trkpt lat="47.43278369307518" lon="10.94906872138381">
        <ele>1310.89501953125</ele>
        <time>2013-08-24T10:44:12Z</time>
      </trkpt>
      <trkpt lat="47.432700963690877" lon="10.948981801047921">
        <ele>1309.93359375</ele>
        <time>2013-08-24T10:44:17Z</time>
      </trkpt>
      <trkpt lat="47.432706244289875" lon="10.948866801336408">
        <ele>1308.972412109375</ele>
        <time>2013-08-24T10:44:20Z</time>
      </trkpt>
      <trkpt lat="47.432721080258489" lon="10.948666138574481">
        <ele>1305.607666015625</ele>
        <time>2013-08-24T10:44:24Z</time>
      </trkpt>
      <trkpt lat="47.432716218754649" lon="10.948485173285007">
        <ele>1302.242919921875</ele>
        <time>2013-08-24T10:44:28Z</time>
      </trkpt>
      <trkpt lat="47.432702640071511" lon="10.948316529393196">
        <ele>1300.801025390625</ele>
        <time>2013-08-24T10:44:31Z</time>
      </trkpt>
      <trkpt lat="47.432716637849808" lon="10.948135312646627">
        <ele>1297.4365234375</ele>
        <time>2013-08-24T10:44:36Z</time>
      </trkpt>
      <trkpt lat="47.432756870985031" lon="10.948017714545131">
        <ele>1295.99462890625</ele>
        <time>2013-08-24T10:44:39Z</time>
      </trkpt>
      <trkpt lat="47.432781094685197" lon="10.947975302115083">
        <ele>1295.033203125</ele>
        <time>2013-08-24T10:44:43Z</time>
      </trkpt>
      <trkpt lat="47.432760475203395" lon="10.94797320663929">
        <ele>1295.033203125</ele>
        <time>2013-08-24T10:44:51Z</time>
      </trkpt>
      <trkpt lat="47.432751003652811" lon="10.94796834513545">
        <ele>1295.033203125</ele>
        <time>2013-08-24T10:44:58Z</time>
      </trkpt>
      <trkpt lat="47.432751003652811" lon="10.947964489459991">
        <ele>1295.513916015625</ele>
        <time>2013-08-24T10:45:01Z</time>
      </trkpt>
      <trkpt lat="47.432842953130603" lon="10.947927609086037">
        <ele>1294.552490234375</ele>
        <time>2013-08-24T10:45:06Z</time>
      </trkpt>
      <trkpt lat="47.432846473529935" lon="10.94776407815516">
        <ele>1293.59130859375</ele>
        <time>2013-08-24T10:45:11Z</time>
      </trkpt>
      <trkpt lat="47.432685540989041" lon="10.947427460923791">
        <ele>1293.59130859375</ele>
        <time>2013-08-24T10:45:19Z</time>
      </trkpt>
      <trkpt lat="47.432671878486872" lon="10.947029236704111">
        <ele>1293.110595703125</ele>
        <time>2013-08-24T10:45:27Z</time>
      </trkpt>
      <trkpt lat="47.432735832408071" lon="10.946321887895465">
        <ele>1293.110595703125</ele>
        <time>2013-08-24T10:45:39Z</time>
      </trkpt>
      <trkpt lat="47.43277832865715" lon="10.945675475522876">
        <ele>1293.110595703125</ele>
        <time>2013-08-24T10:45:49Z</time>
      </trkpt>
      <trkpt lat="47.432824764400721" lon="10.945526864379644">
        <ele>1292.1494140625</ele>
        <time>2013-08-24T10:45:52Z</time>
      </trkpt>
      <trkpt lat="47.433044873178005" lon="10.945399710908532">
        <ele>1294.072021484375</ele>
        <time>2013-08-24T10:45:58Z</time>
      </trkpt>
      <trkpt lat="47.43318292312324" lon="10.945334332063794">
        <ele>1294.552490234375</ele>
        <time>2013-08-24T10:46:01Z</time>
      </trkpt>
      <trkpt lat="47.433447875082493" lon="10.945133836939931">
        <ele>1295.033203125</ele>
        <time>2013-08-24T10:46:08Z</time>
      </trkpt>
      <trkpt lat="47.433588774874806" lon="10.945150768384337">
        <ele>1296.475341796875</ele>
        <time>2013-08-24T10:46:12Z</time>
      </trkpt>
      <trkpt lat="47.433822462335229" lon="10.945139788091183">
        <ele>1295.99462890625</ele>
        <time>2013-08-24T10:46:19Z</time>
      </trkpt>
      <trkpt lat="47.433867137879133" lon="10.945125119760633">
        <ele>1295.033203125</ele>
        <time>2013-08-24T10:46:26Z</time>
      </trkpt>
      <trkpt lat="47.433861438184977" lon="10.945132495835423">
        <ele>1294.552490234375</ele>
        <time>2013-08-24T10:46:37Z</time>
      </trkpt>
      <trkpt lat="47.433853894472122" lon="10.945136854425073">
        <ele>1297.917236328125</ele>
        <time>2013-08-24T10:47:25Z</time>
      </trkpt>
      <trkpt lat="47.433853894472122" lon="10.945136938244104">
        <ele>1294.552490234375</ele>
        <time>2013-08-24T10:47:26Z</time>
      </trkpt>
      <trkpt lat="47.43385381065309" lon="10.945137273520231">
        <ele>1297.4365234375</ele>
        <time>2013-08-24T10:47:29Z</time>
      </trkpt>
      <trkpt lat="47.433863366022706" lon="10.9451215993613">
        <ele>1296.955810546875</ele>
        <time>2013-08-24T10:48:43Z</time>
      </trkpt>
      <trkpt lat="47.433898570016026" lon="10.945090251043439">
        <ele>1297.4365234375</ele>
        <time>2013-08-24T10:48:50Z</time>
      </trkpt>
      <trkpt lat="47.434036955237389" lon="10.945052616298199">
        <ele>1298.87841796875</ele>
        <time>2013-08-24T10:48:56Z</time>
      </trkpt>
      <trkpt lat="47.434237953275442" lon="10.94491926021874">
        <ele>1299.83984375</ele>
        <time>2013-08-24T10:49:02Z</time>
      </trkpt>
      <trkpt lat="47.434380445629358" lon="10.944586666300893">
        <ele>1300.801025390625</ele>
        <time>2013-08-24T10:49:09Z</time>
      </trkpt>
      <trkpt lat="47.434532912448049" lon="10.94425574876368">
        <ele>1301.762451171875</ele>
        <time>2013-08-24T10:49:18Z</time>
      </trkpt>
      <trkpt lat="47.434708513319492" lon="10.943850819021463">
        <ele>1303.204345703125</ele>
        <time>2013-08-24T10:49:28Z</time>
      </trkpt>
      <trkpt lat="47.434669369831681" lon="10.943650659173727">
        <ele>1304.165771484375</ele>
        <time>2013-08-24T10:49:33Z</time>
      </trkpt>
      <trkpt lat="47.434600302949548" lon="10.943622998893261">
        <ele>1304.165771484375</ele>
        <time>2013-08-24T10:49:35Z</time>
      </trkpt>
      <trkpt lat="47.434231247752905" lon="10.943735903128982">
        <ele>1305.607666015625</ele>
        <time>2013-08-24T10:49:46Z</time>
      </trkpt>
      <trkpt lat="47.433982389047742" lon="10.94381888397038">
        <ele>1307.049560546875</ele>
        <time>2013-08-24T10:49:54Z</time>
      </trkpt>
      <trkpt lat="47.433848194777966" lon="10.943787032738328">
        <ele>1307.5302734375</ele>
        <time>2013-08-24T10:49:59Z</time>
      </trkpt>
      <trkpt lat="47.433790443465114" lon="10.94366692006588">
        <ele>1308.49169921875</ele>
        <time>2013-08-24T10:50:04Z</time>
      </trkpt>
      <trkpt lat="47.433735625818372" lon="10.943431472405791">
        <ele>1309.453125</ele>
        <time>2013-08-24T10:50:11Z</time>
      </trkpt>
      <trkpt lat="47.43362607434392" lon="10.943074570968747">
        <ele>1310.414306640625</ele>
        <time>2013-08-24T10:50:20Z</time>
      </trkpt>
      <trkpt lat="47.433593636378646" lon="10.942868795245886">
        <ele>1310.89501953125</ele>
        <time>2013-08-24T10:50:25Z</time>
      </trkpt>
      <trkpt lat="47.433471009135246" lon="10.942649692296982">
        <ele>1309.93359375</ele>
        <time>2013-08-24T10:50:30Z</time>
      </trkpt>
      <trkpt lat="47.433239752426744" lon="10.942667461931705">
        <ele>1308.49169921875</ele>
        <time>2013-08-24T10:50:33Z</time>
      </trkpt>
      <trkpt lat="47.433142019435763" lon="10.942705096676946">
        <ele>1306.56884765625</ele>
        <time>2013-08-24T10:50:35Z</time>
      </trkpt>
      <trkpt lat="47.432938842102885" lon="10.94265254214406">
        <ele>1304.646240234375</ele>
        <time>2013-08-24T10:50:39Z</time>
      </trkpt>
      <trkpt lat="47.432857705280185" lon="10.942496974021196">
        <ele>1303.68505859375</ele>
        <time>2013-08-24T10:50:41Z</time>
      </trkpt>
      <trkpt lat="47.432794757187366" lon="10.942291030660272">
        <ele>1303.204345703125</ele>
        <time>2013-08-24T10:50:43Z</time>
      </trkpt>
      <trkpt lat="47.43258629925549" lon="10.942134289070964">
        <ele>1300.320556640625</ele>
        <time>2013-08-24T10:50:47Z</time>
      </trkpt>
      <trkpt lat="47.432520585134625" lon="10.942161362618208">
        <ele>1300.801025390625</ele>
        <time>2013-08-24T10:50:48Z</time>
      </trkpt>
      <trkpt lat="47.432388151064515" lon="10.942218778654933">
        <ele>1299.83984375</ele>
        <time>2013-08-24T10:50:50Z</time>
      </trkpt>
      <trkpt lat="47.432151194661856" lon="10.94221425242722">
        <ele>1298.397705078125</ele>
        <time>2013-08-24T10:50:53Z</time>
      </trkpt>
      <trkpt lat="47.431872915476561" lon="10.942078717052937">
        <ele>1294.552490234375</ele>
        <time>2013-08-24T10:50:57Z</time>
      </trkpt>
      <trkpt lat="47.431835951283574" lon="10.942013924941421">
        <ele>1293.59130859375</ele>
        <time>2013-08-24T10:50:59Z</time>
      </trkpt>
      <trkpt lat="47.431782642379403" lon="10.941979391500354">
        <ele>1292.630126953125</ele>
        <time>2013-08-24T10:51:04Z</time>
      </trkpt>
      <trkpt lat="47.431775601580739" lon="10.941992802545428">
        <ele>1293.110595703125</ele>
        <time>2013-08-24T10:51:12Z</time>
      </trkpt>
      <trkpt lat="47.431776355952024" lon="10.941983163356781">
        <ele>1291.66845703125</ele>
        <time>2013-08-24T10:51:38Z</time>
      </trkpt>
      <trkpt lat="47.431759340688586" lon="10.942005878314376">
        <ele>1291.66845703125</ele>
        <time>2013-08-24T10:51:53Z</time>
      </trkpt>
      <trkpt lat="47.431766716763377" lon="10.942010823637247">
        <ele>1292.630126953125</ele>
        <time>2013-08-24T10:51:59Z</time>
      </trkpt>
      <trkpt lat="47.431765543296933" lon="10.941989785060287">
        <ele>1293.110595703125</ele>
        <time>2013-08-24T10:52:36Z</time>
      </trkpt>
      <trkpt lat="47.431744672358036" lon="10.941969752311707">
        <ele>1292.1494140625</ele>
        <time>2013-08-24T10:52:43Z</time>
      </trkpt>
      <trkpt lat="47.431732099503279" lon="10.941984504461288">
        <ele>1292.630126953125</ele>
        <time>2013-08-24T10:52:49Z</time>
      </trkpt>
      <trkpt lat="47.431656159460545" lon="10.942088691517711">
        <ele>1290.2265625</ele>
        <time>2013-08-24T10:52:53Z</time>
      </trkpt>
      <trkpt lat="47.431549206376076" lon="10.942028257995844">
        <ele>1288.78466796875</ele>
        <time>2013-08-24T10:52:56Z</time>
      </trkpt>
      <trkpt lat="47.43153277784586" lon="10.941907474771142">
        <ele>1286.38134765625</ele>
        <time>2013-08-24T10:53:02Z</time>
      </trkpt>
      <trkpt lat="47.431537890806794" lon="10.941877299919724">
        <ele>1285.900634765625</ele>
        <time>2013-08-24T10:53:03Z</time>
      </trkpt>
      <trkpt lat="47.431447114795446" lon="10.941716870293021">
        <ele>1282.5361328125</ele>
        <time>2013-08-24T10:53:08Z</time>
      </trkpt>
      <trkpt lat="47.431436972692609" lon="10.941561637446284">
        <ele>1281.57470703125</ele>
        <time>2013-08-24T10:53:12Z</time>
      </trkpt>
      <trkpt lat="47.431429848074913" lon="10.941467341035604">
        <ele>1280.613525390625</ele>
        <time>2013-08-24T10:53:14Z</time>
      </trkpt>
      <trkpt lat="47.431426914408803" lon="10.941322166472673">
        <ele>1280.1328125</ele>
        <time>2013-08-24T10:53:17Z</time>
      </trkpt>
      <trkpt lat="47.431393722072244" lon="10.941103147342801">
        <ele>1276.28759765625</ele>
        <time>2013-08-24T10:53:21Z</time>
      </trkpt>
      <trkpt lat="47.43136128410697" lon="10.941056879237294">
        <ele>1275.325927734375</ele>
        <time>2013-08-24T10:53:22Z</time>
      </trkpt>
      <trkpt lat="47.431301102042198" lon="10.940963085740805">
        <ele>1273.884033203125</ele>
        <time>2013-08-24T10:53:24Z</time>
      </trkpt>
      <trkpt lat="47.431116532534361" lon="10.94070291146636">
        <ele>1268.596923828125</ele>
        <time>2013-08-24T10:53:30Z</time>
      </trkpt>
      <trkpt lat="47.431044112890959" lon="10.940570896491408">
        <ele>1265.713134765625</ele>
        <time>2013-08-24T10:53:33Z</time>
      </trkpt>
      <trkpt lat="47.431006981059909" lon="10.94048690982163">
        <ele>1264.27099609375</ele>
        <time>2013-08-24T10:53:35Z</time>
      </trkpt>
      <trkpt lat="47.430970687419176" lon="10.940365456044674">
        <ele>1261.38720703125</ele>
        <time>2013-08-24T10:53:38Z</time>
      </trkpt>
      <trkpt lat="47.430942105129361" lon="10.940160434693098">
        <ele>1257.541748046875</ele>
        <time>2013-08-24T10:53:43Z</time>
      </trkpt>
      <trkpt lat="47.430907990783453" lon="10.940031688660383">
        <ele>1255.138427734375</ele>
        <time>2013-08-24T10:53:45Z</time>
      </trkpt>
      <trkpt lat="47.430780166760087" lon="10.939732538536191">
        <ele>1251.77392578125</ele>
        <time>2013-08-24T10:53:50Z</time>
      </trkpt>
      <trkpt lat="47.43072509765625" lon="10.939612425863743">
        <ele>1249.851318359375</ele>
        <time>2013-08-24T10:53:52Z</time>
      </trkpt>
      <trkpt lat="47.430602386593819" lon="10.939323334023356">
        <ele>1246.48681640625</ele>
        <time>2013-08-24T10:53:57Z</time>
      </trkpt>
      <trkpt lat="47.430573049932718" lon="10.939270025119185">
        <ele>1245.044677734375</ele>
        <time>2013-08-24T10:53:58Z</time>
      </trkpt>
      <trkpt lat="47.430520495399833" lon="10.939174722880125">
        <ele>1243.121826171875</ele>
        <time>2013-08-24T10:54:00Z</time>
      </trkpt>
      <trkpt lat="47.430490236729383" lon="10.939081599935889">
        <ele>1241.679931640625</ele>
        <time>2013-08-24T10:54:02Z</time>
      </trkpt>
      <trkpt lat="47.430429719388485" lon="10.93890281394124">
        <ele>1238.3154296875</ele>
        <time>2013-08-24T10:54:06Z</time>
      </trkpt>
      <trkpt lat="47.430378841236234" lon="10.938719669356942">
        <ele>1233.5087890625</ele>
        <time>2013-08-24T10:54:10Z</time>
      </trkpt>
      <trkpt lat="47.430389486253262" lon="10.938392272219062">
        <ele>1228.702392578125</ele>
        <time>2013-08-24T10:54:16Z</time>
      </trkpt>
      <trkpt lat="47.430407674983144" lon="10.938350027427077">
        <ele>1228.702392578125</ele>
        <time>2013-08-24T10:54:17Z</time>
      </trkpt>
      <trkpt lat="47.43043189868331" lon="10.938241481781006">
        <ele>1227.26025390625</ele>
        <time>2013-08-24T10:54:19Z</time>
      </trkpt>
      <trkpt lat="47.430411363020539" lon="10.937920203432441">
        <ele>1222.934326171875</ele>
        <time>2013-08-24T10:54:24Z</time>
      </trkpt>
      <trkpt lat="47.430407591164112" lon="10.937646282836795">
        <ele>1220.531005859375</ele>
        <time>2013-08-24T10:54:28Z</time>
      </trkpt>
      <trkpt lat="47.430344978347421" lon="10.937481913715601">
        <ele>1218.127685546875</ele>
        <time>2013-08-24T10:54:31Z</time>
      </trkpt>
      <trkpt lat="47.430273564532399" lon="10.937366327270865">
        <ele>1216.685791015625</ele>
        <time>2013-08-24T10:54:33Z</time>
      </trkpt>
      <trkpt lat="47.430210700258613" lon="10.93725124374032">
        <ele>1214.76318359375</ele>
        <time>2013-08-24T10:54:35Z</time>
      </trkpt>
      <trkpt lat="47.430140124633908" lon="10.937030129134655">
        <ele>1211.879150390625</ele>
        <time>2013-08-24T10:54:39Z</time>
      </trkpt>
      <trkpt lat="47.430063681676984" lon="10.936914877966046">
        <ele>1209.956298828125</ele>
        <time>2013-08-24T10:54:42Z</time>
      </trkpt>
      <trkpt lat="47.429984388872981" lon="10.936875399202108">
        <ele>1208.514404296875</ele>
        <time>2013-08-24T10:54:45Z</time>
      </trkpt>
      <trkpt lat="47.429820438846946" lon="10.936864921823144">
        <ele>1206.111083984375</ele>
        <time>2013-08-24T10:54:48Z</time>
      </trkpt>
      <trkpt lat="47.42967652156949" lon="10.936918733641505">
        <ele>1203.227294921875</ele>
        <time>2013-08-24T10:54:51Z</time>
      </trkpt>
      <trkpt lat="47.429612400010228" lon="10.936925774440169">
        <ele>1201.3046875</ele>
        <time>2013-08-24T10:54:53Z</time>
      </trkpt>
      <trkpt lat="47.429476110264659" lon="10.936923176050186">
        <ele>1197.45947265625</ele>
        <time>2013-08-24T10:54:58Z</time>
      </trkpt>
      <trkpt lat="47.429370665922761" lon="10.93685888685286">
        <ele>1194.5751953125</ele>
        <time>2013-08-24T10:55:02Z</time>
      </trkpt>
      <trkpt lat="47.429196406155825" lon="10.936764590442181">
        <ele>1192.172119140625</ele>
        <time>2013-08-24T10:55:06Z</time>
      </trkpt>
      <trkpt lat="47.429108563810587" lon="10.936725111678243">
        <ele>1188.8076171875</ele>
        <time>2013-08-24T10:55:09Z</time>
      </trkpt>
      <trkpt lat="47.429027259349823" lon="10.936688650399446">
        <ele>1185.44287109375</ele>
        <time>2013-08-24T10:55:13Z</time>
      </trkpt>
      <trkpt lat="47.429002784192562" lon="10.936670461669564">
        <ele>1185.44287109375</ele>
        <time>2013-08-24T10:55:14Z</time>
      </trkpt>
      <trkpt lat="47.428825506940484" lon="10.936629474163055">
        <ele>1181.1171875</ele>
        <time>2013-08-24T10:55:19Z</time>
      </trkpt>
      <trkpt lat="47.428646804764867" lon="10.936588738113642">
        <ele>1174.868408203125</ele>
        <time>2013-08-24T10:55:22Z</time>
      </trkpt>
      <trkpt lat="47.428513532504439" lon="10.936561580747366">
        <ele>1171.984375</ele>
        <time>2013-08-24T10:55:24Z</time>
      </trkpt>
      <trkpt lat="47.428403478115797" lon="10.936509948223829">
        <ele>1168.619873046875</ele>
        <time>2013-08-24T10:55:27Z</time>
      </trkpt>
      <trkpt lat="47.428339943289757" lon="10.936389416456223">
        <ele>1166.216552734375</ele>
        <time>2013-08-24T10:55:31Z</time>
      </trkpt>
      <trkpt lat="47.428296441212296" lon="10.936341639608145">
        <ele>1166.216552734375</ele>
        <time>2013-08-24T10:55:33Z</time>
      </trkpt>
      <trkpt lat="47.428203988820314" lon="10.936227981001139">
        <ele>1165.25537109375</ele>
        <time>2013-08-24T10:55:37Z</time>
      </trkpt>
      <trkpt lat="47.428063675761223" lon="10.936198476701975">
        <ele>1164.2939453125</ele>
        <time>2013-08-24T10:55:40Z</time>
      </trkpt>
      <trkpt lat="47.427878100425005" lon="10.936161931604147">
        <ele>1163.81298828125</ele>
        <time>2013-08-24T10:55:46Z</time>
      </trkpt>
      <trkpt lat="47.42785437963903" lon="10.936169810593128">
        <ele>1163.81298828125</ele>
        <time>2013-08-24T10:55:51Z</time>
      </trkpt>
      <trkpt lat="47.427841974422336" lon="10.936157740652561">
        <ele>1163.81298828125</ele>
        <time>2013-08-24T10:55:58Z</time>
      </trkpt>
      <trkpt lat="47.427840381860733" lon="10.936133684590459">
        <ele>1162.851806640625</ele>
        <time>2013-08-24T10:56:13Z</time>
      </trkpt>
      <trkpt lat="47.427838705480099" lon="10.936126559972763">
        <ele>1163.33251953125</ele>
        <time>2013-08-24T10:56:49Z</time>
      </trkpt>
      <trkpt lat="47.427839292213321" lon="10.936129577457905">
        <ele>1163.81298828125</ele>
        <time>2013-08-24T10:57:20Z</time>
      </trkpt>
      <trkpt lat="47.427837951108813" lon="10.936131505295634">
        <ele>1164.774658203125</ele>
        <time>2013-08-24T10:57:32Z</time>
      </trkpt>
      <trkpt lat="47.427856475114822" lon="10.936125135049224">
        <ele>1163.81298828125</ele>
        <time>2013-08-24T10:57:40Z</time>
      </trkpt>
      <trkpt lat="47.427859073504806" lon="10.936125637963414">
        <ele>1164.774658203125</ele>
        <time>2013-08-24T10:57:41Z</time>
      </trkpt>
      <trkpt lat="47.427845075726509" lon="10.936152376234531">
        <ele>1164.2939453125</ele>
        <time>2013-08-24T10:57:46Z</time>
      </trkpt>
      <trkpt lat="47.427759077399969" lon="10.936217419803143">
        <ele>1164.774658203125</ele>
        <time>2013-08-24T10:57:51Z</time>
      </trkpt>
      <trkpt lat="47.427663188427687" lon="10.93628715723753">
        <ele>1166.697265625</ele>
        <time>2013-08-24T10:57:57Z</time>
      </trkpt>
      <trkpt lat="47.427455484867096" lon="10.936314649879932">
        <ele>1167.658447265625</ele>
        <time>2013-08-24T10:58:04Z</time>
      </trkpt>
      <trkpt lat="47.427436709403992" lon="10.936309201642871">
        <ele>1168.13916015625</ele>
        <time>2013-08-24T10:58:05Z</time>
      </trkpt>
      <trkpt lat="47.427388178184628" lon="10.936299310997128">
        <ele>1169.1005859375</ele>
        <time>2013-08-24T10:58:07Z</time>
      </trkpt>
      <trkpt lat="47.427246104925871" lon="10.936302579939365">
        <ele>1171.023193359375</ele>
        <time>2013-08-24T10:58:14Z</time>
      </trkpt>
      <trkpt lat="47.427087686955929" lon="10.936295036226511">
        <ele>1172.465087890625</ele>
        <time>2013-08-24T10:58:20Z</time>
      </trkpt>
      <trkpt lat="47.426960449665785" lon="10.936291348189116">
        <ele>1173.426513671875</ele>
        <time>2013-08-24T10:58:24Z</time>
      </trkpt>
      <trkpt lat="47.426781328395009" lon="10.936288665980101">
        <ele>1175.348876953125</ele>
        <time>2013-08-24T10:58:32Z</time>
      </trkpt>
      <trkpt lat="47.426764313131571" lon="10.936288079246879">
        <ele>1175.348876953125</ele>
        <time>2013-08-24T10:58:33Z</time>
      </trkpt>
      <trkpt lat="47.426704969257116" lon="10.936248516663909">
        <ele>1175.82958984375</ele>
        <time>2013-08-24T10:58:37Z</time>
      </trkpt>
      <trkpt lat="47.426578905433416" lon="10.936254719272256">
        <ele>1177.271728515625</ele>
        <time>2013-08-24T10:58:43Z</time>
      </trkpt>
      <trkpt lat="47.426533559337258" lon="10.936290426179767">
        <ele>1177.752197265625</ele>
        <time>2013-08-24T10:58:47Z</time>
      </trkpt>
      <trkpt lat="47.426477484405041" lon="10.936331078410149">
        <ele>1178.713623046875</ele>
        <time>2013-08-24T10:58:50Z</time>
      </trkpt>
      <trkpt lat="47.42638704366982" lon="10.936380364000797">
        <ele>1180.15576171875</ele>
        <time>2013-08-24T10:58:57Z</time>
      </trkpt>
      <trkpt lat="47.426380421966314" lon="10.93633946031332">
        <ele>1180.15576171875</ele>
        <time>2013-08-24T10:58:58Z</time>
      </trkpt>
      <trkpt lat="47.426320826634765" lon="10.936158578842878">
        <ele>1179.6748046875</ele>
        <time>2013-08-24T10:59:02Z</time>
      </trkpt>
      <trkpt lat="47.426225943490863" lon="10.935907121747732">
        <ele>1178.23291015625</ele>
        <time>2013-08-24T10:59:07Z</time>
      </trkpt>
      <trkpt lat="47.426016731187701" lon="10.935643510892987">
        <ele>1177.271728515625</ele>
        <time>2013-08-24T10:59:12Z</time>
      </trkpt>
      <trkpt lat="47.425822103396058" lon="10.935469418764114">
        <ele>1176.791015625</ele>
        <time>2013-08-24T10:59:17Z</time>
      </trkpt>
      <trkpt lat="47.425603670999408" lon="10.935315527021885">
        <ele>1177.271728515625</ele>
        <time>2013-08-24T10:59:23Z</time>
      </trkpt>
      <trkpt lat="47.425449276342988" lon="10.935218464583158">
        <ele>1177.271728515625</ele>
        <time>2013-08-24T10:59:27Z</time>
      </trkpt>
      <trkpt lat="47.425206117331982" lon="10.934991901740432">
        <ele>1177.271728515625</ele>
        <time>2013-08-24T10:59:33Z</time>
      </trkpt>
      <trkpt lat="47.42491627112031" lon="10.93463365919888">
        <ele>1175.82958984375</ele>
        <time>2013-08-24T10:59:40Z</time>
      </trkpt>
      <trkpt lat="47.424562219530344" lon="10.934318834915757">
        <ele>1174.3876953125</ele>
        <time>2013-08-24T10:59:47Z</time>
      </trkpt>
      <trkpt lat="47.424453422427177" lon="10.934206936508417">
        <ele>1173.426513671875</ele>
        <time>2013-08-24T10:59:49Z</time>
      </trkpt>
      <trkpt lat="47.424277905374765" lon="10.933866547420621">
        <ele>1171.503662109375</ele>
        <time>2013-08-24T10:59:53Z</time>
      </trkpt>
      <trkpt lat="47.424238929525018" lon="10.933764120563865">
        <ele>1171.023193359375</ele>
        <time>2013-08-24T10:59:54Z</time>
      </trkpt>
      <trkpt lat="47.423784462735057" lon="10.933278808370233">
        <ele>1167.658447265625</ele>
        <time>2013-08-24T11:00:01Z</time>
      </trkpt>
      <trkpt lat="47.42336000315845" lon="10.932901622727513">
        <ele>1165.25537109375</ele>
        <time>2013-08-24T11:00:07Z</time>
      </trkpt>
      <trkpt lat="47.422982901334763" lon="10.932461488991976">
        <ele>1163.33251953125</ele>
        <time>2013-08-24T11:00:13Z</time>
      </trkpt>
      <trkpt lat="47.422926994040608" lon="10.932379262521863">
        <ele>1163.33251953125</ele>
        <time>2013-08-24T11:00:14Z</time>
      </trkpt>
      <trkpt lat="47.422873768955469" lon="10.932294940575957">
        <ele>1161.890625</ele>
        <time>2013-08-24T11:00:15Z</time>
      </trkpt>
      <trkpt lat="47.422604626044631" lon="10.932035436853766">
        <ele>1161.409912109375</ele>
        <time>2013-08-24T11:00:19Z</time>
      </trkpt>
      <trkpt lat="47.422160971909761" lon="10.931836199015379">
        <ele>1156.12255859375</ele>
        <time>2013-08-24T11:00:24Z</time>
      </trkpt>
      <trkpt lat="47.422078242525458" lon="10.931773250922561">
        <ele>1156.603271484375</ele>
        <time>2013-08-24T11:00:25Z</time>
      </trkpt>
      <trkpt lat="47.42182083427906" lon="10.931381061673164">
        <ele>1154.2001953125</ele>
        <time>2013-08-24T11:00:29Z</time>
      </trkpt>
      <trkpt lat="47.421581530943513" lon="10.930904382839799">
        <ele>1150.83544921875</ele>
        <time>2013-08-24T11:00:33Z</time>
      </trkpt>
      <trkpt lat="47.421349855139852" lon="10.930612776428461">
        <ele>1148.43212890625</ele>
        <time>2013-08-24T11:00:36Z</time>
      </trkpt>
      <trkpt lat="47.420748872682452" lon="10.930045824497938">
        <ele>1145.548095703125</ele>
        <time>2013-08-24T11:00:43Z</time>
      </trkpt>
      <trkpt lat="47.420564806088805" lon="10.929897716268897">
        <ele>1141.702880859375</ele>
        <time>2013-08-24T11:00:45Z</time>
      </trkpt>
      <trkpt lat="47.420474030077457" lon="10.929826553910971">
        <ele>1141.702880859375</ele>
        <time>2013-08-24T11:00:46Z</time>
      </trkpt>
      <trkpt lat="47.420074548572302" lon="10.929414834827185">
        <ele>1139.299560546875</ele>
        <time>2013-08-24T11:00:51Z</time>
      </trkpt>
      <trkpt lat="47.419784450903535" lon="10.928944777697325">
        <ele>1138.819091796875</ele>
        <time>2013-08-24T11:00:56Z</time>
      </trkpt>
      <trkpt lat="47.419480942189693" lon="10.928465249016881">
        <ele>1135.93505859375</ele>
        <time>2013-08-24T11:01:02Z</time>
      </trkpt>
      <trkpt lat="47.419167626649141" lon="10.928236171603203">
        <ele>1135.93505859375</ele>
        <time>2013-08-24T11:01:07Z</time>
      </trkpt>
      <trkpt lat="47.419140469282866" lon="10.928225442767143">
        <ele>1135.93505859375</ele>
        <time>2013-08-24T11:01:11Z</time>
      </trkpt>
      <trkpt lat="47.41914801299572" lon="10.928251510486007">
        <ele>1132.570556640625</ele>
        <time>2013-08-24T11:01:18Z</time>
      </trkpt>
      <trkpt lat="47.41914507932961" lon="10.928255617618561">
        <ele>1136.415771484375</ele>
        <time>2013-08-24T11:01:21Z</time>
      </trkpt>
      <trkpt lat="47.419146839529276" lon="10.92825461179018">
        <ele>1136.415771484375</ele>
        <time>2013-08-24T11:01:28Z</time>
      </trkpt>
      <trkpt lat="47.418904351070523" lon="10.928274979814887">
        <ele>1134.4931640625</ele>
        <time>2013-08-24T11:01:52Z</time>
      </trkpt>
      <trkpt lat="47.418427001684904" lon="10.928196106106043">
        <ele>1133.53173828125</ele>
        <time>2013-08-24T11:02:01Z</time>
      </trkpt>
      <trkpt lat="47.418158780783415" lon="10.928237428888679">
        <ele>1131.12841796875</ele>
        <time>2013-08-24T11:02:05Z</time>
      </trkpt>
      <trkpt lat="47.417913107201457" lon="10.928164506331086">
        <ele>1127.763671875</ele>
        <time>2013-08-24T11:02:10Z</time>
      </trkpt>
      <trkpt lat="47.417787965387106" lon="10.928128296509385">
        <ele>1126.32177734375</ele>
        <time>2013-08-24T11:02:12Z</time>
      </trkpt>
      <trkpt lat="47.417531730607152" lon="10.928097534924746">
        <ele>1127.283203125</ele>
        <time>2013-08-24T11:02:17Z</time>
      </trkpt>
      <trkpt lat="47.417375575751066" lon="10.928179174661636">
        <ele>1122.4765625</ele>
        <time>2013-08-24T11:02:20Z</time>
      </trkpt>
      <trkpt lat="47.417144486680627" lon="10.92818520963192">
        <ele>1119.5927734375</ele>
        <time>2013-08-24T11:02:23Z</time>
      </trkpt>
      <trkpt lat="47.416949355974793" lon="10.928115388378501">
        <ele>1118.150634765625</ele>
        <time>2013-08-24T11:02:26Z</time>
      </trkpt>
      <trkpt lat="47.416785238310695" lon="10.928038358688354">
        <ele>1114.785888671875</ele>
        <time>2013-08-24T11:02:30Z</time>
      </trkpt>
      <trkpt lat="47.416711142286658" lon="10.928006172180176">
        <ele>1113.824462890625</ele>
        <time>2013-08-24T11:02:32Z</time>
      </trkpt>
      <trkpt lat="47.416565883904696" lon="10.927938111126423">
        <ele>1113.343994140625</ele>
        <time>2013-08-24T11:02:37Z</time>
      </trkpt>
      <trkpt lat="47.416511485353112" lon="10.927925873547792">
        <ele>1112.86328125</ele>
        <time>2013-08-24T11:02:39Z</time>
      </trkpt>
      <trkpt lat="47.416145112365484" lon="10.927737364545465">
        <ele>1108.056884765625</ele>
        <time>2013-08-24T11:02:47Z</time>
      </trkpt>
      <trkpt lat="47.415838669985533" lon="10.927510969340801">
        <ele>1104.692138671875</ele>
        <time>2013-08-24T11:02:52Z</time>
      </trkpt>
      <trkpt lat="47.415639851242304" lon="10.927339307963848">
        <ele>1101.808349609375</ele>
        <time>2013-08-24T11:02:55Z</time>
      </trkpt>
      <trkpt lat="47.415330559015274" lon="10.927079552784562">
        <ele>1098.443359375</ele>
        <time>2013-08-24T11:02:59Z</time>
      </trkpt>
      <trkpt lat="47.415158059448004" lon="10.92692993581295">
        <ele>1094.59814453125</ele>
        <time>2013-08-24T11:03:01Z</time>
      </trkpt>
      <trkpt lat="47.414768217131495" lon="10.92667730525136">
        <ele>1090.2724609375</ele>
        <time>2013-08-24T11:03:05Z</time>
      </trkpt>
      <trkpt lat="47.41466922685504" lon="10.926619386300445">
        <ele>1090.7529296875</ele>
        <time>2013-08-24T11:03:06Z</time>
      </trkpt>
      <trkpt lat="47.414379129186273" lon="10.926445880904794">
        <ele>1086.90771484375</ele>
        <time>2013-08-24T11:03:09Z</time>
      </trkpt>
      <trkpt lat="47.414284832775593" lon="10.926387291401625">
        <ele>1086.90771484375</ele>
        <time>2013-08-24T11:03:10Z</time>
      </trkpt>
      <trkpt lat="47.413764484226704" lon="10.926046315580606">
        <ele>1082.581787109375</ele>
        <time>2013-08-24T11:03:16Z</time>
      </trkpt>
      <trkpt lat="47.413501627743244" lon="10.925861662253737">
        <ele>1079.69775390625</ele>
        <time>2013-08-24T11:03:19Z</time>
      </trkpt>
      <trkpt lat="47.413312112912536" lon="10.925729228183627">
        <ele>1076.333251953125</ele>
        <time>2013-08-24T11:03:21Z</time>
      </trkpt>
      <trkpt lat="47.413139110431075" lon="10.92559059150517">
        <ele>1076.333251953125</ele>
        <time>2013-08-24T11:03:23Z</time>
      </trkpt>
      <trkpt lat="47.412929395213723" lon="10.925340475514531">
        <ele>1076.333251953125</ele>
        <time>2013-08-24T11:03:27Z</time>
      </trkpt>
      <trkpt lat="47.412710878998041" lon="10.925195971503854">
        <ele>1072.96875</ele>
        <time>2013-08-24T11:03:32Z</time>
      </trkpt>
      <trkpt lat="47.412544246762991" lon="10.925039146095514">
        <ele>1068.162109375</ele>
        <time>2013-08-24T11:03:35Z</time>
      </trkpt>
      <trkpt lat="47.412428325042129" lon="10.924868155270815">
        <ele>1066.2392578125</ele>
        <time>2013-08-24T11:03:37Z</time>
      </trkpt>
      <trkpt lat="47.412194386124611" lon="10.924348896369338">
        <ele>1062.874755859375</ele>
        <time>2013-08-24T11:03:42Z</time>
      </trkpt>
      <trkpt lat="47.412010487169027" lon="10.923976404592395">
        <ele>1060.471435546875</ele>
        <time>2013-08-24T11:03:46Z</time>
      </trkpt>
      <trkpt lat="47.411936139687896" lon="10.923805497586727">
        <ele>1059.51025390625</ele>
        <time>2013-08-24T11:03:51Z</time>
      </trkpt>
      <trkpt lat="47.411937899887562" lon="10.92374456115067">
        <ele>1059.51025390625</ele>
        <time>2013-08-24T11:03:56Z</time>
      </trkpt>
      <trkpt lat="47.41186841391027" lon="10.924008507281542">
        <ele>1060.471435546875</ele>
        <time>2013-08-24T11:04:26Z</time>
      </trkpt>
      <trkpt lat="47.411817954853177" lon="10.92408855445683">
        <ele>1060.9521484375</ele>
        <time>2013-08-24T11:04:31Z</time>
      </trkpt>
      <trkpt lat="47.411830108612776" lon="10.9240797534585">
        <ele>1060.9521484375</ele>
        <time>2013-08-24T11:04:39Z</time>
      </trkpt>
      <trkpt lat="47.411823989823461" lon="10.924100959673524">
        <ele>1060.471435546875</ele>
        <time>2013-08-24T11:05:26Z</time>
      </trkpt>
      <trkpt lat="47.411832874640822" lon="10.924340263009071">
        <ele>1062.39404296875</ele>
        <time>2013-08-24T11:05:33Z</time>
      </trkpt>
      <trkpt lat="47.411680910736322" lon="10.924771511927247">
        <ele>1064.316650390625</ele>
        <time>2013-08-24T11:05:43Z</time>
      </trkpt>
      <trkpt lat="47.411474883556366" lon="10.925157414749265">
        <ele>1066.2392578125</ele>
        <time>2013-08-24T11:05:54Z</time>
      </trkpt>
      <trkpt lat="47.411291990429163" lon="10.92523536644876">
        <ele>1066.2392578125</ele>
        <time>2013-08-24T11:06:01Z</time>
      </trkpt>
      <trkpt lat="47.411158718168736" lon="10.925297392532229">
        <ele>1065.7587890625</ele>
        <time>2013-08-24T11:06:06Z</time>
      </trkpt>
      <trkpt lat="47.411198951303959" lon="10.925256069749594">
        <ele>1065.7587890625</ele>
        <time>2013-08-24T11:06:13Z</time>
      </trkpt>
      <trkpt lat="47.410853868350387" lon="10.925313485786319">
        <ele>1066.719970703125</ele>
        <time>2013-08-24T11:06:23Z</time>
      </trkpt>
      <trkpt lat="47.410608027130365" lon="10.925380457192659">
        <ele>1068.162109375</ele>
        <time>2013-08-24T11:06:30Z</time>
      </trkpt>
      <trkpt lat="47.410310218110681" lon="10.925471317023039">
        <ele>1068.642822265625</ele>
        <time>2013-08-24T11:06:39Z</time>
      </trkpt>
      <trkpt lat="47.409937307238579" lon="10.925628980621696">
        <ele>1070.084716796875</ele>
        <time>2013-08-24T11:06:50Z</time>
      </trkpt>
      <trkpt lat="47.409624410793185" lon="10.925739957019687">
        <ele>1070.084716796875</ele>
        <time>2013-08-24T11:07:00Z</time>
      </trkpt>
      <trkpt lat="47.409262396395206" lon="10.925899213179946">
        <ele>1068.162109375</ele>
        <time>2013-08-24T11:07:10Z</time>
      </trkpt>
      <trkpt lat="47.408975148573518" lon="10.925961742177606">
        <ele>1065.7587890625</ele>
        <time>2013-08-24T11:07:15Z</time>
      </trkpt>
      <trkpt lat="47.408721847459674" lon="10.925968447700143">
        <ele>1062.874755859375</ele>
        <time>2013-08-24T11:07:19Z</time>
      </trkpt>
      <trkpt lat="47.408594191074371" lon="10.925973309203982">
        <ele>1061.91357421875</ele>
        <time>2013-08-24T11:07:21Z</time>
      </trkpt>
      <trkpt lat="47.408169228583574" lon="10.926076490432024">
        <ele>1058.548828125</ele>
        <time>2013-08-24T11:07:28Z</time>
      </trkpt>
      <trkpt lat="47.40796429105103" lon="10.925903152674437"/>
      <trkpt lat="47.407975438982248" lon="10.925738364458084">
        <ele>1055.6650390625</ele>
        <time>2013-08-24T11:08:38Z</time>
      </trkpt>
      <trkpt lat="47.40797309204936" lon="10.925703328102827">
        <ele>1055.6650390625</ele>
        <time>2013-08-24T11:08:43Z</time>
      </trkpt>
      <trkpt lat="47.407972924411297" lon="10.92571472749114">
        <ele>1054.70361328125</ele>
        <time>2013-08-24T11:08:52Z</time>
      </trkpt>
      <trkpt lat="47.407967979088426" lon="10.925693940371275">
        <ele>1053.742431640625</ele>
        <time>2013-08-24T11:08:53Z</time>
      </trkpt>
      <trkpt lat="47.407904779538512" lon="10.925544407218695">
        <ele>1052.781005859375</ele>
        <time>2013-08-24T11:09:36Z</time>
      </trkpt>
      <trkpt lat="47.407935792580247" lon="10.925225643441081">
        <ele>1047.012939453125</ele>
        <time>2013-08-24T11:09:39Z</time>
      </trkpt>
      <trkpt lat="47.4081299174577" lon="10.92466271482408">
        <ele>1042.20654296875</ele>
        <time>2013-08-24T11:09:43Z</time>
      </trkpt>
      <trkpt lat="47.408192027360201" lon="10.924527095630765">
        <ele>1041.2451171875</ele>
        <time>2013-08-24T11:09:44Z</time>
      </trkpt>
      <trkpt lat="47.408256400376558" lon="10.924091152846813">
        <ele>1036.919189453125</ele>
        <time>2013-08-24T11:09:48Z</time>
      </trkpt>
      <trkpt lat="47.407920034602284" lon="10.923493858426809">
        <ele>1032.112548828125</ele>
        <time>2013-08-24T11:09:54Z</time>
      </trkpt>
      <trkpt lat="47.407788606360555" lon="10.923228403553367">
        <ele>1031.1513671875</ele>
        <time>2013-08-24T11:09:58Z</time>
      </trkpt>
      <trkpt lat="47.407700764015317" lon="10.923248352482915">
        <ele>1030.18994140625</ele>
        <time>2013-08-24T11:10:02Z</time>
      </trkpt>
      <trkpt lat="47.407315783202648" lon="10.923616485670209">
        <ele>1030.18994140625</ele>
        <time>2013-08-24T11:10:14Z</time>
      </trkpt>
      <trkpt lat="47.407112019136548" lon="10.923806419596076">
        <ele>1030.18994140625</ele>
        <time>2013-08-24T11:10:23Z</time>
      </trkpt>
      <trkpt lat="47.407056950032711" lon="10.92386132106185">
        <ele>1030.670654296875</ele>
        <time>2013-08-24T11:10:31Z</time>
      </trkpt>
      <trkpt lat="47.407034570351243" lon="10.923923933878541">
        <ele>1030.670654296875</ele>
        <time>2013-08-24T11:11:00Z</time>
      </trkpt>
      <trkpt lat="47.406883109360933" lon="10.924171702936292">
        <ele>1029.228515625</ele>
        <time>2013-08-24T11:11:06Z</time>
      </trkpt>
      <trkpt lat="47.406756123527884" lon="10.924416286870837">
        <ele>1031.1513671875</ele>
        <time>2013-08-24T11:11:12Z</time>
      </trkpt>
      <trkpt lat="47.406682195141912" lon="10.924469092860818">
        <ele>1030.18994140625</ele>
        <time>2013-08-24T11:11:15Z</time>
      </trkpt>
      <trkpt lat="47.406503492966294" lon="10.92442475259304">
        <ele>1029.228515625</ele>
        <time>2013-08-24T11:11:19Z</time>
      </trkpt>
      <trkpt lat="47.406412800773978" lon="10.92432651668787">
        <ele>1027.78662109375</ele>
        <time>2013-08-24T11:11:21Z</time>
      </trkpt>
      <trkpt lat="47.406214149668813" lon="10.924273207783699">
        <ele>1027.78662109375</ele>
        <time>2013-08-24T11:11:26Z</time>
      </trkpt>
      <trkpt lat="47.405706960707903" lon="10.924438163638115">
        <ele>1027.78662109375</ele>
        <time>2013-08-24T11:11:38Z</time>
      </trkpt>
      <trkpt lat="47.405102793127298" lon="10.924602951854467">
        <ele>1027.30615234375</ele>
        <time>2013-08-24T11:11:52Z</time>
      </trkpt>
      <trkpt lat="47.404971951618791" lon="10.924627678468823">
        <ele>1028.267333984375</ele>
        <time>2013-08-24T11:11:57Z</time>
      </trkpt>
      <trkpt lat="47.40499148145318" lon="10.924613680690527">
        <ele>1027.78662109375</ele>
        <time>2013-08-24T11:12:10Z</time>
      </trkpt>
      <trkpt lat="47.404995253309608" lon="10.924612591043115">
        <ele>1028.267333984375</ele>
        <time>2013-08-24T11:12:24Z</time>
      </trkpt>
      <trkpt lat="47.404991229996085" lon="10.924611585214734">
        <ele>1028.267333984375</ele>
        <time>2013-08-24T11:12:28Z</time>
      </trkpt>
      <trkpt lat="47.404964491724968" lon="10.924519468098879">
        <ele>1026.825439453125</ele>
        <time>2013-08-24T11:12:32Z</time>
      </trkpt>
      <trkpt lat="47.404845217242837" lon="10.924440929666162">
        <ele>1025.864013671875</ele>
        <time>2013-08-24T11:12:37Z</time>
      </trkpt>
      <trkpt lat="47.404806492850184" lon="10.924455262720585">
        <ele>1025.38330078125</ele>
        <time>2013-08-24T11:12:38Z</time>
      </trkpt>
      <trkpt lat="47.404638016596437" lon="10.924485018476844">
        <ele>1025.38330078125</ele>
        <time>2013-08-24T11:12:42Z</time>
      </trkpt>
      <trkpt lat="47.404514048248529" lon="10.924500273540616">
        <ele>1025.38330078125</ele>
        <time>2013-08-24T11:12:45Z</time>
      </trkpt>
      <trkpt lat="47.404241971671581" lon="10.924516366794705">
        <ele>1024.422119140625</ele>
        <time>2013-08-24T11:12:51Z</time>
      </trkpt>
      <trkpt lat="47.404115069657564" lon="10.92444428242743">
        <ele>1023.94140625</ele>
        <time>2013-08-24T11:12:54Z</time>
      </trkpt>
      <trkpt lat="47.404000572860241" lon="10.924336323514581">
        <ele>1022.018798828125</ele>
        <time>2013-08-24T11:12:57Z</time>
      </trkpt>
      <trkpt lat="47.403951035812497" lon="10.924318050965667">
        <ele>1021.5380859375</ele>
        <time>2013-08-24T11:12:58Z</time>
      </trkpt>
      <trkpt lat="47.40378649905324" lon="10.924258036538959">
        <ele>1020.576904296875</ele>
        <time>2013-08-24T11:13:01Z</time>
      </trkpt>
      <trkpt lat="47.403501095250249" lon="10.924261473119259">
        <ele>1021.0576171875</ele>
        <time>2013-08-24T11:13:06Z</time>
      </trkpt>
      <trkpt lat="47.403458431363106" lon="10.924285026267171">
        <ele>1021.0576171875</ele>
        <time>2013-08-24T11:13:07Z</time>
      </trkpt>
      <trkpt lat="47.40341660566628" lon="10.924299862235785">
        <ele>1020.576904296875</ele>
        <time>2013-08-24T11:13:08Z</time>
      </trkpt>
      <trkpt lat="47.403195071965456" lon="10.924344286322594">
        <ele>1020.576904296875</ele>
        <time>2013-08-24T11:13:13Z</time>
      </trkpt>
      <trkpt lat="47.403097590431571" lon="10.924111437052488">
        <ele>1017.692626953125</ele>
        <time>2013-08-24T11:13:18Z</time>
      </trkpt>
      <trkpt lat="47.402928359806538" lon="10.923815052956343">
        <ele>1015.28955078125</ele>
        <time>2013-08-24T11:13:22Z</time>
      </trkpt>
      <trkpt lat="47.402723338454962" lon="10.923712207004428">
        <ele>1014.328125</ele>
        <time>2013-08-24T11:13:26Z</time>
      </trkpt>
      <trkpt lat="47.402632646262646" lon="10.923737185075879">
        <ele>1014.328125</ele>
        <time>2013-08-24T11:13:28Z</time>
      </trkpt>
      <trkpt lat="47.402422847226262" lon="10.923694018274546">
        <ele>1014.328125</ele>
        <time>2013-08-24T11:13:33Z</time>
      </trkpt>
      <trkpt lat="47.402269961312413" lon="10.923520345240831">
        <ele>1013.847412109375</ele>
        <time>2013-08-24T11:13:38Z</time>
      </trkpt>
      <trkpt lat="47.402253365144134" lon="10.923457900062203">
        <ele>1012.405517578125</ele>
        <time>2013-08-24T11:13:39Z</time>
      </trkpt>
      <trkpt lat="47.402133252471685" lon="10.922888433560729">
        <ele>1010.002197265625</ele>
        <time>2013-08-24T11:13:47Z</time>
      </trkpt>
      <trkpt lat="47.402130402624607" lon="10.922743258997798">
        <ele>1010.002197265625</ele>
        <time>2013-08-24T11:13:51Z</time>
      </trkpt>
      <trkpt lat="47.402128474786878" lon="10.922769494354725">
        <ele>1009.521728515625</ele>
        <time>2013-08-24T11:13:55Z</time>
      </trkpt>
      <trkpt lat="47.40204163827002" lon="10.922745773568749">
        <ele>1009.521728515625</ele>
        <time>2013-08-24T11:14:04Z</time>
      </trkpt>
      <trkpt lat="47.402046751230955" lon="10.922745019197464">
        <ele>1010.002197265625</ele>
        <time>2013-08-24T11:14:08Z</time>
      </trkpt>
      <trkpt lat="47.402001405134797" lon="10.922788521274924">
        <ele>1009.521728515625</ele>
        <time>2013-08-24T11:14:13Z</time>
      </trkpt>
      <trkpt lat="47.401956981047988" lon="10.922843003645539">
        <ele>1009.521728515625</ele>
        <time>2013-08-24T11:14:17Z</time>
      </trkpt>
      <trkpt lat="47.401825720444322" lon="10.922980885952711">
        <ele>1010.48291015625</ele>
        <time>2013-08-24T11:14:28Z</time>
      </trkpt>
      <trkpt lat="47.401775596663356" lon="10.923060514032841">
        <ele>1010.48291015625</ele>
        <time>2013-08-24T11:14:35Z</time>
      </trkpt>
      <trkpt lat="47.401735112071037" lon="10.923064537346363">
        <ele>1009.041015625</ele>
        <time>2013-08-24T11:14:47Z</time>
      </trkpt>
      <trkpt lat="47.401726897805929" lon="10.923056239262223">
        <ele>1009.521728515625</ele>
        <time>2013-08-24T11:15:03Z</time>
      </trkpt>
      <trkpt lat="47.401725389063358" lon="10.923058837652206">
        <ele>1009.041015625</ele>
        <time>2013-08-24T11:15:04Z</time>
      </trkpt>
      <trkpt lat="47.401642575860023" lon="10.922961942851543">
        <ele>1008.560302734375</ele>
        <time>2013-08-24T11:15:09Z</time>
      </trkpt>
      <trkpt lat="47.401430513709784" lon="10.92284400947392">
        <ele>1006.156982421875</ele>
        <time>2013-08-24T11:15:13Z</time>
      </trkpt>
      <trkpt lat="47.401298247277737" lon="10.922803357243538">
        <ele>1006.156982421875</ele>
        <time>2013-08-24T11:15:15Z</time>
      </trkpt>
      <trkpt lat="47.401176374405622" lon="10.922754490748048">
        <ele>1004.715087890625</ele>
        <time>2013-08-24T11:15:17Z</time>
      </trkpt>
      <trkpt lat="47.401027344167233" lon="10.922678802162409">
        <ele>1005.676513671875</ele>
        <time>2013-08-24T11:15:21Z</time>
      </trkpt>
      <trkpt lat="47.40103748627007" lon="10.922696739435196">
        <ele>1005.676513671875</ele>
        <time>2013-08-24T11:15:29Z</time>
      </trkpt>
      <trkpt lat="47.400898849591613" lon="10.922664469107985">
        <ele>1005.19580078125</ele>
        <time>2013-08-24T11:15:35Z</time>
      </trkpt>
      <trkpt lat="47.400519736111164" lon="10.922524072229862">
        <ele>1005.19580078125</ele>
        <time>2013-08-24T11:15:45Z</time>
      </trkpt>
      <trkpt lat="47.40033432841301" lon="10.922417202964425">
        <ele>1005.19580078125</ele>
        <time>2013-08-24T11:15:50Z</time>
      </trkpt>
      <trkpt lat="47.400219077244401" lon="10.922237411141396">
        <ele>1004.715087890625</ele>
        <time>2013-08-24T11:15:54Z</time>
      </trkpt>
      <trkpt lat="47.400056887418032" lon="10.922017134726048">
        <ele>1004.715087890625</ele>
        <time>2013-08-24T11:15:59Z</time>
      </trkpt>
      <trkpt lat="47.399900816380978" lon="10.921901296824217">
        <ele>1004.715087890625</ele>
        <time>2013-08-24T11:16:03Z</time>
      </trkpt>
      <trkpt lat="47.399496138095856" lon="10.921788308769464">
        <ele>1005.676513671875</ele>
        <time>2013-08-24T11:16:13Z</time>
      </trkpt>
      <trkpt lat="47.399007556959987" lon="10.921680266037583">
        <ele>1006.6376953125</ele>
        <time>2013-08-24T11:16:25Z</time>
      </trkpt>
      <trkpt lat="47.398590222001076" lon="10.921426881104708">
        <ele>1006.156982421875</ele>
        <time>2013-08-24T11:16:36Z</time>
      </trkpt>
      <trkpt lat="47.398433480411768" lon="10.921312719583511">
        <ele>1007.59912109375</ele>
        <time>2013-08-24T11:16:40Z</time>
      </trkpt>
      <trkpt lat="47.398237511515617" lon="10.921120354905725">
        <ele>1007.59912109375</ele>
        <time>2013-08-24T11:16:46Z</time>
      </trkpt>
      <trkpt lat="47.398038189858198" lon="10.920867891982198">
        <ele>1007.118408203125</ele>
        <time>2013-08-24T11:16:53Z</time>
      </trkpt>
      <trkpt lat="47.397862505167723" lon="10.920960092917085">
        <ele>1008.560302734375</ele>
        <time>2013-08-24T11:16:59Z</time>
      </trkpt>
      <trkpt lat="47.397679863497615" lon="10.921234181150794">
        <ele>1009.041015625</ele>
        <time>2013-08-24T11:17:06Z</time>
      </trkpt>
      <trkpt lat="47.397477021440864" lon="10.921499384567142">
        <ele>1009.521728515625</ele>
        <time>2013-08-24T11:17:14Z</time>
      </trkpt>
      <trkpt lat="47.397208800539374" lon="10.921552022919059">
        <ele>1011.4443359375</ele>
        <time>2013-08-24T11:17:21Z</time>
      </trkpt>
      <trkpt lat="47.396920714527369" lon="10.921520087867975">
        <ele>1012.405517578125</ele>
        <time>2013-08-24T11:17:28Z</time>
      </trkpt>
      <trkpt lat="47.396773025393486" lon="10.921209035441279">
        <ele>1012.405517578125</ele>
        <time>2013-08-24T11:17:36Z</time>
      </trkpt>
      <trkpt lat="47.396498182788491" lon="10.92163466848433">
        <ele>1013.847412109375</ele>
        <time>2013-08-24T11:17:43Z</time>
      </trkpt>
      <trkpt lat="47.396370358765125" lon="10.921914540231228">
        <ele>1013.847412109375</ele>
        <time>2013-08-24T11:18:36Z</time>
      </trkpt>
      <trkpt lat="47.396147651597857" lon="10.922407312318683">
        <ele>1014.808837890625</ele>
        <time>2013-08-24T11:18:48Z</time>
      </trkpt>
      <trkpt lat="47.396054025739431" lon="10.922580063343048">
        <ele>1015.770263671875</ele>
        <time>2013-08-24T11:18:53Z</time>
      </trkpt>
      <trkpt lat="47.395931482315063" lon="10.922801261767745">
        <ele>1016.7314453125</ele>
        <time>2013-08-24T11:18:59Z</time>
      </trkpt>
      <trkpt lat="47.395813884213567" lon="10.92309320345521">
        <ele>1017.212158203125</ele>
        <time>2013-08-24T11:19:06Z</time>
      </trkpt>
      <trkpt lat="47.395788319408894" lon="10.923239467665553">
        <ele>1017.692626953125</ele>
        <time>2013-08-24T11:19:10Z</time>
      </trkpt>
      <trkpt lat="47.395687401294708" lon="10.92333653010428">
        <ele>1019.134765625</ele>
        <time>2013-08-24T11:19:14Z</time>
      </trkpt>
      <trkpt lat="47.395666530355811" lon="10.923557057976723">
        <ele>1019.134765625</ele>
        <time>2013-08-24T11:19:19Z</time>
      </trkpt>
      <trkpt lat="47.395448433235288" lon="10.923924185335636">
        <ele>1020.09619140625</ele>
        <time>2013-08-24T11:19:28Z</time>
      </trkpt>
      <trkpt lat="47.39532982930541" lon="10.924302292987704">
        <ele>1020.09619140625</ele>
        <time>2013-08-24T11:19:36Z</time>
      </trkpt>
      <trkpt lat="47.395230168476701" lon="10.924726333469152">
        <ele>1022.018798828125</ele>
        <time>2013-08-24T11:19:45Z</time>
      </trkpt>
      <trkpt lat="47.395201586186886" lon="10.925090527161956">
        <ele>1022.018798828125</ele>
        <time>2013-08-24T11:19:52Z</time>
      </trkpt>
      <trkpt lat="47.395152468234301" lon="10.925674745813012">
        <ele>1023.4609375</ele>
        <time>2013-08-24T11:20:03Z</time>
      </trkpt>
      <trkpt lat="47.395082227885723" lon="10.92624387703836">
        <ele>1024.422119140625</ele>
        <time>2013-08-24T11:20:14Z</time>
      </trkpt>
      <trkpt lat="47.3950454313308" lon="10.926490137353539">
        <ele>1024.90283203125</ele>
        <time>2013-08-24T11:20:20Z</time>
      </trkpt>
      <trkpt lat="47.395028751343489" lon="10.92666951008141">
        <ele>1025.38330078125</ele>
        <time>2013-08-24T11:20:23Z</time>
      </trkpt>
      <trkpt lat="47.39500486291945" lon="10.926761627197266">
        <ele>1025.38330078125</ele>
        <time>2013-08-24T11:20:38Z</time>
      </trkpt>
      <trkpt lat="47.394803948700428" lon="10.927068237215281">
        <ele>1026.3447265625</ele>
        <time>2013-08-24T11:20:47Z</time>
      </trkpt>
      <trkpt lat="47.394702779129148" lon="10.927298655733466">
        <ele>1026.825439453125</ele>
        <time>2013-08-24T11:20:53Z</time>
      </trkpt>
      <trkpt lat="47.394551737233996" lon="10.927631249651313">
        <ele>1028.748046875</ele>
        <time>2013-08-24T11:21:02Z</time>
      </trkpt>
      <trkpt lat="47.394428439438343" lon="10.927744740620255">
        <ele>1029.228515625</ele>
        <time>2013-08-24T11:21:07Z</time>
      </trkpt>
      <trkpt lat="47.394225848838687" lon="10.927822943776846">
        <ele>1029.228515625</ele>
        <time>2013-08-24T11:21:14Z</time>
      </trkpt>
      <trkpt lat="47.394125517457724" lon="10.927851693704724">
        <ele>1030.18994140625</ele>
        <time>2013-08-24T11:21:18Z</time>
      </trkpt>
      <trkpt lat="47.393885459750891" lon="10.927834091708064">
        <ele>1030.18994140625</ele>
        <time>2013-08-24T11:21:24Z</time>
      </trkpt>
      <trkpt lat="47.393687479197979" lon="10.927930986508727">
        <ele>1030.670654296875</ele>
        <time>2013-08-24T11:21:30Z</time>
      </trkpt>
      <trkpt lat="47.393560241907835" lon="10.92826928012073">
        <ele>1031.6318359375</ele>
        <time>2013-08-24T11:21:38Z</time>
      </trkpt>
      <trkpt lat="47.393432920798659" lon="10.928664654493332">
        <ele>1033.07373046875</ele>
        <time>2013-08-24T11:21:47Z</time>
      </trkpt>
      <trkpt lat="47.393315657973289" lon="10.929061453789473">
        <ele>1034.03515625</ele>
        <time>2013-08-24T11:21:57Z</time>
      </trkpt>
      <trkpt lat="47.393203424289823" lon="10.929249292239547">
        <ele>1034.99658203125</ele>
        <time>2013-08-24T11:22:03Z</time>
      </trkpt>
      <trkpt lat="47.392975352704525" lon="10.92954944819212">
        <ele>1036.438720703125</ele>
        <time>2013-08-24T11:22:14Z</time>
      </trkpt>
      <trkpt lat="47.392879296094179" lon="10.929656820371747">
        <ele>1036.919189453125</ele>
        <time>2013-08-24T11:22:19Z</time>
      </trkpt>
      <trkpt lat="47.392796315252781" lon="10.929882293567061">
        <ele>1037.880615234375</ele>
        <time>2013-08-24T11:22:26Z</time>
      </trkpt>
      <trkpt lat="47.392745604738593" lon="10.93028923496604">
        <ele>1038.842041015625</ele>
        <time>2013-08-24T11:22:36Z</time>
      </trkpt>
      <trkpt lat="47.392656756564975" lon="10.930748898535967">
        <ele>1039.322509765625</ele>
        <time>2013-08-24T11:22:47Z</time>
      </trkpt>
      <trkpt lat="47.392562460154295" lon="10.931174447759986">
        <ele>1038.842041015625</ele>
        <time>2013-08-24T11:22:56Z</time>
      </trkpt>
      <trkpt lat="47.392404964193702" lon="10.931775765493512">
        <ele>1039.80322265625</ele>
        <time>2013-08-24T11:23:09Z</time>
      </trkpt>
      <trkpt lat="47.392336316406727" lon="10.932100564241409">
        <ele>1041.725830078125</ele>
        <time>2013-08-24T11:23:17Z</time>
      </trkpt>
      <trkpt lat="47.392253000289202" lon="10.932303741574287">
        <ele>1043.167724609375</ele>
        <time>2013-08-24T11:23:24Z</time>
      </trkpt>
      <trkpt lat="47.39218108355999" lon="10.932499626651406">
        <ele>1044.129150390625</ele>
        <time>2013-08-24T11:23:31Z</time>
      </trkpt>
      <trkpt lat="47.392171444371343" lon="10.932529801502824">
        <ele>1044.129150390625</ele>
        <time>2013-08-24T11:23:32Z</time>
      </trkpt>
      <trkpt lat="47.392215700820088" lon="10.932640777900815">
        <ele>1045.09033203125</ele>
        <time>2013-08-24T11:23:38Z</time>
      </trkpt>
      <trkpt lat="47.392218550667167" lon="10.932625355198979">
        <ele>1045.09033203125</ele>
        <time>2013-08-24T11:24:03Z</time>
      </trkpt>
      <trkpt lat="47.392202205955982" lon="10.932604484260082">
        <ele>1045.09033203125</ele>
        <time>2013-08-24T11:24:07Z</time>
      </trkpt>
      <trkpt lat="47.392217377200723" lon="10.932652093470097">
        <ele>1045.09033203125</ele>
        <time>2013-08-24T11:24:10Z</time>
      </trkpt>
      <trkpt lat="47.392122242599726" lon="10.932851079851389">
        <ele>1046.0517578125</ele>
        <time>2013-08-24T11:24:17Z</time>
      </trkpt>
      <trkpt lat="47.392096510156989" lon="10.932868178933859">
        <ele>1046.0517578125</ele>
        <time>2013-08-24T11:24:18Z</time>
      </trkpt>
      <trkpt lat="47.391975643113256" lon="10.933044366538525">
        <ele>1047.49365234375</ele>
        <time>2013-08-24T11:24:25Z</time>
      </trkpt>
      <trkpt lat="47.391848741099238" lon="10.933148469775915">
        <ele>1048.935546875</ele>
        <time>2013-08-24T11:24:31Z</time>
      </trkpt>
      <trkpt lat="47.391731645911932" lon="10.933225667104125">
        <ele>1048.454833984375</ele>
        <time>2013-08-24T11:24:36Z</time>
      </trkpt>
      <trkpt lat="47.391681354492903" lon="10.933349886909127">
        <ele>1049.416259765625</ele>
        <time>2013-08-24T11:24:42Z</time>
      </trkpt>
      <trkpt lat="47.391659896820784" lon="10.933601008728147">
        <ele>1050.377685546875</ele>
        <time>2013-08-24T11:24:52Z</time>
      </trkpt>
      <trkpt lat="47.391651179641485" lon="10.933623136952519">
        <ele>1050.377685546875</ele>
        <time>2013-08-24T11:24:53Z</time>
      </trkpt>
      <trkpt lat="47.391645396128297" lon="10.93377853743732">
        <ele>1051.3388671875</ele>
        <time>2013-08-24T11:24:59Z</time>
      </trkpt>
      <trkpt lat="47.391632990911603" lon="10.933875432237983">
        <ele>1052.30029296875</ele>
        <time>2013-08-24T11:25:03Z</time>
      </trkpt>
      <trkpt lat="47.391543136909604" lon="10.934049021452665">
        <ele>1053.26171875</ele>
        <time>2013-08-24T11:25:12Z</time>
      </trkpt>
      <trkpt lat="47.391451271250844" lon="10.93410836532712">
        <ele>1054.70361328125</ele>
        <time>2013-08-24T11:25:17Z</time>
      </trkpt>
      <trkpt lat="47.391354627907276" lon="10.934136109426618">
        <ele>1055.6650390625</ele>
        <time>2013-08-24T11:25:21Z</time>
      </trkpt>
      <trkpt lat="47.391263013705611" lon="10.934176677837968">
        <ele>1056.626220703125</ele>
        <time>2013-08-24T11:25:26Z</time>
      </trkpt>
      <trkpt lat="47.39117793738842" lon="10.934210289269686">
        <ele>1058.068359375</ele>
        <time>2013-08-24T11:25:31Z</time>
      </trkpt>
      <trkpt lat="47.391065452247858" lon="10.93427499756217">
        <ele>1059.029541015625</ele>
        <time>2013-08-24T11:25:38Z</time>
      </trkpt>
      <trkpt lat="47.391049945726991" lon="10.934286061674356">
        <ele>1059.99072265625</ele>
        <time>2013-08-24T11:25:39Z</time>
      </trkpt>
      <trkpt lat="47.390938550233841" lon="10.934357643127441">
        <ele>1061.432861328125</ele>
        <time>2013-08-24T11:25:46Z</time>
      </trkpt>
      <trkpt lat="47.390888510271907" lon="10.934431906789541">
        <ele>1063.35546875</ele>
        <time>2013-08-24T11:25:51Z</time>
      </trkpt>
      <trkpt lat="47.390796393156052" lon="10.934554617851973">
        <ele>1064.316650390625</ele>
        <time>2013-08-24T11:25:59Z</time>
      </trkpt>
      <trkpt lat="47.390705114230514" lon="10.934699038043618">
        <ele>1066.2392578125</ele>
        <time>2013-08-24T11:26:08Z</time>
      </trkpt>
      <trkpt lat="47.390593467280269" lon="10.934805236756802">
        <ele>1068.162109375</ele>
        <time>2013-08-24T11:26:18Z</time>
      </trkpt>
      <trkpt lat="47.390493135899305" lon="10.934845637530088">
        <ele>1070.084716796875</ele>
        <time>2013-08-24T11:26:26Z</time>
      </trkpt>
      <trkpt lat="47.3904122505337" lon="10.934931049123406">
        <ele>1071.526611328125</ele>
        <time>2013-08-24T11:26:34Z</time>
      </trkpt>
      <trkpt lat="47.390291886404157" lon="10.935036242008209">
        <ele>1074.41064453125</ele>
        <time>2013-08-24T11:26:45Z</time>
      </trkpt>
      <trkpt lat="47.390282917767763" lon="10.935044623911381">
        <ele>1073.929931640625</ele>
        <time>2013-08-24T11:26:46Z</time>
      </trkpt>
      <trkpt lat="47.390238158404827" lon="10.935139926150441">
        <ele>1075.8525390625</ele>
        <time>2013-08-24T11:26:55Z</time>
      </trkpt>
      <trkpt lat="47.39018552005291" lon="10.935261631384492">
        <ele>1078.736572265625</ele>
        <time>2013-08-24T11:27:06Z</time>
      </trkpt>
      <trkpt lat="47.390134893357754" lon="10.935430694371462">
        <ele>1078.255859375</ele>
        <time>2013-08-24T11:27:14Z</time>
      </trkpt>
      <trkpt lat="47.390125757083297" lon="10.935321394354105">
        <ele>1078.736572265625</ele>
        <time>2013-08-24T11:27:57Z</time>
      </trkpt>
      <trkpt lat="47.390102203935385" lon="10.935494564473629">
        <ele>1082.10107421875</ele>
        <time>2013-08-24T11:28:35Z</time>
      </trkpt>
      <trkpt lat="47.389998352155089" lon="10.935713332146406">
        <ele>1084.504638671875</ele>
        <time>2013-08-24T11:28:44Z</time>
      </trkpt>
      <trkpt lat="47.389962477609515" lon="10.935778543353081">
        <ele>1085.946533203125</ele>
        <time>2013-08-24T11:28:50Z</time>
      </trkpt>
      <trkpt lat="47.389919394627213" lon="10.935775609686971">
        <ele>1086.42724609375</ele>
        <time>2013-08-24T11:28:58Z</time>
      </trkpt>
      <trkpt lat="47.389822332188487" lon="10.935778962448239">
        <ele>1085.4658203125</ele>
        <time>2013-08-24T11:29:05Z</time>
      </trkpt>
      <trkpt lat="47.389702890068293" lon="10.935750463977456">
        <ele>1084.504638671875</ele>
        <time>2013-08-24T11:29:10Z</time>
      </trkpt>
      <trkpt lat="47.389421844854951" lon="10.935709225013852">
        <ele>1081.139892578125</ele>
        <time>2013-08-24T11:29:14Z</time>
      </trkpt>
      <trkpt lat="47.389265354722738" lon="10.935690449550748">
        <ele>1082.581787109375</ele>
        <time>2013-08-24T11:29:18Z</time>
      </trkpt>
      <trkpt lat="47.389142224565148" lon="10.93570914119482">
        <ele>1083.062255859375</ele>
        <time>2013-08-24T11:29:26Z</time>
      </trkpt>
      <trkpt lat="47.389126550406218" lon="10.935713751241565">
        <ele>1083.54296875</ele>
        <time>2013-08-24T11:29:27Z</time>
      </trkpt>
      <trkpt lat="47.389075336977839" lon="10.935767479240894">
        <ele>1084.02392578125</ele>
        <time>2013-08-24T11:29:31Z</time>
      </trkpt>
      <trkpt lat="47.389015322551131" lon="10.935919694602489">
        <ele>1085.946533203125</ele>
        <time>2013-08-24T11:29:39Z</time>
      </trkpt>
      <trkpt lat="47.388895293697715" lon="10.936095546931028">
        <ele>1087.388427734375</ele>
        <time>2013-08-24T11:29:50Z</time>
      </trkpt>
      <trkpt lat="47.388765038922429" lon="10.936263436451554">
        <ele>1089.31103515625</ele>
        <time>2013-08-24T11:30:01Z</time>
      </trkpt>
      <trkpt lat="47.388666635379195" lon="10.936427805572748">
        <ele>1090.2724609375</ele>
        <time>2013-08-24T11:30:11Z</time>
      </trkpt>
      <trkpt lat="47.388583570718765" lon="10.936659732833505">
        <ele>1092.195068359375</ele>
        <time>2013-08-24T11:30:23Z</time>
      </trkpt>
      <trkpt lat="47.388550797477365" lon="10.936759477481246">
        <ele>1093.636962890625</ele>
        <time>2013-08-24T11:30:28Z</time>
      </trkpt>
      <trkpt lat="47.388500925153494" lon="10.936867101117969">
        <ele>1093.636962890625</ele>
        <time>2013-08-24T11:30:34Z</time>
      </trkpt>
      <trkpt lat="47.388461027294397" lon="10.936933737248182">
        <ele>1094.59814453125</ele>
        <time>2013-08-24T11:30:38Z</time>
      </trkpt>
      <trkpt lat="47.388382824137807" lon="10.937113277614117">
        <ele>1096.040283203125</ele>
        <time>2013-08-24T11:30:48Z</time>
      </trkpt>
      <trkpt lat="47.388303615152836" lon="10.937261469662189">
        <ele>1097.482177734375</ele>
        <time>2013-08-24T11:30:57Z</time>
      </trkpt>
      <trkpt lat="47.388222562149167" lon="10.937458528205752">
        <ele>1098.443359375</ele>
        <time>2013-08-24T11:31:08Z</time>
      </trkpt>
      <trkpt lat="47.388194734230638" lon="10.937558859586716">
        <ele>1099.40478515625</ele>
        <time>2013-08-24T11:31:13Z</time>
      </trkpt>
      <trkpt lat="47.388151064515114" lon="10.937688276171684">
        <ele>1100.366455078125</ele>
        <time>2013-08-24T11:31:20Z</time>
      </trkpt>
      <trkpt lat="47.388077974319458" lon="10.937968231737614">
        <ele>1102.288818359375</ele>
        <time>2013-08-24T11:31:34Z</time>
      </trkpt>
      <trkpt lat="47.388043692335486" lon="10.938059845939279">
        <ele>1102.76953125</ele>
        <time>2013-08-24T11:31:39Z</time>
      </trkpt>
      <trkpt lat="47.387947551906109" lon="10.938275428488851">
        <ele>1105.1728515625</ele>
        <time>2013-08-24T11:31:51Z</time>
      </trkpt>
      <trkpt lat="47.387930201366544" lon="10.938309375196695">
        <ele>1105.1728515625</ele>
        <time>2013-08-24T11:31:53Z</time>
      </trkpt>
      <trkpt lat="47.387863900512457" lon="10.938465446233749">
        <ele>1107.095458984375</ele>
        <time>2013-08-24T11:32:02Z</time>
      </trkpt>
      <trkpt lat="47.387751918286085" lon="10.93853778205812">
        <ele>1109.01806640625</ele>
        <time>2013-08-24T11:32:10Z</time>
      </trkpt>
      <trkpt lat="47.387604983523488" lon="10.938573237508535">
        <ele>1109.01806640625</ele>
        <time>2013-08-24T11:32:19Z</time>
      </trkpt>
      <trkpt lat="47.387512195855379" lon="10.938692511990666">
        <ele>1110.4599609375</ele>
        <time>2013-08-24T11:32:27Z</time>
      </trkpt>
      <trkpt lat="47.387462826445699" lon="10.93882754445076">
        <ele>1111.42138671875</ele>
        <time>2013-08-24T11:32:34Z</time>
      </trkpt>
      <trkpt lat="47.38739300519228" lon="10.938902897760272">
        <ele>1111.902099609375</ele>
        <time>2013-08-24T11:32:40Z</time>
      </trkpt>
      <trkpt lat="47.387237353250384" lon="10.938919996842742">
        <ele>1112.86328125</ele>
        <time>2013-08-24T11:32:51Z</time>
      </trkpt>
      <trkpt lat="47.387237353250384" lon="10.938909854739904">
        <ele>1114.30517578125</ele>
        <time>2013-08-24T11:34:21Z</time>
      </trkpt>
      <trkpt lat="47.387237269431353" lon="10.938910022377968">
        <ele>1112.382568359375</ele>
        <time>2013-08-24T11:34:24Z</time>
      </trkpt>
      <trkpt lat="47.387234335765243" lon="10.938880853354931">
        <ele>1112.382568359375</ele>
        <time>2013-08-24T11:34:50Z</time>
      </trkpt>
      <trkpt lat="47.387315388768911" lon="10.938889402896166">
        <ele>1111.902099609375</ele>
        <time>2013-08-24T11:34:57Z</time>
      </trkpt>
      <trkpt lat="47.387333745136857" lon="10.938892168924212">
        <ele>1111.902099609375</ele>
        <time>2013-08-24T11:34:58Z</time>
      </trkpt>
      <trkpt lat="47.387545136734843" lon="10.938830226659775">
        <ele>1110.4599609375</ele>
        <time>2013-08-24T11:35:05Z</time>
      </trkpt>
      <trkpt lat="47.38777413032949" lon="10.938770715147257">
        <ele>1109.979248046875</ele>
        <time>2013-08-24T11:35:11Z</time>
      </trkpt>
      <trkpt lat="47.387832133099437" lon="10.938772307708859">
        <ele>1109.979248046875</ele>
        <time>2013-08-24T11:35:17Z</time>
      </trkpt>
      <trkpt lat="47.387839844450355" lon="10.938775576651096">
        <ele>1109.01806640625</ele>
        <time>2013-08-24T11:35:33Z</time>
      </trkpt>
      <trkpt lat="47.387851076200604" lon="10.938802231103182">
        <ele>1109.498779296875</ele>
        <time>2013-08-24T11:35:41Z</time>
      </trkpt>
      <trkpt lat="47.387851746752858" lon="10.938811451196671">
        <ele>1110.4599609375</ele>
        <time>2013-08-24T11:35:45Z</time>
      </trkpt>
      <trkpt lat="47.387843281030655" lon="10.938912872225046">
        <ele>1111.42138671875</ele>
        <time>2013-08-24T11:35:51Z</time>
      </trkpt>
      <trkpt lat="47.387832887470722" lon="10.938999122008681">
        <ele>1112.382568359375</ele>
        <time>2013-08-24T11:35:55Z</time>
      </trkpt>
      <trkpt lat="47.387825343757868" lon="10.939093669876456">
        <ele>1112.86328125</ele>
        <time>2013-08-24T11:35:59Z</time>
      </trkpt>
      <trkpt lat="47.387839425355196" lon="10.939327776432037">
        <ele>1115.2666015625</ele>
        <time>2013-08-24T11:36:08Z</time>
      </trkpt>
      <trkpt lat="47.387837329879403" lon="10.939349066466093">
        <ele>1114.30517578125</ele>
        <time>2013-08-24T11:36:09Z</time>
      </trkpt>
      <trkpt lat="47.387820985168219" lon="10.939568504691124">
        <ele>1117.189453125</ele>
        <time>2013-08-24T11:36:20Z</time>
      </trkpt>
      <trkpt lat="47.387769604101777" lon="10.939767323434353">
        <ele>1118.63134765625</ele>
        <time>2013-08-24T11:36:31Z</time>
      </trkpt>
      <trkpt lat="47.387730209156871" lon="10.939887352287769">
        <ele>1120.553955078125</ele>
        <time>2013-08-24T11:36:40Z</time>
      </trkpt>
      <trkpt lat="47.387645551934838" lon="10.939813423901796">
        <ele>1120.0732421875</ele>
        <time>2013-08-24T11:36:55Z</time>
      </trkpt>
      <trkpt lat="47.387655610218644" lon="10.939813759177923">
        <ele>1120.0732421875</ele>
        <time>2013-08-24T11:37:03Z</time>
      </trkpt>
      <trkpt lat="47.38765929825604" lon="10.939820632338524">
        <ele>1120.0732421875</ele>
        <time>2013-08-24T11:37:04Z</time>
      </trkpt>
      <trkpt lat="47.387700118124485" lon="10.939898919314146">
        <ele>1119.5927734375</ele>
        <time>2013-08-24T11:37:09Z</time>
      </trkpt>
      <trkpt lat="47.387746972963214" lon="10.940001932904124">
        <ele>1121.03466796875</ele>
        <time>2013-08-24T11:37:14Z</time>
      </trkpt>
      <trkpt lat="47.387798856943846" lon="10.940232519060373">
        <ele>1123.43798828125</ele>
        <time>2013-08-24T11:37:24Z</time>
      </trkpt>
      <trkpt lat="47.387804305180907" lon="10.940284570679069">
        <ele>1123.43798828125</ele>
        <time>2013-08-24T11:37:26Z</time>
      </trkpt>
      <trkpt lat="47.387802293524146" lon="10.940400743857026">
        <ele>1124.8798828125</ele>
        <time>2013-08-24T11:37:31Z</time>
      </trkpt>
      <trkpt lat="47.387812770903111" lon="10.940620517358184">
        <ele>1128.244384765625</ele>
        <time>2013-08-24T11:37:42Z</time>
      </trkpt>
      <trkpt lat="47.38784646615386" lon="10.940745323896408">
        <ele>1129.686279296875</ele>
        <time>2013-08-24T11:37:49Z</time>
      </trkpt>
      <trkpt lat="47.387850238010287" lon="10.940764769911766">
        <ele>1130.1669921875</ele>
        <time>2013-08-24T11:37:50Z</time>
      </trkpt>
      <trkpt lat="47.387853842228651" lon="10.940844314172864">
        <ele>1130.647705078125</ele>
        <time>2013-08-24T11:37:54Z</time>
      </trkpt>
      <trkpt lat="47.387844705954194" lon="10.940961996093392">
        <ele>1132.08984375</ele>
        <time>2013-08-24T11:38:00Z</time>
      </trkpt>
      <trkpt lat="47.387851662933826" lon="10.941125359386206">
        <ele>1134.012451171875</ele>
        <time>2013-08-24T11:38:09Z</time>
      </trkpt>
      <trkpt lat="47.387826852500439" lon="10.941155198961496">
        <ele>1134.012451171875</ele>
        <time>2013-08-24T11:38:16Z</time>
      </trkpt>
      <trkpt lat="47.387820985168219" lon="10.941157713532448">
        <ele>1131.60888671875</ele>
        <time>2013-08-24T11:38:43Z</time>
      </trkpt>
      <trkpt lat="47.38782106898725" lon="10.941157713532448">
        <ele>1134.973876953125</ele>
        <time>2013-08-24T11:38:45Z</time>
      </trkpt>
      <trkpt lat="47.387821152806282" lon="10.941157713532448">
        <ele>1134.012451171875</ele>
        <time>2013-08-24T11:38:46Z</time>
      </trkpt>
      <trkpt lat="47.387821404263377" lon="10.94115779735148">
        <ele>1133.53173828125</ele>
        <time>2013-08-24T11:38:51Z</time>
      </trkpt>
      <trkpt lat="47.387819727882743" lon="10.94120766967535">
        <ele>1134.4931640625</ele>
        <time>2013-08-24T11:39:09Z</time>
      </trkpt>
      <trkpt lat="47.387808496132493" lon="10.941303558647633">
        <ele>1136.896240234375</ele>
        <time>2013-08-24T11:39:25Z</time>
      </trkpt>
      <trkpt lat="47.387804472818971" lon="10.941322082653642">
        <ele>1136.896240234375</ele>
        <time>2013-08-24T11:39:26Z</time>
      </trkpt>
      <trkpt lat="47.387804388999939" lon="10.941384360194206">
        <ele>1137.376953125</ele>
        <time>2013-08-24T11:39:29Z</time>
      </trkpt>
      <trkpt lat="47.387804556638002" lon="10.941543700173497">
        <ele>1138.819091796875</ele>
        <time>2013-08-24T11:39:37Z</time>
      </trkpt>
      <trkpt lat="47.387833474203944" lon="10.941728604957461">
        <ele>1140.741455078125</ele>
        <time>2013-08-24T11:39:45Z</time>
      </trkpt>
      <trkpt lat="47.387835066765547" lon="10.941752325743437">
        <ele>1141.22216796875</ele>
        <time>2013-08-24T11:39:46Z</time>
      </trkpt>
      <trkpt lat="47.387834982946515" lon="10.941819297149777">
        <ele>1141.702880859375</ele>
        <time>2013-08-24T11:39:49Z</time>
      </trkpt>
      <trkpt lat="47.387813860550523" lon="10.941899595782161">
        <ele>1143.144775390625</ele>
        <time>2013-08-24T11:39:54Z</time>
      </trkpt>
      <trkpt lat="47.38780103623867" lon="10.941960867494345">
        <ele>1143.62548828125</ele>
        <time>2013-08-24T11:39:58Z</time>
      </trkpt>
      <trkpt lat="47.387806568294764" lon="10.942101264372468">
        <ele>1144.586669921875</ele>
        <time>2013-08-24T11:40:05Z</time>
      </trkpt>
      <trkpt lat="47.38780396990478" lon="10.942123476415873">
        <ele>1145.0673828125</ele>
        <time>2013-08-24T11:40:06Z</time>
      </trkpt>
      <trkpt lat="47.387802880257368" lon="10.942309889942408">
        <ele>1146.509521484375</ele>
        <time>2013-08-24T11:40:14Z</time>
      </trkpt>
      <trkpt lat="47.387787122279406" lon="10.942392367869616">
        <ele>1146.989990234375</ele>
        <time>2013-08-24T11:40:18Z</time>
      </trkpt>
      <trkpt lat="47.38776876591146" lon="10.942504350095987">
        <ele>1148.912841796875</ele>
        <time>2013-08-24T11:40:24Z</time>
      </trkpt>
      <trkpt lat="47.387757282704115" lon="10.942699229344726">
        <ele>1150.83544921875</ele>
        <time>2013-08-24T11:40:34Z</time>
      </trkpt>
      <trkpt lat="47.387757953256369" lon="10.942734517157078">
        <ele>1151.316162109375</ele>
        <time>2013-08-24T11:40:36Z</time>
      </trkpt>
      <trkpt lat="47.387742027640343" lon="10.942841973155737">
        <ele>1152.27734375</ele>
        <time>2013-08-24T11:40:42Z</time>
      </trkpt>
      <trkpt lat="47.387727443128824" lon="10.94296233728528">
        <ele>1152.758056640625</ele>
        <time>2013-08-24T11:40:48Z</time>
      </trkpt>
      <trkpt lat="47.387714115902781" lon="10.943018160760403">
        <ele>1153.719482421875</ele>
        <time>2013-08-24T11:40:51Z</time>
      </trkpt>
      <trkpt lat="47.387700285762548" lon="10.94307373277843">
        <ele>1153.23876953125</ele>
        <time>2013-08-24T11:40:54Z</time>
      </trkpt>
      <trkpt lat="47.387699447572231" lon="10.94318320043385">
        <ele>1154.6806640625</ele>
        <time>2013-08-24T11:40:59Z</time>
      </trkpt>
      <trkpt lat="47.387738339602947" lon="10.943328877910972">
        <ele>1156.12255859375</ele>
        <time>2013-08-24T11:41:07Z</time>
      </trkpt>
      <trkpt lat="47.387705147266388" lon="10.94335176050663">
        <ele>1156.12255859375</ele>
        <time>2013-08-24T11:41:23Z</time>
      </trkpt>
      <trkpt lat="47.387684443965554" lon="10.943434070795774">
        <ele>1156.12255859375</ele>
        <time>2013-08-24T11:41:44Z</time>
      </trkpt>
      <trkpt lat="47.387732053175569" lon="10.943507580086589">
        <ele>1158.52587890625</ele>
        <time>2013-08-24T11:41:56Z</time>
      </trkpt>
      <trkpt lat="47.387730795890093" lon="10.943579245358706">
        <ele>1159.4873046875</ele>
        <time>2013-08-24T11:42:02Z</time>
      </trkpt>
      <trkpt lat="47.387736914679408" lon="10.943737663328648">
        <ele>1160.92919921875</ele>
        <time>2013-08-24T11:42:13Z</time>
      </trkpt>
      <trkpt lat="47.38772626966238" lon="10.943882083520293">
        <ele>1162.851806640625</ele>
        <time>2013-08-24T11:42:23Z</time>
      </trkpt>
      <trkpt lat="47.387737166136503" lon="10.943944025784731">
        <ele>1163.81298828125</ele>
        <time>2013-08-24T11:42:28Z</time>
      </trkpt>
      <trkpt lat="47.387758791446686" lon="10.944070257246494">
        <ele>1165.25537109375</ele>
        <time>2013-08-24T11:42:37Z</time>
      </trkpt>
      <trkpt lat="47.387778991833329" lon="10.944283409044147">
        <ele>1168.13916015625</ele>
        <time>2013-08-24T11:42:51Z</time>
      </trkpt>
      <trkpt lat="47.38777756690979" lon="10.944301262497902">
        <ele>1168.13916015625</ele>
        <time>2013-08-24T11:42:52Z</time>
      </trkpt>
      <trkpt lat="47.387771364301443" lon="10.944332862272859">
        <ele>1168.13916015625</ele>
        <time>2013-08-24T11:42:54Z</time>
      </trkpt>
      <trkpt lat="47.387758372351527" lon="10.944439060986042">
        <ele>1169.581298828125</ele>
        <time>2013-08-24T11:43:01Z</time>
      </trkpt>
      <trkpt lat="47.387752924114466" lon="10.944595132023096">
        <ele>1170.54248046875</ele>
        <time>2013-08-24T11:43:10Z</time>
      </trkpt>
      <trkpt lat="47.387755019590259" lon="10.94465103931725">
        <ele>1171.503662109375</ele>
        <time>2013-08-24T11:43:18Z</time>
      </trkpt>
      <trkpt lat="47.387726940214634" lon="10.944640142843127">
        <ele>1171.503662109375</ele>
        <time>2013-08-24T11:43:38Z</time>
      </trkpt>
      <trkpt lat="47.387732891365886" lon="10.944641483947635">
        <ele>1172.94580078125</ele>
        <time>2013-08-24T11:45:28Z</time>
      </trkpt>
      <trkpt lat="47.387733310461044" lon="10.944641400128603">
        <ele>1169.581298828125</ele>
        <time>2013-08-24T11:45:32Z</time>
      </trkpt>
      <trkpt lat="47.387733729556203" lon="10.944641316309571">
        <ele>1173.426513671875</ele>
        <time>2013-08-24T11:45:35Z</time>
      </trkpt>
      <trkpt lat="47.387733897194266" lon="10.94464123249054">
        <ele>1170.061767578125</ele>
        <time>2013-08-24T11:45:37Z</time>
      </trkpt>
      <trkpt lat="47.387733897194266" lon="10.94464123249054">
        <ele>1171.984375</ele>
        <time>2013-08-24T11:45:38Z</time>
      </trkpt>
      <trkpt lat="47.387734232470393" lon="10.944641567766666">
        <ele>1174.868408203125</ele>
        <time>2013-08-24T11:45:49Z</time>
      </trkpt>
      <trkpt lat="47.387734400108457" lon="10.944641567766666">
        <ele>1169.1005859375</ele>
        <time>2013-08-24T11:45:50Z</time>
      </trkpt>
      <trkpt lat="47.387734986841679" lon="10.944641483947635">
        <ele>1173.906982421875</ele>
        <time>2013-08-24T11:45:53Z</time>
      </trkpt>
      <trkpt lat="47.387735154479742" lon="10.944641483947635">
        <ele>1170.54248046875</ele>
        <time>2013-08-24T11:45:54Z</time>
      </trkpt>
      <trkpt lat="47.387735489755869" lon="10.944641400128603">
        <ele>1168.619873046875</ele>
        <time>2013-08-24T11:45:56Z</time>
      </trkpt>
      <trkpt lat="47.387735573574901" lon="10.944641316309571">
        <ele>1173.906982421875</ele>
        <time>2013-08-24T11:45:57Z</time>
      </trkpt>
      <trkpt lat="47.387735657393932" lon="10.944641316309571">
        <ele>1174.3876953125</ele>
        <time>2013-08-24T11:45:58Z</time>
      </trkpt>
      <trkpt lat="47.387735657393932" lon="10.944641316309571">
        <ele>1169.581298828125</ele>
        <time>2013-08-24T11:45:59Z</time>
      </trkpt>
      <trkpt lat="47.387735741212964" lon="10.94464123249054">
        <ele>1177.271728515625</ele>
        <time>2013-08-24T11:46:00Z</time>
      </trkpt>
      <trkpt lat="47.387735992670059" lon="10.944641064852476">
        <ele>1173.426513671875</ele>
        <time>2013-08-24T11:46:02Z</time>
      </trkpt>
      <trkpt lat="47.387736327946186" lon="10.944640729576349">
        <ele>1173.906982421875</ele>
        <time>2013-08-24T11:46:03Z</time>
      </trkpt>
      <trkpt lat="47.387740099802613" lon="10.944637628272176">
        <ele>1176.791015625</ele>
        <time>2013-08-24T11:47:21Z</time>
      </trkpt>
      <trkpt lat="47.38774236291647" lon="10.944640394300222">
        <ele>1180.15576171875</ele>
        <time>2013-08-24T11:48:41Z</time>
      </trkpt>
      <trkpt lat="47.387742530554533" lon="10.944643160328269">
        <ele>1183.03955078125</ele>
        <time>2013-08-24T11:50:12Z</time>
      </trkpt>
      <trkpt lat="47.387746050953865" lon="10.944646261632442">
        <ele>1185.923583984375</ele>
        <time>2013-08-24T11:51:42Z</time>
      </trkpt>
      <trkpt lat="47.387749655172229" lon="10.944666629657149">
        <ele>1187.84619140625</ele>
        <time>2013-08-24T11:52:30Z</time>
      </trkpt>
      <trkpt lat="47.387743704020977" lon="10.944693284109235">
        <ele>1188.8076171875</ele>
        <time>2013-08-24T11:52:37Z</time>
      </trkpt>
      <trkpt lat="47.387767592445016" lon="10.944822952151299">
        <ele>1190.72998046875</ele>
        <time>2013-08-24T11:52:50Z</time>
      </trkpt>
      <trkpt lat="47.387802209705114" lon="10.944968378171325">
        <ele>1192.172119140625</ele>
        <time>2013-08-24T11:52:57Z</time>
      </trkpt>
      <trkpt lat="47.387839425355196" lon="10.945122186094522">
        <ele>1194.0947265625</ele>
        <time>2013-08-24T11:53:04Z</time>
      </trkpt>
      <trkpt lat="47.38786406815052" lon="10.945215225219727">
        <ele>1194.5751953125</ele>
        <time>2013-08-24T11:53:08Z</time>
      </trkpt>
      <trkpt lat="47.38794906064868" lon="10.945438519120216">
        <ele>1197.45947265625</ele>
        <time>2013-08-24T11:53:20Z</time>
      </trkpt>
      <trkpt lat="47.387997256591916" lon="10.945570031180978">
        <ele>1198.420654296875</ele>
        <time>2013-08-24T11:53:27Z</time>
      </trkpt>
      <trkpt lat="47.388023156672716" lon="10.945635493844748">
        <ele>1198.9013671875</ele>
        <time>2013-08-24T11:53:31Z</time>
      </trkpt>
      <trkpt lat="47.38805266097188" lon="10.945778824388981">
        <ele>1200.823974609375</ele>
        <time>2013-08-24T11:53:38Z</time>
      </trkpt>
      <trkpt lat="47.38806489855051" lon="10.945843448862433">
        <ele>1200.823974609375</ele>
        <time>2013-08-24T11:53:41Z</time>
      </trkpt>
      <trkpt lat="47.388101778924465" lon="10.945986360311508">
        <ele>1202.74658203125</ele>
        <time>2013-08-24T11:53:49Z</time>
      </trkpt>
      <trkpt lat="47.388109909370542" lon="10.946118794381618">
        <ele>1204.188720703125</ele>
        <time>2013-08-24T11:53:56Z</time>
      </trkpt>
      <trkpt lat="47.388128852471709" lon="10.946280062198639">
        <ele>1205.14990234375</ele>
        <time>2013-08-24T11:54:05Z</time>
      </trkpt>
      <trkpt lat="47.388158105313778" lon="10.946404282003641">
        <ele>1206.591796875</ele>
        <time>2013-08-24T11:54:13Z</time>
      </trkpt>
      <trkpt lat="47.388154417276382" lon="10.946468403562903">
        <ele>1207.55322265625</ele>
        <time>2013-08-24T11:54:17Z</time>
      </trkpt>
      <trkpt lat="47.388149304315448" lon="10.946503942832351">
        <ele>1208.033935546875</ele>
        <time>2013-08-24T11:54:19Z</time>
      </trkpt>
      <trkpt lat="47.388133462518454" lon="10.946699157357216">
        <ele>1209.475830078125</ele>
        <time>2013-08-24T11:54:29Z</time>
      </trkpt>
      <trkpt lat="47.388122566044331" lon="10.946802590042353">
        <ele>1211.3984375</ele>
        <time>2013-08-24T11:54:36Z</time>
      </trkpt>
      <trkpt lat="47.388112423941493" lon="10.946911806240678">
        <ele>1212.35986328125</ele>
        <time>2013-08-24T11:54:43Z</time>
      </trkpt>
      <trkpt lat="47.388123823329806" lon="10.947043402120471">
        <ele>1213.8017578125</ele>
        <time>2013-08-24T11:54:49Z</time>
      </trkpt>
      <trkpt lat="47.388102617114782" lon="10.947182038798928">
        <ele>1215.243896484375</ele>
        <time>2013-08-24T11:54:57Z</time>
      </trkpt>
      <trkpt lat="47.388103539124131" lon="10.947300894185901">
        <ele>1216.205078125</ele>
        <time>2013-08-24T11:55:03Z</time>
      </trkpt>
      <trkpt lat="47.388109993189573" lon="10.947449505329132">
        <ele>1217.64697265625</ele>
        <time>2013-08-24T11:55:11Z</time>
      </trkpt>
      <trkpt lat="47.388111334294081" lon="10.947481105104089">
        <ele>1218.127685546875</ele>
        <time>2013-08-24T11:55:13Z</time>
      </trkpt>
      <trkpt lat="47.388113513588905" lon="10.947564169764519">
        <ele>1219.089111328125</ele>
        <time>2013-08-24T11:55:18Z</time>
      </trkpt>
      <trkpt lat="47.388157267123461" lon="10.947620663791895">
        <ele>1220.531005859375</ele>
        <time>2013-08-24T11:55:24Z</time>
      </trkpt>
      <trkpt lat="47.38817528821528" lon="10.947683276608586">
        <ele>1220.531005859375</ele>
        <time>2013-08-24T11:55:31Z</time>
      </trkpt>
      <trkpt lat="47.38816405646503" lon="10.947710853070021">
        <ele>1221.01171875</ele>
        <time>2013-08-24T11:55:44Z</time>
      </trkpt>
      <trkpt lat="47.388172270730138" lon="10.947731053456664">
        <ele>1221.4921875</ele>
        <time>2013-08-24T11:55:46Z</time>
      </trkpt>
      <trkpt lat="47.388202529400587" lon="10.947869522497058">
        <ele>1223.4150390625</ele>
        <time>2013-08-24T11:55:55Z</time>
      </trkpt>
      <trkpt lat="47.388214766979218" lon="10.947981001809239">
        <ele>1224.376220703125</ele>
        <time>2013-08-24T11:56:02Z</time>
      </trkpt>
      <trkpt lat="47.388237649574876" lon="10.948116956278682">
        <ele>1226.779541015625</ele>
        <time>2013-08-24T11:56:10Z</time>
      </trkpt>
      <trkpt lat="47.388298250734806" lon="10.948231453076005">
        <ele>1227.26025390625</ele>
        <time>2013-08-24T11:56:19Z</time>
      </trkpt>
      <trkpt lat="47.388303698971868" lon="10.948244864121079">
        <ele>1226.779541015625</ele>
        <time>2013-08-24T11:56:20Z</time>
      </trkpt>
      <trkpt lat="47.388336975127459" lon="10.948372771963477">
        <ele>1229.66357421875</ele>
        <time>2013-08-24T11:56:28Z</time>
      </trkpt>
      <trkpt lat="47.388344770297408" lon="10.948421387001872">
        <ele>1229.66357421875</ele>
        <time>2013-08-24T11:56:31Z</time>
      </trkpt>
      <trkpt lat="47.388367233797908" lon="10.948609309270978">
        <ele>1231.105712890625</ele>
        <time>2013-08-24T11:56:42Z</time>
      </trkpt>
      <trkpt lat="47.388398498296738" lon="10.948713412508368">
        <ele>1233.028076171875</ele>
        <time>2013-08-24T11:56:49Z</time>
      </trkpt>
      <trkpt lat="47.388416770845652" lon="10.948864705860615">
        <ele>1233.989501953125</ele>
        <time>2013-08-24T11:56:58Z</time>
      </trkpt>
      <trkpt lat="47.388410568237305" lon="10.949075175449252">
        <ele>1235.912109375</ele>
        <time>2013-08-24T11:57:10Z</time>
      </trkpt>
      <trkpt lat="47.388391960412264" lon="10.949115324765444">
        <ele>1236.392822265625</ele>
        <time>2013-08-24T11:57:13Z</time>
      </trkpt>
      <trkpt lat="47.388366814702749" lon="10.949192102998495">
        <ele>1237.35400390625</ele>
        <time>2013-08-24T11:57:18Z</time>
      </trkpt>
      <trkpt lat="47.388322977349162" lon="10.949237616732717">
        <ele>1238.3154296875</ele>
        <time>2013-08-24T11:57:23Z</time>
      </trkpt>
      <trkpt lat="47.388252234086394" lon="10.949371224269271">
        <ele>1240.238037109375</ele>
        <time>2013-08-24T11:57:34Z</time>
      </trkpt>
      <trkpt lat="47.388245612382889" lon="10.949511202052236">
        <ele>1241.679931640625</ele>
        <time>2013-08-24T11:57:43Z</time>
      </trkpt>
      <trkpt lat="47.388252569362521" lon="10.949572389945388">
        <ele>1242.641357421875</ele>
        <time>2013-08-24T11:57:49Z</time>
      </trkpt>
      <trkpt lat="47.388279810547829" lon="10.949632907286286">
        <ele>1243.121826171875</ele>
        <time>2013-08-24T11:57:55Z</time>
      </trkpt>
      <trkpt lat="47.388341836631298" lon="10.949706081300974">
        <ele>1244.56396484375</ele>
        <time>2013-08-24T11:58:02Z</time>
      </trkpt>
      <trkpt lat="47.388378465548158" lon="10.94975084066391">
        <ele>1245.044677734375</ele>
        <time>2013-08-24T11:58:09Z</time>
      </trkpt>
      <trkpt lat="47.388377878814936" lon="10.949750756844878">
        <ele>1245.044677734375</ele>
        <time>2013-08-24T11:58:10Z</time>
      </trkpt>
      <trkpt lat="47.388387937098742" lon="10.949774645268917">
        <ele>1245.525390625</ele>
        <time>2013-08-24T11:58:14Z</time>
      </trkpt>
      <trkpt lat="47.388394558802247" lon="10.949801718816161">
        <ele>1245.525390625</ele>
        <time>2013-08-24T11:58:16Z</time>
      </trkpt>
      <trkpt lat="47.388413585722446" lon="10.949954940006137">
        <ele>1247.447998046875</ele>
        <time>2013-08-24T11:58:26Z</time>
      </trkpt>
      <trkpt lat="47.388448035344481" lon="10.950118722394109">
        <ele>1248.889892578125</ele>
        <time>2013-08-24T11:58:36Z</time>
      </trkpt>
      <trkpt lat="47.388477958738804" lon="10.950214695185423">
        <ele>1249.851318359375</ele>
        <time>2013-08-24T11:58:43Z</time>
      </trkpt>
      <trkpt lat="47.388498997315764" lon="10.950351823121309">
        <ele>1252.25439453125</ele>
        <time>2013-08-24T11:58:52Z</time>
      </trkpt>
      <trkpt lat="47.388507546856999" lon="10.950494483113289">
        <ele>1252.735107421875</ele>
        <time>2013-08-24T11:59:01Z</time>
      </trkpt>
      <trkpt lat="47.388495225459337" lon="10.950675699859858">
        <ele>1255.619140625</ele>
        <time>2013-08-24T11:59:15Z</time>
      </trkpt>
      <trkpt lat="47.388503272086382" lon="10.950781982392073">
        <ele>1257.06103515625</ele>
        <time>2013-08-24T11:59:24Z</time>
      </trkpt>
      <trkpt lat="47.388503607362509" lon="10.950991027057171">
        <ele>1259.94482421875</ele>
        <time>2013-08-24T11:59:39Z</time>
      </trkpt>
      <trkpt lat="47.388503523543477" lon="10.95109898597002">
        <ele>1260.42578125</ele>
        <time>2013-08-24T11:59:52Z</time>
      </trkpt>
      <trkpt lat="47.388491285964847" lon="10.95117031596601">
        <ele>1261.38720703125</ele>
        <time>2013-08-24T12:00:05Z</time>
      </trkpt>
      <trkpt lat="47.388498913496733" lon="10.951308952644467">
        <ele>1262.8291015625</ele>
        <time>2013-08-24T12:00:14Z</time>
      </trkpt>
      <trkpt lat="47.388552138581872" lon="10.951466867700219">
        <ele>1264.751708984375</ele>
        <time>2013-08-24T12:00:24Z</time>
      </trkpt>
      <trkpt lat="47.388621624559164" lon="10.951588237658143">
        <ele>1266.193603515625</ele>
        <time>2013-08-24T12:00:34Z</time>
      </trkpt>
      <trkpt lat="47.388676609843969" lon="10.95169560983777">
        <ele>1268.1162109375</ele>
        <time>2013-08-24T12:00:43Z</time>
      </trkpt>
      <trkpt lat="47.388701923191547" lon="10.951865427196026">
        <ele>1270.038818359375</ele>
        <time>2013-08-24T12:00:53Z</time>
      </trkpt>
      <trkpt lat="47.388673089444637" lon="10.951961986720562">
        <ele>1271.000244140625</ele>
        <time>2013-08-24T12:00:59Z</time>
      </trkpt>
      <trkpt lat="47.38860628567636" lon="10.952169606462121">
        <ele>1273.403564453125</ele>
        <time>2013-08-24T12:01:11Z</time>
      </trkpt>
      <trkpt lat="47.388509474694729" lon="10.952316960319877">
        <ele>1275.325927734375</ele>
        <time>2013-08-24T12:01:22Z</time>
      </trkpt>
      <trkpt lat="47.38850268535316" lon="10.952328527346253">
        <ele>1275.325927734375</ele>
        <time>2013-08-24T12:01:23Z</time>
      </trkpt>
      <trkpt lat="47.388435630127788" lon="10.952439252287149">
        <ele>1276.768310546875</ele>
        <time>2013-08-24T12:01:33Z</time>
      </trkpt>
      <trkpt lat="47.388372514396906" lon="10.952510163187981">
        <ele>1278.210205078125</ele>
        <time>2013-08-24T12:01:40Z</time>
      </trkpt>
      <trkpt lat="47.388328090310097" lon="10.952640417963266">
        <ele>1279.652099609375</ele>
        <time>2013-08-24T12:01:51Z</time>
      </trkpt>
      <trkpt lat="47.388349967077374" lon="10.952717699110508">
        <ele>1281.09423828125</ele>
        <time>2013-08-24T12:01:57Z</time>
      </trkpt>
      <trkpt lat="47.388370838016272" lon="10.952736055478454">
        <ele>1280.613525390625</ele>
        <time>2013-08-24T12:01:59Z</time>
      </trkpt>
      <trkpt lat="47.388407215476036" lon="10.952771091833711">
        <ele>1281.57470703125</ele>
        <time>2013-08-24T12:02:03Z</time>
      </trkpt>
      <trkpt lat="47.388503942638636" lon="10.95281895250082">
        <ele>1283.0166015625</ele>
        <time>2013-08-24T12:02:12Z</time>
      </trkpt>
      <trkpt lat="47.388540906831622" lon="10.952883744612336">
        <ele>1284.458740234375</ele>
        <time>2013-08-24T12:02:18Z</time>
      </trkpt>
      <trkpt lat="47.38853788934648" lon="10.953028248623013">
        <ele>1285.900634765625</ele>
        <time>2013-08-24T12:02:26Z</time>
      </trkpt>
      <trkpt lat="47.388425655663013" lon="10.95317711122334">
        <ele>1288.303955078125</ele>
        <time>2013-08-24T12:02:37Z</time>
      </trkpt>
      <trkpt lat="47.3883658926934" lon="10.953315831720829">
        <ele>1289.26513671875</ele>
        <time>2013-08-24T12:02:46Z</time>
      </trkpt>
      <trkpt lat="47.388376789167523" lon="10.953413229435682">
        <ele>1291.66845703125</ele>
        <time>2013-08-24T12:02:53Z</time>
      </trkpt>
      <trkpt lat="47.388454489409924" lon="10.953500904142857">
        <ele>1292.630126953125</ele>
        <time>2013-08-24T12:03:04Z</time>
      </trkpt>
      <trkpt lat="47.388514503836632" lon="10.95353334210813">
        <ele>1294.552490234375</ele>
        <time>2013-08-24T12:03:12Z</time>
      </trkpt>
      <trkpt lat="47.388573428615928" lon="10.953601403161883">
        <ele>1295.99462890625</ele>
        <time>2013-08-24T12:03:20Z</time>
      </trkpt>
      <trkpt lat="47.388602513819933" lon="10.953776082023978">
        <ele>1298.87841796875</ele>
        <time>2013-08-24T12:03:31Z</time>
      </trkpt>
      <trkpt lat="47.388605531305075" lon="10.95381916500628">
        <ele>1298.87841796875</ele>
        <time>2013-08-24T12:03:34Z</time>
      </trkpt>
      <trkpt lat="47.388588013127446" lon="10.953992838039994">
        <ele>1300.801025390625</ele>
        <time>2013-08-24T12:03:44Z</time>
      </trkpt>
      <trkpt lat="47.388527411967516" lon="10.954195847734809">
        <ele>1301.762451171875</ele>
        <time>2013-08-24T12:03:55Z</time>
      </trkpt>
      <trkpt lat="47.388495560735464" lon="10.95438645221293">
        <ele>1303.204345703125</ele>
        <time>2013-08-24T12:04:04Z</time>
      </trkpt>
      <trkpt lat="47.388504361733794" lon="10.954494327306747">
        <ele>1305.607666015625</ele>
        <time>2013-08-24T12:04:12Z</time>
      </trkpt>
      <trkpt lat="47.388527663424611" lon="10.954631455242634">
        <ele>1307.5302734375</ele>
        <time>2013-08-24T12:04:24Z</time>
      </trkpt>
      <trkpt lat="47.388546857982874" lon="10.954757770523429">
        <ele>1308.49169921875</ele>
        <time>2013-08-24T12:04:33Z</time>
      </trkpt>
      <trkpt lat="47.388567812740803" lon="10.954803032800555">
        <ele>1308.49169921875</ele>
        <time>2013-08-24T12:04:37Z</time>
      </trkpt>
      <trkpt lat="47.388646183535457" lon="10.954824406653643">
        <ele>1309.453125</ele>
        <time>2013-08-24T12:04:45Z</time>
      </trkpt>
      <trkpt lat="47.388720698654652" lon="10.954741509631276">
        <ele>1311.375732421875</ele>
        <time>2013-08-24T12:04:57Z</time>
      </trkpt>
      <trkpt lat="47.388860592618585" lon="10.95467085018754">
        <ele>1313.77880859375</ele>
        <time>2013-08-24T12:05:12Z</time>
      </trkpt>
      <trkpt lat="47.388935023918748" lon="10.95469867810607">
        <ele>1315.70166015625</ele>
        <time>2013-08-24T12:05:21Z</time>
      </trkpt>
      <trkpt lat="47.388943992555141" lon="10.954707898199558">
        <ele>1315.70166015625</ele>
        <time>2013-08-24T12:05:22Z</time>
      </trkpt>
      <trkpt lat="47.388988500460982" lon="10.954819126054645">
        <ele>1318.104736328125</ele>
        <time>2013-08-24T12:05:31Z</time>
      </trkpt>
      <trkpt lat="47.389027057215571" lon="10.955049293115735">
        <ele>1320.02734375</ele>
        <time>2013-08-24T12:05:44Z</time>
      </trkpt>
      <trkpt lat="47.389060752466321" lon="10.955216763541102">
        <ele>1321.949951171875</ele>
        <time>2013-08-24T12:05:53Z</time>
      </trkpt>
      <trkpt lat="47.389083886519074" lon="10.955280046910048">
        <ele>1321.949951171875</ele>
        <time>2013-08-24T12:05:58Z</time>
      </trkpt>
      <trkpt lat="47.389092016965151" lon="10.955304019153118">
        <ele>1322.4306640625</ele>
        <time>2013-08-24T12:06:00Z</time>
      </trkpt>
      <trkpt lat="47.389095956459641" lon="10.955430837348104">
        <ele>1323.87255859375</ele>
        <time>2013-08-24T12:06:07Z</time>
      </trkpt>
      <trkpt lat="47.38909880630672" lon="10.955481296405196">
        <ele>1324.353515625</ele>
        <time>2013-08-24T12:06:10Z</time>
      </trkpt>
      <trkpt lat="47.389120934531093" lon="10.955599313601851">
        <ele>1325.314697265625</ele>
        <time>2013-08-24T12:06:18Z</time>
      </trkpt>
      <trkpt lat="47.389140883460641" lon="10.955776507034898">
        <ele>1327.237548828125</ele>
        <time>2013-08-24T12:06:29Z</time>
      </trkpt>
      <trkpt lat="47.389132585376501" lon="10.955886477604508">
        <ele>1328.19873046875</ele>
        <time>2013-08-24T12:06:35Z</time>
      </trkpt>
      <trkpt lat="47.38900794647634" lon="10.956079177558422">
        <ele>1329.640625</ele>
        <time>2013-08-24T12:06:47Z</time>
      </trkpt>
      <trkpt lat="47.388759674504399" lon="10.956251677125692">
        <ele>1331.563232421875</ele>
        <time>2013-08-24T12:07:04Z</time>
      </trkpt>
      <trkpt lat="47.388608632609248" lon="10.956215634942055">
        <ele>1332.524658203125</ele>
        <time>2013-08-24T12:07:16Z</time>
      </trkpt>
      <trkpt lat="47.388494471088052" lon="10.956115638837218">
        <ele>1335.408447265625</ele>
        <time>2013-08-24T12:07:28Z</time>
      </trkpt>
      <trkpt lat="47.388452896848321" lon="10.956069119274616">
        <ele>1335.88916015625</ele>
        <time>2013-08-24T12:07:33Z</time>
      </trkpt>
      <trkpt lat="47.388355750590563" lon="10.956177748739719">
        <ele>1338.773193359375</ele>
        <time>2013-08-24T12:07:46Z</time>
      </trkpt>
      <trkpt lat="47.388335298746824" lon="10.95631898380816">
        <ele>1340.69580078125</ele>
        <time>2013-08-24T12:07:58Z</time>
      </trkpt>
      <trkpt lat="47.388317361474037" lon="10.95643138512969">
        <ele>1342.137939453125</ele>
        <time>2013-08-24T12:08:10Z</time>
      </trkpt>
      <trkpt lat="47.388289365917444" lon="10.956602459773421">
        <ele>1345.021728515625</ele>
        <time>2013-08-24T12:08:22Z</time>
      </trkpt>
      <trkpt lat="47.388215940445662" lon="10.956759117543697">
        <ele>1345.983154296875</ele>
        <time>2013-08-24T12:08:34Z</time>
      </trkpt>
      <trkpt lat="47.388132372871041" lon="10.956988865509629">
        <ele>1349.34765625</ele>
        <time>2013-08-24T12:08:51Z</time>
      </trkpt>
      <trkpt lat="47.388137150555849" lon="10.95705340616405">
        <ele>1349.828369140625</ele>
        <time>2013-08-24T12:08:59Z</time>
      </trkpt>
      <trkpt lat="47.388133127242327" lon="10.95704410225153">
        <ele>1349.828369140625</ele>
        <time>2013-08-24T12:09:19Z</time>
      </trkpt>
      <trkpt lat="47.388147627934813" lon="10.957096153870225">
        <ele>1351.270263671875</ele>
        <time>2013-08-24T12:09:24Z</time>
      </trkpt>
      <trkpt lat="47.388241924345493" lon="10.957126999273896">
        <ele>1351.7509765625</ele>
        <time>2013-08-24T12:09:34Z</time>
      </trkpt>
      <trkpt lat="47.388322474434972" lon="10.95697377808392">
        <ele>1353.673583984375</ele>
        <time>2013-08-24T12:09:46Z</time>
      </trkpt>
      <trkpt lat="47.388422302901745" lon="10.956894652917981">
        <ele>1356.076904296875</ele>
        <time>2013-08-24T12:09:57Z</time>
      </trkpt>
      <trkpt lat="47.388522801920772" lon="10.956900604069233">
        <ele>1357.999755859375</ele>
        <time>2013-08-24T12:10:07Z</time>
      </trkpt>
      <trkpt lat="47.388627575710416" lon="10.956957265734673">
        <ele>1359.441650390625</ele>
        <time>2013-08-24T12:10:16Z</time>
      </trkpt>
      <trkpt lat="47.388697732239962" lon="10.957083916291595">
        <ele>1361.3642578125</ele>
        <time>2013-08-24T12:10:26Z</time>
      </trkpt>
      <trkpt lat="47.388740563765168" lon="10.95723370090127">
        <ele>1362.80615234375</ele>
        <time>2013-08-24T12:10:36Z</time>
      </trkpt>
      <trkpt lat="47.388756992295384" lon="10.957436291500926">
        <ele>1365.20947265625</ele>
        <time>2013-08-24T12:10:48Z</time>
      </trkpt>
      <trkpt lat="47.388785826042295" lon="10.957604935392737">
        <ele>1367.612548828125</ele>
        <time>2013-08-24T12:11:00Z</time>
      </trkpt>
      <trkpt lat="47.388771073892713" lon="10.95769202336669">
        <ele>1368.573974609375</ele>
        <time>2013-08-24T12:11:12Z</time>
      </trkpt>
      <trkpt lat="47.388758417218924" lon="10.957856308668852">
        <ele>1370.977294921875</ele>
        <time>2013-08-24T12:11:36Z</time>
      </trkpt>
      <trkpt lat="47.388765038922429" lon="10.957929817959666">
        <ele>1371.457763671875</ele>
        <time>2013-08-24T12:11:39Z</time>
      </trkpt>
      <trkpt lat="47.388805439695716" lon="10.958189489319921">
        <ele>1374.342041015625</ele>
        <time>2013-08-24T12:11:53Z</time>
      </trkpt>
      <trkpt lat="47.38883201032877" lon="10.958372550085187">
        <ele>1376.745361328125</ele>
        <time>2013-08-24T12:12:05Z</time>
      </trkpt>
      <trkpt lat="47.388867465779185" lon="10.95861503854394">
        <ele>1379.629150390625</ele>
        <time>2013-08-24T12:12:21Z</time>
      </trkpt>
      <trkpt lat="47.388896299526095" lon="10.958736911416054">
        <ele>1381.5517578125</ele>
        <time>2013-08-24T12:12:35Z</time>
      </trkpt>
      <trkpt lat="47.388920355588198" lon="10.958756441250443">
        <ele>1382.032470703125</ele>
        <time>2013-08-24T12:12:49Z</time>
      </trkpt>
      <trkpt lat="47.388971988111734" lon="10.958853922784328">
        <ele>1382.99365234375</ele>
        <time>2013-08-24T12:12:57Z</time>
      </trkpt>
      <trkpt lat="47.389012137427926" lon="10.958989122882485">
        <ele>1385.39697265625</ele>
        <time>2013-08-24T12:13:06Z</time>
      </trkpt>
      <trkpt lat="47.389061842113733" lon="10.959123987704515">
        <ele>1386.8388671875</ele>
        <time>2013-08-24T12:13:18Z</time>
      </trkpt>
      <trkpt lat="47.389094782993197" lon="10.959251308813691">
        <ele>1388.761962890625</ele>
        <time>2013-08-24T12:13:26Z</time>
      </trkpt>
      <trkpt lat="47.389097716659307" lon="10.959267485886812">
        <ele>1388.761962890625</ele>
        <time>2013-08-24T12:13:27Z</time>
      </trkpt>
      <trkpt lat="47.389109786599874" lon="10.959312496706843">
        <ele>1389.72314453125</ele>
        <time>2013-08-24T12:13:30Z</time>
      </trkpt>
      <trkpt lat="47.389123449102044" lon="10.959338648244739">
        <ele>1390.203857421875</ele>
        <time>2013-08-24T12:13:32Z</time>
      </trkpt>
      <trkpt lat="47.389162424951792" lon="10.959414001554251">
        <ele>1391.1650390625</ele>
        <time>2013-08-24T12:13:38Z</time>
      </trkpt>
      <trkpt lat="47.389175584539771" lon="10.959441997110844">
        <ele>1391.1650390625</ele>
        <time>2013-08-24T12:13:40Z</time>
      </trkpt>
      <trkpt lat="47.389229647815228" lon="10.959544088691473">
        <ele>1392.607177734375</ele>
        <time>2013-08-24T12:13:48Z</time>
      </trkpt>
      <trkpt lat="47.389247920364141" lon="10.959779620170593">
        <ele>1395.01025390625</ele>
        <time>2013-08-24T12:14:00Z</time>
      </trkpt>
      <trkpt lat="47.389264348894358" lon="10.959848435595632">
        <ele>1395.490966796875</ele>
        <time>2013-08-24T12:14:04Z</time>
      </trkpt>
      <trkpt lat="47.389291170984507" lon="10.959904761984944">
        <ele>1395.9716796875</ele>
        <time>2013-08-24T12:14:08Z</time>
      </trkpt>
      <trkpt lat="47.38937976770103" lon="10.95990945585072">
        <ele>1397.41357421875</ele>
        <time>2013-08-24T12:14:19Z</time>
      </trkpt>
      <trkpt lat="47.389415558427572" lon="10.959857236593962">
        <ele>1398.85546875</ele>
        <time>2013-08-24T12:14:30Z</time>
      </trkpt>
      <trkpt lat="47.389466688036919" lon="10.959968129172921">
        <ele>1399.81689453125</ele>
        <time>2013-08-24T12:14:37Z</time>
      </trkpt>
      <trkpt lat="47.389450008049607" lon="10.960033591836691">
        <ele>1400.297607421875</ele>
        <time>2013-08-24T12:14:39Z</time>
      </trkpt>
      <trkpt lat="47.38933190703392" lon="10.960225705057383">
        <ele>1402.70068359375</ele>
        <time>2013-08-24T12:14:49Z</time>
      </trkpt>
      <trkpt lat="47.389193437993526" lon="10.960313631221652">
        <ele>1404.62353515625</ele>
        <time>2013-08-24T12:15:03Z</time>
      </trkpt>
      <trkpt lat="47.389109954237938" lon="10.960431983694434">
        <ele>1406.546142578125</ele>
        <time>2013-08-24T12:15:13Z</time>
      </trkpt>
      <trkpt lat="47.389026805758476" lon="10.960624264553189">
        <ele>1409.43017578125</ele>
        <time>2013-08-24T12:15:26Z</time>
      </trkpt>
      <trkpt lat="47.38899378105998" lon="10.960677657276392">
        <ele>1410.391357421875</ele>
        <time>2013-08-24T12:15:31Z</time>
      </trkpt>
      <trkpt lat="47.388920858502388" lon="10.960816629230976">
        <ele>1412.31396484375</ele>
        <time>2013-08-24T12:15:43Z</time>
      </trkpt>
      <trkpt lat="47.388857323676348" lon="10.960982255637646">
        <ele>1414.236572265625</ele>
        <time>2013-08-24T12:15:56Z</time>
      </trkpt>
      <trkpt lat="47.38879831507802" lon="10.961172860115767">
        <ele>1417.12060546875</ele>
        <time>2013-08-24T12:16:10Z</time>
      </trkpt>
      <trkpt lat="47.388779455795884" lon="10.961237652227283">
        <ele>1418.081787109375</ele>
        <time>2013-08-24T12:16:19Z</time>
      </trkpt>
      <trkpt lat="47.388760596513748" lon="10.961268665269017">
        <ele>1417.60107421875</ele>
        <time>2013-08-24T12:16:42Z</time>
      </trkpt>
      <trkpt lat="47.388709131628275" lon="10.961385006085038">
        <ele>1420.966064453125</ele>
        <time>2013-08-24T12:16:51Z</time>
      </trkpt>
      <trkpt lat="47.388640064746141" lon="10.961480559781194">
        <ele>1422.888671875</ele>
        <time>2013-08-24T12:16:59Z</time>
      </trkpt>
      <trkpt lat="47.388524394482374" lon="10.96161819063127">
        <ele>1424.33056640625</ele>
        <time>2013-08-24T12:17:10Z</time>
      </trkpt>
      <trkpt lat="47.388449292629957" lon="10.961750037968159">
        <ele>1425.7724609375</ele>
        <time>2013-08-24T12:17:22Z</time>
      </trkpt>
      <trkpt lat="47.388460440561175" lon="10.961735956370831">
        <ele>1426.253173828125</ele>
        <time>2013-08-24T12:17:46Z</time>
      </trkpt>
      <trkpt lat="47.388443676754832" lon="10.961924046278">
        <ele>1429.136962890625</ele>
        <time>2013-08-24T12:17:58Z</time>
      </trkpt>
      <trkpt lat="47.388418447226286" lon="10.962081206962466">
        <ele>1430.5791015625</ele>
        <time>2013-08-24T12:18:08Z</time>
      </trkpt>
      <trkpt lat="47.388341585174203" lon="10.962242558598518">
        <ele>1432.501708984375</ele>
        <time>2013-08-24T12:18:19Z</time>
      </trkpt>
      <trkpt lat="47.388245109468699" lon="10.962360743433237">
        <ele>1434.905029296875</ele>
        <time>2013-08-24T12:18:30Z</time>
      </trkpt>
      <trkpt lat="47.388175707310438" lon="10.962423356249928">
        <ele>1435.385498046875</ele>
        <time>2013-08-24T12:18:37Z</time>
      </trkpt>
      <trkpt lat="47.388162380084395" lon="10.962485801428556">
        <ele>1435.8662109375</ele>
        <time>2013-08-24T12:18:44Z</time>
      </trkpt>
      <trkpt lat="47.388188280165195" lon="10.962530309334397">
        <ele>1436.34716796875</ele>
        <time>2013-08-24T12:19:02Z</time>
      </trkpt>
      <trkpt lat="47.388200936838984" lon="10.962575823068619">
        <ele>1436.34716796875</ele>
        <time>2013-08-24T12:19:10Z</time>
      </trkpt>
      <trkpt lat="47.388207139447331" lon="10.962574733421206">
        <ele>1435.8662109375</ele>
        <time>2013-08-24T12:19:13Z</time>
      </trkpt>
      <trkpt lat="47.388300765305758" lon="10.962620917707682">
        <ele>1437.7890625</ele>
        <time>2013-08-24T12:19:23Z</time>
      </trkpt>
      <trkpt lat="47.388372598215938" lon="10.962640782818198">
        <ele>1439.23095703125</ele>
        <time>2013-08-24T12:19:30Z</time>
      </trkpt>
      <trkpt lat="47.388481646776199" lon="10.96269610337913">
        <ele>1440.6728515625</ele>
        <time>2013-08-24T12:19:41Z</time>
      </trkpt>
      <trkpt lat="47.388616846874356" lon="10.962738683447242">
        <ele>1443.076171875</ele>
        <time>2013-08-24T12:19:52Z</time>
      </trkpt>
      <trkpt lat="47.388685662299395" lon="10.962759051471949">
        <ele>1444.03759765625</ele>
        <time>2013-08-24T12:20:00Z</time>
      </trkpt>
      <trkpt lat="47.388760261237621" lon="10.96272787079215">
        <ele>1445.4794921875</ele>
        <time>2013-08-24T12:20:07Z</time>
      </trkpt>
      <trkpt lat="47.388842236250639" lon="10.962659558281302">
        <ele>1446.44091796875</ele>
        <time>2013-08-24T12:20:16Z</time>
      </trkpt>
      <trkpt lat="47.388881798833609" lon="10.96264916472137">
        <ele>1447.402099609375</ele>
        <time>2013-08-24T12:20:20Z</time>
      </trkpt>
      <trkpt lat="47.388986656442285" lon="10.962685458362103">
        <ele>1447.8828125</ele>
        <time>2013-08-24T12:20:28Z</time>
      </trkpt>
      <trkpt lat="47.388978023082018" lon="10.962789477780461">
        <ele>1448.843994140625</ele>
        <time>2013-08-24T12:20:32Z</time>
      </trkpt>
      <trkpt lat="47.388862268999219" lon="10.963028697296977">
        <ele>1450.2861328125</ele>
        <time>2013-08-24T12:20:44Z</time>
      </trkpt>
      <trkpt lat="47.38880367949605" lon="10.963193736970425">
        <ele>1451.72802734375</ele>
        <time>2013-08-24T12:20:52Z</time>
      </trkpt>
      <trkpt lat="47.388796890154481" lon="10.963294822722673">
        <ele>1453.170166015625</ele>
        <time>2013-08-24T12:21:02Z</time>
      </trkpt>
      <trkpt lat="47.388832261785865" lon="10.963470507413149">
        <ele>1455.0927734375</ele>
        <time>2013-08-24T12:21:11Z</time>
      </trkpt>
      <trkpt lat="47.388808876276016" lon="10.963627500459552">
        <ele>1456.53466796875</ele>
        <time>2013-08-24T12:21:20Z</time>
      </trkpt>
      <trkpt lat="47.388789178803563" lon="10.963674355298281">
        <ele>1456.53466796875</ele>
        <time>2013-08-24T12:21:23Z</time>
      </trkpt>
      <trkpt lat="47.388602932915092" lon="10.963783822953701">
        <ele>1459.418701171875</ele>
        <time>2013-08-24T12:21:37Z</time>
      </trkpt>
      <trkpt lat="47.388410232961178" lon="10.96377988345921">
        <ele>1461.34130859375</ele>
        <time>2013-08-24T12:21:51Z</time>
      </trkpt>
      <trkpt lat="47.388375950977206" lon="10.963773764669895">
        <ele>1461.822021484375</ele>
        <time>2013-08-24T12:21:54Z</time>
      </trkpt>
      <trkpt lat="47.388220969587564" lon="10.963703943416476">
        <ele>1462.783203125</ele>
        <time>2013-08-24T12:22:07Z</time>
      </trkpt>
      <trkpt lat="47.388086272403598" lon="10.963577963411808">
        <ele>1466.147705078125</ele>
        <time>2013-08-24T12:22:20Z</time>
      </trkpt>
      <trkpt lat="47.388049811124802" lon="10.963529767468572">
        <ele>1466.147705078125</ele>
        <time>2013-08-24T12:22:24Z</time>
      </trkpt>
      <trkpt lat="47.387904636561871" lon="10.963330529630184">
        <ele>1469.5126953125</ele>
        <time>2013-08-24T12:22:40Z</time>
      </trkpt>
      <trkpt lat="47.387742782011628" lon="10.963135482743382">
        <ele>1472.396484375</ele>
        <time>2013-08-24T12:22:59Z</time>
      </trkpt>
      <trkpt lat="47.387650581076741" lon="10.963184013962746">
        <ele>1473.83837890625</ele>
        <time>2013-08-24T12:23:08Z</time>
      </trkpt>
      <trkpt lat="47.387586124241352" lon="10.963298594579101">
        <ele>1475.760986328125</ele>
        <time>2013-08-24T12:23:20Z</time>
      </trkpt>
      <trkpt lat="47.387549243867397" lon="10.963448295369744">
        <ele>1476.24169921875</ele>
        <time>2013-08-24T12:23:32Z</time>
      </trkpt>
      <trkpt lat="47.387495683506131" lon="10.963584585115314">
        <ele>1477.203125</ele>
        <time>2013-08-24T12:23:42Z</time>
      </trkpt>
      <trkpt lat="47.387452851980925" lon="10.96369095146656">
        <ele>1478.164306640625</ele>
        <time>2013-08-24T12:23:53Z</time>
      </trkpt>
      <trkpt lat="47.387437345460057" lon="10.963730430230498">
        <ele>1478.64501953125</ele>
        <time>2013-08-24T12:24:24Z</time>
      </trkpt>
      <trkpt lat="47.387415301054716" lon="10.963761024177074">
        <ele>1478.164306640625</ele>
        <time>2013-08-24T12:24:51Z</time>
      </trkpt>
      <trkpt lat="47.387334415689111" lon="10.963920867070556">
        <ele>1480.567626953125</ele>
        <time>2013-08-24T12:25:00Z</time>
      </trkpt>
      <trkpt lat="47.387150097638369" lon="10.964030334725976">
        <ele>1480.0869140625</ele>
        <time>2013-08-24T12:25:10Z</time>
      </trkpt>
      <trkpt lat="47.386944573372602" lon="10.96399487927556">
        <ele>1482.970703125</ele>
        <time>2013-08-24T12:25:20Z</time>
      </trkpt>
      <trkpt lat="47.386907692998648" lon="10.963978366926312">
        <ele>1483.93212890625</ele>
        <time>2013-08-24T12:25:22Z</time>
      </trkpt>
      <trkpt lat="47.386771570891142" lon="10.964011559262872">
        <ele>1483.93212890625</ele>
        <time>2013-08-24T12:25:29Z</time>
      </trkpt>
      <trkpt lat="47.386697391048074" lon="10.964221274480224">
        <ele>1483.93212890625</ele>
        <time>2013-08-24T12:25:37Z</time>
      </trkpt>
      <trkpt lat="47.3866683896631" lon="10.964520089328289">
        <ele>1484.893798828125</ele>
        <time>2013-08-24T12:25:48Z</time>
      </trkpt>
      <trkpt lat="47.38663611933589" lon="10.964720332995057">
        <ele>1484.4130859375</ele>
        <time>2013-08-24T12:25:54Z</time>
      </trkpt>
      <trkpt lat="47.386521203443408" lon="10.9649339877069">
        <ele>1484.4130859375</ele>
        <time>2013-08-24T12:26:00Z</time>
      </trkpt>
      <trkpt lat="47.386263627558947" lon="10.965253924950957">
        <ele>1483.93212890625</ele>
        <time>2013-08-24T12:26:10Z</time>
      </trkpt>
      <trkpt lat="47.386050056666136" lon="10.965632451698184">
        <ele>1484.893798828125</ele>
        <time>2013-08-24T12:26:18Z</time>
      </trkpt>
      <trkpt lat="47.385669015347958" lon="10.966200912371278">
        <ele>1484.893798828125</ele>
        <time>2013-08-24T12:26:29Z</time>
      </trkpt>
      <trkpt lat="47.385458461940289" lon="10.966499811038375">
        <ele>1485.374267578125</ele>
        <time>2013-08-24T12:26:37Z</time>
      </trkpt>
      <trkpt lat="47.385158725082874" lon="10.966946231201291">
        <ele>1486.816162109375</ele>
        <time>2013-08-24T12:26:48Z</time>
      </trkpt>
      <trkpt lat="47.384929228574038" lon="10.967216296121478">
        <ele>1488.25830078125</ele>
        <time>2013-08-24T12:26:57Z</time>
      </trkpt>
      <trkpt lat="47.38484532572329" lon="10.967324171215296">
        <ele>1488.25830078125</ele>
        <time>2013-08-24T12:27:03Z</time>
      </trkpt>
      <trkpt lat="47.384850941598415" lon="10.967335822060704">
        <ele>1490.180908203125</ele>
        <time>2013-08-24T12:27:08Z</time>
      </trkpt>
      <trkpt lat="47.384848007932305" lon="10.967339007183909">
        <ele>1485.85498046875</ele>
        <time>2013-08-24T12:27:17Z</time>
      </trkpt>
      <trkpt lat="47.384848007932305" lon="10.967339091002941">
        <ele>1489.219482421875</ele>
        <time>2013-08-24T12:27:18Z</time>
      </trkpt>
      <trkpt lat="47.384846834465861" lon="10.967334229499102">
        <ele>1488.25830078125</ele>
        <time>2013-08-24T12:27:28Z</time>
      </trkpt>
      <trkpt lat="47.384848427027464" lon="10.967330290004611">
        <ele>1489.219482421875</ele>
        <time>2013-08-24T12:27:39Z</time>
      </trkpt>
      <trkpt lat="47.384855719283223" lon="10.967472027987242">
        <ele>1489.7001953125</ele>
        <time>2013-08-24T12:27:51Z</time>
      </trkpt>
      <trkpt lat="47.384826298803091" lon="10.967557607218623">
        <ele>1490.180908203125</ele>
        <time>2013-08-24T12:27:59Z</time>
      </trkpt>
      <trkpt lat="47.384795034304261" lon="10.967723652720451">
        <ele>1491.622802734375</ele>
        <time>2013-08-24T12:28:10Z</time>
      </trkpt>
      <trkpt lat="47.384782880544662" lon="10.968015259131789">
        <ele>1493.54541015625</ele>
        <time>2013-08-24T12:28:28Z</time>
      </trkpt>
      <trkpt lat="47.384805595502257" lon="10.968160685151815">
        <ele>1494.506591796875</ele>
        <time>2013-08-24T12:28:37Z</time>
      </trkpt>
      <trkpt lat="47.384811546653509" lon="10.968414572998881">
        <ele>1496.909912109375</ele>
        <time>2013-08-24T12:28:52Z</time>
      </trkpt>
      <trkpt lat="47.384823700413108" lon="10.968502247706056">
        <ele>1497.390625</ele>
        <time>2013-08-24T12:28:57Z</time>
      </trkpt>
      <trkpt lat="47.384850438684225" lon="10.968521693721414">
        <ele>1497.871337890625</ele>
        <time>2013-08-24T12:29:00Z</time>
      </trkpt>
      <trkpt lat="47.38490542396903" lon="10.968490093946457">
        <ele>1498.351806640625</ele>
        <time>2013-08-24T12:29:08Z</time>
      </trkpt>
      <trkpt lat="47.384905843064189" lon="10.968487663194537">
        <ele>1498.351806640625</ele>
        <time>2013-08-24T12:29:14Z</time>
      </trkpt>
      <trkpt lat="47.384904837235808" lon="10.968475174158812">
        <ele>1498.351806640625</ele>
        <time>2013-08-24T12:29:15Z</time>
      </trkpt>
      <trkpt lat="47.384861838072538" lon="10.968297813087702">
        <ele>1498.351806640625</ele>
        <time>2013-08-24T12:29:27Z</time>
      </trkpt>
      <trkpt lat="47.384888995438814" lon="10.968211479485035">
        <ele>1498.351806640625</ele>
        <time>2013-08-24T12:29:32Z</time>
      </trkpt>
      <trkpt lat="47.384903831407428" lon="10.968193709850311">
        <ele>1498.351806640625</ele>
        <time>2013-08-24T12:29:34Z</time>
      </trkpt>
      <trkpt lat="47.384939454495907" lon="10.968243246898055">
        <ele>1498.351806640625</ele>
        <time>2013-08-24T12:29:40Z</time>
      </trkpt>
      <trkpt lat="47.384998211637139" lon="10.96822589635849">
        <ele>1498.351806640625</ele>
        <time>2013-08-24T12:29:52Z</time>
      </trkpt>
      <trkpt lat="47.384860161691904" lon="10.968133360147476">
        <ele>1498.351806640625</ele>
        <time>2013-08-24T12:30:27Z</time>
      </trkpt>
      <trkpt lat="47.384821102023125" lon="10.968116093426943">
        <ele>1498.351806640625</ele>
        <time>2013-08-24T12:30:42Z</time>
      </trkpt>
      <trkpt lat="47.384799728170037" lon="10.968045182526112">
        <ele>1498.351806640625</ele>
        <time>2013-08-24T12:30:54Z</time>
      </trkpt>
      <trkpt lat="47.384877679869533" lon="10.968038393184543">
        <ele>1498.351806640625</ele>
        <time>2013-08-24T12:31:05Z</time>
      </trkpt>
      <trkpt lat="47.384889079257846" lon="10.96808910369873">
        <ele>1497.871337890625</ele>
        <time>2013-08-24T12:31:16Z</time>
      </trkpt>
      <trkpt lat="47.384892767295241" lon="10.968146771192551">
        <ele>1498.351806640625</ele>
        <time>2013-08-24T12:31:32Z</time>
      </trkpt>
      <trkpt lat="47.384871141985059" lon="10.968178622424603">
        <ele>1497.871337890625</ele>
        <time>2013-08-24T12:31:34Z</time>
      </trkpt>
      <trkpt lat="47.38473485223949" lon="10.968255568295717">
        <ele>1498.351806640625</ele>
        <time>2013-08-24T12:31:41Z</time>
      </trkpt>
      <trkpt lat="47.384688416495919" lon="10.968266129493713">
        <ele>1498.83251953125</ele>
        <time>2013-08-24T12:31:47Z</time>
      </trkpt>
      <trkpt lat="47.384658241644502" lon="10.968271913006902">
        <ele>1498.83251953125</ele>
        <time>2013-08-24T12:31:52Z</time>
      </trkpt>
      <trkpt lat="47.384799895808101" lon="10.96818239428103">
        <ele>1499.313232421875</ele>
        <time>2013-08-24T12:31:56Z</time>
      </trkpt>
      <trkpt lat="47.384841470047832" lon="10.968162277713418">
        <ele>1498.83251953125</ele>
        <time>2013-08-24T12:31:58Z</time>
      </trkpt>
      <trkpt lat="47.384885977953672" lon="10.96811056137085">
        <ele>1498.351806640625</ele>
        <time>2013-08-24T12:32:03Z</time>
      </trkpt>
      <trkpt lat="47.384868208318949" lon="10.968082481995225">
        <ele>1498.83251953125</ele>
        <time>2013-08-24T12:32:06Z</time>
      </trkpt>
      <trkpt lat="47.384852450340986" lon="10.968172084540129">
        <ele>1498.83251953125</ele>
        <time>2013-08-24T12:32:10Z</time>
      </trkpt>
      <trkpt lat="47.38483945839107" lon="10.968384733423591">
        <ele>1498.83251953125</ele>
        <time>2013-08-24T12:32:19Z</time>
      </trkpt>
      <trkpt lat="47.38487021997571" lon="10.968452040106058">
        <ele>1499.313232421875</ele>
        <time>2013-08-24T12:32:26Z</time>
      </trkpt>
      <trkpt lat="47.38489612005651" lon="10.968459667637944">
        <ele>1495.94873046875</ele>
        <time>2013-08-24T12:32:51Z</time>
      </trkpt>
      <trkpt lat="47.3848966229707" lon="10.968458410352468">
        <ele>1499.7939453125</ele>
        <time>2013-08-24T12:32:54Z</time>
      </trkpt>
      <trkpt lat="47.384896958246827" lon="10.968456985428929">
        <ele>1496.429443359375</ele>
        <time>2013-08-24T12:32:56Z</time>
      </trkpt>
      <trkpt lat="47.384897125884891" lon="10.968456231057644">
        <ele>1496.429443359375</ele>
        <time>2013-08-24T12:32:57Z</time>
      </trkpt>
      <trkpt lat="47.384897293522954" lon="10.968455392867327">
        <ele>1500.27490234375</ele>
        <time>2013-08-24T12:32:58Z</time>
      </trkpt>
      <trkpt lat="47.384897377341986" lon="10.968454722315073">
        <ele>1498.83251953125</ele>
        <time>2013-08-24T12:32:59Z</time>
      </trkpt>
      <trkpt lat="47.38487952388823" lon="10.968561926856637">
        <ele>1498.83251953125</ele>
        <time>2013-08-24T12:33:11Z</time>
      </trkpt>
      <trkpt lat="47.384860413148999" lon="10.968597382307053">
        <ele>1498.83251953125</ele>
        <time>2013-08-24T12:33:13Z</time>
      </trkpt>
      <trkpt lat="47.384806601330638" lon="10.968689164146781">
        <ele>1499.7939453125</ele>
        <time>2013-08-24T12:33:26Z</time>
      </trkpt>
      <trkpt lat="47.384809702634811" lon="10.968743981793523">
        <ele>1499.7939453125</ele>
        <time>2013-08-24T12:33:33Z</time>
      </trkpt>
      <trkpt lat="47.384835770353675" lon="10.968967778608203">
        <ele>1502.197265625</ele>
        <time>2013-08-24T12:33:42Z</time>
      </trkpt>
      <trkpt lat="47.384870052337646" lon="10.969200879335403">
        <ele>1504.1201171875</ele>
        <time>2013-08-24T12:33:53Z</time>
      </trkpt>
      <trkpt lat="47.384894778952003" lon="10.969418473541737">
        <ele>1506.523193359375</ele>
        <time>2013-08-24T12:34:03Z</time>
      </trkpt>
      <trkpt lat="47.384896287694573" lon="10.969437332823873">
        <ele>1506.523193359375</ele>
        <time>2013-08-24T12:34:04Z</time>
      </trkpt>
      <trkpt lat="47.384902909398079" lon="10.969670014455914">
        <ele>1508.926513671875</ele>
        <time>2013-08-24T12:34:16Z</time>
      </trkpt>
      <trkpt lat="47.384928641840816" lon="10.969917615875602">
        <ele>1510.368408203125</ele>
        <time>2013-08-24T12:34:28Z</time>
      </trkpt>
      <trkpt lat="47.384901819750667" lon="10.970116350799799">
        <ele>1512.291015625</ele>
        <time>2013-08-24T12:34:38Z</time>
      </trkpt>
      <trkpt lat="47.384814312681556" lon="10.970377363264561">
        <ele>1515.175048828125</ele>
        <time>2013-08-24T12:34:51Z</time>
      </trkpt>
      <trkpt lat="47.384754801169038" lon="10.970565369352698">
        <ele>1516.6171875</ele>
        <time>2013-08-24T12:35:00Z</time>
      </trkpt>
      <trkpt lat="47.384669976308942" lon="10.970783047378063">
        <ele>1518.05908203125</ele>
        <time>2013-08-24T12:35:11Z</time>
      </trkpt>
      <trkpt lat="47.384586073458195" lon="10.971023691818118">
        <ele>1519.981689453125</ele>
        <time>2013-08-24T12:35:23Z</time>
      </trkpt>
      <trkpt lat="47.384497225284576" lon="10.971255451440811">
        <ele>1521.904296875</ele>
        <time>2013-08-24T12:35:35Z</time>
      </trkpt>
      <trkpt lat="47.384388679638505" lon="10.971560468897223">
        <ele>1523.826904296875</ele>
        <time>2013-08-24T12:35:50Z</time>
      </trkpt>
      <trkpt lat="47.384309135377407" lon="10.971796587109566">
        <ele>1524.788330078125</ele>
        <time>2013-08-24T12:36:01Z</time>
      </trkpt>
      <trkpt lat="47.384253060445189" lon="10.971987778320909">
        <ele>1525.74951171875</ele>
        <time>2013-08-24T12:36:10Z</time>
      </trkpt>
      <trkpt lat="47.384217772632837" lon="10.972204869613051">
        <ele>1525.74951171875</ele>
        <time>2013-08-24T12:36:20Z</time>
      </trkpt>
      <trkpt lat="47.38416999578476" lon="10.972454566508532">
        <ele>1524.788330078125</ele>
        <time>2013-08-24T12:36:28Z</time>
      </trkpt>
      <trkpt lat="47.384058013558388" lon="10.972672328352928">
        <ele>1526.7109375</ele>
        <time>2013-08-24T12:36:34Z</time>
      </trkpt>
      <trkpt lat="47.383860787376761" lon="10.972891179844737">
        <ele>1528.15283203125</ele>
        <time>2013-08-24T12:36:46Z</time>
      </trkpt>
      <trkpt lat="47.383719384670258" lon="10.973120760172606">
        <ele>1528.633544921875</ele>
        <time>2013-08-24T12:36:56Z</time>
      </trkpt>
      <trkpt lat="47.38353774882853" lon="10.973449414595962">
        <ele>1531.036865234375</ele>
        <time>2013-08-24T12:37:09Z</time>
      </trkpt>
      <trkpt lat="47.383346054702997" lon="10.973864402621984">
        <ele>1532.47900390625</ele>
        <time>2013-08-24T12:37:25Z</time>
      </trkpt>
      <trkpt lat="47.383151175454259" lon="10.974133210256696">
        <ele>1533.9208984375</ele>
        <time>2013-08-24T12:37:37Z</time>
      </trkpt>
      <trkpt lat="47.382935425266623" lon="10.974468486383557">
        <ele>1535.36279296875</ele>
        <time>2013-08-24T12:37:51Z</time>
      </trkpt>
      <trkpt lat="47.382724704220891" lon="10.974804181605577">
        <ele>1534.401611328125</ele>
        <time>2013-08-24T12:38:02Z</time>
      </trkpt>
      <trkpt lat="47.382387248799205" lon="10.975249512121081">
        <ele>1533.9208984375</ele>
        <time>2013-08-24T12:38:15Z</time>
      </trkpt>
      <trkpt lat="47.382101090624928" lon="10.975526450201869">
        <ele>1534.401611328125</ele>
        <time>2013-08-24T12:38:24Z</time>
      </trkpt>
      <trkpt lat="47.38182264380157" lon="10.975677575916052">
        <ele>1534.88232421875</ele>
        <time>2013-08-24T12:38:32Z</time>
      </trkpt>
      <trkpt lat="47.381665734574199" lon="10.975829120725393">
        <ele>1534.401611328125</ele>
        <time>2013-08-24T12:38:37Z</time>
      </trkpt>
      <trkpt lat="47.381643773987889" lon="10.97594034858048">
        <ele>1535.843505859375</ele>
        <time>2013-08-24T12:38:40Z</time>
      </trkpt>
      <trkpt lat="47.381602618843317" lon="10.976207479834557">
        <ele>1537.76611328125</ele>
        <time>2013-08-24T12:38:52Z</time>
      </trkpt>
      <trkpt lat="47.381545705720782" lon="10.976390540599823">
        <ele>1539.688720703125</ele>
        <time>2013-08-24T12:39:01Z</time>
      </trkpt>
      <trkpt lat="47.381387036293745" lon="10.976641494780779">
        <ele>1542.57275390625</ele>
        <time>2013-08-24T12:39:17Z</time>
      </trkpt>
      <trkpt lat="47.38130028359592" lon="10.976917510852218">
        <ele>1544.975830078125</ele>
        <time>2013-08-24T12:39:31Z</time>
      </trkpt>
      <trkpt lat="47.381244376301765" lon="10.977005437016487">
        <ele>1545.937255859375</ele>
        <time>2013-08-24T12:39:37Z</time>
      </trkpt>
      <trkpt lat="47.381184864789248" lon="10.977020524442196">
        <ele>1545.937255859375</ele>
        <time>2013-08-24T12:39:41Z</time>
      </trkpt>
      <trkpt lat="47.381023345515132" lon="10.976825561374426">
        <ele>1548.340576171875</ele>
        <time>2013-08-24T12:39:51Z</time>
      </trkpt>
      <trkpt lat="47.380980513989925" lon="10.976679883897305">
        <ele>1548.8212890625</ele>
        <time>2013-08-24T12:39:58Z</time>
      </trkpt>
      <trkpt lat="47.380913542583585" lon="10.976443262770772">
        <ele>1552.185791015625</ele>
        <time>2013-08-24T12:40:09Z</time>
      </trkpt>
      <trkpt lat="47.380819749087095" lon="10.976159870624542">
        <ele>1554.589111328125</ele>
        <time>2013-08-24T12:40:23Z</time>
      </trkpt>
      <trkpt lat="47.380782952532172" lon="10.976062389090657">
        <ele>1556.031005859375</ele>
        <time>2013-08-24T12:40:28Z</time>
      </trkpt>
      <trkpt lat="47.380714556202292" lon="10.975919226184487">
        <ele>1557.953857421875</ele>
        <time>2013-08-24T12:40:36Z</time>
      </trkpt>
      <trkpt lat="47.380615482106805" lon="10.975770195946097">
        <ele>1557.953857421875</ele>
        <time>2013-08-24T12:40:45Z</time>
      </trkpt>
      <trkpt lat="47.380514899268746" lon="10.975598115473986">
        <ele>1559.395751953125</ele>
        <time>2013-08-24T12:40:56Z</time>
      </trkpt>
      <trkpt lat="47.380382884293795" lon="10.975409187376499">
        <ele>1560.35693359375</ele>
        <time>2013-08-24T12:41:07Z</time>
      </trkpt>
      <trkpt lat="47.380273584276438" lon="10.975207937881351">
        <ele>1562.76025390625</ele>
        <time>2013-08-24T12:41:17Z</time>
      </trkpt>
      <trkpt lat="47.380172330886126" lon="10.975002497434616">
        <ele>1564.202392578125</ele>
        <time>2013-08-24T12:41:27Z</time>
      </trkpt>
      <trkpt lat="47.380027659237385" lon="10.97476277500391">
        <ele>1566.125</ele>
        <time>2013-08-24T12:41:40Z</time>
      </trkpt>
      <trkpt lat="47.379838731139898" lon="10.974617600440979">
        <ele>1567.08642578125</ele>
        <time>2013-08-24T12:41:52Z</time>
      </trkpt>
      <trkpt lat="47.379720043390989" lon="10.974440239369869">
        <ele>1568.047607421875</ele>
        <time>2013-08-24T12:42:02Z</time>
      </trkpt>
      <trkpt lat="47.379673691466451" lon="10.974232535809278">
        <ele>1569.48974609375</ele>
        <time>2013-08-24T12:42:11Z</time>
      </trkpt>
      <trkpt lat="47.379626082256436" lon="10.9740293584764">
        <ele>1570.931640625</ele>
        <time>2013-08-24T12:42:19Z</time>
      </trkpt>
      <trkpt lat="47.379622897133231" lon="10.973735069856048">
        <ele>1572.854248046875</ele>
        <time>2013-08-24T12:42:31Z</time>
      </trkpt>
      <trkpt lat="47.379620047286153" lon="10.97353532910347">
        <ele>1574.296142578125</ele>
        <time>2013-08-24T12:42:39Z</time>
      </trkpt>
      <trkpt lat="47.379623232409358" lon="10.973427454009652">
        <ele>1575.738037109375</ele>
        <time>2013-08-24T12:42:44Z</time>
      </trkpt>
      <trkpt lat="47.379621639847755" lon="10.973405744880438">
        <ele>1575.25732421875</ele>
        <time>2013-08-24T12:42:45Z</time>
      </trkpt>
      <trkpt lat="47.379606049507856" lon="10.97325537353754">
        <ele>1576.699462890625</ele>
        <time>2013-08-24T12:42:51Z</time>
      </trkpt>
      <trkpt lat="47.379587860777974" lon="10.973026631399989">
        <ele>1577.18017578125</ele>
        <time>2013-08-24T12:43:00Z</time>
      </trkpt>
      <trkpt lat="47.379604959860444" lon="10.972740389406681">
        <ele>1579.583251953125</ele>
        <time>2013-08-24T12:43:11Z</time>
      </trkpt>
      <trkpt lat="47.379613760858774" lon="10.972547521814704">
        <ele>1580.544921875</ele>
        <time>2013-08-24T12:43:18Z</time>
      </trkpt>
      <trkpt lat="47.379651814699173" lon="10.972364461049438">
        <ele>1581.506103515625</ele>
        <time>2013-08-24T12:43:26Z</time>
      </trkpt>
      <trkpt lat="47.3796814866364" lon="10.972076123580337">
        <ele>1584.39013671875</ele>
        <time>2013-08-24T12:43:39Z</time>
      </trkpt>
      <trkpt lat="47.37967025488615" lon="10.971793318167329">
        <ele>1585.351318359375</ele>
        <time>2013-08-24T12:43:51Z</time>
      </trkpt>
      <trkpt lat="47.379610827192664" lon="10.971545046195388">
        <ele>1588.716064453125</ele>
        <time>2013-08-24T12:44:02Z</time>
      </trkpt>
      <trkpt lat="47.379603786394" lon="10.97152509726584">
        <ele>1588.716064453125</ele>
        <time>2013-08-24T12:44:03Z</time>
      </trkpt>
      <trkpt lat="47.379589201882482" lon="10.971299288794398">
        <ele>1589.196533203125</ele>
        <time>2013-08-24T12:44:14Z</time>
      </trkpt>
      <trkpt lat="47.37960135564208" lon="10.97128227353096">
        <ele>1589.67724609375</ele>
        <time>2013-08-24T12:44:20Z</time>
      </trkpt>
      <trkpt lat="47.379581155255437" lon="10.971239525824785">
        <ele>1590.157958984375</ele>
        <time>2013-08-24T12:44:29Z</time>
      </trkpt>
      <trkpt lat="47.37957738339901" lon="10.971246063709259">
        <ele>1590.157958984375</ele>
        <time>2013-08-24T12:44:37Z</time>
      </trkpt>
      <trkpt lat="47.379581406712532" lon="10.971246901899576">
        <ele>1589.67724609375</ele>
        <time>2013-08-24T12:45:29Z</time>
      </trkpt>
      <trkpt lat="47.379574198275805" lon="10.971260061487556">
        <ele>1590.157958984375</ele>
        <time>2013-08-24T12:45:38Z</time>
      </trkpt>
      <trkpt lat="47.379573946818709" lon="10.971259977668524">
        <ele>1590.157958984375</ele>
        <time>2013-08-24T12:45:42Z</time>
      </trkpt>
      <trkpt lat="47.379520805552602" lon="10.971424514427781">
        <ele>1590.157958984375</ele>
        <time>2013-08-24T12:45:51Z</time>
      </trkpt>
      <trkpt lat="47.379524661228061" lon="10.971477655693889">
        <ele>1590.638427734375</ele>
        <time>2013-08-24T12:45:53Z</time>
      </trkpt>
      <trkpt lat="47.37958375364542" lon="10.971760461106896">
        <ele>1592.561279296875</ele>
        <time>2013-08-24T12:46:04Z</time>
      </trkpt>
      <trkpt lat="47.379559446126223" lon="10.971927512437105">
        <ele>1594.483642578125</ele>
        <time>2013-08-24T12:46:11Z</time>
      </trkpt>
      <trkpt lat="47.379476297646761" lon="10.972119374200702">
        <ele>1595.92578125</ele>
        <time>2013-08-24T12:46:20Z</time>
      </trkpt>
      <trkpt lat="47.379396334290504" lon="10.972322635352612">
        <ele>1597.367919921875</ele>
        <time>2013-08-24T12:46:30Z</time>
      </trkpt>
      <trkpt lat="47.379335146397352" lon="10.972528243437409">
        <ele>1599.29052734375</ele>
        <time>2013-08-24T12:46:39Z</time>
      </trkpt>
      <trkpt lat="47.379246046766639" lon="10.972776599228382">
        <ele>1601.213134765625</ele>
        <time>2013-08-24T12:46:50Z</time>
      </trkpt>
      <trkpt lat="47.379184104502201" lon="10.972909368574619">
        <ele>1602.17431640625</ele>
        <time>2013-08-24T12:46:57Z</time>
      </trkpt>
      <trkpt lat="47.379035241901875" lon="10.972926886752248">
        <ele>1604.09716796875</ele>
        <time>2013-08-24T12:47:07Z</time>
      </trkpt>
      <trkpt lat="47.378970617428422" lon="10.972943566739559">
        <ele>1604.09716796875</ele>
        <time>2013-08-24T12:47:11Z</time>
      </trkpt>
      <trkpt lat="47.378926863893867" lon="10.972755812108517">
        <ele>1604.09716796875</ele>
        <time>2013-08-24T12:47:21Z</time>
      </trkpt>
      <trkpt lat="47.378886882215738" lon="10.972472503781319">
        <ele>1606.01953125</ele>
        <time>2013-08-24T12:47:30Z</time>
      </trkpt>
      <trkpt lat="47.378841368481517" lon="10.972225405275822">
        <ele>1605.5390625</ele>
        <time>2013-08-24T12:47:37Z</time>
      </trkpt>
      <trkpt lat="47.37884103320539" lon="10.971834976226091">
        <ele>1602.655029296875</ele>
        <time>2013-08-24T12:47:44Z</time>
      </trkpt>
      <trkpt lat="47.378849415108562" lon="10.971755515784025">
        <ele>1601.69384765625</ele>
        <time>2013-08-24T12:47:45Z</time>
      </trkpt>
      <trkpt lat="47.378839021548629" lon="10.971359387040138">
        <ele>1599.771240234375</ele>
        <time>2013-08-24T12:47:48Z</time>
      </trkpt>
      <trkpt lat="47.378797363489866" lon="10.971154281869531">
        <ele>1599.29052734375</ele>
        <time>2013-08-24T12:47:50Z</time>
      </trkpt>
      <trkpt lat="47.378745647147298" lon="10.970374764874578">
        <ele>1595.92578125</ele>
        <time>2013-08-24T12:47:57Z</time>
      </trkpt>
      <trkpt lat="47.378727374598384" lon="10.970027921721339">
        <ele>1594.003173828125</ele>
        <time>2013-08-24T12:48:00Z</time>
      </trkpt>
      <trkpt lat="47.378746401518583" lon="10.969684766605496">
        <ele>1592.561279296875</ele>
        <time>2013-08-24T12:48:03Z</time>
      </trkpt>
      <trkpt lat="47.378719327971339" lon="10.96944403834641">
        <ele>1591.119140625</ele>
        <time>2013-08-24T12:48:05Z</time>
      </trkpt>
      <trkpt lat="47.378666438162327" lon="10.969176655635238">
        <ele>1588.716064453125</ele>
        <time>2013-08-24T12:48:07Z</time>
      </trkpt>
      <trkpt lat="47.37857423722744" lon="10.96877658739686">
        <ele>1585.351318359375</ele>
        <time>2013-08-24T12:48:10Z</time>
      </trkpt>
      <trkpt lat="47.378419255837798" lon="10.967961950227618">
        <ele>1584.870849609375</ele>
        <time>2013-08-24T12:48:16Z</time>
      </trkpt>
      <trkpt lat="47.378402408212423" lon="10.967858266085386">
        <ele>1584.39013671875</ele>
        <time>2013-08-24T12:48:17Z</time>
      </trkpt>
      <trkpt lat="47.37836510874331" lon="10.967708816751838">
        <ele>1583.4287109375</ele>
        <time>2013-08-24T12:48:19Z</time>
      </trkpt>
      <trkpt lat="47.378267962485552" lon="10.967608988285065">
        <ele>1581.98681640625</ele>
        <time>2013-08-24T12:48:24Z</time>
      </trkpt>
      <trkpt lat="47.378283469006419" lon="10.967711247503757">
        <ele>1581.98681640625</ele>
        <time>2013-08-24T12:48:28Z</time>
      </trkpt>
      <trkpt lat="47.378290258347988" lon="10.967752737924457">
        <ele>1582.947998046875</ele>
        <time>2013-08-24T12:48:38Z</time>
      </trkpt>
      <trkpt lat="47.378293108195066" lon="10.967750642448664">
        <ele>1582.467529296875</ele>
        <time>2013-08-24T12:49:23Z</time>
      </trkpt>
      <trkpt lat="47.3782844748348" lon="10.967781823128462">
        <ele>1582.467529296875</ele>
        <time>2013-08-24T12:49:25Z</time>
      </trkpt>
      <trkpt lat="47.37829327583313" lon="10.967948958277702">
        <ele>1580.544921875</ele>
        <time>2013-08-24T12:49:29Z</time>
      </trkpt>
      <trkpt lat="47.378229824826121" lon="10.9683324303478">
        <ele>1577.66064453125</ele>
        <time>2013-08-24T12:49:34Z</time>
      </trkpt>
      <trkpt lat="47.378149190917611" lon="10.968591682612896">
        <ele>1576.21875</ele>
        <time>2013-08-24T12:49:37Z</time>
      </trkpt>
      <trkpt lat="47.378127565607429" lon="10.968692433089018">
        <ele>1575.25732421875</ele>
        <time>2013-08-24T12:49:38Z</time>
      </trkpt>
      <trkpt lat="47.378033101558685" lon="10.96915234811604">
        <ele>1570.450927734375</ele>
        <time>2013-08-24T12:49:42Z</time>
      </trkpt>
      <trkpt lat="47.378005189821124" lon="10.969285704195499">
        <ele>1568.047607421875</ele>
        <time>2013-08-24T12:49:43Z</time>
      </trkpt>
      <trkpt lat="47.377911228686571" lon="10.969806388020515">
        <ele>1569.009033203125</ele>
        <time>2013-08-24T12:49:47Z</time>
      </trkpt>
      <trkpt lat="47.377899326384068" lon="10.970449615269899">
        <ele>1564.68310546875</ele>
        <time>2013-08-24T12:49:53Z</time>
      </trkpt>
      <trkpt lat="47.377873593941331" lon="10.970812551677227">
        <ele>1562.76025390625</ele>
        <time>2013-08-24T12:49:56Z</time>
      </trkpt>
      <trkpt lat="47.377862865105271" lon="10.971246147528291">
        <ele>1556.992431640625</ele>
        <time>2013-08-24T12:49:59Z</time>
      </trkpt>
      <trkpt lat="47.377817099913955" lon="10.971736907958984">
        <ele>1554.108642578125</ele>
        <time>2013-08-24T12:50:02Z</time>
      </trkpt>
      <trkpt lat="47.377679217606783" lon="10.972530422732234">
        <ele>1549.78271484375</ele>
        <time>2013-08-24T12:50:07Z</time>
      </trkpt>
      <trkpt lat="47.37764485180378" lon="10.972696719691157">
        <ele>1549.78271484375</ele>
        <time>2013-08-24T12:50:08Z</time>
      </trkpt>
      <trkpt lat="47.377478554844856" lon="10.973354615271091">
        <ele>1546.41796875</ele>
        <time>2013-08-24T12:50:12Z</time>
      </trkpt>
      <trkpt lat="47.377338409423828" lon="10.973821068182588">
        <ele>1544.4951171875</ele>
        <time>2013-08-24T12:50:15Z</time>
      </trkpt>
      <trkpt lat="47.376953428611159" lon="10.974507126957178">
        <ele>1545.937255859375</ele>
        <time>2013-08-24T12:50:21Z</time>
      </trkpt>
      <trkpt lat="47.376732397824526" lon="10.974760511890054">
        <ele>1542.57275390625</ele>
        <time>2013-08-24T12:50:24Z</time>
      </trkpt>
      <trkpt lat="47.376565681770444" lon="10.974852796643972">
        <ele>1543.533935546875</ele>
        <time>2013-08-24T12:50:26Z</time>
      </trkpt>
      <trkpt lat="47.376245409250259" lon="10.974986990913749">
        <ele>1542.57275390625</ele>
        <time>2013-08-24T12:50:30Z</time>
      </trkpt>
      <trkpt lat="47.376098055392504" lon="10.975128728896379">
        <ele>1543.533935546875</ele>
        <time>2013-08-24T12:50:35Z</time>
      </trkpt>
      <trkpt lat="47.376098809763789" lon="10.975184803828597">
        <ele>1543.05322265625</ele>
        <time>2013-08-24T12:50:39Z</time>
      </trkpt>
      <trkpt lat="47.376003423705697" lon="10.975187150761485">
        <ele>1542.57275390625</ele>
        <time>2013-08-24T12:50:44Z</time>
      </trkpt>
      <trkpt lat="47.375816507264972" lon="10.975182875990868">
        <ele>1543.05322265625</ele>
        <time>2013-08-24T12:50:49Z</time>
      </trkpt>
      <trkpt lat="47.375500593334436" lon="10.975128058344126">
        <ele>1544.4951171875</ele>
        <time>2013-08-24T12:50:57Z</time>
      </trkpt>
      <trkpt lat="47.375389700755477" lon="10.975267114117742">
        <ele>1545.937255859375</ele>
        <time>2013-08-24T12:51:03Z</time>
      </trkpt>
      <trkpt lat="47.375371595844626" lon="10.975530808791518">
        <ele>1547.85986328125</ele>
        <time>2013-08-24T12:51:10Z</time>
      </trkpt>
      <trkpt lat="47.375422809273005" lon="10.975817134603858">
        <ele>1547.85986328125</ele>
        <time>2013-08-24T12:51:17Z</time>
      </trkpt>
      <trkpt lat="47.375561529770494" lon="10.976181160658598">
        <ele>1547.379150390625</ele>
        <time>2013-08-24T12:51:25Z</time>
      </trkpt>
      <trkpt lat="47.375695891678333" lon="10.976700419560075">
        <ele>1546.8984375</ele>
        <time>2013-08-24T12:51:34Z</time>
      </trkpt>
      <trkpt lat="47.375697819516063" lon="10.976786501705647">
        <ele>1546.8984375</ele>
        <time>2013-08-24T12:51:40Z</time>
      </trkpt>
      <trkpt lat="47.375698490068316" lon="10.976779377087951">
        <ele>1545.937255859375</ele>
        <time>2013-08-24T12:51:44Z</time>
      </trkpt>
      <trkpt lat="47.375698909163475" lon="10.976749621331692">
        <ele>1546.8984375</ele>
        <time>2013-08-24T12:51:53Z</time>
      </trkpt>
      <trkpt lat="47.375700837001204" lon="10.976754063740373">
        <ele>1546.8984375</ele>
        <time>2013-08-24T12:52:27Z</time>
      </trkpt>
      <trkpt lat="47.375705866143107" lon="10.976895382627845">
        <ele>1546.8984375</ele>
        <time>2013-08-24T12:52:33Z</time>
      </trkpt>
      <trkpt lat="47.37574215978384" lon="10.97722495906055">
        <ele>1545.937255859375</ele>
        <time>2013-08-24T12:52:39Z</time>
      </trkpt>
      <trkpt lat="47.375698406249285" lon="10.977831138297915">
        <ele>1545.45654296875</ele>
        <time>2013-08-24T12:52:46Z</time>
      </trkpt>
      <trkpt lat="47.375654904171824" lon="10.978010427206755">
        <ele>1544.0146484375</ele>
        <time>2013-08-24T12:52:48Z</time>
      </trkpt>
      <trkpt lat="47.375531690195203" lon="10.978511245921254">
        <ele>1540.16943359375</ele>
        <time>2013-08-24T12:52:53Z</time>
      </trkpt>
      <trkpt lat="47.375505957752466" lon="10.978621132671833">
        <ele>1540.16943359375</ele>
        <time>2013-08-24T12:52:54Z</time>
      </trkpt>
      <trkpt lat="47.375371344387531" lon="10.979062104597688">
        <ele>1537.76611328125</ele>
        <time>2013-08-24T12:52:58Z</time>
      </trkpt>
      <trkpt lat="47.375219548121095" lon="10.979649173095822">
        <ele>1537.76611328125</ele>
        <time>2013-08-24T12:53:04Z</time>
      </trkpt>
      <trkpt lat="47.375144697725773" lon="10.979885878041387">
        <ele>1536.32421875</ele>
        <time>2013-08-24T12:53:07Z</time>
      </trkpt>
      <trkpt lat="47.375110248103738" lon="10.980081763118505">
        <ele>1535.843505859375</ele>
        <time>2013-08-24T12:53:09Z</time>
      </trkpt>
      <trkpt lat="47.375126592814922" lon="10.980551149696112">
        <ele>1533.9208984375</ele>
        <time>2013-08-24T12:53:13Z</time>
      </trkpt>
      <trkpt lat="47.375114522874355" lon="10.980934202671051">
        <ele>1533.440185546875</ele>
        <time>2013-08-24T12:53:16Z</time>
      </trkpt>
      <trkpt lat="47.375072613358498" lon="10.981824360787868">
        <ele>1531.517333984375</ele>
        <time>2013-08-24T12:53:23Z</time>
      </trkpt>
      <trkpt lat="47.375038163736463" lon="10.98267612978816">
        <ele>1529.114013671875</ele>
        <time>2013-08-24T12:53:29Z</time>
      </trkpt>
      <trkpt lat="47.375036990270019" lon="10.982955917716026">
        <ele>1527.672119140625</ele>
        <time>2013-08-24T12:53:31Z</time>
      </trkpt>
      <trkpt lat="47.375049898400903" lon="10.983612136915326">
        <ele>1527.191650390625</ele>
        <time>2013-08-24T12:53:36Z</time>
      </trkpt>
      <trkpt lat="47.375152911990881" lon="10.984171209856868">
        <ele>1526.7109375</ele>
        <time>2013-08-24T12:53:41Z</time>
      </trkpt>
      <trkpt lat="47.3752227332443" lon="10.985151138156652">
        <ele>1522.86572265625</ele>
        <time>2013-08-24T12:53:49Z</time>
      </trkpt>
      <trkpt lat="47.375222900882363" lon="10.985274100676179">
        <ele>1522.385009765625</ele>
        <time>2013-08-24T12:53:50Z</time>
      </trkpt>
      <trkpt lat="47.375214770436287" lon="10.985510386526585">
        <ele>1523.826904296875</ele>
        <time>2013-08-24T12:53:52Z</time>
      </trkpt>
      <trkpt lat="47.375150565057993" lon="10.985930236056447">
        <ele>1520.943115234375</ele>
        <time>2013-08-24T12:53:56Z</time>
      </trkpt>
      <trkpt lat="47.375132963061333" lon="10.986034087836742">
        <ele>1520.943115234375</ele>
        <time>2013-08-24T12:53:57Z</time>
      </trkpt>
      <trkpt lat="47.375117959454656" lon="10.986140538007021">
        <ele>1520.46240234375</ele>
        <time>2013-08-24T12:53:58Z</time>
      </trkpt>
      <trkpt lat="47.375014778226614" lon="10.98653138615191">
        <ele>1520.943115234375</ele>
        <time>2013-08-24T12:54:03Z</time>
      </trkpt>
      <trkpt lat="47.374975215643644" lon="10.986635405570269">
        <ele>1520.943115234375</ele>
        <time>2013-08-24T12:54:07Z</time>
      </trkpt>
      <trkpt lat="47.374967504292727" lon="10.986620485782623">
        <ele>1521.423583984375</ele>
        <time>2013-08-24T12:54:10Z</time>
      </trkpt>
      <trkpt lat="47.374974377453327" lon="10.986782675608993">
        <ele>1519.981689453125</ele>
        <time>2013-08-24T12:54:16Z</time>
      </trkpt>
      <trkpt lat="47.374998098239303" lon="10.987193053588271">
        <ele>1518.05908203125</ele>
        <time>2013-08-24T12:54:21Z</time>
      </trkpt>
      <trkpt lat="47.375021567568183" lon="10.987731926143169">
        <ele>1514.6943359375</ele>
        <time>2013-08-24T12:54:26Z</time>
      </trkpt>
      <trkpt lat="47.375027099624276" lon="10.987851452082396">
        <ele>1514.6943359375</ele>
        <time>2013-08-24T12:54:27Z</time>
      </trkpt>
      <trkpt lat="47.375011341646314" lon="10.988374315202236">
        <ele>1510.84912109375</ele>
        <time>2013-08-24T12:54:31Z</time>
      </trkpt>
      <trkpt lat="47.37501117400825" lon="10.988513873890042">
        <ele>1510.84912109375</ele>
        <time>2013-08-24T12:54:32Z</time>
      </trkpt>
      <trkpt lat="47.37503313459456" lon="10.988948056474328">
        <ele>1508.44580078125</ele>
        <time>2013-08-24T12:54:35Z</time>
      </trkpt>
      <trkpt lat="47.375033805146813" lon="10.989222060889006">
        <ele>1507.484619140625</ele>
        <time>2013-08-24T12:54:37Z</time>
      </trkpt>
      <trkpt lat="47.375016706064343" lon="10.989457927644253">
        <ele>1506.04248046875</ele>
        <time>2013-08-24T12:54:39Z</time>
      </trkpt>
      <trkpt lat="47.374863401055336" lon="10.989921530708671">
        <ele>1501.716796875</ele>
        <time>2013-08-24T12:54:43Z</time>
      </trkpt>
      <trkpt lat="47.374609597027302" lon="10.990586886182427">
        <ele>1498.83251953125</ele>
        <time>2013-08-24T12:54:48Z</time>
      </trkpt>
      <trkpt lat="47.374572129920125" lon="10.990704651921988">
        <ele>1499.313232421875</ele>
        <time>2013-08-24T12:54:49Z</time>
      </trkpt>
      <trkpt lat="47.374521167948842" lon="10.991269759833813">
        <ele>1496.909912109375</ele>
        <time>2013-08-24T12:54:54Z</time>
      </trkpt>
      <trkpt lat="47.374525694176555" lon="10.991794718429446">
        <ele>1492.584228515625</ele>
        <time>2013-08-24T12:54:58Z</time>
      </trkpt>
      <trkpt lat="47.374593336135149" lon="10.992386564612389">
        <ele>1489.7001953125</ele>
        <time>2013-08-24T12:55:02Z</time>
      </trkpt>
      <trkpt lat="47.374583445489407" lon="10.993174714967608">
        <ele>1486.335693359375</ele>
        <time>2013-08-24T12:55:07Z</time>
      </trkpt>
      <trkpt lat="47.374614961445332" lon="10.994051964953542">
        <ele>1483.93212890625</ele>
        <time>2013-08-24T12:55:13Z</time>
      </trkpt>
      <trkpt lat="47.374656032770872" lon="10.9944755025208">
        <ele>1482.490234375</ele>
        <time>2013-08-24T12:55:16Z</time>
      </trkpt>
      <trkpt lat="47.374705150723457" lon="10.995071372017264">
        <ele>1478.64501953125</ele>
        <time>2013-08-24T12:55:20Z</time>
      </trkpt>
      <trkpt lat="47.374709928408265" lon="10.995227443054318">
        <ele>1478.64501953125</ele>
        <time>2013-08-24T12:55:21Z</time>
      </trkpt>
      <trkpt lat="47.374710598960519" lon="10.995859270915389">
        <ele>1474.7998046875</ele>
        <time>2013-08-24T12:55:25Z</time>
      </trkpt>
      <trkpt lat="47.374695595353842" lon="10.996323879808187">
        <ele>1473.35791015625</ele>
        <time>2013-08-24T12:55:28Z</time>
      </trkpt>
      <trkpt lat="47.37465200945735" lon="10.996791673824191">
        <ele>1471.43505859375</ele>
        <time>2013-08-24T12:55:31Z</time>
      </trkpt>
      <trkpt lat="47.374686542898417" lon="10.997332558035851">
        <ele>1467.589599609375</ele>
        <time>2013-08-24T12:55:35Z</time>
      </trkpt>
      <trkpt lat="47.374719986692071" lon="10.99763011559844">
        <ele>1465.1865234375</ele>
        <time>2013-08-24T12:55:37Z</time>
      </trkpt>
      <trkpt lat="47.374860802665353" lon="10.99808013997972">
        <ele>1468.070556640625</ele>
        <time>2013-08-24T12:55:41Z</time>
      </trkpt>
      <trkpt lat="47.374881925061345" lon="10.99814560264349">
        <ele>1468.55126953125</ele>
        <time>2013-08-24T12:55:42Z</time>
      </trkpt>
      <trkpt lat="47.374997427687049" lon="10.998454308137298">
        <ele>1468.070556640625</ele>
        <time>2013-08-24T12:55:47Z</time>
      </trkpt>
      <trkpt lat="47.375042187049985" lon="10.998732754960656">
        <ele>1468.55126953125</ele>
        <time>2013-08-24T12:55:51Z</time>
      </trkpt>
      <trkpt lat="47.375096753239632" lon="10.998855130746961">
        <ele>1468.55126953125</ele>
        <time>2013-08-24T12:55:53Z</time>
      </trkpt>
      <trkpt lat="47.375192977488041" lon="10.999264502897859">
        <ele>1467.109130859375</ele>
        <time>2013-08-24T12:55:59Z</time>
      </trkpt>
      <trkpt lat="47.375177219510078" lon="10.99934077821672">
        <ele>1467.109130859375</ele>
        <time>2013-08-24T12:56:00Z</time>
      </trkpt>
      <trkpt lat="47.375077307224274" lon="10.999800777062774">
        <ele>1467.109130859375</ele>
        <time>2013-08-24T12:56:07Z</time>
      </trkpt>
      <trkpt lat="47.375042606145144" lon="10.999774457886815">
        <ele>1466.147705078125</ele>
        <time>2013-08-24T12:56:12Z</time>
      </trkpt>
      <trkpt lat="47.375036822631955" lon="10.999699020758271">
        <ele>1466.147705078125</ele>
        <time>2013-08-24T12:56:15Z</time>
      </trkpt>
      <trkpt lat="47.375056520104408" lon="10.999678485095501">
        <ele>1466.62841796875</ele>
        <time>2013-08-24T12:56:22Z</time>
      </trkpt>
      <trkpt lat="47.375067081302404" lon="10.999674126505852">
        <ele>1466.62841796875</ele>
        <time>2013-08-24T12:56:28Z</time>
      </trkpt>
      <trkpt lat="47.375100692734122" lon="10.999652165919542">
        <ele>1466.62841796875</ele>
        <time>2013-08-24T12:56:36Z</time>
      </trkpt>
      <trkpt lat="47.375117288902402" lon="10.999554768204689">
        <ele>1467.109130859375</ele>
        <time>2013-08-24T12:56:41Z</time>
      </trkpt>
      <trkpt lat="47.375167747959495" lon="10.999506823718548">
        <ele>1468.070556640625</ele>
        <time>2013-08-24T12:56:46Z</time>
      </trkpt>
      <trkpt lat="47.375174118205905" lon="10.999487545341253">
        <ele>1467.589599609375</ele>
        <time>2013-08-24T12:56:47Z</time>
      </trkpt>
      <trkpt lat="47.375192055478692" lon="10.999444797635078">
        <ele>1467.589599609375</ele>
        <time>2013-08-24T12:56:55Z</time>
      </trkpt>
      <trkpt lat="47.375208400189877" lon="10.99936374463141">
        <ele>1467.109130859375</ele>
        <time>2013-08-24T12:57:03Z</time>
      </trkpt>
      <trkpt lat="47.375222314149141" lon="10.999344885349274">
        <ele>1467.589599609375</ele>
        <time>2013-08-24T12:57:05Z</time>
      </trkpt>
      <trkpt lat="47.375299176201224" lon="10.999256037175655">
        <ele>1469.031982421875</ele>
        <time>2013-08-24T12:57:10Z</time>
      </trkpt>
      <trkpt lat="47.375336475670338" lon="10.999181354418397">
        <ele>1469.031982421875</ele>
        <time>2013-08-24T12:57:16Z</time>
      </trkpt>
      <trkpt lat="47.37532876431942" lon="10.999245308339596">
        <ele>1469.9931640625</ele>
        <time>2013-08-24T12:57:23Z</time>
      </trkpt>
      <trkpt lat="47.375328177586198" lon="10.999242877587676">
        <ele>1469.9931640625</ele>
        <time>2013-08-24T12:57:44Z</time>
      </trkpt>
      <trkpt lat="47.375339493155479" lon="10.999121339991689">
        <ele>1469.9931640625</ele>
        <time>2013-08-24T12:57:50Z</time>
      </trkpt>
      <trkpt lat="47.375329183414578" lon="10.999154113233089">
        <ele>1470.95458984375</ele>
        <time>2013-08-24T12:57:58Z</time>
      </trkpt>
      <trkpt lat="47.375324992462993" lon="10.99918344989419">
        <ele>1469.9931640625</ele>
        <time>2013-08-24T12:58:25Z</time>
      </trkpt>
      <trkpt lat="47.375304372981191" lon="10.999308172613382">
        <ele>1469.031982421875</ele>
        <time>2013-08-24T12:58:29Z</time>
      </trkpt>
      <trkpt lat="47.37521787174046" lon="10.999630624428391">
        <ele>1469.5126953125</ele>
        <time>2013-08-24T12:58:37Z</time>
      </trkpt>
      <trkpt lat="47.375166490674019" lon="10.999793149530888">
        <ele>1468.070556640625</ele>
        <time>2013-08-24T12:58:44Z</time>
      </trkpt>
      <trkpt lat="47.375089460983872" lon="10.999853918328881">
        <ele>1468.55126953125</ele>
        <time>2013-08-24T12:58:50Z</time>
      </trkpt>
      <trkpt lat="47.375055765733123" lon="10.999873448163271">
        <ele>1468.55126953125</ele>
        <time>2013-08-24T12:58:55Z</time>
      </trkpt>
      <trkpt lat="47.375057945027947" lon="10.999891301617026">
        <ele>1468.070556640625</ele>
        <time>2013-08-24T12:58:58Z</time>
      </trkpt>
      <trkpt lat="47.375143608078361" lon="10.999785689637065">
        <ele>1469.031982421875</ele>
        <time>2013-08-24T12:59:07Z</time>
      </trkpt>
      <trkpt lat="47.375192977488041" lon="10.999622326344252">
        <ele>1468.55126953125</ele>
        <time>2013-08-24T12:59:17Z</time>
      </trkpt>
      <trkpt lat="47.375206723809242" lon="10.999525766819715">
        <ele>1468.55126953125</ele>
        <time>2013-08-24T12:59:23Z</time>
      </trkpt>
      <trkpt lat="47.375210160389543" lon="10.999481175094843">
        <ele>1469.9931640625</ele>
        <time>2013-08-24T12:59:25Z</time>
      </trkpt>
      <trkpt lat="47.375231198966503" lon="10.999312866479158">
        <ele>1469.5126953125</ele>
        <time>2013-08-24T12:59:34Z</time>
      </trkpt>
      <trkpt lat="47.375272186473012" lon="10.999333066865802">
        <ele>1470.473876953125</ele>
        <time>2013-08-24T12:59:41Z</time>
      </trkpt>
      <trkpt lat="47.375280149281025" lon="10.999334743246436">
        <ele>1470.95458984375</ele>
        <time>2013-08-24T12:59:46Z</time>
      </trkpt>
      <trkpt lat="47.375282244756818" lon="10.999240698292851">
        <ele>1470.95458984375</ele>
        <time>2013-08-24T12:59:54Z</time>
      </trkpt>
      <trkpt lat="47.375273527577519" lon="10.999261233955622">
        <ele>1469.9931640625</ele>
        <time>2013-08-24T13:00:10Z</time>
      </trkpt>
      <trkpt lat="47.375276545062661" lon="10.999274309724569">
        <ele>1469.031982421875</ele>
        <time>2013-08-24T13:00:35Z</time>
      </trkpt>
      <trkpt lat="47.375277131795883" lon="10.999288726598024">
        <ele>1467.589599609375</ele>
        <time>2013-08-24T13:07:19Z</time>
      </trkpt>
      <trkpt lat="47.375290291383862" lon="10.999310351908207">
        <ele>1468.55126953125</ele>
        <time>2013-08-24T13:07:31Z</time>
      </trkpt>
      <trkpt lat="47.375290626659989" lon="10.999307921156287">
        <ele>1468.070556640625</ele>
        <time>2013-08-24T13:07:39Z</time>
      </trkpt>
      <trkpt lat="47.375289285555482" lon="10.999377993866801">
        <ele>1468.55126953125</ele>
        <time>2013-08-24T13:07:47Z</time>
      </trkpt>
      <trkpt lat="47.37529112957418" lon="10.999412694945931">
        <ele>1468.55126953125</ele>
        <time>2013-08-24T13:07:54Z</time>
      </trkpt>
      <trkpt lat="47.375287441536784" lon="10.999425183981657">
        <ele>1468.55126953125</ele>
        <time>2013-08-24T13:07:58Z</time>
      </trkpt>
      <trkpt lat="47.375256679952145" lon="10.999513110145926">
        <ele>1466.62841796875</ele>
        <time>2013-08-24T13:08:02Z</time>
      </trkpt>
      <trkpt lat="47.375179314985871" lon="10.999822989106178">
        <ele>1465.667236328125</ele>
        <time>2013-08-24T13:08:08Z</time>
      </trkpt>
      <trkpt lat="47.375149559229612" lon="11.000062627717853">
        <ele>1464.705810546875</ele>
        <time>2013-08-24T13:08:12Z</time>
      </trkpt>
      <trkpt lat="47.375167580321431" lon="11.000356413424015">
        <ele>1465.1865234375</ele>
        <time>2013-08-24T13:08:17Z</time>
      </trkpt>
      <trkpt lat="47.375075714662671" lon="11.000740975141525">
        <ele>1460.860595703125</ele>
        <time>2013-08-24T13:08:21Z</time>
      </trkpt>
      <trkpt lat="47.374980831518769" lon="11.001052279025316">
        <ele>1457.976806640625</ele>
        <time>2013-08-24T13:08:24Z</time>
      </trkpt>
      <trkpt lat="47.374906400218606" lon="11.001281943172216">
        <ele>1454.131591796875</ele>
        <time>2013-08-24T13:08:26Z</time>
      </trkpt>
      <trkpt lat="47.3748186416924" lon="11.00151713937521">
        <ele>1452.689453125</ele>
        <time>2013-08-24T13:08:28Z</time>
      </trkpt>
      <trkpt lat="47.37475510686636" lon="11.001743953675032">
        <ele>1451.247314453125</ele>
        <time>2013-08-24T13:08:30Z</time>
      </trkpt>
      <trkpt lat="47.374705821275711" lon="11.001988453790545">
        <ele>1447.8828125</ele>
        <time>2013-08-24T13:08:32Z</time>
      </trkpt>
      <trkpt lat="47.374708587303758" lon="11.002546353265643">
        <ele>1444.03759765625</ele>
        <time>2013-08-24T13:08:36Z</time>
      </trkpt>
      <trkpt lat="47.374752508476377" lon="11.002970226109028">
        <ele>1442.114990234375</ele>
        <time>2013-08-24T13:08:39Z</time>
      </trkpt>
      <trkpt lat="47.374737923964858" lon="11.003231154754758">
        <ele>1441.153564453125</ele>
        <time>2013-08-24T13:08:41Z</time>
      </trkpt>
      <trkpt lat="47.374637676402926" lon="11.003732392564416">
        <ele>1437.7890625</ele>
        <time>2013-08-24T13:08:45Z</time>
      </trkpt>
      <trkpt lat="47.374619906768203" lon="11.00451928563416">
        <ele>1433.462890625</ele>
        <time>2013-08-24T13:08:50Z</time>
      </trkpt>
      <trkpt lat="47.374615715816617" lon="11.004675105214119">
        <ele>1432.982177734375</ele>
        <time>2013-08-24T13:08:51Z</time>
      </trkpt>
      <trkpt lat="47.374559473246336" lon="11.005262257531285">
        <ele>1430.5791015625</ele>
        <time>2013-08-24T13:08:56Z</time>
      </trkpt>
      <trkpt lat="47.374543631449342" lon="11.005473732948303">
        <ele>1429.61767578125</ele>
        <time>2013-08-24T13:08:58Z</time>
      </trkpt>
      <trkpt lat="47.374560981988907" lon="11.005800208076835">
        <ele>1428.656494140625</ele>
        <time>2013-08-24T13:09:01Z</time>
      </trkpt>
      <trkpt lat="47.374674305319786" lon="11.006395071744919">
        <ele>1425.7724609375</ele>
        <time>2013-08-24T13:09:06Z</time>
      </trkpt>
      <trkpt lat="47.374770697206259" lon="11.006926149129868">
        <ele>1426.73388671875</ele>
        <time>2013-08-24T13:09:11Z</time>
      </trkpt>
      <trkpt lat="47.374710598960519" lon="11.007459070533514">
        <ele>1427.695068359375</ele>
        <time>2013-08-24T13:09:17Z</time>
      </trkpt>
      <trkpt lat="47.374596605077386" lon="11.007647076621652">
        <ele>1427.214599609375</ele>
        <time>2013-08-24T13:09:20Z</time>
      </trkpt>
      <trkpt lat="47.374504236504436" lon="11.007743803784251">
        <ele>1427.214599609375</ele>
        <time>2013-08-24T13:09:22Z</time>
      </trkpt>
      <trkpt lat="47.374349255114794" lon="11.007920410484076">
        <ele>1425.291748046875</ele>
        <time>2013-08-24T13:09:26Z</time>
      </trkpt>
      <trkpt lat="47.374306255951524" lon="11.008059298619628">
        <ele>1426.253173828125</ele>
        <time>2013-08-24T13:09:28Z</time>
      </trkpt>
      <trkpt lat="47.374226124957204" lon="11.008329782634974">
        <ele>1424.33056640625</ele>
        <time>2013-08-24T13:09:31Z</time>
      </trkpt>
      <trkpt lat="47.374178851023316" lon="11.008517285808921">
        <ele>1423.369384765625</ele>
        <time>2013-08-24T13:09:33Z</time>
      </trkpt>
      <trkpt lat="47.374061588197947" lon="11.00899119861424">
        <ele>1423.369384765625</ele>
        <time>2013-08-24T13:09:38Z</time>
      </trkpt>
      <trkpt lat="47.374058654531837" lon="11.009075352922082">
        <ele>1423.849853515625</ele>
        <time>2013-08-24T13:09:40Z</time>
      </trkpt>
      <trkpt lat="47.374059241265059" lon="11.009084489196539">
        <ele>1423.369384765625</ele>
        <time>2013-08-24T13:09:42Z</time>
      </trkpt>
      <trkpt lat="47.37403878942132" lon="11.009079040959477">
        <ele>1423.369384765625</ele>
        <time>2013-08-24T13:09:45Z</time>
      </trkpt>
      <trkpt lat="47.374059744179249" lon="11.008971752598882">
        <ele>1424.33056640625</ele>
        <time>2013-08-24T13:09:53Z</time>
      </trkpt>
      <trkpt lat="47.374102994799614" lon="11.008724318817258">
        <ele>1424.33056640625</ele>
        <time>2013-08-24T13:10:00Z</time>
      </trkpt>
      <trkpt lat="47.374052116647363" lon="11.008545951917768">
        <ele>1424.33056640625</ele>
        <time>2013-08-24T13:10:06Z</time>
      </trkpt>
      <trkpt lat="47.374042728915811" lon="11.008829595521092">
        <ele>1422.407958984375</ele>
        <time>2013-08-24T13:12:57Z</time>
      </trkpt>
      <trkpt lat="47.374020265415311" lon="11.008953982964158">
        <ele>1422.407958984375</ele>
        <time>2013-08-24T13:12:59Z</time>
      </trkpt>
      <trkpt lat="47.373994532972574" lon="11.00932789966464">
        <ele>1420.966064453125</ele>
        <time>2013-08-24T13:13:04Z</time>
      </trkpt>
      <trkpt lat="47.37399579025805" lon="11.009613052010536">
        <ele>1420.004638671875</ele>
        <time>2013-08-24T13:13:07Z</time>
      </trkpt>
      <trkpt lat="47.373959496617317" lon="11.009961990639567">
        <ele>1419.043212890625</ele>
        <time>2013-08-24T13:13:11Z</time>
      </trkpt>
      <trkpt lat="47.37409939058125" lon="11.010585855692625">
        <ele>1415.6787109375</ele>
        <time>2013-08-24T13:13:18Z</time>
      </trkpt>
      <trkpt lat="47.374169128015637" lon="11.01105373352766">
        <ele>1413.275390625</ele>
        <time>2013-08-24T13:13:22Z</time>
      </trkpt>
      <trkpt lat="47.374217323958874" lon="11.011600317433476">
        <ele>1411.83349609375</ele>
        <time>2013-08-24T13:13:26Z</time>
      </trkpt>
      <trkpt lat="47.374138366430998" lon="11.012387378141284">
        <ele>1408.46875</ele>
        <time>2013-08-24T13:13:32Z</time>
      </trkpt>
      <trkpt lat="47.373978020623326" lon="11.013161111623049">
        <ele>1406.546142578125</ele>
        <time>2013-08-24T13:13:38Z</time>
      </trkpt>
      <trkpt lat="47.37384038977325" lon="11.013828311115503">
        <ele>1405.5849609375</ele>
        <time>2013-08-24T13:13:43Z</time>
      </trkpt>
      <trkpt lat="47.373770149424672" lon="11.014346228912473">
        <ele>1403.662109375</ele>
        <time>2013-08-24T13:13:47Z</time>
      </trkpt>
      <trkpt lat="47.373845838010311" lon="11.014982080087066">
        <ele>1402.70068359375</ele>
        <time>2013-08-24T13:13:52Z</time>
      </trkpt>
      <trkpt lat="47.374097378924489" lon="11.015928648412228">
        <ele>1400.778076171875</ele>
        <time>2013-08-24T13:14:00Z</time>
      </trkpt>
      <trkpt lat="47.374163512140512" lon="11.016559386625886">
        <ele>1399.336181640625</ele>
        <time>2013-08-24T13:14:05Z</time>
      </trkpt>
      <trkpt lat="47.374168457463384" lon="11.016828697174788">
        <ele>1398.374755859375</ele>
        <time>2013-08-24T13:14:07Z</time>
      </trkpt>
      <trkpt lat="47.374162254855037" lon="11.017504781484604">
        <ele>1396.452392578125</ele>
        <time>2013-08-24T13:14:12Z</time>
      </trkpt>
      <trkpt lat="47.374024456366897" lon="11.018128814175725">
        <ele>1395.01025390625</ele>
        <time>2013-08-24T13:14:17Z</time>
      </trkpt>
      <trkpt lat="47.37398212775588" lon="11.018236605450511">
        <ele>1395.490966796875</ele>
        <time>2013-08-24T13:14:18Z</time>
      </trkpt>
      <trkpt lat="47.373606869950891" lon="11.018769945949316">
        <ele>1394.529541015625</ele>
        <time>2013-08-24T13:14:24Z</time>
      </trkpt>
      <trkpt lat="47.373480889946222" lon="11.019063899293542">
        <ele>1394.529541015625</ele>
        <time>2013-08-24T13:14:27Z</time>
      </trkpt>
      <trkpt lat="47.373429089784622" lon="11.019505374133587">
        <ele>1395.490966796875</ele>
        <time>2013-08-24T13:14:31Z</time>
      </trkpt>
      <trkpt lat="47.373423641547561" lon="11.019792789593339">
        <ele>1396.932861328125</ele>
        <time>2013-08-24T13:14:34Z</time>
      </trkpt>
      <trkpt lat="47.373237060382962" lon="11.020480440929532">
        <ele>1397.41357421875</ele>
        <time>2013-08-24T13:14:42Z</time>
      </trkpt>
      <trkpt lat="47.373075373470783" lon="11.020780680701137">
        <ele>1395.01025390625</ele>
        <time>2013-08-24T13:14:46Z</time>
      </trkpt>
      <trkpt lat="47.3729950748384" lon="11.020960556343198">
        <ele>1394.529541015625</ele>
        <time>2013-08-24T13:14:48Z</time>
      </trkpt>
      <trkpt lat="47.372782174497843" lon="11.021879045292735">
        <ele>1390.203857421875</ele>
        <time>2013-08-24T13:14:56Z</time>
      </trkpt>
      <trkpt lat="47.372762393206358" lon="11.022005695849657">
        <ele>1389.72314453125</ele>
        <time>2013-08-24T13:14:57Z</time>
      </trkpt>
      <trkpt lat="47.372735068202019" lon="11.022402914240956">
        <ele>1388.761962890625</ele>
        <time>2013-08-24T13:15:00Z</time>
      </trkpt>
      <trkpt lat="47.372757531702518" lon="11.022812873125076">
        <ele>1386.3583984375</ele>
        <time>2013-08-24T13:15:03Z</time>
      </trkpt>
      <trkpt lat="47.372824419289827" lon="11.023535057902336">
        <ele>1386.8388671875</ele>
        <time>2013-08-24T13:15:09Z</time>
      </trkpt>
      <trkpt lat="47.372829616069794" lon="11.023623486980796">
        <ele>1386.3583984375</ele>
        <time>2013-08-24T13:15:10Z</time>
      </trkpt>
      <trkpt lat="47.372787036001682" lon="11.023885672912002">
        <ele>1387.319580078125</ele>
        <time>2013-08-24T13:15:15Z</time>
      </trkpt>
      <trkpt lat="47.372792987152934" lon="11.023871842771769">
        <ele>1387.319580078125</ele>
        <time>2013-08-24T13:15:28Z</time>
      </trkpt>
      <trkpt lat="47.372783431783319" lon="11.024151965975761">
        <ele>1386.3583984375</ele>
        <time>2013-08-24T13:15:35Z</time>
      </trkpt>
      <trkpt lat="47.372771529480815" lon="11.024271743372083">
        <ele>1385.39697265625</ele>
        <time>2013-08-24T13:15:37Z</time>
      </trkpt>
      <trkpt lat="47.372697601094842" lon="11.024819081649184">
        <ele>1385.39697265625</ele>
        <time>2013-08-24T13:15:44Z</time>
      </trkpt>
      <trkpt lat="47.372603639960289" lon="11.025210348889232">
        <ele>1384.435791015625</ele>
        <time>2013-08-24T13:15:48Z</time>
      </trkpt>
      <trkpt lat="47.372528621926904" lon="11.025527603924274">
        <ele>1382.99365234375</ele>
        <time>2013-08-24T13:15:51Z</time>
      </trkpt>
      <trkpt lat="47.372424434870481" lon="11.02632824331522">
        <ele>1381.0712890625</ele>
        <time>2013-08-24T13:15:58Z</time>
      </trkpt>
      <trkpt lat="47.372410856187344" lon="11.026451960206032">
        <ele>1380.590576171875</ele>
        <time>2013-08-24T13:15:59Z</time>
      </trkpt>
      <trkpt lat="47.372309183701873" lon="11.027344297617674">
        <ele>1379.629150390625</ele>
        <time>2013-08-24T13:16:06Z</time>
      </trkpt>
      <trkpt lat="47.372235339134932" lon="11.027974365279078">
        <ele>1377.22607421875</ele>
        <time>2013-08-24T13:16:11Z</time>
      </trkpt>
      <trkpt lat="47.372274566441774" lon="11.028457917273045">
        <ele>1378.187255859375</ele>
        <time>2013-08-24T13:16:15Z</time>
      </trkpt>
      <trkpt lat="47.372308094054461" lon="11.029202565550804">
        <ele>1377.22607421875</ele>
        <time>2013-08-24T13:16:21Z</time>
      </trkpt>
      <trkpt lat="47.37235645763576" lon="11.029779324308038">
        <ele>1376.745361328125</ele>
        <time>2013-08-24T13:16:26Z</time>
      </trkpt>
      <trkpt lat="47.37228219397366" lon="11.030215350911021">
        <ele>1375.783935546875</ele>
        <time>2013-08-24T13:16:30Z</time>
      </trkpt>
      <trkpt lat="47.372067617252469" lon="11.03062966838479">
        <ele>1376.2646484375</ele>
        <time>2013-08-24T13:16:35Z</time>
      </trkpt>
      <trkpt lat="47.371867122128606" lon="11.03142368607223">
        <ele>1374.342041015625</ele>
        <time>2013-08-24T13:16:42Z</time>
      </trkpt>
      <trkpt lat="47.371762851253152" lon="11.031976137310266">
        <ele>1373.861328125</ele>
        <time>2013-08-24T13:16:47Z</time>
      </trkpt>
      <trkpt lat="47.37166989594698" lon="11.032908540219069">
        <ele>1373.380859375</ele>
        <time>2013-08-24T13:16:55Z</time>
      </trkpt>
      <trkpt lat="47.371471915394068" lon="11.033565765246749">
        <ele>1372.900146484375</ele>
        <time>2013-08-24T13:17:01Z</time>
      </trkpt>
      <trkpt lat="47.37134451046586" lon="11.033876147121191">
        <ele>1371.457763671875</ele>
        <time>2013-08-24T13:17:04Z</time>
      </trkpt>
      <trkpt lat="47.370989536866546" lon="11.034659771248698">
        <ele>1370.49658203125</ele>
        <time>2013-08-24T13:17:12Z</time>
      </trkpt>
      <trkpt lat="47.370894234627485" lon="11.034962190315127">
        <ele>1369.535400390625</ele>
        <time>2013-08-24T13:17:15Z</time>
      </trkpt>
      <trkpt lat="47.37076448276639" lon="11.035848911851645">
        <ele>1369.0546875</ele>
        <time>2013-08-24T13:17:23Z</time>
      </trkpt>
      <trkpt lat="47.370631629601121" lon="11.03678391315043">
        <ele>1367.612548828125</ele>
        <time>2013-08-24T13:17:32Z</time>
      </trkpt>
      <trkpt lat="47.370557952672243" lon="11.03711374104023">
        <ele>1368.573974609375</ele>
        <time>2013-08-24T13:17:36Z</time>
      </trkpt>
      <trkpt lat="47.370377825573087" lon="11.037508863955736">
        <ele>1368.09326171875</ele>
        <time>2013-08-24T13:17:42Z</time>
      </trkpt>
      <trkpt lat="47.370294006541371" lon="11.03772553615272">
        <ele>1368.573974609375</ele>
        <time>2013-08-24T13:17:45Z</time>
      </trkpt>
      <trkpt lat="47.370155369862914" lon="11.037909854203463">
        <ele>1366.6513671875</ele>
        <time>2013-08-24T13:17:48Z</time>
      </trkpt>
      <trkpt lat="47.3700110334903" lon="11.038047065958381">
        <ele>1366.6513671875</ele>
        <time>2013-08-24T13:17:52Z</time>
      </trkpt>
      <trkpt lat="47.369785727933049" lon="11.038784002885222">
        <ele>1364.248046875</ele>
        <time>2013-08-24T13:17:59Z</time>
      </trkpt>
      <trkpt lat="47.369739795103669" lon="11.038909731432796">
        <ele>1365.20947265625</ele>
        <time>2013-08-24T13:18:00Z</time>
      </trkpt>
      <trkpt lat="47.369702579453588" lon="11.039607273414731">
        <ele>1365.20947265625</ele>
        <time>2013-08-24T13:18:06Z</time>
      </trkpt>
      <trkpt lat="47.369564110413194" lon="11.040072049945593">
        <ele>1365.20947265625</ele>
        <time>2013-08-24T13:18:11Z</time>
      </trkpt>
      <trkpt lat="47.369508119300008" lon="11.040139691904187">
        <ele>1363.767333984375</ele>
        <time>2013-08-24T13:18:12Z</time>
      </trkpt>
      <trkpt lat="47.369308043271303" lon="11.040442530065775">
        <ele>1365.690185546875</ele>
        <time>2013-08-24T13:18:17Z</time>
      </trkpt>
      <trkpt lat="47.369161359965801" lon="11.040853830054402">
        <ele>1368.573974609375</ele>
        <time>2013-08-24T13:18:25Z</time>
      </trkpt>
      <trkpt lat="47.369020879268646" lon="11.041139652952552">
        <ele>1369.0546875</ele>
        <time>2013-08-24T13:18:32Z</time>
      </trkpt>
      <trkpt lat="47.368944771587849" lon="11.041382141411304">
        <ele>1369.0546875</ele>
        <time>2013-08-24T13:18:37Z</time>
      </trkpt>
      <trkpt lat="47.368825245648623" lon="11.041716327890754">
        <ele>1369.0546875</ele>
        <time>2013-08-24T13:18:43Z</time>
      </trkpt>
      <trkpt lat="47.368858605623245" lon="11.041846666485071">
        <ele>1369.0546875</ele>
        <time>2013-08-24T13:18:45Z</time>
      </trkpt>
      <trkpt lat="47.368859443813562" lon="11.04199318215251">
        <ele>1370.015869140625</ele>
        <time>2013-08-24T13:18:47Z</time>
      </trkpt>
      <trkpt lat="47.368737822398543" lon="11.04220868088305">
        <ele>1370.49658203125</ele>
        <time>2013-08-24T13:18:52Z</time>
      </trkpt>
      <trkpt lat="47.368715526536107" lon="11.042380509898067">
        <ele>1370.977294921875</ele>
        <time>2013-08-24T13:18:56Z</time>
      </trkpt>
      <trkpt lat="47.36868878826499" lon="11.042430130764842">
        <ele>1370.49658203125</ele>
        <time>2013-08-24T13:18:57Z</time>
      </trkpt>
      <trkpt lat="47.368544368073344" lon="11.04277647100389">
        <ele>1368.573974609375</ele>
        <time>2013-08-24T13:19:03Z</time>
      </trkpt>
      <trkpt lat="47.368422746658325" lon="11.043200427666306">
        <ele>1366.6513671875</ele>
        <time>2013-08-24T13:19:07Z</time>
      </trkpt>
      <trkpt lat="47.368403216823936" lon="11.043446436524391">
        <ele>1365.690185546875</ele>
        <time>2013-08-24T13:19:09Z</time>
      </trkpt>
      <trkpt lat="47.368387877941132" lon="11.043672831729054">
        <ele>1364.728759765625</ele>
        <time>2013-08-24T13:19:11Z</time>
      </trkpt>
      <trkpt lat="47.368399947881699" lon="11.044371379539371">
        <ele>1363.286865234375</ele>
        <time>2013-08-24T13:19:17Z</time>
      </trkpt>
      <trkpt lat="47.368367593735456" lon="11.045192889869213">
        <ele>1360.40283203125</ele>
        <time>2013-08-24T13:19:24Z</time>
      </trkpt>
      <trkpt lat="47.368358457460999" lon="11.045327167958021">
        <ele>1360.40283203125</ele>
        <time>2013-08-24T13:19:25Z</time>
      </trkpt>
      <trkpt lat="47.36834823153913" lon="11.045751292258501">
        <ele>1359.441650390625</ele>
        <time>2013-08-24T13:19:28Z</time>
      </trkpt>
      <trkpt lat="47.368383184075356" lon="11.046287566423416">
        <ele>1357.51904296875</ele>
        <time>2013-08-24T13:19:32Z</time>
      </trkpt>
      <trkpt lat="47.36836826428771" lon="11.046952335163951">
        <ele>1354.634765625</ele>
        <time>2013-08-24T13:19:37Z</time>
      </trkpt>
      <trkpt lat="47.368229040876031" lon="11.047804271802306">
        <ele>1354.634765625</ele>
        <time>2013-08-24T13:19:44Z</time>
      </trkpt>
      <trkpt lat="47.368220826610923" lon="11.048021111637354">
        <ele>1356.076904296875</ele>
        <time>2013-08-24T13:19:48Z</time>
      </trkpt>
      <trkpt lat="47.368193920701742" lon="11.047984817996621">
        <ele>1356.076904296875</ele>
        <time>2013-08-24T13:19:57Z</time>
      </trkpt>
      <trkpt lat="47.368215629830956" lon="11.048029744997621">
        <ele>1356.5576171875</ele>
        <time>2013-08-24T13:20:14Z</time>
      </trkpt>
      <trkpt lat="47.368209259584546" lon="11.048010298982263">
        <ele>1356.5576171875</ele>
        <time>2013-08-24T13:20:38Z</time>
      </trkpt>
      <trkpt lat="47.368209511041641" lon="11.04801407083869">
        <ele>1353.19287109375</ele>
        <time>2013-08-24T13:21:08Z</time>
      </trkpt>
      <trkpt lat="47.368209594860673" lon="11.04801407083869">
        <ele>1357.51904296875</ele>
        <time>2013-08-24T13:21:10Z</time>
      </trkpt>
      <trkpt lat="47.368209594860673" lon="11.04801407083869">
        <ele>1357.51904296875</ele>
        <time>2013-08-24T13:21:11Z</time>
      </trkpt>
      <trkpt lat="47.368209594860673" lon="11.048013987019658">
        <ele>1354.154296875</ele>
        <time>2013-08-24T13:21:13Z</time>
      </trkpt>
      <trkpt lat="47.368209594860673" lon="11.048013987019658">
        <ele>1357.51904296875</ele>
        <time>2013-08-24T13:21:14Z</time>
      </trkpt>
      <trkpt lat="47.368209678679705" lon="11.048013987019658">
        <ele>1354.634765625</ele>
        <time>2013-08-24T13:21:17Z</time>
      </trkpt>
      <trkpt lat="47.368209678679705" lon="11.048014154657722">
        <ele>1358.480224609375</ele>
        <time>2013-08-24T13:21:20Z</time>
      </trkpt>
      <trkpt lat="47.368209594860673" lon="11.048014154657722">
        <ele>1355.115478515625</ele>
        <time>2013-08-24T13:21:21Z</time>
      </trkpt>
      <trkpt lat="47.368210097774863" lon="11.04801650159061">
        <ele>1355.59619140625</ele>
        <time>2013-08-24T13:21:29Z</time>
      </trkpt>
      <trkpt lat="47.368158549070358" lon="11.048061428591609">
        <ele>1355.115478515625</ele>
        <time>2013-08-24T13:21:33Z</time>
      </trkpt>
      <trkpt lat="47.368132900446653" lon="11.048102667555213">
        <ele>1354.154296875</ele>
        <time>2013-08-24T13:21:35Z</time>
      </trkpt>
      <trkpt lat="47.368060061708093" lon="11.048285895958543">
        <ele>1352.2314453125</ele>
        <time>2013-08-24T13:21:38Z</time>
      </trkpt>
      <trkpt lat="47.367837438359857" lon="11.048789480701089">
        <ele>1348.38623046875</ele>
        <time>2013-08-24T13:21:43Z</time>
      </trkpt>
      <trkpt lat="47.367707015946507" lon="11.049376633018255">
        <ele>1345.983154296875</ele>
        <time>2013-08-24T13:21:48Z</time>
      </trkpt>
      <trkpt lat="47.367689246311784" lon="11.049783155322075">
        <ele>1344.541015625</ele>
        <time>2013-08-24T13:21:51Z</time>
      </trkpt>
      <trkpt lat="47.367657814174891" lon="11.050349017605186">
        <ele>1341.6572265625</ele>
        <time>2013-08-24T13:21:55Z</time>
      </trkpt>
      <trkpt lat="47.367608277127147" lon="11.05063701979816">
        <ele>1339.734375</ele>
        <time>2013-08-24T13:21:57Z</time>
      </trkpt>
      <trkpt lat="47.367530157789588" lon="11.051059048622847">
        <ele>1337.811767578125</ele>
        <time>2013-08-24T13:22:00Z</time>
      </trkpt>
      <trkpt lat="47.367361765354872" lon="11.05163530446589">
        <ele>1334.447265625</ele>
        <time>2013-08-24T13:22:04Z</time>
      </trkpt>
      <trkpt lat="47.367275599390268" lon="11.052090609446168">
        <ele>1333.005126953125</ele>
        <time>2013-08-24T13:22:07Z</time>
      </trkpt>
      <trkpt lat="47.367299068719149" lon="11.052696537226439">
        <ele>1332.0439453125</ele>
        <time>2013-08-24T13:22:11Z</time>
      </trkpt>
      <trkpt lat="47.36739537678659" lon="11.053128289058805">
        <ele>1330.121337890625</ele>
        <time>2013-08-24T13:22:14Z</time>
      </trkpt>
      <trkpt lat="47.367452709004283" lon="11.053542019799352">
        <ele>1331.563232421875</ele>
        <time>2013-08-24T13:22:17Z</time>
      </trkpt>
      <trkpt lat="47.367532169446349" lon="11.053949799388647">
        <ele>1330.121337890625</ele>
        <time>2013-08-24T13:22:20Z</time>
      </trkpt>
      <trkpt lat="47.367665525525808" lon="11.054324554279447">
        <ele>1330.121337890625</ele>
        <time>2013-08-24T13:22:23Z</time>
      </trkpt>
      <trkpt lat="47.367726881057024" lon="11.054946156218648">
        <ele>1329.159912109375</ele>
        <time>2013-08-24T13:22:28Z</time>
      </trkpt>
      <trkpt lat="47.36768270842731" lon="11.055455775931478">
        <ele>1327.237548828125</ele>
        <time>2013-08-24T13:22:32Z</time>
      </trkpt>
      <trkpt lat="47.367620933800936" lon="11.055704802274704">
        <ele>1326.7568359375</ele>
        <time>2013-08-24T13:22:34Z</time>
      </trkpt>
      <trkpt lat="47.367651360109448" lon="11.056497227400541">
        <ele>1325.314697265625</ele>
        <time>2013-08-24T13:22:40Z</time>
      </trkpt>
      <trkpt lat="47.367699388414621" lon="11.056765615940094">
        <ele>1325.79541015625</ele>
        <time>2013-08-24T13:22:42Z</time>
      </trkpt>
      <trkpt lat="47.367720175534487" lon="11.057031657546759">
        <ele>1324.834228515625</ele>
        <time>2013-08-24T13:22:44Z</time>
      </trkpt>
      <trkpt lat="47.367692179977894" lon="11.057807821780443">
        <ele>1322.4306640625</ele>
        <time>2013-08-24T13:22:50Z</time>
      </trkpt>
      <trkpt lat="47.367633422836661" lon="11.058852542191744">
        <ele>1321.949951171875</ele>
        <time>2013-08-24T13:22:58Z</time>
      </trkpt>
      <trkpt lat="47.367635434493423" lon="11.059133419767022">
        <ele>1320.508056640625</ele>
        <time>2013-08-24T13:23:00Z</time>
      </trkpt>
      <trkpt lat="47.367450278252363" lon="11.060054674744606">
        <ele>1320.02734375</ele>
        <time>2013-08-24T13:23:07Z</time>
      </trkpt>
      <trkpt lat="47.367337374016643" lon="11.060923291370273">
        <ele>1317.6240234375</ele>
        <time>2013-08-24T13:23:14Z</time>
      </trkpt>
      <trkpt lat="47.367331925779581" lon="11.061058323830366">
        <ele>1317.6240234375</ele>
        <time>2013-08-24T13:23:15Z</time>
      </trkpt>
      <trkpt lat="47.367290854454041" lon="11.062100194394588">
        <ele>1316.18212890625</ele>
        <time>2013-08-24T13:23:23Z</time>
      </trkpt>
      <trkpt lat="47.367214746773243" lon="11.062620040029287">
        <ele>1316.18212890625</ele>
        <time>2013-08-24T13:23:27Z</time>
      </trkpt>
      <trkpt lat="47.367051215842366" lon="11.062959088012576">
        <ele>1314.740234375</ele>
        <time>2013-08-24T13:23:30Z</time>
      </trkpt>
      <trkpt lat="47.366900928318501" lon="11.063311798498034">
        <ele>1313.77880859375</ele>
        <time>2013-08-24T13:23:33Z</time>
      </trkpt>
      <trkpt lat="47.366761537268758" lon="11.063935160636902">
        <ele>1314.259521484375</ele>
        <time>2013-08-24T13:23:38Z</time>
      </trkpt>
      <trkpt lat="47.366671012714505" lon="11.064690453931689">
        <ele>1312.817626953125</ele>
        <time>2013-08-24T13:23:44Z</time>
      </trkpt>
      <trkpt lat="47.36640446819365" lon="11.065209712833166">
        <ele>1311.375732421875</ele>
        <time>2013-08-24T13:23:49Z</time>
      </trkpt>
      <trkpt lat="47.366141276434064" lon="11.065361928194761">
        <ele>1309.93359375</ele>
        <time>2013-08-24T13:23:52Z</time>
      </trkpt>
      <trkpt lat="47.365983780473471" lon="11.065445831045508">
        <ele>1309.93359375</ele>
        <time>2013-08-24T13:23:54Z</time>
      </trkpt>
      <trkpt lat="47.365855285897851" lon="11.065575750544667">
        <ele>1309.93359375</ele>
        <time>2013-08-24T13:23:56Z</time>
      </trkpt>
      <trkpt lat="47.365679768845439" lon="11.065989648923278">
        <ele>1307.5302734375</ele>
        <time>2013-08-24T13:24:00Z</time>
      </trkpt>
      <trkpt lat="47.365552615374327" lon="11.066558277234435">
        <ele>1308.49169921875</ele>
        <time>2013-08-24T13:24:05Z</time>
      </trkpt>
      <trkpt lat="47.365402914583683" lon="11.067533763125539">
        <ele>1307.049560546875</ele>
        <time>2013-08-24T13:24:13Z</time>
      </trkpt>
      <trkpt lat="47.36534315161407" lon="11.067864093929529">
        <ele>1308.01123046875</ele>
        <time>2013-08-24T13:24:16Z</time>
      </trkpt>
      <trkpt lat="47.365231169387698" lon="11.068128542974591">
        <ele>1309.93359375</ele>
        <time>2013-08-24T13:24:19Z</time>
      </trkpt>
      <trkpt lat="47.365317335352302" lon="11.068450324237347">
        <ele>1311.375732421875</ele>
        <time>2013-08-24T13:24:24Z</time>
      </trkpt>
      <trkpt lat="47.365473490208387" lon="11.068896157667041">
        <ele>1312.817626953125</ele>
        <time>2013-08-24T13:24:33Z</time>
      </trkpt>
      <trkpt lat="47.365606091916561" lon="11.069155661389232">
        <ele>1314.259521484375</ele>
        <time>2013-08-24T13:24:40Z</time>
      </trkpt>
      <trkpt lat="47.365731904283166" lon="11.069449698552489">
        <ele>1314.740234375</ele>
        <time>2013-08-24T13:24:47Z</time>
      </trkpt>
      <trkpt lat="47.365670967847109" lon="11.069709956645966">
        <ele>1316.18212890625</ele>
        <time>2013-08-24T13:24:54Z</time>
      </trkpt>
      <trkpt lat="47.365602487698197" lon="11.069757901132107">
        <ele>1316.662841796875</ele>
        <time>2013-08-24T13:24:57Z</time>
      </trkpt>
      <trkpt lat="47.365448009222746" lon="11.069775503128767">
        <ele>1317.1435546875</ele>
        <time>2013-08-24T13:25:03Z</time>
      </trkpt>
      <trkpt lat="47.365322280675173" lon="11.06979813426733">
        <ele>1318.104736328125</ele>
        <time>2013-08-24T13:25:08Z</time>
      </trkpt>
      <trkpt lat="47.365041906014085" lon="11.069967281073332">
        <ele>1319.066162109375</ele>
        <time>2013-08-24T13:25:17Z</time>
      </trkpt>
      <trkpt lat="47.364867394790053" lon="11.070047495886683">
        <ele>1320.02734375</ele>
        <time>2013-08-24T13:25:24Z</time>
      </trkpt>
      <trkpt lat="47.36466933041811" lon="11.070124190300703">
        <ele>1320.02734375</ele>
        <time>2013-08-24T13:25:31Z</time>
      </trkpt>
      <trkpt lat="47.36445433460176" lon="11.070182863622904">
        <ele>1320.98876953125</ele>
        <time>2013-08-24T13:25:41Z</time>
      </trkpt>
      <trkpt lat="47.364307902753353" lon="11.070321835577488">
        <ele>1322.4306640625</ele>
        <time>2013-08-24T13:25:46Z</time>
      </trkpt>
      <trkpt lat="47.364375209435821" lon="11.07047731988132">
        <ele>1322.911376953125</ele>
        <time>2013-08-24T13:25:52Z</time>
      </trkpt>
      <trkpt lat="47.364776032045484" lon="11.070652166381478">
        <ele>1324.353515625</ele>
        <time>2013-08-24T13:26:00Z</time>
      </trkpt>
      <trkpt lat="47.365000583231449" lon="11.07089021243155">
        <ele>1325.79541015625</ele>
        <time>2013-08-24T13:26:13Z</time>
      </trkpt>
      <trkpt lat="47.365157743915915" lon="11.071036560460925">
        <ele>1327.237548828125</ele>
        <time>2013-08-24T13:26:22Z</time>
      </trkpt>
      <trkpt lat="47.365312306210399" lon="11.071228673681617">
        <ele>1328.679443359375</ele>
        <time>2013-08-24T13:26:32Z</time>
      </trkpt>
      <trkpt lat="47.365444153547287" lon="11.071455152705312">
        <ele>1330.121337890625</ele>
        <time>2013-08-24T13:26:42Z</time>
      </trkpt>
      <trkpt lat="47.365502910688519" lon="11.071733767166734">
        <ele>1332.0439453125</ele>
        <time>2013-08-24T13:26:51Z</time>
      </trkpt>
      <trkpt lat="47.365453792735934" lon="11.072007771581411">
        <ele>1332.524658203125</ele>
        <time>2013-08-24T13:26:58Z</time>
      </trkpt>
      <trkpt lat="47.365394616499543" lon="11.072417562827468">
        <ele>1332.0439453125</ele>
        <time>2013-08-24T13:27:06Z</time>
      </trkpt>
      <trkpt lat="47.365332590416074" lon="11.072839591652155">
        <ele>1333.48583984375</ele>
        <time>2013-08-24T13:27:14Z</time>
      </trkpt>
      <trkpt lat="47.36523955129087" lon="11.073223650455475">
        <ele>1333.966552734375</ele>
        <time>2013-08-24T13:27:21Z</time>
      </trkpt>
      <trkpt lat="47.365128407254815" lon="11.073421882465482">
        <ele>1334.447265625</ele>
        <time>2013-08-24T13:27:27Z</time>
      </trkpt>
      <trkpt lat="47.364921038970351" lon="11.073625311255455">
        <ele>1334.927978515625</ele>
        <time>2013-08-24T13:27:34Z</time>
      </trkpt>
      <trkpt lat="47.364723980426788" lon="11.073818430304527">
        <ele>1335.408447265625</ele>
        <time>2013-08-24T13:27:40Z</time>
      </trkpt>
      <trkpt lat="47.364700678735971" lon="11.073855394497514">
        <ele>1334.927978515625</ele>
        <time>2013-08-24T13:27:41Z</time>
      </trkpt>
      <trkpt lat="47.364778630435467" lon="11.073947427794337">
        <ele>1334.447265625</ele>
        <time>2013-08-24T13:27:45Z</time>
      </trkpt>
      <trkpt lat="47.364750718697906" lon="11.074113389477134">
        <ele>1333.966552734375</ele>
        <time>2013-08-24T13:27:49Z</time>
      </trkpt>
      <trkpt lat="47.36456137150526" lon="11.07429695315659">
        <ele>1332.524658203125</ele>
        <time>2013-08-24T13:27:51Z</time>
      </trkpt>
      <trkpt lat="47.364445785060525" lon="11.074478169903159">
        <ele>1333.005126953125</ele>
        <time>2013-08-24T13:27:53Z</time>
      </trkpt>
      <trkpt lat="47.364358948543668" lon="11.074761562049389">
        <ele>1331.563232421875</ele>
        <time>2013-08-24T13:27:56Z</time>
      </trkpt>
      <trkpt lat="47.364269010722637" lon="11.075046882033348">
        <ele>1330.121337890625</ele>
        <time>2013-08-24T13:27:59Z</time>
      </trkpt>
      <trkpt lat="47.36412844620645" lon="11.076033180579543">
        <ele>1326.276123046875</ele>
        <time>2013-08-24T13:28:09Z</time>
      </trkpt>
      <trkpt lat="47.364100283011794" lon="11.076131416484714">
        <ele>1325.79541015625</ele>
        <time>2013-08-24T13:28:10Z</time>
      </trkpt>
      <trkpt lat="47.363996598869562" lon="11.076411623507738">
        <ele>1326.276123046875</ele>
        <time>2013-08-24T13:28:13Z</time>
      </trkpt>
      <trkpt lat="47.363747907802463" lon="11.077044624835253">
        <ele>1322.911376953125</ele>
        <time>2013-08-24T13:28:20Z</time>
      </trkpt>
      <trkpt lat="47.363627124577761" lon="11.077721379697323">
        <ele>1320.98876953125</ele>
        <time>2013-08-24T13:28:28Z</time>
      </trkpt>
      <trkpt lat="47.363718654960394" lon="11.077986499294639">
        <ele>1321.949951171875</ele>
        <time>2013-08-24T13:28:33Z</time>
      </trkpt>
      <trkpt lat="47.363767689093947" lon="11.078063445165753">
        <ele>1320.98876953125</ele>
        <time>2013-08-24T13:28:35Z</time>
      </trkpt>
      <trkpt lat="47.36384647898376" lon="11.078440882265568">
        <ele>1319.066162109375</ele>
        <time>2013-08-24T13:28:40Z</time>
      </trkpt>
      <trkpt lat="47.363996682688594" lon="11.079076062887907">
        <ele>1318.104736328125</ele>
        <time>2013-08-24T13:28:47Z</time>
      </trkpt>
      <trkpt lat="47.364018140360713" lon="11.07967528514564">
        <ele>1314.740234375</ele>
        <time>2013-08-24T13:28:53Z</time>
      </trkpt>
      <trkpt lat="47.364023756235838" lon="11.080480618402362">
        <ele>1312.817626953125</ele>
        <time>2013-08-24T13:29:00Z</time>
      </trkpt>
      <trkpt lat="47.363995090126991" lon="11.081095011904836">
        <ele>1312.817626953125</ele>
        <time>2013-08-24T13:29:06Z</time>
      </trkpt>
      <trkpt lat="47.363990815356374" lon="11.081168437376618">
        <ele>1313.29833984375</ele>
        <time>2013-08-24T13:29:07Z</time>
      </trkpt>
      <trkpt lat="47.363975560292602" lon="11.081321490928531">
        <ele>1313.29833984375</ele>
        <time>2013-08-24T13:29:09Z</time>
      </trkpt>
      <trkpt lat="47.364008165895939" lon="11.08175391331315">
        <ele>1312.817626953125</ele>
        <time>2013-08-24T13:29:14Z</time>
      </trkpt>
      <trkpt lat="47.36400187946856" lon="11.082133445888758">
        <ele>1311.8564453125</ele>
        <time>2013-08-24T13:29:18Z</time>
      </trkpt>
      <trkpt lat="47.363843796774745" lon="11.082930481061339">
        <ele>1312.817626953125</ele>
        <time>2013-08-24T13:29:27Z</time>
      </trkpt>
      <trkpt lat="47.363762827590108" lon="11.083655683323741">
        <ele>1312.817626953125</ele>
        <time>2013-08-24T13:29:35Z</time>
      </trkpt>
      <trkpt lat="47.363622514531016" lon="11.084154071286321">
        <ele>1312.817626953125</ele>
        <time>2013-08-24T13:29:41Z</time>
      </trkpt>
      <trkpt lat="47.363595692440867" lon="11.084239818155766">
        <ele>1311.8564453125</ele>
        <time>2013-08-24T13:29:42Z</time>
      </trkpt>
      <trkpt lat="47.363524027168751" lon="11.084582889452577">
        <ele>1313.29833984375</ele>
        <time>2013-08-24T13:29:46Z</time>
      </trkpt>
      <trkpt lat="47.363581946119666" lon="11.084971055388451">
        <ele>1311.8564453125</ele>
        <time>2013-08-24T13:29:50Z</time>
      </trkpt>
      <trkpt lat="47.363753523677588" lon="11.085227038711309">
        <ele>1309.453125</ele>
        <time>2013-08-24T13:29:55Z</time>
      </trkpt>
      <trkpt lat="47.363862907513976" lon="11.085221087560058">
        <ele>1307.5302734375</ele>
        <time>2013-08-24T13:29:57Z</time>
      </trkpt>
      <trkpt lat="47.364038340747356" lon="11.085300045087934">
        <ele>1304.646240234375</ele>
        <time>2013-08-24T13:30:00Z</time>
      </trkpt>
      <trkpt lat="47.364124087616801" lon="11.085669351741672">
        <ele>1303.204345703125</ele>
        <time>2013-08-24T13:30:03Z</time>
      </trkpt>
      <trkpt lat="47.364357272163033" lon="11.086118789389729">
        <ele>1298.397705078125</ele>
        <time>2013-08-24T13:30:08Z</time>
      </trkpt>
      <trkpt lat="47.364450227469206" lon="11.086569400504231">
        <ele>1295.033203125</ele>
        <time>2013-08-24T13:30:12Z</time>
      </trkpt>
      <trkpt lat="47.364499596878886" lon="11.08669588342309">
        <ele>1295.033203125</ele>
        <time>2013-08-24T13:30:13Z</time>
      </trkpt>
      <trkpt lat="47.364640664309263" lon="11.086909119039774">
        <ele>1294.552490234375</ele>
        <time>2013-08-24T13:30:15Z</time>
      </trkpt>
      <trkpt lat="47.364803189411759" lon="11.087333243340254">
        <ele>1291.187744140625</ele>
        <time>2013-08-24T13:30:19Z</time>
      </trkpt>
      <trkpt lat="47.364818109199405" lon="11.087737753987312">
        <ele>1285.419921875</ele>
        <time>2013-08-24T13:30:22Z</time>
      </trkpt>
      <trkpt lat="47.364822803065181" lon="11.088041765615344">
        <ele>1283.97802734375</ele>
        <time>2013-08-24T13:30:24Z</time>
      </trkpt>
      <trkpt lat="47.364823557436466" lon="11.088323397561908">
        <ele>1283.97802734375</ele>
        <time>2013-08-24T13:30:26Z</time>
      </trkpt>
      <trkpt lat="47.364730602130294" lon="11.088835280388594">
        <ele>1278.210205078125</ele>
        <time>2013-08-24T13:30:30Z</time>
      </trkpt>
      <trkpt lat="47.364691877737641" lon="11.088975258171558">
        <ele>1277.7294921875</ele>
        <time>2013-08-24T13:30:31Z</time>
      </trkpt>
      <trkpt lat="47.364611327648163" lon="11.089266864582896">
        <ele>1274.845458984375</ele>
        <time>2013-08-24T13:30:33Z</time>
      </trkpt>
      <trkpt lat="47.364520551636815" lon="11.089738346636295">
        <ele>1271.000244140625</ele>
        <time>2013-08-24T13:30:36Z</time>
      </trkpt>
      <trkpt lat="47.364493981003761" lon="11.090085105970502">
        <ele>1270.038818359375</ele>
        <time>2013-08-24T13:30:38Z</time>
      </trkpt>
      <trkpt lat="47.36447143368423" lon="11.090624062344432">
        <ele>1265.713134765625</ele>
        <time>2013-08-24T13:30:41Z</time>
      </trkpt>
      <trkpt lat="47.36445383168757" lon="11.09097140841186">
        <ele>1264.751708984375</ele>
        <time>2013-08-24T13:30:43Z</time>
      </trkpt>
      <trkpt lat="47.364447545260191" lon="11.091117253527045">
        <ele>1265.232421875</ele>
        <time>2013-08-24T13:30:44Z</time>
      </trkpt>
      <trkpt lat="47.364515187218785" lon="11.091510783880949">
        <ele>1262.8291015625</ele>
        <time>2013-08-24T13:30:48Z</time>
      </trkpt>
      <trkpt lat="47.364548128098249" lon="11.091611199080944">
        <ele>1261.867919921875</ele>
        <time>2013-08-24T13:30:49Z</time>
      </trkpt>
      <trkpt lat="47.364574363455176" lon="11.09198771417141">
        <ele>1258.5029296875</ele>
        <time>2013-08-24T13:30:52Z</time>
      </trkpt>
      <trkpt lat="47.364679053425789" lon="11.092526335269213">
        <ele>1255.138427734375</ele>
        <time>2013-08-24T13:30:57Z</time>
      </trkpt>
      <trkpt lat="47.364716688171029" lon="11.092987759038806">
        <ele>1251.77392578125</ele>
        <time>2013-08-24T13:31:01Z</time>
      </trkpt>
      <trkpt lat="47.364658517763019" lon="11.093333847820759">
        <ele>1250.8125</ele>
        <time>2013-08-24T13:31:06Z</time>
      </trkpt>
      <trkpt lat="47.364828586578369" lon="11.093247346580029">
        <ele>1251.293212890625</ele>
        <time>2013-08-24T13:37:05Z</time>
      </trkpt>
      <trkpt lat="47.364821461960673" lon="11.093240892514586">
        <ele>1250.8125</ele>
        <time>2013-08-24T13:37:22Z</time>
      </trkpt>
      <trkpt lat="47.364819450303912" lon="11.093228068202734">
        <ele>1251.293212890625</ele>
        <time>2013-08-24T13:37:53Z</time>
      </trkpt>
      <trkpt lat="47.364824479445815" lon="11.093217423185706">
        <ele>1250.8125</ele>
        <time>2013-08-24T13:38:03Z</time>
      </trkpt>
      <trkpt lat="47.364691123366356" lon="11.093362933024764">
        <ele>1249.37060546875</ele>
        <time>2013-08-24T13:38:10Z</time>
      </trkpt>
      <trkpt lat="47.364556007087231" lon="11.093511795625091">
        <ele>1246.006103515625</ele>
        <time>2013-08-24T13:38:13Z</time>
      </trkpt>
      <trkpt lat="47.364369593560696" lon="11.093482794240117">
        <ele>1243.121826171875</ele>
        <time>2013-08-24T13:38:17Z</time>
      </trkpt>
      <trkpt lat="47.364258784800768" lon="11.093207197263837">
        <ele>1241.19921875</ele>
        <time>2013-08-24T13:38:20Z</time>
      </trkpt>
      <trkpt lat="47.364189215004444" lon="11.093030003830791">
        <ele>1240.238037109375</ele>
        <time>2013-08-24T13:38:22Z</time>
      </trkpt>
      <trkpt lat="47.364149820059538" lon="11.092894468456507">
        <ele>1239.75732421875</ele>
        <time>2013-08-24T13:38:24Z</time>
      </trkpt>
      <trkpt lat="47.364059211686254" lon="11.09290880151093">
        <ele>1239.276611328125</ele>
        <time>2013-08-24T13:38:28Z</time>
      </trkpt>
      <trkpt lat="47.364048818126321" lon="11.09297476708889">
        <ele>1238.3154296875</ele>
        <time>2013-08-24T13:38:29Z</time>
      </trkpt>
      <trkpt lat="47.364050326868892" lon="11.093205604702234">
        <ele>1237.834716796875</ele>
        <time>2013-08-24T13:38:32Z</time>
      </trkpt>
      <trkpt lat="47.36396910622716" lon="11.093702232465148">
        <ele>1236.392822265625</ele>
        <time>2013-08-24T13:38:39Z</time>
      </trkpt>
      <trkpt lat="47.363811358809471" lon="11.093965591862798">
        <ele>1233.5087890625</ele>
        <time>2013-08-24T13:38:43Z</time>
      </trkpt>
      <trkpt lat="47.363594518974423" lon="11.094005657359958">
        <ele>1235.912109375</ele>
        <time>2013-08-24T13:38:47Z</time>
      </trkpt>
      <trkpt lat="47.363521428778768" lon="11.094174049794674">
        <ele>1235.912109375</ele>
        <time>2013-08-24T13:38:51Z</time>
      </trkpt>
      <trkpt lat="47.363519165664911" lon="11.094342190772295">
        <ele>1235.912109375</ele>
        <time>2013-08-24T13:38:53Z</time>
      </trkpt>
      <trkpt lat="47.363546658307314" lon="11.095067812129855">
        <ele>1230.144287109375</ele>
        <time>2013-08-24T13:39:01Z</time>
      </trkpt>
      <trkpt lat="47.3635577224195" lon="11.095270067453384">
        <ele>1231.105712890625</ele>
        <time>2013-08-24T13:39:03Z</time>
      </trkpt>
      <trkpt lat="47.363520003855228" lon="11.095620598644018">
        <ele>1231.105712890625</ele>
        <time>2013-08-24T13:39:07Z</time>
      </trkpt>
      <trkpt lat="47.36326796002686" lon="11.096216551959515">
        <ele>1229.182861328125</ele>
        <time>2013-08-24T13:39:15Z</time>
      </trkpt>
      <trkpt lat="47.36320442520082" lon="11.096772272139788">
        <ele>1228.702392578125</ele>
        <time>2013-08-24T13:39:22Z</time>
      </trkpt>
      <trkpt lat="47.363256309181452" lon="11.097552040591836">
        <ele>1227.74072265625</ele>
        <time>2013-08-24T13:39:30Z</time>
      </trkpt>
      <trkpt lat="47.363277934491634" lon="11.097747925668955">
        <ele>1227.26025390625</ele>
        <time>2013-08-24T13:39:32Z</time>
      </trkpt>
      <trkpt lat="47.363392431288958" lon="11.09810683876276">
        <ele>1226.298828125</ele>
        <time>2013-08-24T13:39:36Z</time>
      </trkpt>
      <trkpt lat="47.363513046875596" lon="11.098319068551064">
        <ele>1225.818115234375</ele>
        <time>2013-08-24T13:39:39Z</time>
      </trkpt>
      <trkpt lat="47.363601727411151" lon="11.098639760166407">
        <ele>1224.85693359375</ele>
        <time>2013-08-24T13:39:43Z</time>
      </trkpt>
      <trkpt lat="47.363594518974423" lon="11.098734810948372">
        <ele>1224.376220703125</ele>
        <time>2013-08-24T13:39:44Z</time>
      </trkpt>
      <trkpt lat="47.363588064908981" lon="11.099416762590408">
        <ele>1223.8955078125</ele>
        <time>2013-08-24T13:39:51Z</time>
      </trkpt>
      <trkpt lat="47.363475244492292" lon="11.099963346496224">
        <ele>1223.4150390625</ele>
        <time>2013-08-24T13:39:57Z</time>
      </trkpt>
      <trkpt lat="47.363205766305327" lon="11.100488808006048">
        <ele>1222.45361328125</ele>
        <time>2013-08-24T13:40:04Z</time>
      </trkpt>
      <trkpt lat="47.363067716360092" lon="11.100768679752946">
        <ele>1221.4921875</ele>
        <time>2013-08-24T13:40:08Z</time>
      </trkpt>
      <trkpt lat="47.362975850701332" lon="11.101087359711528">
        <ele>1221.01171875</ele>
        <time>2013-08-24T13:40:12Z</time>
      </trkpt>
      <trkpt lat="47.362843751907349" lon="11.101459935307503">
        <ele>1221.01171875</ele>
        <time>2013-08-24T13:40:17Z</time>
      </trkpt>
      <trkpt lat="47.362784156575799" lon="11.101774759590626">
        <ele>1219.56982421875</ele>
        <time>2013-08-24T13:40:21Z</time>
      </trkpt>
      <trkpt lat="47.362692710012197" lon="11.102015571668744">
        <ele>1220.05029296875</ele>
        <time>2013-08-24T13:40:24Z</time>
      </trkpt>
      <trkpt lat="47.362624481320381" lon="11.10241899266839">
        <ele>1220.05029296875</ele>
        <time>2013-08-24T13:40:29Z</time>
      </trkpt>
      <trkpt lat="47.362740403041244" lon="11.102787461131811">
        <ele>1217.16650390625</ele>
        <time>2013-08-24T13:40:34Z</time>
      </trkpt>
      <trkpt lat="47.362781809642911" lon="11.102845631539822">
        <ele>1217.16650390625</ele>
        <time>2013-08-24T13:40:35Z</time>
      </trkpt>
      <trkpt lat="47.36290393397212" lon="11.103190463036299">
        <ele>1217.64697265625</ele>
        <time>2013-08-24T13:40:39Z</time>
      </trkpt>
      <trkpt lat="47.362903514876962" lon="11.103454409167171">
        <ele>1217.16650390625</ele>
        <time>2013-08-24T13:40:42Z</time>
      </trkpt>
      <trkpt lat="47.363021112978458" lon="11.103836707770824">
        <ele>1216.685791015625</ele>
        <time>2013-08-24T13:40:47Z</time>
      </trkpt>
      <trkpt lat="47.36312136054039" lon="11.103944582864642">
        <ele>1215.243896484375</ele>
        <time>2013-08-24T13:40:49Z</time>
      </trkpt>
      <trkpt lat="47.363392431288958" lon="11.104194447398186">
        <ele>1215.724609375</ele>
        <time>2013-08-24T13:40:54Z</time>
      </trkpt>
      <trkpt lat="47.363448841497302" lon="11.104317577555776">
        <ele>1215.724609375</ele>
        <time>2013-08-24T13:40:56Z</time>
      </trkpt>
      <trkpt lat="47.363602481782436" lon="11.104860557243228">
        <ele>1214.282470703125</ele>
        <time>2013-08-24T13:41:03Z</time>
      </trkpt>
      <trkpt lat="47.363686803728342" lon="11.105127353221178">
        <ele>1215.243896484375</ele>
        <time>2013-08-24T13:41:06Z</time>
      </trkpt>
      <trkpt lat="47.363698957487941" lon="11.105688354000449">
        <ele>1214.282470703125</ele>
        <time>2013-08-24T13:41:12Z</time>
      </trkpt>
      <trkpt lat="47.36368571408093" lon="11.105783572420478">
        <ele>1214.282470703125</ele>
        <time>2013-08-24T13:41:13Z</time>
      </trkpt>
      <trkpt lat="47.363737346604466" lon="11.106524867936969">
        <ele>1215.243896484375</ele>
        <time>2013-08-24T13:41:22Z</time>
      </trkpt>
      <trkpt lat="47.363735251128674" lon="11.106866262853146">
        <ele>1213.3212890625</ele>
        <time>2013-08-24T13:41:26Z</time>
      </trkpt>
      <trkpt lat="47.363850921392441" lon="11.107294326648116">
        <ele>1214.282470703125</ele>
        <time>2013-08-24T13:41:31Z</time>
      </trkpt>
      <trkpt lat="47.363995844498277" lon="11.107571432366967">
        <ele>1211.879150390625</ele>
        <time>2013-08-24T13:41:35Z</time>
      </trkpt>
      <trkpt lat="47.364187454804778" lon="11.10816185362637">
        <ele>1211.879150390625</ele>
        <time>2013-08-24T13:41:42Z</time>
      </trkpt>
      <trkpt lat="47.364244535565376" lon="11.10841833986342">
        <ele>1210.43701171875</ele>
        <time>2013-08-24T13:41:45Z</time>
      </trkpt>
      <trkpt lat="47.364367665722966" lon="11.108722435310483">
        <ele>1209.956298828125</ele>
        <time>2013-08-24T13:41:49Z</time>
      </trkpt>
      <trkpt lat="47.364346962422132" lon="11.109292488545179">
        <ele>1208.514404296875</ele>
        <time>2013-08-24T13:41:55Z</time>
      </trkpt>
      <trkpt lat="47.364332629367709" lon="11.109819710254669">
        <ele>1206.591796875</ele>
        <time>2013-08-24T13:42:00Z</time>
      </trkpt>
      <trkpt lat="47.364331874996424" lon="11.110176779329777">
        <ele>1205.14990234375</ele>
        <time>2013-08-24T13:42:04Z</time>
      </trkpt>
      <trkpt lat="47.364201201125979" lon="11.110327485948801">
        <ele>1204.669189453125</ele>
        <time>2013-08-24T13:42:06Z</time>
      </trkpt>
      <trkpt lat="47.364113945513964" lon="11.11069486476481">
        <ele>1203.7080078125</ele>
        <time>2013-08-24T13:42:10Z</time>
      </trkpt>
      <trkpt lat="47.364076478406787" lon="11.11098513007164">
        <ele>1202.74658203125</ele>
        <time>2013-08-24T13:42:13Z</time>
      </trkpt>
      <trkpt lat="47.363990396261215" lon="11.111218398436904">
        <ele>1203.227294921875</ele>
        <time>2013-08-24T13:42:17Z</time>
      </trkpt>
      <trkpt lat="47.363984109833837" lon="11.111235832795501">
        <ele>1203.227294921875</ele>
        <time>2013-08-24T13:42:46Z</time>
      </trkpt>
      <trkpt lat="47.363960053771734" lon="11.111341193318367">
        <ele>1203.227294921875</ele>
        <time>2013-08-24T13:42:48Z</time>
      </trkpt>
      <trkpt lat="47.363935159519315" lon="11.111482093110681">
        <ele>1202.74658203125</ele>
        <time>2013-08-24T13:42:50Z</time>
      </trkpt>
      <trkpt lat="47.363904062658548" lon="11.111766323447227">
        <ele>1203.7080078125</ele>
        <time>2013-08-24T13:42:55Z</time>
      </trkpt>
      <trkpt lat="47.364067509770393" lon="11.111926836892962">
        <ele>1204.669189453125</ele>
        <time>2013-08-24T13:43:03Z</time>
      </trkpt>
      <trkpt lat="47.364005567505956" lon="11.112069748342037">
        <ele>1202.74658203125</ele>
        <time>2013-08-24T13:43:09Z</time>
      </trkpt>
      <trkpt lat="47.363723767921329" lon="11.112412819638848">
        <ele>1201.3046875</ele>
        <time>2013-08-24T13:43:16Z</time>
      </trkpt>
      <trkpt lat="47.363554118201137" lon="11.11253117211163">
        <ele>1201.3046875</ele>
        <time>2013-08-24T13:43:17Z</time>
      </trkpt>
      <trkpt lat="47.363332081586123" lon="11.112695625051856">
        <ele>1201.3046875</ele>
        <time>2013-08-24T13:43:21Z</time>
      </trkpt>
      <trkpt lat="47.363237785175443" lon="11.11247350461781">
        <ele>1201.3046875</ele>
        <time>2013-08-24T13:43:34Z</time>
      </trkpt>
      <trkpt lat="47.363154552876949" lon="11.112427152693272">
        <ele>1201.3046875</ele>
        <time>2013-08-24T13:43:39Z</time>
      </trkpt>
      <trkpt lat="47.363065704703331" lon="11.112394547089934">
        <ele>1200.343505859375</ele>
        <time>2013-08-24T13:43:43Z</time>
      </trkpt>
      <trkpt lat="47.36298942938447" lon="11.112431846559048">
        <ele>1199.382080078125</ele>
        <time>2013-08-24T13:43:45Z</time>
      </trkpt>
      <trkpt lat="47.362947771325707" lon="11.112444251775742">
        <ele>1199.382080078125</ele>
        <time>2013-08-24T13:43:46Z</time>
      </trkpt>
      <trkpt lat="47.362797316163778" lon="11.112541230395436">
        <ele>1199.382080078125</ele>
        <time>2013-08-24T13:43:50Z</time>
      </trkpt>
      <trkpt lat="47.362543595954776" lon="11.112807774916291">
        <ele>1197.940185546875</ele>
        <time>2013-08-24T13:43:56Z</time>
      </trkpt>
      <trkpt lat="47.362361708655953" lon="11.113050682470202">
        <ele>1197.940185546875</ele>
        <time>2013-08-24T13:44:01Z</time>
      </trkpt>
      <trkpt lat="47.362329605966806" lon="11.11310918815434">
        <ele>1198.420654296875</ele>
        <time>2013-08-24T13:44:02Z</time>
      </trkpt>
      <trkpt lat="47.362256599590182" lon="11.113210525363684">
        <ele>1197.940185546875</ele>
        <time>2013-08-24T13:44:04Z</time>
      </trkpt>
      <trkpt lat="47.362165153026581" lon="11.113485200330615">
        <ele>1196.978759765625</ele>
        <time>2013-08-24T13:44:08Z</time>
      </trkpt>
      <trkpt lat="47.362153418362141" lon="11.113769849762321">
        <ele>1195.055908203125</ele>
        <time>2013-08-24T13:44:11Z</time>
      </trkpt>
      <trkpt lat="47.362088710069656" lon="11.114100432023406">
        <ele>1194.5751953125</ele>
        <time>2013-08-24T13:44:15Z</time>
      </trkpt>
      <trkpt lat="47.362008998170495" lon="11.114936610683799">
        <ele>1194.0947265625</ele>
        <time>2013-08-24T13:44:24Z</time>
      </trkpt>
      <trkpt lat="47.361935321241617" lon="11.115587968379259">
        <ele>1194.0947265625</ele>
        <time>2013-08-24T13:44:31Z</time>
      </trkpt>
      <trkpt lat="47.361771371215582" lon="11.115995328873396">
        <ele>1191.210693359375</ele>
        <time>2013-08-24T13:44:36Z</time>
      </trkpt>
      <trkpt lat="47.361408937722445" lon="11.116717848926783">
        <ele>1189.768798828125</ele>
        <time>2013-08-24T13:44:45Z</time>
      </trkpt>
      <trkpt lat="47.36116636544466" lon="11.117608174681664">
        <ele>1188.8076171875</ele>
        <time>2013-08-24T13:44:55Z</time>
      </trkpt>
      <trkpt lat="47.361087240278721" lon="11.117852590978146">
        <ele>1188.326904296875</ele>
        <time>2013-08-24T13:44:58Z</time>
      </trkpt>
      <trkpt lat="47.361007193103433" lon="11.118188872933388">
        <ele>1188.326904296875</ele>
        <time>2013-08-24T13:45:02Z</time>
      </trkpt>
      <trkpt lat="47.36101146787405" lon="11.118674101307988">
        <ele>1187.84619140625</ele>
        <time>2013-08-24T13:45:07Z</time>
      </trkpt>
      <trkpt lat="47.361018424853683" lon="11.118861772119999">
        <ele>1187.84619140625</ele>
        <time>2013-08-24T13:45:09Z</time>
      </trkpt>
      <trkpt lat="47.361025214195251" lon="11.119567863643169">
        <ele>1187.84619140625</ele>
        <time>2013-08-24T13:45:17Z</time>
      </trkpt>
      <trkpt lat="47.361025800928473" lon="11.119641121476889">
        <ele>1187.365478515625</ele>
        <time>2013-08-24T13:45:18Z</time>
      </trkpt>
      <trkpt lat="47.361021190881729" lon="11.119960974901915">
        <ele>1186.404296875</ele>
        <time>2013-08-24T13:45:22Z</time>
      </trkpt>
      <trkpt lat="47.361027309671044" lon="11.12029641866684">
        <ele>1186.884765625</ele>
        <time>2013-08-24T13:45:27Z</time>
      </trkpt>
      <trkpt lat="47.36105052754283" lon="11.120343022048473">
        <ele>1184.96240234375</ele>
        <time>2013-08-24T13:45:28Z</time>
      </trkpt>
      <trkpt lat="47.36111163161695" lon="11.120479144155979">
        <ele>1185.923583984375</ele>
        <time>2013-08-24T13:45:30Z</time>
      </trkpt>
      <trkpt lat="47.361183129251003" lon="11.120819030329585">
        <ele>1184.481689453125</ele>
        <time>2013-08-24T13:45:34Z</time>
      </trkpt>
      <trkpt lat="47.361204167827964" lon="11.121379528194666">
        <ele>1183.520263671875</ele>
        <time>2013-08-24T13:45:41Z</time>
      </trkpt>
      <trkpt lat="47.361047007143497" lon="11.121912784874439">
        <ele>1184.0009765625</ele>
        <time>2013-08-24T13:45:48Z</time>
      </trkpt>
      <trkpt lat="47.36095329746604" lon="11.122148735448718">
        <ele>1183.520263671875</ele>
        <time>2013-08-24T13:45:52Z</time>
      </trkpt>
      <trkpt lat="47.36089713871479" lon="11.122254598885775">
        <ele>1184.481689453125</ele>
        <time>2013-08-24T13:45:55Z</time>
      </trkpt>
      <trkpt lat="47.360865790396929" lon="11.122338082641363">
        <ele>1185.44287109375</ele>
        <time>2013-08-24T13:46:01Z</time>
      </trkpt>
      <trkpt lat="47.360864533111453" lon="11.12234428524971">
        <ele>1185.44287109375</ele>
        <time>2013-08-24T13:46:16Z</time>
      </trkpt>
      <trkpt lat="47.360837375745177" lon="11.122424332424998">
        <ele>1184.0009765625</ele>
        <time>2013-08-24T13:46:20Z</time>
      </trkpt>
      <trkpt lat="47.360823294147849" lon="11.12248451448977">
        <ele>1182.55908203125</ele>
        <time>2013-08-24T13:46:21Z</time>
      </trkpt>
      <trkpt lat="47.360774176195264" lon="11.122827418148518">
        <ele>1182.078369140625</ele>
        <time>2013-08-24T13:46:25Z</time>
      </trkpt>
      <trkpt lat="47.360736709088087" lon="11.123094884678721">
        <ele>1181.59765625</ele>
        <time>2013-08-24T13:46:28Z</time>
      </trkpt>
      <trkpt lat="47.360657835379243" lon="11.123538454994559">
        <ele>1179.194091796875</ele>
        <time>2013-08-24T13:46:33Z</time>
      </trkpt>
      <trkpt lat="47.360639562830329" lon="11.123818159103394">
        <ele>1179.194091796875</ele>
        <time>2013-08-24T13:46:36Z</time>
      </trkpt>
      <trkpt lat="47.360646184533834" lon="11.124130552634597">
        <ele>1179.194091796875</ele>
        <time>2013-08-24T13:46:39Z</time>
      </trkpt>
      <trkpt lat="47.360511403530836" lon="11.124875620007515">
        <ele>1176.791015625</ele>
        <time>2013-08-24T13:46:47Z</time>
      </trkpt>
      <trkpt lat="47.36046421341598" lon="11.125105870887637">
        <ele>1176.791015625</ele>
        <time>2013-08-24T13:46:49Z</time>
      </trkpt>
      <trkpt lat="47.360418699681759" lon="11.1255843937397">
        <ele>1176.310302734375</ele>
        <time>2013-08-24T13:46:53Z</time>
      </trkpt>
      <trkpt lat="47.360512409359217" lon="11.126851234585047">
        <ele>1174.868408203125</ele>
        <time>2013-08-24T13:47:04Z</time>
      </trkpt>
      <trkpt lat="47.360608046874404" lon="11.12780811265111">
        <ele>1173.906982421875</ele>
        <time>2013-08-24T13:47:13Z</time>
      </trkpt>
      <trkpt lat="47.360634617507458" lon="11.128023443743587">
        <ele>1172.94580078125</ele>
        <time>2013-08-24T13:47:15Z</time>
      </trkpt>
      <trkpt lat="47.360675185918808" lon="11.128310775384307">
        <ele>1171.984375</ele>
        <time>2013-08-24T13:47:18Z</time>
      </trkpt>
      <trkpt lat="47.36073880456388" lon="11.128789633512497">
        <ele>1172.94580078125</ele>
        <time>2013-08-24T13:47:23Z</time>
      </trkpt>
      <trkpt lat="47.360976347699761" lon="11.129739889875054">
        <ele>1171.023193359375</ele>
        <time>2013-08-24T13:47:33Z</time>
      </trkpt>
      <trkpt lat="47.361007360741496" lon="11.12992487847805">
        <ele>1170.061767578125</ele>
        <time>2013-08-24T13:47:35Z</time>
      </trkpt>
      <trkpt lat="47.361292177811265" lon="11.130502978339791">
        <ele>1171.023193359375</ele>
        <time>2013-08-24T13:47:42Z</time>
      </trkpt>
      <trkpt lat="47.361496863886714" lon="11.130870776250958">
        <ele>1170.061767578125</ele>
        <time>2013-08-24T13:47:47Z</time>
      </trkpt>
      <trkpt lat="47.361624017357826" lon="11.131249302998185">
        <ele>1170.54248046875</ele>
        <time>2013-08-24T13:47:52Z</time>
      </trkpt>
      <trkpt lat="47.361627956852317" lon="11.13132038153708">
        <ele>1170.061767578125</ele>
        <time>2013-08-24T13:47:53Z</time>
      </trkpt>
      <trkpt lat="47.361631561070681" lon="11.131499418988824">
        <ele>1169.581298828125</ele>
        <time>2013-08-24T13:47:55Z</time>
      </trkpt>
      <trkpt lat="47.361684953793883" lon="11.132075255736709">
        <ele>1169.581298828125</ele>
        <time>2013-08-24T13:48:01Z</time>
      </trkpt>
      <trkpt lat="47.361769611015916" lon="11.132430899888277">
        <ele>1171.023193359375</ele>
        <time>2013-08-24T13:48:07Z</time>
      </trkpt>
      <trkpt lat="47.361818561330438" lon="11.132707083597779">
        <ele>1169.581298828125</ele>
        <time>2013-08-24T13:48:13Z</time>
      </trkpt>
      <trkpt lat="47.361849239096045" lon="11.132992152124643">
        <ele>1167.177978515625</ele>
        <time>2013-08-24T13:48:18Z</time>
      </trkpt>
      <trkpt lat="47.361857453361154" lon="11.133083766326308">
        <ele>1167.177978515625</ele>
        <time>2013-08-24T13:48:19Z</time>
      </trkpt>
      <trkpt lat="47.361856950446963" lon="11.133373193442822">
        <ele>1166.216552734375</ele>
        <time>2013-08-24T13:48:22Z</time>
      </trkpt>
      <trkpt lat="47.361813867464662" lon="11.133651891723275">
        <ele>1167.177978515625</ele>
        <time>2013-08-24T13:48:25Z</time>
      </trkpt>
      <trkpt lat="47.361834067851305" lon="11.134137203916907">
        <ele>1167.177978515625</ele>
        <time>2013-08-24T13:48:31Z</time>
      </trkpt>
      <trkpt lat="47.361860889941454" lon="11.134419003501534">
        <ele>1167.177978515625</ele>
        <time>2013-08-24T13:48:34Z</time>
      </trkpt>
      <trkpt lat="47.361922916024923" lon="11.134811360388994">
        <ele>1166.697265625</ele>
        <time>2013-08-24T13:48:38Z</time>
      </trkpt>
      <trkpt lat="47.36195451579988" lon="11.135099194943905">
        <ele>1167.177978515625</ele>
        <time>2013-08-24T13:48:41Z</time>
      </trkpt>
      <trkpt lat="47.361983768641949" lon="11.13544880412519">
        <ele>1164.2939453125</ele>
        <time>2013-08-24T13:48:45Z</time>
      </trkpt>
      <trkpt lat="47.361973207443953" lon="11.135955238714814">
        <ele>1164.2939453125</ele>
        <time>2013-08-24T13:48:50Z</time>
      </trkpt>
      <trkpt lat="47.361952336505055" lon="11.136674741283059">
        <ele>1163.33251953125</ele>
        <time>2013-08-24T13:48:57Z</time>
      </trkpt>
      <trkpt lat="47.361994329839945" lon="11.137327859178185">
        <ele>1162.851806640625</ele>
        <time>2013-08-24T13:49:03Z</time>
      </trkpt>
      <trkpt lat="47.362072030082345" lon="11.137771094217896">
        <ele>1161.890625</ele>
        <time>2013-08-24T13:49:07Z</time>
      </trkpt>
      <trkpt lat="47.362121399492025" lon="11.138025652617216">
        <ele>1161.890625</ele>
        <time>2013-08-24T13:49:10Z</time>
      </trkpt>
      <trkpt lat="47.362186945974827" lon="11.138342572376132">
        <ele>1162.37109375</ele>
        <time>2013-08-24T13:49:15Z</time>
      </trkpt>
      <trkpt lat="47.362397834658623" lon="11.138689666986465">
        <ele>1161.409912109375</ele>
        <time>2013-08-24T13:49:20Z</time>
      </trkpt>
      <trkpt lat="47.362753143534064" lon="11.139092417433858">
        <ele>1160.448486328125</ele>
        <time>2013-08-24T13:49:26Z</time>
      </trkpt>
      <trkpt lat="47.36300116404891" lon="11.139347646385431">
        <ele>1160.448486328125</ele>
        <time>2013-08-24T13:49:30Z</time>
      </trkpt>
      <trkpt lat="47.363151451572776" lon="11.139549901708961">
        <ele>1159.006591796875</ele>
        <time>2013-08-24T13:49:33Z</time>
      </trkpt>
      <trkpt lat="47.363446326926351" lon="11.139910658821464">
        <ele>1157.564697265625</ele>
        <time>2013-08-24T13:49:38Z</time>
      </trkpt>
      <trkpt lat="47.363638021051884" lon="11.140090534463525">
        <ele>1159.006591796875</ele>
        <time>2013-08-24T13:49:41Z</time>
      </trkpt>
      <trkpt lat="47.36394077539444" lon="11.140329502522945">
        <ele>1158.04541015625</ele>
        <time>2013-08-24T13:49:45Z</time>
      </trkpt>
      <trkpt lat="47.364157950505614" lon="11.140594286844134">
        <ele>1159.4873046875</ele>
        <time>2013-08-24T13:49:51Z</time>
      </trkpt>
      <trkpt lat="47.364234728738666" lon="11.140658156946301">
        <ele>1159.9677734375</ele>
        <time>2013-08-24T13:49:53Z</time>
      </trkpt>
      <trkpt lat="47.364338496699929" lon="11.140827555209398">
        <ele>1161.890625</ele>
        <time>2013-08-24T13:49:58Z</time>
      </trkpt>
      <trkpt lat="47.36436196602881" lon="11.140887569636106">
        <ele>1160.448486328125</ele>
        <time>2013-08-24T13:49:59Z</time>
      </trkpt>
      <trkpt lat="47.364420052617788" lon="11.141031319275498">
        <ele>1159.006591796875</ele>
        <time>2013-08-24T13:50:01Z</time>
      </trkpt>
      <trkpt lat="47.364463806152344" lon="11.141199460253119">
        <ele>1157.083984375</ele>
        <time>2013-08-24T13:50:03Z</time>
      </trkpt>
      <trkpt lat="47.364523150026798" lon="11.141488384455442">
        <ele>1156.12255859375</ele>
        <time>2013-08-24T13:50:06Z</time>
      </trkpt>
      <trkpt lat="47.364678299054503" lon="11.141786277294159">
        <ele>1157.083984375</ele>
        <time>2013-08-24T13:50:09Z</time>
      </trkpt>
      <trkpt lat="47.364825736731291" lon="11.142035303637385">
        <ele>1156.12255859375</ele>
        <time>2013-08-24T13:50:12Z</time>
      </trkpt>
      <trkpt lat="47.365098400041461" lon="11.142701916396618">
        <ele>1153.719482421875</ele>
        <time>2013-08-24T13:50:18Z</time>
      </trkpt>
      <trkpt lat="47.365180207416415" lon="11.142912972718477">
        <ele>1154.6806640625</ele>
        <time>2013-08-24T13:50:20Z</time>
      </trkpt>
      <trkpt lat="47.365298559889197" lon="11.143228886649013">
        <ele>1153.23876953125</ele>
        <time>2013-08-24T13:50:23Z</time>
      </trkpt>
      <trkpt lat="47.365373913198709" lon="11.143424436450005">
        <ele>1152.758056640625</ele>
        <time>2013-08-24T13:50:25Z</time>
      </trkpt>
      <trkpt lat="47.365527553483844" lon="11.143746552988887">
        <ele>1153.23876953125</ele>
        <time>2013-08-24T13:50:29Z</time>
      </trkpt>
      <trkpt lat="47.365766437724233" lon="11.144221806898713">
        <ele>1153.719482421875</ele>
        <time>2013-08-24T13:50:35Z</time>
      </trkpt>
      <trkpt lat="47.365930723026395" lon="11.144487513229251">
        <ele>1153.23876953125</ele>
        <time>2013-08-24T13:50:39Z</time>
      </trkpt>
      <trkpt lat="47.366222497075796" lon="11.144716003909707">
        <ele>1151.796875</ele>
        <time>2013-08-24T13:50:44Z</time>
      </trkpt>
      <trkpt lat="47.366570429876447" lon="11.145058153197169">
        <ele>1150.83544921875</ele>
        <time>2013-08-24T13:50:50Z</time>
      </trkpt>
      <trkpt lat="47.366625666618347" lon="11.145113641396165">
        <ele>1151.316162109375</ele>
        <time>2013-08-24T13:50:51Z</time>
      </trkpt>
      <trkpt lat="47.366784084588289" lon="11.145363673567772">
        <ele>1150.35498046875</ele>
        <time>2013-08-24T13:50:55Z</time>
      </trkpt>
      <trkpt lat="47.367136878892779" lon="11.145618567243218">
        <ele>1149.874267578125</ele>
        <time>2013-08-24T13:51:02Z</time>
      </trkpt>
      <trkpt lat="47.367663262411952" lon="11.14581705071032">
        <ele>1150.35498046875</ele>
        <time>2013-08-24T13:51:09Z</time>
      </trkpt>
      <trkpt lat="47.367840874940157" lon="11.145849656313658">
        <ele>1150.35498046875</ele>
        <time>2013-08-24T13:51:11Z</time>
      </trkpt>
      <trkpt lat="47.368038352578878" lon="11.145854014903307">
        <ele>1150.35498046875</ele>
        <time>2013-08-24T13:51:14Z</time>
      </trkpt>
      <trkpt lat="47.368560545146465" lon="11.145949065685272">
        <ele>1152.758056640625</ele>
        <time>2013-08-24T13:51:21Z</time>
      </trkpt>
      <trkpt lat="47.36878601834178" lon="11.146105723455548">
        <ele>1152.758056640625</ele>
        <time>2013-08-24T13:51:26Z</time>
      </trkpt>
      <trkpt lat="47.368816612288356" lon="11.146201025694609">
        <ele>1154.2001953125</ele>
        <time>2013-08-24T13:51:29Z</time>
      </trkpt>
      <trkpt lat="47.368782414123416" lon="11.146246455609798">
        <ele>1155.161376953125</ele>
        <time>2013-08-24T13:51:32Z</time>
      </trkpt>
      <trkpt lat="47.368802279233932" lon="11.146283922716975">
        <ele>1155.64208984375</ele>
        <time>2013-08-24T13:51:34Z</time>
      </trkpt>
      <trkpt lat="47.368850726634264" lon="11.146360281854868">
        <ele>1156.603271484375</ele>
        <time>2013-08-24T13:51:38Z</time>
      </trkpt>
      <trkpt lat="47.368965307250619" lon="11.146549796685576">
        <ele>1158.52587890625</ele>
        <time>2013-08-24T13:51:43Z</time>
      </trkpt>
      <trkpt lat="47.369094807654619" lon="11.146728079766035">
        <ele>1159.9677734375</ele>
        <time>2013-08-24T13:51:50Z</time>
      </trkpt>
      <trkpt lat="47.369119618088007" lon="11.146802846342325">
        <ele>1160.448486328125</ele>
        <time>2013-08-24T13:51:53Z</time>
      </trkpt>
      <trkpt lat="47.369139064103365" lon="11.146905021741986">
        <ele>1161.409912109375</ele>
        <time>2013-08-24T13:51:57Z</time>
      </trkpt>
      <trkpt lat="47.369160102680326" lon="11.146962773054838">
        <ele>1161.409912109375</ele>
        <time>2013-08-24T13:52:00Z</time>
      </trkpt>
      <trkpt lat="47.369180470705032" lon="11.147062182426453">
        <ele>1162.37109375</ele>
        <time>2013-08-24T13:52:04Z</time>
      </trkpt>
      <trkpt lat="47.369183823466301" lon="11.147109540179372">
        <ele>1161.890625</ele>
        <time>2013-08-24T13:52:06Z</time>
      </trkpt>
      <trkpt lat="47.369170160964131" lon="11.147300899028778">
        <ele>1163.33251953125</ele>
        <time>2013-08-24T13:52:13Z</time>
      </trkpt>
      <trkpt lat="47.369176615029573" lon="11.147387316450477">
        <ele>1163.33251953125</ele>
        <time>2013-08-24T13:52:17Z</time>
      </trkpt>
      <trkpt lat="47.369191283360124" lon="11.147589823231101">
        <ele>1162.37109375</ele>
        <time>2013-08-24T13:52:22Z</time>
      </trkpt>
      <trkpt lat="47.369189271703362" lon="11.147675570100546">
        <ele>1161.409912109375</ele>
        <time>2013-08-24T13:52:24Z</time>
      </trkpt>
      <trkpt lat="47.369192959740758" lon="11.147764250636101">
        <ele>1160.92919921875</ele>
        <time>2013-08-24T13:52:26Z</time>
      </trkpt>
      <trkpt lat="47.369304774329066" lon="11.147996848449111">
        <ele>1160.448486328125</ele>
        <time>2013-08-24T13:52:30Z</time>
      </trkpt>
      <trkpt lat="47.369498563930392" lon="11.148303877562284">
        <ele>1160.448486328125</ele>
        <time>2013-08-24T13:52:35Z</time>
      </trkpt>
      <trkpt lat="47.369599733501673" lon="11.148574026301503">
        <ele>1159.9677734375</ele>
        <time>2013-08-24T13:52:40Z</time>
      </trkpt>
      <trkpt lat="47.369873067364097" lon="11.149095967411995">
        <ele>1160.92919921875</ele>
        <time>2013-08-24T13:52:48Z</time>
      </trkpt>
      <trkpt lat="47.369928387925029" lon="11.149222115054727">
        <ele>1160.92919921875</ele>
        <time>2013-08-24T13:52:50Z</time>
      </trkpt>
      <trkpt lat="47.370054954662919" lon="11.14948027767241">
        <ele>1158.52587890625</ele>
        <time>2013-08-24T13:52:55Z</time>
      </trkpt>
      <trkpt lat="47.370086554437876" lon="11.149515900760889">
        <ele>1158.04541015625</ele>
        <time>2013-08-24T13:52:56Z</time>
      </trkpt>
      <trkpt lat="47.370238266885281" lon="11.149669624865055">
        <ele>1154.2001953125</ele>
        <time>2013-08-24T13:52:59Z</time>
      </trkpt>
      <trkpt lat="47.370389979332685" lon="11.150005403906107">
        <ele>1150.35498046875</ele>
        <time>2013-08-24T13:53:03Z</time>
      </trkpt>
      <trkpt lat="47.370594497770071" lon="11.150375716388226">
        <ele>1145.0673828125</ele>
        <time>2013-08-24T13:53:06Z</time>
      </trkpt>
      <trkpt lat="47.370715783908963" lon="11.150579648092389">
        <ele>1144.586669921875</ele>
        <time>2013-08-24T13:53:08Z</time>
      </trkpt>
      <trkpt lat="47.370910411700606" lon="11.15089874714613">
        <ele>1143.62548828125</ele>
        <time>2013-08-24T13:53:11Z</time>
      </trkpt>
      <trkpt lat="47.371133202686906" lon="11.151143498718739">
        <ele>1140.741455078125</ele>
        <time>2013-08-24T13:53:14Z</time>
      </trkpt>
      <trkpt lat="47.371288519352674" lon="11.151389507576823">
        <ele>1141.22216796875</ele>
        <time>2013-08-24T13:53:17Z</time>
      </trkpt>
      <trkpt lat="47.371658328920603" lon="11.151743559166789">
        <ele>1144.106201171875</ele>
        <time>2013-08-24T13:53:23Z</time>
      </trkpt>
      <trkpt lat="47.372020930051804" lon="11.15194346755743">
        <ele>1144.106201171875</ele>
        <time>2013-08-24T13:53:27Z</time>
      </trkpt>
      <trkpt lat="47.372155291959643" lon="11.152179585769773">
        <ele>1142.664306640625</ele>
        <time>2013-08-24T13:53:33Z</time>
      </trkpt>
      <trkpt lat="47.372200135141611" lon="11.152352001518011">
        <ele>1139.299560546875</ele>
        <time>2013-08-24T13:53:36Z</time>
      </trkpt>
      <trkpt lat="47.372218407690525" lon="11.152448561042547">
        <ele>1138.819091796875</ele>
        <time>2013-08-24T13:53:37Z</time>
      </trkpt>
      <trkpt lat="47.372353272512555" lon="11.152809737250209">
        <ele>1138.819091796875</ele>
        <time>2013-08-24T13:53:42Z</time>
      </trkpt>
      <trkpt lat="47.37244488671422" lon="11.152872769162059">
        <ele>1141.22216796875</ele>
        <time>2013-08-24T13:53:45Z</time>
      </trkpt>
      <trkpt lat="47.372507834807038" lon="11.15286061540246">
        <ele>1140.741455078125</ele>
        <time>2013-08-24T13:53:52Z</time>
      </trkpt>
      <trkpt lat="47.372624929994345" lon="11.152859944850206">
        <ele>1139.7802734375</ele>
        <time>2013-08-24T13:54:01Z</time>
      </trkpt>
      <trkpt lat="47.372720148414373" lon="11.152864303439856">
        <ele>1139.7802734375</ele>
        <time>2013-08-24T13:54:11Z</time>
      </trkpt>
      <trkpt lat="47.372719394043088" lon="11.152861453592777">
        <ele>1142.18359375</ele>
        <time>2013-08-24T13:54:16Z</time>
      </trkpt>
      <trkpt lat="47.372756693512201" lon="11.152936639264226">
        <ele>1138.819091796875</ele>
        <time>2013-08-24T13:54:19Z</time>
      </trkpt>
      <trkpt lat="47.372770775109529" lon="11.152991876006126">
        <ele>1138.819091796875</ele>
        <time>2013-08-24T13:54:20Z</time>
      </trkpt>
      <trkpt lat="47.372820228338242" lon="11.153194215148687">
        <ele>1136.896240234375</ele>
        <time>2013-08-24T13:54:23Z</time>
      </trkpt>
      <trkpt lat="47.37284361384809" lon="11.153354309499264">
        <ele>1137.857666015625</ele>
        <time>2013-08-24T13:54:25Z</time>
      </trkpt>
      <trkpt lat="47.372963475063443" lon="11.153775164857507">
        <ele>1134.973876953125</ele>
        <time>2013-08-24T13:54:30Z</time>
      </trkpt>
      <trkpt lat="47.372946040704846" lon="11.15401865914464">
        <ele>1136.415771484375</ele>
        <time>2013-08-24T13:54:33Z</time>
      </trkpt>
      <trkpt lat="47.37284068018198" lon="11.154417051002383">
        <ele>1135.454345703125</ele>
        <time>2013-08-24T13:54:38Z</time>
      </trkpt>
      <trkpt lat="47.372818384319544" lon="11.154581168666482">
        <ele>1134.973876953125</ele>
        <time>2013-08-24T13:54:40Z</time>
      </trkpt>
      <trkpt lat="47.372637167572975" lon="11.155089866369963">
        <ele>1135.454345703125</ele>
        <time>2013-08-24T13:54:48Z</time>
      </trkpt>
      <trkpt lat="47.372339610010386" lon="11.155557241290808">
        <ele>1133.53173828125</ele>
        <time>2013-08-24T13:54:57Z</time>
      </trkpt>
      <trkpt lat="47.372148670256138" lon="11.155841136351228">
        <ele>1133.051025390625</ele>
        <time>2013-08-24T13:55:02Z</time>
      </trkpt>
      <trkpt lat="47.372006429359317" lon="11.156419487670064">
        <ele>1133.051025390625</ele>
        <time>2013-08-24T13:55:09Z</time>
      </trkpt>
      <trkpt lat="47.371954126283526" lon="11.157078137621284">
        <ele>1131.60888671875</ele>
        <time>2013-08-24T13:55:16Z</time>
      </trkpt>
      <trkpt lat="47.371943816542625" lon="11.157583314925432">
        <ele>1130.1669921875</ele>
        <time>2013-08-24T13:55:22Z</time>
      </trkpt>
      <trkpt lat="47.371920514851809" lon="11.158082960173488">
        <ele>1129.20556640625</ele>
        <time>2013-08-24T13:55:28Z</time>
      </trkpt>
      <trkpt lat="47.371858824044466" lon="11.158865159377456">
        <ele>1128.72509765625</ele>
        <time>2013-08-24T13:55:37Z</time>
      </trkpt>
      <trkpt lat="47.371819764375687" lon="11.159231197088957">
        <ele>1129.20556640625</ele>
        <time>2013-08-24T13:55:41Z</time>
      </trkpt>
      <trkpt lat="47.371825212612748" lon="11.159865707159042">
        <ele>1129.20556640625</ele>
        <time>2013-08-24T13:55:48Z</time>
      </trkpt>
      <trkpt lat="47.371791349723935" lon="11.160226631909609">
        <ele>1128.244384765625</ele>
        <time>2013-08-24T13:55:52Z</time>
      </trkpt>
      <trkpt lat="47.371781375259161" lon="11.160502899438143">
        <ele>1128.72509765625</ele>
        <time>2013-08-24T13:55:55Z</time>
      </trkpt>
      <trkpt lat="47.371839629486203" lon="11.160772042348981">
        <ele>1126.802490234375</ele>
        <time>2013-08-24T13:55:58Z</time>
      </trkpt>
      <trkpt lat="47.371980864554644" lon="11.16127135232091">
        <ele>1126.32177734375</ele>
        <time>2013-08-24T13:56:04Z</time>
      </trkpt>
      <trkpt lat="47.372085219249129" lon="11.161480816081166">
        <ele>1126.32177734375</ele>
        <time>2013-08-24T13:56:07Z</time>
      </trkpt>
      <trkpt lat="47.37235888838768" lon="11.162181040272117">
        <ele>1125.3603515625</ele>
        <time>2013-08-24T13:56:16Z</time>
      </trkpt>
      <trkpt lat="47.372495429590344" lon="11.162527799606323">
        <ele>1125.3603515625</ele>
        <time>2013-08-24T13:56:21Z</time>
      </trkpt>
      <trkpt lat="47.372695840895176" lon="11.162978913635015">
        <ele>1127.283203125</ele>
        <time>2013-08-24T13:56:29Z</time>
      </trkpt>
      <trkpt lat="47.372802291065454" lon="11.163195921108127">
        <ele>1127.283203125</ele>
        <time>2013-08-24T13:56:35Z</time>
      </trkpt>
      <trkpt lat="47.372820479795337" lon="11.163403205573559">
        <ele>1124.399169921875</ele>
        <time>2013-08-24T13:56:39Z</time>
      </trkpt>
      <trkpt lat="47.372798100113869" lon="11.163540668785572">
        <ele>1124.8798828125</ele>
        <time>2013-08-24T13:56:41Z</time>
      </trkpt>
      <trkpt lat="47.372778989374638" lon="11.16376580670476">
        <ele>1123.91845703125</ele>
        <time>2013-08-24T13:56:44Z</time>
      </trkpt>
      <trkpt lat="47.37288024276495" lon="11.164185237139463">
        <ele>1122.957275390625</ele>
        <time>2013-08-24T13:56:49Z</time>
      </trkpt>
      <trkpt lat="47.37321887165308" lon="11.164954695850611">
        <ele>1122.957275390625</ele>
        <time>2013-08-24T13:56:59Z</time>
      </trkpt>
      <trkpt lat="47.37358583137393" lon="11.165587697178125">
        <ele>1122.4765625</ele>
        <time>2013-08-24T13:57:08Z</time>
      </trkpt>
      <trkpt lat="47.373913815245032" lon="11.166210053488612">
        <ele>1120.553955078125</ele>
        <time>2013-08-24T13:57:17Z</time>
      </trkpt>
      <trkpt lat="47.374223191291094" lon="11.166748842224479">
        <ele>1119.5927734375</ele>
        <time>2013-08-24T13:57:25Z</time>
      </trkpt>
      <trkpt lat="47.374630551785231" lon="11.167400619015098">
        <ele>1119.112060546875</ele>
        <time>2013-08-24T13:57:35Z</time>
      </trkpt>
      <trkpt lat="47.375145787373185" lon="11.168148703873158">
        <ele>1118.150634765625</ele>
        <time>2013-08-24T13:57:47Z</time>
      </trkpt>
      <trkpt lat="47.37560142762959" lon="11.168871894478798">
        <ele>1118.150634765625</ele>
        <time>2013-08-24T13:57:58Z</time>
      </trkpt>
      <trkpt lat="47.376008369028568" lon="11.169395847246051">
        <ele>1117.669921875</ele>
        <time>2013-08-24T13:58:07Z</time>
      </trkpt>
      <trkpt lat="47.376129403710365" lon="11.169562563300133">
        <ele>1118.63134765625</ele>
        <time>2013-08-24T13:58:10Z</time>
      </trkpt>
      <trkpt lat="47.376236775889993" lon="11.169688459485769">
        <ele>1119.5927734375</ele>
        <time>2013-08-24T13:58:14Z</time>
      </trkpt>
      <trkpt lat="47.376223616302013" lon="11.169661721214652">
        <ele>1119.112060546875</ele>
        <time>2013-08-24T13:58:31Z</time>
      </trkpt>
      <trkpt lat="47.376232333481312" lon="11.169664403423667">
        <ele>1119.112060546875</ele>
        <time>2013-08-24T13:58:43Z</time>
      </trkpt>
      <trkpt lat="47.376391757279634" lon="11.169545715674758">
        <ele>1119.112060546875</ele>
        <time>2013-08-24T13:58:50Z</time>
      </trkpt>
      <trkpt lat="47.37668227404356" lon="11.169427027925849">
        <ele>1118.63134765625</ele>
        <time>2013-08-24T13:58:58Z</time>
      </trkpt>
      <trkpt lat="47.376766847446561" lon="11.16949207149446">
        <ele>1117.189453125</ele>
        <time>2013-08-24T13:59:01Z</time>
      </trkpt>
      <trkpt lat="47.376838345080614" lon="11.169781247153878">
        <ele>1116.708740234375</ele>
        <time>2013-08-24T13:59:05Z</time>
      </trkpt>
      <trkpt lat="47.376924259588122" lon="11.169903455302119">
        <ele>1117.189453125</ele>
        <time>2013-08-24T13:59:07Z</time>
      </trkpt>
      <trkpt lat="47.376991230994463" lon="11.17022305727005">
        <ele>1115.2666015625</ele>
        <time>2013-08-24T13:59:13Z</time>
      </trkpt>
      <trkpt lat="47.376957284286618" lon="11.170337554067373">
        <ele>1114.30517578125</ele>
        <time>2013-08-24T13:59:15Z</time>
      </trkpt>
      <trkpt lat="47.376917637884617" lon="11.170436628162861">
        <ele>1115.747314453125</ele>
        <time>2013-08-24T13:59:17Z</time>
      </trkpt>
      <trkpt lat="47.376963822171092" lon="11.17071121931076">
        <ele>1115.747314453125</ele>
        <time>2013-08-24T13:59:22Z</time>
      </trkpt>
      <trkpt lat="47.376955104991794" lon="11.170769641175866">
        <ele>1114.785888671875</ele>
        <time>2013-08-24T13:59:23Z</time>
      </trkpt>
      <trkpt lat="47.376804314553738" lon="11.17101757787168">
        <ele>1114.30517578125</ele>
        <time>2013-08-24T13:59:29Z</time>
      </trkpt>
      <trkpt lat="47.376821748912334" lon="11.171106593683362">
        <ele>1114.785888671875</ele>
        <time>2013-08-24T13:59:34Z</time>
      </trkpt>
      <trkpt lat="47.37685670144856" lon="11.171134589239955">
        <ele>1114.785888671875</ele>
        <time>2013-08-24T13:59:36Z</time>
      </trkpt>
      <trkpt lat="47.376987710595131" lon="11.171185886487365">
        <ele>1112.86328125</ele>
        <time>2013-08-24T13:59:41Z</time>
      </trkpt>
      <trkpt lat="47.377007659524679" lon="11.171196363866329">
        <ele>1112.382568359375</ele>
        <time>2013-08-24T13:59:42Z</time>
      </trkpt>
      <trkpt lat="47.377265905961394" lon="11.171256545931101">
        <ele>1111.902099609375</ele>
        <time>2013-08-24T13:59:46Z</time>
      </trkpt>
      <trkpt lat="47.377825733274221" lon="11.171354278922081">
        <ele>1111.902099609375</ele>
        <time>2013-08-24T13:59:53Z</time>
      </trkpt>
      <trkpt lat="47.37821850925684" lon="11.171429548412561">
        <ele>1109.979248046875</ele>
        <time>2013-08-24T13:59:58Z</time>
      </trkpt>
      <trkpt lat="47.378368964418769" lon="11.171471625566483">
        <ele>1110.4599609375</ele>
        <time>2013-08-24T14:00:00Z</time>
      </trkpt>
      <trkpt lat="47.378627043217421" lon="11.171564999967813">
        <ele>1109.979248046875</ele>
        <time>2013-08-24T14:00:03Z</time>
      </trkpt>
      <trkpt lat="47.379107493907213" lon="11.171678742393851">
        <ele>1108.537353515625</ele>
        <time>2013-08-24T14:00:09Z</time>
      </trkpt>
      <trkpt lat="47.379322489723563" lon="11.171691985800862">
        <ele>1109.979248046875</ele>
        <time>2013-08-24T14:00:13Z</time>
      </trkpt>
      <trkpt lat="47.379520973190665" lon="11.17174269631505">
        <ele>1109.01806640625</ele>
        <time>2013-08-24T14:00:18Z</time>
      </trkpt>
      <trkpt lat="47.379621975123882" lon="11.171762058511376">
        <ele>1109.01806640625</ele>
        <time>2013-08-24T14:00:20Z</time>
      </trkpt>
      <trkpt lat="47.379948953166604" lon="11.171824336051941">
        <ele>1108.056884765625</ele>
        <time>2013-08-24T14:00:25Z</time>
      </trkpt>
      <trkpt lat="47.380230166018009" lon="11.171847553923726">
        <ele>1109.01806640625</ele>
        <time>2013-08-24T14:00:31Z</time>
      </trkpt>
      <trkpt lat="47.3805190064013" lon="11.171830454841256">
        <ele>1109.498779296875</ele>
        <time>2013-08-24T14:00:37Z</time>
      </trkpt>
      <trkpt lat="47.380629563704133" lon="11.171819558367133">
        <ele>1108.537353515625</ele>
        <time>2013-08-24T14:00:39Z</time>
      </trkpt>
      <trkpt lat="47.380878841504455" lon="11.171882087364793">
        <ele>1109.979248046875</ele>
        <time>2013-08-24T14:00:43Z</time>
      </trkpt>
      <trkpt lat="47.382402755320072" lon="11.172249466180801">
        <ele>1110.940673828125</ele>
        <time>2013-08-24T14:00:53Z</time>
      </trkpt>
      <trkpt lat="47.382391439750791" lon="11.172376954928041">
        <ele>1110.940673828125</ele>
        <time>2013-08-24T14:00:56Z</time>
      </trkpt>
      <trkpt lat="47.382263112813234" lon="11.172709632664919">
        <ele>1110.940673828125</ele>
        <time>2013-08-24T14:01:04Z</time>
      </trkpt>
      <trkpt lat="47.38223603926599" lon="11.172726145014167">
        <ele>1108.537353515625</ele>
        <time>2013-08-24T14:01:07Z</time>
      </trkpt>
      <trkpt lat="47.382196309044957" lon="11.172706112265587">
        <ele>1108.537353515625</ele>
        <time>2013-08-24T14:01:10Z</time>
      </trkpt>
      <trkpt lat="47.382177785038948" lon="11.172760929912329">
        <ele>1107.576171875</ele>
        <time>2013-08-24T14:01:13Z</time>
      </trkpt>
      <trkpt lat="47.382177282124758" lon="11.172877689823508">
        <ele>1108.537353515625</ele>
        <time>2013-08-24T14:01:21Z</time>
      </trkpt>
      <trkpt lat="47.382171498611569" lon="11.172884395346045">
        <ele>1107.576171875</ele>
        <time>2013-08-24T14:01:27Z</time>
      </trkpt>
      <trkpt lat="47.382219946011901" lon="11.17291834205389">
        <ele>1107.095458984375</ele>
        <time>2013-08-24T14:01:29Z</time>
      </trkpt>
      <trkpt lat="47.382242158055305" lon="11.173208523541689">
        <ele>1107.095458984375</ele>
        <time>2013-08-24T14:01:35Z</time>
      </trkpt>
      <trkpt lat="47.382283061742783" lon="11.173361912369728">
        <ele>1107.576171875</ele>
        <time>2013-08-24T14:01:39Z</time>
      </trkpt>
      <trkpt lat="47.382377944886684" lon="11.173428716138005">
        <ele>1107.095458984375</ele>
        <time>2013-08-24T14:01:41Z</time>
      </trkpt>
      <trkpt lat="47.382456064224243" lon="11.173400636762381">
        <ele>1106.134033203125</ele>
        <time>2013-08-24T14:01:44Z</time>
      </trkpt>
      <trkpt lat="47.382506188005209" lon="11.173397703096271">
        <ele>1105.653564453125</ele>
        <time>2013-08-24T14:01:45Z</time>
      </trkpt>
      <trkpt lat="47.382591599598527" lon="11.173410443589091">
        <ele>1104.692138671875</ele>
        <time>2013-08-24T14:01:46Z</time>
      </trkpt>
      <trkpt lat="47.382836015895009" lon="11.173456711694598">
        <ele>1104.692138671875</ele>
        <time>2013-08-24T14:01:48Z</time>
      </trkpt>
      <trkpt lat="47.383337002247572" lon="11.173438522964716">
        <ele>1103.73095703125</ele>
        <time>2013-08-24T14:01:53Z</time>
      </trkpt>
      <trkpt lat="47.383416797965765" lon="11.173438103869557">
        <ele>1103.250244140625</ele>
        <time>2013-08-24T14:01:54Z</time>
      </trkpt>
      <trkpt lat="47.383851483464241" lon="11.173534160479903">
        <ele>1103.250244140625</ele>
        <time>2013-08-24T14:01:59Z</time>
      </trkpt>
      <trkpt lat="47.384255826473236" lon="11.173736331984401">
        <ele>1102.288818359375</ele>
        <time>2013-08-24T14:02:04Z</time>
      </trkpt>
      <trkpt lat="47.384425140917301" lon="11.173925762996078">
        <ele>1102.288818359375</ele>
        <time>2013-08-24T14:02:08Z</time>
      </trkpt>
      <trkpt lat="47.384459925815463" lon="11.174069512635469">
        <ele>1100.846923828125</ele>
        <time>2013-08-24T14:02:10Z</time>
      </trkpt>
      <trkpt lat="47.384475264698267" lon="11.174210915341973">
        <ele>1101.32763671875</ele>
        <time>2013-08-24T14:02:12Z</time>
      </trkpt>
      <trkpt lat="47.384661175310612" lon="11.174598829820752">
        <ele>1100.846923828125</ele>
        <time>2013-08-24T14:02:17Z</time>
      </trkpt>
      <trkpt lat="47.384997708722949" lon="11.175048099830747">
        <ele>1101.32763671875</ele>
        <time>2013-08-24T14:02:23Z</time>
      </trkpt>
      <trkpt lat="47.385217314586043" lon="11.175226969644427">
        <ele>1101.32763671875</ele>
        <time>2013-08-24T14:02:26Z</time>
      </trkpt>
      <trkpt lat="47.385667925700545" lon="11.175565263256431">
        <ele>1100.366455078125</ele>
        <time>2013-08-24T14:02:32Z</time>
      </trkpt>
      <trkpt lat="47.386162038892508" lon="11.175644220784307">
        <ele>1098.443359375</ele>
        <time>2013-08-24T14:02:38Z</time>
      </trkpt>
      <trkpt lat="47.38650661893189" lon="11.175828455016017">
        <ele>1099.885498046875</ele>
        <time>2013-08-24T14:02:43Z</time>
      </trkpt>
      <trkpt lat="47.38683451898396" lon="11.175929121673107">
        <ele>1099.885498046875</ele>
        <time>2013-08-24T14:02:47Z</time>
      </trkpt>
      <trkpt lat="47.387374816462398" lon="11.176112266257405">
        <ele>1100.366455078125</ele>
        <time>2013-08-24T14:02:52Z</time>
      </trkpt>
      <trkpt lat="47.387734148651361" lon="11.176264481619">
        <ele>1099.40478515625</ele>
        <time>2013-08-24T14:02:56Z</time>
      </trkpt>
      <trkpt lat="47.387872450053692" lon="11.17631477303803">
        <ele>1099.40478515625</ele>
        <time>2013-08-24T14:02:58Z</time>
      </trkpt>
      <trkpt lat="47.388173276558518" lon="11.17633824236691">
        <ele>1098.443359375</ele>
        <time>2013-08-24T14:03:03Z</time>
      </trkpt>
      <trkpt lat="47.388480892404914" lon="11.176451565697789">
        <ele>1098.443359375</ele>
        <time>2013-08-24T14:03:08Z</time>
      </trkpt>
      <trkpt lat="47.388692619279027" lon="11.176542174071074">
        <ele>1097.962890625</ele>
        <time>2013-08-24T14:03:11Z</time>
      </trkpt>
      <trkpt lat="47.388946088030934" lon="11.176765635609627">
        <ele>1097.482177734375</ele>
        <time>2013-08-24T14:03:15Z</time>
      </trkpt>
      <trkpt lat="47.389163011685014" lon="11.176897650584579">
        <ele>1096.52099609375</ele>
        <time>2013-08-24T14:03:18Z</time>
      </trkpt>
      <trkpt lat="47.389305252581835" lon="11.176954647526145">
        <ele>1096.52099609375</ele>
        <time>2013-08-24T14:03:20Z</time>
      </trkpt>
      <trkpt lat="47.389393430203199" lon="11.177015583962202">
        <ele>1097.482177734375</ele>
        <time>2013-08-24T14:03:22Z</time>
      </trkpt>
      <trkpt lat="47.389461491256952" lon="11.177103845402598">
        <ele>1096.040283203125</ele>
        <time>2013-08-24T14:03:24Z</time>
      </trkpt>
      <trkpt lat="47.389543382450938" lon="11.177201326936483">
        <ele>1097.00146484375</ele>
        <time>2013-08-24T14:03:26Z</time>
      </trkpt>
      <trkpt lat="47.389929033815861" lon="11.177392853423953">
        <ele>1095.5595703125</ele>
        <time>2013-08-24T14:03:32Z</time>
      </trkpt>
      <trkpt lat="47.390156434848905" lon="11.177475415170193">
        <ele>1096.040283203125</ele>
        <time>2013-08-24T14:03:36Z</time>
      </trkpt>
      <trkpt lat="47.390511995181441" lon="11.177789317443967">
        <ele>1097.482177734375</ele>
        <time>2013-08-24T14:03:42Z</time>
      </trkpt>
      <trkpt lat="47.390623306855559" lon="11.17794387973845">
        <ele>1097.00146484375</ele>
        <time>2013-08-24T14:03:45Z</time>
      </trkpt>
      <trkpt lat="47.390793794766068" lon="11.178107243031263">
        <ele>1097.00146484375</ele>
        <time>2013-08-24T14:03:49Z</time>
      </trkpt>
      <trkpt lat="47.390953386202455" lon="11.178169939666986">
        <ele>1096.040283203125</ele>
        <time>2013-08-24T14:03:52Z</time>
      </trkpt>
      <trkpt lat="47.391210878267884" lon="11.178212855011225">
        <ele>1095.078857421875</ele>
        <time>2013-08-24T14:03:56Z</time>
      </trkpt>
      <trkpt lat="47.391402740031481" lon="11.178268510848284">
        <ele>1095.078857421875</ele>
        <time>2013-08-24T14:03:59Z</time>
      </trkpt>
      <trkpt lat="47.39159032702446" lon="11.178415529429913">
        <ele>1094.59814453125</ele>
        <time>2013-08-24T14:04:03Z</time>
      </trkpt>
      <trkpt lat="47.391973044723272" lon="11.178594818338752">
        <ele>1094.11767578125</ele>
        <time>2013-08-24T14:04:07Z</time>
      </trkpt>
      <trkpt lat="47.392105730250478" lon="11.178586939349771">
        <ele>1093.15625</ele>
        <time>2013-08-24T14:04:10Z</time>
      </trkpt>
      <trkpt lat="47.392252162098885" lon="11.178528098389506">
        <ele>1092.195068359375</ele>
        <time>2013-08-24T14:04:15Z</time>
      </trkpt>
      <trkpt lat="47.39221771247685" lon="11.178605714812875">
        <ele>1093.636962890625</ele>
        <time>2013-08-24T14:04:18Z</time>
      </trkpt>
      <trkpt lat="47.392200026661158" lon="11.178676458075643">
        <ele>1095.078857421875</ele>
        <time>2013-08-24T14:04:20Z</time>
      </trkpt>
      <trkpt lat="47.392130624502897" lon="11.178741250187159">
        <ele>1093.636962890625</ele>
        <time>2013-08-24T14:04:24Z</time>
      </trkpt>
      <trkpt lat="47.392570590600371" lon="11.179063450545073">
        <ele>1090.7529296875</ele>
        <time>2013-08-24T14:04:31Z</time>
      </trkpt>
      <trkpt lat="47.392760943621397" lon="11.179183311760426">
        <ele>1091.233642578125</ele>
        <time>2013-08-24T14:04:34Z</time>
      </trkpt>
      <trkpt lat="47.393220691010356" lon="11.179248271510005">
        <ele>1092.195068359375</ele>
        <time>2013-08-24T14:04:40Z</time>
      </trkpt>
      <trkpt lat="47.393836760893464" lon="11.179384561255574">
        <ele>1091.233642578125</ele>
        <time>2013-08-24T14:04:46Z</time>
      </trkpt>
      <trkpt lat="47.394211431965232" lon="11.179434936493635">
        <ele>1091.233642578125</ele>
        <time>2013-08-24T14:04:51Z</time>
      </trkpt>
      <trkpt lat="47.394536565989256" lon="11.179507356137037">
        <ele>1091.71435546875</ele>
        <time>2013-08-24T14:04:56Z</time>
      </trkpt>
      <trkpt lat="47.394739994779229" lon="11.179548176005483">
        <ele>1090.7529296875</ele>
        <time>2013-08-24T14:05:00Z</time>
      </trkpt>
      <trkpt lat="47.394751561805606" lon="11.179541721940041">
        <ele>1090.2724609375</ele>
        <time>2013-08-24T14:05:01Z</time>
      </trkpt>
      <trkpt lat="47.394728763028979" lon="11.179494196549058">
        <ele>1092.195068359375</ele>
        <time>2013-08-24T14:05:03Z</time>
      </trkpt>
      <trkpt lat="47.394742509350181" lon="11.179418675601482">
        <ele>1092.195068359375</ele>
        <time>2013-08-24T14:05:05Z</time>
      </trkpt>
      <trkpt lat="47.394854743033648" lon="11.179174510762095">
        <ele>1092.195068359375</ele>
        <time>2013-08-24T14:05:09Z</time>
      </trkpt>
      <trkpt lat="47.39493696950376" lon="11.178904613479972">
        <ele>1091.233642578125</ele>
        <time>2013-08-24T14:05:13Z</time>
      </trkpt>
      <trkpt lat="47.394966976717114" lon="11.17871250025928">
        <ele>1090.7529296875</ele>
        <time>2013-08-24T14:05:16Z</time>
      </trkpt>
      <trkpt lat="47.395006287842989" lon="11.178663549944758">
        <ele>1090.7529296875</ele>
        <time>2013-08-24T14:05:17Z</time>
      </trkpt>
      <trkpt lat="47.395328404381871" lon="11.178412009030581">
        <ele>1089.791748046875</ele>
        <time>2013-08-24T14:05:24Z</time>
      </trkpt>
      <trkpt lat="47.39555018953979" lon="11.178328022360802">
        <ele>1090.2724609375</ele>
        <time>2013-08-24T14:05:28Z</time>
      </trkpt>
      <trkpt lat="47.395709361881018" lon="11.178330788388848">
        <ele>1090.7529296875</ele>
        <time>2013-08-24T14:05:31Z</time>
      </trkpt>
      <trkpt lat="47.395964171737432" lon="11.178470347076654">
        <ele>1089.791748046875</ele>
        <time>2013-08-24T14:05:35Z</time>
      </trkpt>
      <trkpt lat="47.396176233887672" lon="11.17867436259985">
        <ele>1089.791748046875</ele>
        <time>2013-08-24T14:05:38Z</time>
      </trkpt>
      <trkpt lat="47.39637253805995" lon="11.178866224363446">
        <ele>1090.2724609375</ele>
        <time>2013-08-24T14:05:41Z</time>
      </trkpt>
      <trkpt lat="47.396576888859272" lon="11.179144755005836">
        <ele>1089.31103515625</ele>
        <time>2013-08-24T14:05:45Z</time>
      </trkpt>
      <trkpt lat="47.396948039531708" lon="11.179383890703321">
        <ele>1088.83056640625</ele>
        <time>2013-08-24T14:05:51Z</time>
      </trkpt>
      <trkpt lat="47.39700092934072" lon="11.179479528218508">
        <ele>1088.83056640625</ele>
        <time>2013-08-24T14:05:53Z</time>
      </trkpt>
      <trkpt lat="47.397172003984451" lon="11.179648255929351">
        <ele>1090.2724609375</ele>
        <time>2013-08-24T14:05:58Z</time>
      </trkpt>
      <trkpt lat="47.397160101681948" lon="11.179632917046547">
        <ele>1089.31103515625</ele>
        <time>2013-08-24T14:06:13Z</time>
      </trkpt>
      <trkpt lat="47.397180385887623" lon="11.179626127704978">
        <ele>1088.83056640625</ele>
        <time>2013-08-24T14:06:23Z</time>
      </trkpt>
      <trkpt lat="47.397196730598807" lon="11.179611375555396">
        <ele>1089.791748046875</ele>
        <time>2013-08-24T14:06:25Z</time>
      </trkpt>
      <trkpt lat="47.39726236090064" lon="11.179438289254904">
        <ele>1089.791748046875</ele>
        <time>2013-08-24T14:06:31Z</time>
      </trkpt>
      <trkpt lat="47.397274011746049" lon="11.179407108575106">
        <ele>1089.791748046875</ele>
        <time>2013-08-24T14:06:32Z</time>
      </trkpt>
      <trkpt lat="47.397344168275595" lon="11.179373161867261">
        <ele>1087.869140625</ele>
        <time>2013-08-24T14:06:37Z</time>
      </trkpt>
      <trkpt lat="47.397485570982099" lon="11.179339634254575">
        <ele>1087.869140625</ele>
        <time>2013-08-24T14:06:40Z</time>
      </trkpt>
      <trkpt lat="47.397629152983427" lon="11.179265789687634">
        <ele>1088.349853515625</ele>
        <time>2013-08-24T14:06:42Z</time>
      </trkpt>
      <trkpt lat="47.39781741052866" lon="11.179268890991807">
        <ele>1086.90771484375</ele>
        <time>2013-08-24T14:06:47Z</time>
      </trkpt>
      <trkpt lat="47.397948084399104" lon="11.17935405112803">
        <ele>1087.388427734375</ele>
        <time>2013-08-24T14:06:52Z</time>
      </trkpt>
      <trkpt lat="47.397996950894594" lon="11.179404258728027">
        <ele>1086.42724609375</ele>
        <time>2013-08-24T14:06:54Z</time>
      </trkpt>
      <trkpt lat="47.39826500415802" lon="11.179599389433861">
        <ele>1086.90771484375</ele>
        <time>2013-08-24T14:07:00Z</time>
      </trkpt>
      <trkpt lat="47.398664401844144" lon="11.179874232038856">
        <ele>1087.388427734375</ele>
        <time>2013-08-24T14:07:07Z</time>
      </trkpt>
      <trkpt lat="47.398895993828773" lon="11.180020915344357">
        <ele>1087.388427734375</ele>
        <time>2013-08-24T14:07:11Z</time>
      </trkpt>
      <trkpt lat="47.399025410413742" lon="11.180167095735669">
        <ele>1085.946533203125</ele>
        <time>2013-08-24T14:07:14Z</time>
      </trkpt>
      <trkpt lat="47.399056423455477" lon="11.180232558399439">
        <ele>1085.946533203125</ele>
        <time>2013-08-24T14:07:15Z</time>
      </trkpt>
      <trkpt lat="47.399120377376676" lon="11.180483009666204">
        <ele>1085.4658203125</ele>
        <time>2013-08-24T14:07:18Z</time>
      </trkpt>
      <trkpt lat="47.39914552308619" lon="11.181148365139961">
        <ele>1084.02392578125</ele>
        <time>2013-08-24T14:07:25Z</time>
      </trkpt>
      <trkpt lat="47.399134626612067" lon="11.181340645998716">
        <ele>1083.54296875</ele>
        <time>2013-08-24T14:07:27Z</time>
      </trkpt>
      <trkpt lat="47.399112079292536" lon="11.181511888280511">
        <ele>1084.02392578125</ele>
        <time>2013-08-24T14:07:29Z</time>
      </trkpt>
      <trkpt lat="47.399258008226752" lon="11.181727722287178">
        <ele>1084.504638671875</ele>
        <time>2013-08-24T14:07:33Z</time>
      </trkpt>
      <trkpt lat="47.399439224973321" lon="11.181567125022411">
        <ele>1085.4658203125</ele>
        <time>2013-08-24T14:07:37Z</time>
      </trkpt>
      <trkpt lat="47.399473004043102" lon="11.181487999856472">
        <ele>1084.9853515625</ele>
        <time>2013-08-24T14:07:38Z</time>
      </trkpt>
      <trkpt lat="47.399615328758955" lon="11.181220868602395">
        <ele>1084.504638671875</ele>
        <time>2013-08-24T14:07:43Z</time>
      </trkpt>
      <trkpt lat="47.399676349014044" lon="11.181269818916917">
        <ele>1084.504638671875</ele>
        <time>2013-08-24T14:07:46Z</time>
      </trkpt>
      <trkpt lat="47.399591524153948" lon="11.181474504992366">
        <ele>1084.504638671875</ele>
        <time>2013-08-24T14:07:49Z</time>
      </trkpt>
      <trkpt lat="47.399567048996687" lon="11.181532088667154">
        <ele>1084.504638671875</ele>
        <time>2013-08-24T14:07:50Z</time>
      </trkpt>
      <trkpt lat="47.399560427293181" lon="11.181782120838761">
        <ele>1083.062255859375</ele>
        <time>2013-08-24T14:07:54Z</time>
      </trkpt>
      <trkpt lat="47.399544836953282" lon="11.182288974523544">
        <ele>1083.062255859375</ele>
        <time>2013-08-24T14:08:00Z</time>
      </trkpt>
      <trkpt lat="47.399539304897189" lon="11.182377906516194">
        <ele>1083.54296875</ele>
        <time>2013-08-24T14:08:01Z</time>
      </trkpt>
      <trkpt lat="47.399403098970652" lon="11.182670770213008">
        <ele>1081.620361328125</ele>
        <time>2013-08-24T14:08:05Z</time>
      </trkpt>
      <trkpt lat="47.399201430380344" lon="11.182874534279108">
        <ele>1080.6591796875</ele>
        <time>2013-08-24T14:08:09Z</time>
      </trkpt>
      <trkpt lat="47.39899255335331" lon="11.183000011369586">
        <ele>1082.10107421875</ele>
        <time>2013-08-24T14:08:13Z</time>
      </trkpt>
      <trkpt lat="47.398803206160665" lon="11.18305298499763">
        <ele>1081.139892578125</ele>
        <time>2013-08-24T14:08:17Z</time>
      </trkpt>
      <trkpt lat="47.398549988865852" lon="11.18316781707108">
        <ele>1080.178466796875</ele>
        <time>2013-08-24T14:08:22Z</time>
      </trkpt>
      <trkpt lat="47.398833800107241" lon="11.18356310762465">
        <ele>1080.178466796875</ele>
        <time>2013-08-24T14:08:27Z</time>
      </trkpt>
      <trkpt lat="47.398968245834112" lon="11.184119917452335">
        <ele>1079.69775390625</ele>
        <time>2013-08-24T14:08:34Z</time>
      </trkpt>
      <trkpt lat="47.399048712104559" lon="11.184556027874351">
        <ele>1079.69775390625</ele>
        <time>2013-08-24T14:08:38Z</time>
      </trkpt>
      <trkpt lat="47.398981405422091" lon="11.185224987566471">
        <ele>1080.178466796875</ele>
        <time>2013-08-24T14:08:45Z</time>
      </trkpt>
      <trkpt lat="47.398995570838451" lon="11.185835441574454">
        <ele>1079.217041015625</ele>
        <time>2013-08-24T14:08:51Z</time>
      </trkpt>
      <trkpt lat="47.399028008803725" lon="11.186012635007501">
        <ele>1078.736572265625</ele>
        <time>2013-08-24T14:08:54Z</time>
      </trkpt>
      <trkpt lat="47.399093639105558" lon="11.186519153416157">
        <ele>1079.217041015625</ele>
        <time>2013-08-24T14:09:00Z</time>
      </trkpt>
      <trkpt lat="47.39917628467083" lon="11.186803132295609">
        <ele>1079.217041015625</ele>
        <time>2013-08-24T14:09:03Z</time>
      </trkpt>
      <trkpt lat="47.3991709202528" lon="11.187469912692904">
        <ele>1077.775146484375</ele>
        <time>2013-08-24T14:09:10Z</time>
      </trkpt>
      <trkpt lat="47.399165723472834" lon="11.187787000089884">
        <ele>1078.255859375</ele>
        <time>2013-08-24T14:09:14Z</time>
      </trkpt>
      <trkpt lat="47.399305533617735" lon="11.188161168247461">
        <ele>1076.81396484375</ele>
        <time>2013-08-24T14:09:19Z</time>
      </trkpt>
      <trkpt lat="47.399712139740586" lon="11.188809843733907">
        <ele>1075.8525390625</ele>
        <time>2013-08-24T14:09:26Z</time>
      </trkpt>
      <trkpt lat="47.399886315688491" lon="11.189354080706835">
        <ele>1076.81396484375</ele>
        <time>2013-08-24T14:09:32Z</time>
      </trkpt>
      <trkpt lat="47.400288647040725" lon="11.190209621563554">
        <ele>1075.8525390625</ele>
        <time>2013-08-24T14:09:42Z</time>
      </trkpt>
      <trkpt lat="47.400504061952233" lon="11.190512543544173">
        <ele>1075.371826171875</ele>
        <time>2013-08-24T14:09:46Z</time>
      </trkpt>
      <trkpt lat="47.400889042764902" lon="11.190683869645">
        <ele>1075.8525390625</ele>
        <time>2013-08-24T14:09:51Z</time>
      </trkpt>
      <trkpt lat="47.400979399681091" lon="11.190780932083726">
        <ele>1076.333251953125</ele>
        <time>2013-08-24T14:09:53Z</time>
      </trkpt>
      <trkpt lat="47.40099985152483" lon="11.190867936238647">
        <ele>1076.81396484375</ele>
        <time>2013-08-24T14:09:55Z</time>
      </trkpt>
      <trkpt lat="47.401135973632336" lon="11.191058373078704">
        <ele>1076.333251953125</ele>
        <time>2013-08-24T14:10:01Z</time>
      </trkpt>
      <trkpt lat="47.401152402162552" lon="11.191066838800907">
        <ele>1075.8525390625</ele>
        <time>2013-08-24T14:10:02Z</time>
      </trkpt>
      <trkpt lat="47.401248374953866" lon="11.191110592335463">
        <ele>1073.929931640625</ele>
        <time>2013-08-24T14:10:05Z</time>
      </trkpt>
      <trkpt lat="47.401264887303114" lon="11.191234476864338">
        <ele>1074.41064453125</ele>
        <time>2013-08-24T14:10:09Z</time>
      </trkpt>
      <trkpt lat="47.401254577562213" lon="11.191335981711745">
        <ele>1073.929931640625</ele>
        <time>2013-08-24T14:10:11Z</time>
      </trkpt>
      <trkpt lat="47.401485247537494" lon="11.191772930324078">
        <ele>1074.41064453125</ele>
        <time>2013-08-24T14:10:17Z</time>
      </trkpt>
      <trkpt lat="47.401844747364521" lon="11.192237120121717">
        <ele>1075.8525390625</ele>
        <time>2013-08-24T14:10:24Z</time>
      </trkpt>
      <trkpt lat="47.401970056816936" lon="11.19241657666862">
        <ele>1075.371826171875</ele>
        <time>2013-08-24T14:10:28Z</time>
      </trkpt>
      <trkpt lat="47.402050103992224" lon="11.192517494782805">
        <ele>1074.41064453125</ele>
        <time>2013-08-24T14:10:30Z</time>
      </trkpt>
      <trkpt lat="47.402171222493052" lon="11.192654455080628">
        <ele>1073.929931640625</ele>
        <time>2013-08-24T14:10:32Z</time>
      </trkpt>
      <trkpt lat="47.402281695976853" lon="11.19282653555274">
        <ele>1073.929931640625</ele>
        <time>2013-08-24T14:10:35Z</time>
      </trkpt>
      <trkpt lat="47.402437515556812" lon="11.193035077303648">
        <ele>1072.96875</ele>
        <time>2013-08-24T14:10:39Z</time>
      </trkpt>
      <trkpt lat="47.402479341253638" lon="11.193112023174763">
        <ele>1072.488037109375</ele>
        <time>2013-08-24T14:10:40Z</time>
      </trkpt>
      <trkpt lat="47.402705820277333" lon="11.193418549373746">
        <ele>1072.488037109375</ele>
        <time>2013-08-24T14:10:43Z</time>
      </trkpt>
      <trkpt lat="47.402819646522403" lon="11.19376371614635">
        <ele>1072.00732421875</ele>
        <time>2013-08-24T14:10:47Z</time>
      </trkpt>
      <trkpt lat="47.403106726706028" lon="11.194242993369699">
        <ele>1071.046142578125</ele>
        <time>2013-08-24T14:10:53Z</time>
      </trkpt>
      <trkpt lat="47.403168417513371" lon="11.194426976144314">
        <ele>1071.046142578125</ele>
        <time>2013-08-24T14:10:55Z</time>
      </trkpt>
      <trkpt lat="47.403399171307683" lon="11.195008680224419">
        <ele>1072.00732421875</ele>
        <time>2013-08-24T14:11:02Z</time>
      </trkpt>
      <trkpt lat="47.403433118015528" lon="11.195084452629089">
        <ele>1071.526611328125</ele>
        <time>2013-08-24T14:11:03Z</time>
      </trkpt>
      <trkpt lat="47.403516098856926" lon="11.195451496168971">
        <ele>1071.526611328125</ele>
        <time>2013-08-24T14:11:08Z</time>
      </trkpt>
      <trkpt lat="47.403600085526705" lon="11.195742515847087">
        <ele>1071.526611328125</ele>
        <time>2013-08-24T14:11:13Z</time>
      </trkpt>
      <trkpt lat="47.403618693351746" lon="11.195799512788653">
        <ele>1072.488037109375</ele>
        <time>2013-08-24T14:11:14Z</time>
      </trkpt>
      <trkpt lat="47.403703518211842" lon="11.196005791425705">
        <ele>1072.00732421875</ele>
        <time>2013-08-24T14:11:17Z</time>
      </trkpt>
      <trkpt lat="47.403811980038881" lon="11.196224140003324">
        <ele>1070.5654296875</ele>
        <time>2013-08-24T14:11:20Z</time>
      </trkpt>
      <trkpt lat="47.403998058289289" lon="11.196561511605978">
        <ele>1070.084716796875</ele>
        <time>2013-08-24T14:11:24Z</time>
      </trkpt>
      <trkpt lat="47.404080620035529" lon="11.196951940655708">
        <ele>1069.12353515625</ele>
        <time>2013-08-24T14:11:29Z</time>
      </trkpt>
      <trkpt lat="47.404184471815825" lon="11.197206331416965">
        <ele>1070.5654296875</ele>
        <time>2013-08-24T14:11:32Z</time>
      </trkpt>
      <trkpt lat="47.40424239076674" lon="11.197526017203927">
        <ele>1071.046142578125</ele>
        <time>2013-08-24T14:11:36Z</time>
      </trkpt>
      <trkpt lat="47.404256137087941" lon="11.197709077969193">
        <ele>1071.046142578125</ele>
        <time>2013-08-24T14:11:39Z</time>
      </trkpt>
      <trkpt lat="47.404365940019488" lon="11.197960786521435">
        <ele>1069.604248046875</ele>
        <time>2013-08-24T14:11:42Z</time>
      </trkpt>
      <trkpt lat="47.404639106243849" lon="11.198447439819574">
        <ele>1067.68115234375</ele>
        <time>2013-08-24T14:11:48Z</time>
      </trkpt>
      <trkpt lat="47.404841613024473" lon="11.198764778673649">
        <ele>1066.719970703125</ele>
        <time>2013-08-24T14:11:52Z</time>
      </trkpt>
      <trkpt lat="47.404914535582066" lon="11.198940714821219">
        <ele>1067.20068359375</ele>
        <time>2013-08-24T14:11:54Z</time>
      </trkpt>
      <trkpt lat="47.405074965208769" lon="11.199452094733715">
        <ele>1067.68115234375</ele>
        <time>2013-08-24T14:12:00Z</time>
      </trkpt>
      <trkpt lat="47.405096003785729" lon="11.199622666463256">
        <ele>1068.162109375</ele>
        <time>2013-08-24T14:12:02Z</time>
      </trkpt>
      <trkpt lat="47.405170267447829" lon="11.200008485466242">
        <ele>1069.12353515625</ele>
        <time>2013-08-24T14:12:07Z</time>
      </trkpt>
      <trkpt lat="47.40523187443614" lon="11.200229013338685">
        <ele>1070.084716796875</ele>
        <time>2013-08-24T14:12:10Z</time>
      </trkpt>
      <trkpt lat="47.40537260659039" lon="11.200576359406114">
        <ele>1069.12353515625</ele>
        <time>2013-08-24T14:12:16Z</time>
      </trkpt>
      <trkpt lat="47.405652394518256" lon="11.200876850634813">
        <ele>1068.642822265625</ele>
        <time>2013-08-24T14:12:23Z</time>
      </trkpt>
      <trkpt lat="47.405670750886202" lon="11.200899733230472">
        <ele>1068.642822265625</ele>
        <time>2013-08-24T14:12:25Z</time>
      </trkpt>
      <trkpt lat="47.405936792492867" lon="11.200992520898581">
        <ele>1069.604248046875</ele>
        <time>2013-08-24T14:12:29Z</time>
      </trkpt>
      <trkpt lat="47.406107699498534" lon="11.201069047674537">
        <ele>1069.12353515625</ele>
        <time>2013-08-24T14:12:31Z</time>
      </trkpt>
      <trkpt lat="47.406381703913212" lon="11.201313296332955">
        <ele>1068.162109375</ele>
        <time>2013-08-24T14:12:36Z</time>
      </trkpt>
      <trkpt lat="47.406492177397013" lon="11.20139854028821">
        <ele>1068.642822265625</ele>
        <time>2013-08-24T14:12:40Z</time>
      </trkpt>
      <trkpt lat="47.406515562906861" lon="11.201397199183702">
        <ele>1069.12353515625</ele>
        <time>2013-08-24T14:12:55Z</time>
      </trkpt>
      <trkpt lat="47.406534170731902" lon="11.201365683227777">
        <ele>1066.2392578125</ele>
        <time>2013-08-24T14:14:49Z</time>
      </trkpt>
      <trkpt lat="47.406536350026727" lon="11.201368784531951">
        <ele>1067.20068359375</ele>
        <time>2013-08-24T14:15:10Z</time>
      </trkpt>
      <trkpt lat="47.406539535149932" lon="11.201368030160666">
        <ele>1067.20068359375</ele>
        <time>2013-08-24T14:15:11Z</time>
      </trkpt>
      <trkpt lat="47.406671885401011" lon="11.201426200568676">
        <ele>1067.20068359375</ele>
        <time>2013-08-24T14:15:17Z</time>
      </trkpt>
      <trkpt lat="47.40682234056294" lon="11.201526867225766">
        <ele>1065.278076171875</ele>
        <time>2013-08-24T14:15:21Z</time>
      </trkpt>
      <trkpt lat="47.407019482925534" lon="11.201659720391035">
        <ele>1063.8359375</ele>
        <time>2013-08-24T14:15:24Z</time>
      </trkpt>
      <trkpt lat="47.407267335802317" lon="11.201999103650451">
        <ele>1063.35546875</ele>
        <time>2013-08-24T14:15:29Z</time>
      </trkpt>
      <trkpt lat="47.407347885891795" lon="11.202484667301178">
        <ele>1063.8359375</ele>
        <time>2013-08-24T14:15:34Z</time>
      </trkpt>
      <trkpt lat="47.407396417111158" lon="11.202780799940228">
        <ele>1062.39404296875</ele>
        <time>2013-08-24T14:15:38Z</time>
      </trkpt>
      <trkpt lat="47.407504292204976" lon="11.203125296160579">
        <ele>1061.91357421875</ele>
        <time>2013-08-24T14:15:42Z</time>
      </trkpt>
      <trkpt lat="47.407641420140862" lon="11.203446742147207">
        <ele>1062.874755859375</ele>
        <time>2013-08-24T14:15:46Z</time>
      </trkpt>
      <trkpt lat="47.407771004363894" lon="11.203749161213636">
        <ele>1062.874755859375</ele>
        <time>2013-08-24T14:15:50Z</time>
      </trkpt>
      <trkpt lat="47.407847195863724" lon="11.203898023813963">
        <ele>1062.39404296875</ele>
        <time>2013-08-24T14:15:52Z</time>
      </trkpt>
      <trkpt lat="47.407977031543851" lon="11.204141937196255">
        <ele>1061.432861328125</ele>
        <time>2013-08-24T14:15:56Z</time>
      </trkpt>
      <trkpt lat="47.408052384853363" lon="11.204582992941141">
        <ele>1059.99072265625</ele>
        <time>2013-08-24T14:16:01Z</time>
      </trkpt>
      <trkpt lat="47.408237205818295" lon="11.205164948478341">
        <ele>1056.626220703125</ele>
        <time>2013-08-24T14:16:07Z</time>
      </trkpt>
      <trkpt lat="47.408227901905775" lon="11.205245163291693">
        <ele>1056.626220703125</ele>
        <time>2013-08-24T14:16:08Z</time>
      </trkpt>
      <trkpt lat="47.408159505575895" lon="11.205440796911716">
        <ele>1058.068359375</ele>
        <time>2013-08-24T14:16:11Z</time>
      </trkpt>
      <trkpt lat="47.408051798120141" lon="11.205586055293679">
        <ele>1058.548828125</ele>
        <time>2013-08-24T14:16:14Z</time>
      </trkpt>
      <trkpt lat="47.407961189746857" lon="11.205900879576802">
        <ele>1059.029541015625</ele>
        <time>2013-08-24T14:16:19Z</time>
      </trkpt>
      <trkpt lat="47.407994884997606" lon="11.206255769357085">
        <ele>1058.548828125</ele>
        <time>2013-08-24T14:16:23Z</time>
      </trkpt>
      <trkpt lat="47.40809379145503" lon="11.206603702157736">
        <ele>1059.51025390625</ele>
        <time>2013-08-24T14:16:28Z</time>
      </trkpt>
      <trkpt lat="47.408147435635328" lon="11.206841748207808">
        <ele>1059.99072265625</ele>
        <time>2013-08-24T14:16:33Z</time>
      </trkpt>
      <trkpt lat="47.408131258562207" lon="11.206834875047207">
        <ele>1059.029541015625</ele>
        <time>2013-08-24T14:16:42Z</time>
      </trkpt>
      <trkpt lat="47.408128324896097" lon="11.206837221980095">
        <ele>1059.99072265625</ele>
        <time>2013-08-24T14:16:48Z</time>
      </trkpt>
      <trkpt lat="47.408062946051359" lon="11.206871587783098">
        <ele>1059.51025390625</ele>
        <time>2013-08-24T14:16:52Z</time>
      </trkpt>
      <trkpt lat="47.408011564984918" lon="11.206864882260561">
        <ele>1060.9521484375</ele>
        <time>2013-08-24T14:16:54Z</time>
      </trkpt>
      <trkpt lat="47.407902432605624" lon="11.206989521160722">
        <ele>1059.99072265625</ele>
        <time>2013-08-24T14:16:59Z</time>
      </trkpt>
      <trkpt lat="47.407841077074409" lon="11.207065461203456">
        <ele>1059.029541015625</ele>
        <time>2013-08-24T14:17:01Z</time>
      </trkpt>
      <trkpt lat="47.407749127596617" lon="11.20724156498909">
        <ele>1058.548828125</ele>
        <time>2013-08-24T14:17:04Z</time>
      </trkpt>
      <trkpt lat="47.407624488696456" lon="11.207425212487578">
        <ele>1059.029541015625</ele>
        <time>2013-08-24T14:17:07Z</time>
      </trkpt>
      <trkpt lat="47.407453749328852" lon="11.207657055929303">
        <ele>1059.029541015625</ele>
        <time>2013-08-24T14:17:11Z</time>
      </trkpt>
      <trkpt lat="47.407164657488465" lon="11.207708604633808">
        <ele>1058.548828125</ele>
        <time>2013-08-24T14:17:16Z</time>
      </trkpt>
      <trkpt lat="47.406812449917197" lon="11.207505092024803">
        <ele>1059.029541015625</ele>
        <time>2013-08-24T14:17:20Z</time>
      </trkpt>
      <trkpt lat="47.406580522656441" lon="11.207428062334657">
        <ele>1057.587646484375</ele>
        <time>2013-08-24T14:17:24Z</time>
      </trkpt>
      <trkpt lat="47.406644392758608" lon="11.207833662629128">
        <ele>1057.10693359375</ele>
        <time>2013-08-24T14:17:27Z</time>
      </trkpt>
      <trkpt lat="47.40663374774158" lon="11.207903232425451">
        <ele>1058.068359375</ele>
        <time>2013-08-24T14:17:28Z</time>
      </trkpt>
      <trkpt lat="47.406643889844418" lon="11.208278490230441">
        <ele>1059.029541015625</ele>
        <time>2013-08-24T14:17:32Z</time>
      </trkpt>
      <trkpt lat="47.406809767708182" lon="11.208714265376329">
        <ele>1060.9521484375</ele>
        <time>2013-08-24T14:17:36Z</time>
      </trkpt>
      <trkpt lat="47.406913787126541" lon="11.208782577887177">
        <ele>1061.91357421875</ele>
        <time>2013-08-24T14:17:37Z</time>
      </trkpt>
      <trkpt lat="47.407013028860092" lon="11.208842592313886">
        <ele>1062.39404296875</ele>
        <time>2013-08-24T14:17:39Z</time>
      </trkpt>
      <trkpt lat="47.407240429893136" lon="11.209003692492843">
        <ele>1062.39404296875</ele>
        <time>2013-08-24T14:17:44Z</time>
      </trkpt>
      <trkpt lat="47.407476967200637" lon="11.209111316129565">
        <ele>1060.9521484375</ele>
        <time>2013-08-24T14:17:49Z</time>
      </trkpt>
      <trkpt lat="47.407677294686437" lon="11.209226902574301">
        <ele>1059.51025390625</ele>
        <time>2013-08-24T14:17:52Z</time>
      </trkpt>
      <trkpt lat="47.407853817567229" lon="11.209360342472792">
        <ele>1059.029541015625</ele>
        <time>2013-08-24T14:17:55Z</time>
      </trkpt>
      <trkpt lat="47.408059677109122" lon="11.209531417116523">
        <ele>1059.029541015625</ele>
        <time>2013-08-24T14:17:59Z</time>
      </trkpt>
      <trkpt lat="47.408218011260033" lon="11.20969939045608">
        <ele>1057.10693359375</ele>
        <time>2013-08-24T14:18:02Z</time>
      </trkpt>
      <trkpt lat="47.408373663201928" lon="11.210038103163242">
        <ele>1056.626220703125</ele>
        <time>2013-08-24T14:18:06Z</time>
      </trkpt>
      <trkpt lat="47.408469300717115" lon="11.210297858342528">
        <ele>1056.626220703125</ele>
        <time>2013-08-24T14:18:09Z</time>
      </trkpt>
      <trkpt lat="47.408540630713105" lon="11.210795240476727">
        <ele>1056.626220703125</ele>
        <time>2013-08-24T14:18:15Z</time>
      </trkpt>
      <trkpt lat="47.408558148890734" lon="11.210984168574214">
        <ele>1056.1455078125</ele>
        <time>2013-08-24T14:18:17Z</time>
      </trkpt>
      <trkpt lat="47.408721093088388" lon="11.211624462157488">
        <ele>1056.1455078125</ele>
        <time>2013-08-24T14:18:24Z</time>
      </trkpt>
      <trkpt lat="47.408708771690726" lon="11.21219577267766">
        <ele>1053.742431640625</ele>
        <time>2013-08-24T14:18:30Z</time>
      </trkpt>
      <trkpt lat="47.408705838024616" lon="11.212455863133073">
        <ele>1054.70361328125</ele>
        <time>2013-08-24T14:18:33Z</time>
      </trkpt>
      <trkpt lat="47.40885260514915" lon="11.212879149243236">
        <ele>1055.184326171875</ele>
        <time>2013-08-24T14:18:39Z</time>
      </trkpt>
      <trkpt lat="47.40894690155983" lon="11.213226746767759">
        <ele>1052.781005859375</ele>
        <time>2013-08-24T14:18:43Z</time>
      </trkpt>
      <trkpt lat="47.408998366445303" lon="11.213515754789114">
        <ele>1052.781005859375</ele>
        <time>2013-08-24T14:18:46Z</time>
      </trkpt>
      <trkpt lat="47.409232724457979" lon="11.213882127776742">
        <ele>1053.26171875</ele>
        <time>2013-08-24T14:18:52Z</time>
      </trkpt>
      <trkpt lat="47.409308245405555" lon="11.213999977335334">
        <ele>1052.781005859375</ele>
        <time>2013-08-24T14:18:54Z</time>
      </trkpt>
      <trkpt lat="47.409565569832921" lon="11.214250260964036">
        <ele>1053.26171875</ele>
        <time>2013-08-24T14:18:59Z</time>
      </trkpt>
      <trkpt lat="47.409612005576491" lon="11.214294768869877">
        <ele>1052.30029296875</ele>
        <time>2013-08-24T14:19:01Z</time>
      </trkpt>
      <trkpt lat="47.409929428249598" lon="11.214685281738639">
        <ele>1052.30029296875</ele>
        <time>2013-08-24T14:19:07Z</time>
      </trkpt>
      <trkpt lat="47.409977121278644" lon="11.214789049699903">
        <ele>1052.30029296875</ele>
        <time>2013-08-24T14:19:08Z</time>
      </trkpt>
      <trkpt lat="47.410083655267954" lon="11.215087529271841">
        <ele>1051.3388671875</ele>
        <time>2013-08-24T14:19:11Z</time>
      </trkpt>
      <trkpt lat="47.410334190353751" lon="11.215442754328251">
        <ele>1050.377685546875</ele>
        <time>2013-08-24T14:19:15Z</time>
      </trkpt>
      <trkpt lat="47.410438377410173" lon="11.215796135365963">
        <ele>1049.89697265625</ele>
        <time>2013-08-24T14:19:19Z</time>
      </trkpt>
      <trkpt lat="47.410510461777449" lon="11.216044658794999">
        <ele>1050.858154296875</ele>
        <time>2013-08-24T14:19:22Z</time>
      </trkpt>
      <trkpt lat="47.410689918324351" lon="11.21626116335392">
        <ele>1050.377685546875</ele>
        <time>2013-08-24T14:19:25Z</time>
      </trkpt>
      <trkpt lat="47.411034079268575" lon="11.216912101954222">
        <ele>1048.935546875</ele>
        <time>2013-08-24T14:19:33Z</time>
      </trkpt>
      <trkpt lat="47.411071127280593" lon="11.217000195756555">
        <ele>1048.935546875</ele>
        <time>2013-08-24T14:19:34Z</time>
      </trkpt>
      <trkpt lat="47.411221247166395" lon="11.217739563435316">
        <ele>1048.454833984375</ele>
        <time>2013-08-24T14:19:42Z</time>
      </trkpt>
      <trkpt lat="47.411242201924324" lon="11.218012729659677">
        <ele>1048.454833984375</ele>
        <time>2013-08-24T14:19:45Z</time>
      </trkpt>
      <trkpt lat="47.411372875794768" lon="11.218291260302067">
        <ele>1047.49365234375</ele>
        <time>2013-08-24T14:19:49Z</time>
      </trkpt>
      <trkpt lat="47.411664817482233" lon="11.218697698786855">
        <ele>1048.454833984375</ele>
        <time>2013-08-24T14:19:54Z</time>
      </trkpt>
      <trkpt lat="47.411697506904602" lon="11.218784619122744">
        <ele>1048.454833984375</ele>
        <time>2013-08-24T14:19:55Z</time>
      </trkpt>
      <trkpt lat="47.411860702559352" lon="11.219180831685662">
        <ele>1047.974365234375</ele>
        <time>2013-08-24T14:20:00Z</time>
      </trkpt>
      <trkpt lat="47.412027837708592" lon="11.219683578237891">
        <ele>1046.0517578125</ele>
        <time>2013-08-24T14:20:05Z</time>
      </trkpt>
      <trkpt lat="47.412257920950651" lon="11.220110300928354">
        <ele>1046.532470703125</ele>
        <time>2013-08-24T14:20:10Z</time>
      </trkpt>
      <trkpt lat="47.412242079153657" lon="11.220566444098949">
        <ele>1047.49365234375</ele>
        <time>2013-08-24T14:20:15Z</time>
      </trkpt>
      <trkpt lat="47.412222130224109" lon="11.220634086057544">
        <ele>1047.012939453125</ele>
        <time>2013-08-24T14:20:16Z</time>
      </trkpt>
      <trkpt lat="47.412232775241137" lon="11.220808262005448">
        <ele>1047.012939453125</ele>
        <time>2013-08-24T14:20:19Z</time>
      </trkpt>
      <trkpt lat="47.412288850173354" lon="11.220940528437495">
        <ele>1047.974365234375</ele>
        <time>2013-08-24T14:20:21Z</time>
      </trkpt>
      <trkpt lat="47.41242790594697" lon="11.221291981637478">
        <ele>1045.571044921875</ele>
        <time>2013-08-24T14:20:26Z</time>
      </trkpt>
      <trkpt lat="47.412557825446129" lon="11.221528686583042">
        <ele>1046.0517578125</ele>
        <time>2013-08-24T14:20:29Z</time>
      </trkpt>
      <trkpt lat="47.412749519571662" lon="11.221818365156651">
        <ele>1044.609619140625</ele>
        <time>2013-08-24T14:20:33Z</time>
      </trkpt>
      <trkpt lat="47.413116646930575" lon="11.222101841121912">
        <ele>1044.609619140625</ele>
        <time>2013-08-24T14:20:39Z</time>
      </trkpt>
      <trkpt lat="47.413448905572295" lon="11.222429824993014">
        <ele>1044.129150390625</ele>
        <time>2013-08-24T14:20:44Z</time>
      </trkpt>
      <trkpt lat="47.413584943860769" lon="11.222569718956947">
        <ele>1044.129150390625</ele>
        <time>2013-08-24T14:20:46Z</time>
      </trkpt>
      <trkpt lat="47.413857271894813" lon="11.223020330071449">
        <ele>1043.167724609375</ele>
        <time>2013-08-24T14:20:52Z</time>
      </trkpt>
      <trkpt lat="47.414081655442715" lon="11.223468426615">
        <ele>1043.167724609375</ele>
        <time>2013-08-24T14:20:58Z</time>
      </trkpt>
      <trkpt lat="47.41425147280097" lon="11.223991876468062">
        <ele>1042.20654296875</ele>
        <time>2013-08-24T14:21:04Z</time>
      </trkpt>
      <trkpt lat="47.414490440860391" lon="11.224648095667362">
        <ele>1042.687255859375</ele>
        <time>2013-08-24T14:21:12Z</time>
      </trkpt>
      <trkpt lat="47.414733348414302" lon="11.224909946322441">
        <ele>1042.687255859375</ele>
        <time>2013-08-24T14:21:17Z</time>
      </trkpt>
      <trkpt lat="47.414999809116125" lon="11.225199121981859">
        <ele>1042.20654296875</ele>
        <time>2013-08-24T14:21:22Z</time>
      </trkpt>
      <trkpt lat="47.415153030306101" lon="11.225402886047959">
        <ele>1042.687255859375</ele>
        <time>2013-08-24T14:21:25Z</time>
      </trkpt>
      <trkpt lat="47.415475901216269" lon="11.225569015368819">
        <ele>1043.6484375</ele>
        <time>2013-08-24T14:21:30Z</time>
      </trkpt>
      <trkpt lat="47.415768345817924" lon="11.225526686757803">
        <ele>1044.609619140625</ele>
        <time>2013-08-24T14:21:34Z</time>
      </trkpt>
      <trkpt lat="47.416076883673668" lon="11.225448735058308">
        <ele>1043.6484375</ele>
        <time>2013-08-24T14:21:40Z</time>
      </trkpt>
      <trkpt lat="47.416133712977171" lon="11.225430797785521">
        <ele>1044.609619140625</ele>
        <time>2013-08-24T14:21:41Z</time>
      </trkpt>
      <trkpt lat="47.416317025199533" lon="11.225371789187193">
        <ele>1043.167724609375</ele>
        <time>2013-08-24T14:21:45Z</time>
      </trkpt>
      <trkpt lat="47.416485920548439" lon="11.225439263507724">
        <ele>1041.725830078125</ele>
        <time>2013-08-24T14:21:48Z</time>
      </trkpt>
      <trkpt lat="47.416661772876978" lon="11.225500283762813">
        <ele>1040.764404296875</ele>
        <time>2013-08-24T14:21:53Z</time>
      </trkpt>
      <trkpt lat="47.41672589443624" lon="11.225533811375499">
        <ele>1041.2451171875</ele>
        <time>2013-08-24T14:21:55Z</time>
      </trkpt>
      <trkpt lat="47.416820609942079" lon="11.225785436108708">
        <ele>1041.2451171875</ele>
        <time>2013-08-24T14:22:00Z</time>
      </trkpt>
      <trkpt lat="47.417161837220192" lon="11.226070756092668">
        <ele>1040.283935546875</ele>
        <time>2013-08-24T14:22:05Z</time>
      </trkpt>
      <trkpt lat="47.417287230491638" lon="11.226181900128722">
        <ele>1039.80322265625</ele>
        <time>2013-08-24T14:22:07Z</time>
      </trkpt>
      <trkpt lat="47.417449923232198" lon="11.226393207907677">
        <ele>1039.80322265625</ele>
        <time>2013-08-24T14:22:10Z</time>
      </trkpt>
      <trkpt lat="47.417521169409156" lon="11.22648574411869">
        <ele>1039.80322265625</ele>
        <time>2013-08-24T14:22:12Z</time>
      </trkpt>
      <trkpt lat="47.417876478284597" lon="11.226733513176441">
        <ele>1039.322509765625</ele>
        <time>2013-08-24T14:22:18Z</time>
      </trkpt>
      <trkpt lat="47.418027520179749" lon="11.226936103776097">
        <ele>1038.842041015625</ele>
        <time>2013-08-24T14:22:21Z</time>
      </trkpt>
      <trkpt lat="47.418335722759366" lon="11.227156044915318">
        <ele>1038.361328125</ele>
        <time>2013-08-24T14:22:26Z</time>
      </trkpt>
      <trkpt lat="47.418653564527631" lon="11.227036351338029">
        <ele>1037.880615234375</ele>
        <time>2013-08-24T14:22:31Z</time>
      </trkpt>
      <trkpt lat="47.419122196733952" lon="11.226699901744723">
        <ele>1038.361328125</ele>
        <time>2013-08-24T14:22:40Z</time>
      </trkpt>
      <trkpt lat="47.419417994096875" lon="11.226487923413515">
        <ele>1038.842041015625</ele>
        <time>2013-08-24T14:22:48Z</time>
      </trkpt>
      <trkpt lat="47.419538693502545" lon="11.226340569555759">
        <ele>1037.39990234375</ele>
        <time>2013-08-24T14:22:52Z</time>
      </trkpt>
      <trkpt lat="47.419624356552958" lon="11.226276028901339">
        <ele>1036.919189453125</ele>
        <time>2013-08-24T14:22:54Z</time>
      </trkpt>
      <trkpt lat="47.419788390398026" lon="11.22630494646728">
        <ele>1037.39990234375</ele>
        <time>2013-08-24T14:22:58Z</time>
      </trkpt>
      <trkpt lat="47.419897271320224" lon="11.226394046097994">
        <ele>1036.438720703125</ele>
        <time>2013-08-24T14:23:02Z</time>
      </trkpt>
      <trkpt lat="47.420081589370966" lon="11.226862845942378">
        <ele>1035.47705078125</ele>
        <time>2013-08-24T14:23:10Z</time>
      </trkpt>
      <trkpt lat="47.42013355717063" lon="11.227189572528005">
        <ele>1037.39990234375</ele>
        <time>2013-08-24T14:23:14Z</time>
      </trkpt>
      <trkpt lat="47.420279905200005" lon="11.227549239993095">
        <ele>1036.438720703125</ele>
        <time>2013-08-24T14:23:19Z</time>
      </trkpt>
      <trkpt lat="47.420469168573618" lon="11.227761721238494">
        <ele>1035.957763671875</ele>
        <time>2013-08-24T14:23:23Z</time>
      </trkpt>
      <trkpt lat="47.420923551544547" lon="11.227996665984392">
        <ele>1035.957763671875</ele>
        <time>2013-08-24T14:23:31Z</time>
      </trkpt>
      <trkpt lat="47.421382796019316" lon="11.228201519697905">
        <ele>1034.03515625</ele>
        <time>2013-08-24T14:23:39Z</time>
      </trkpt>
      <trkpt lat="47.421655459329486" lon="11.228412324562669">
        <ele>1035.957763671875</ele>
        <time>2013-08-24T14:23:46Z</time>
      </trkpt>
      <trkpt lat="47.421815888956189" lon="11.228492204099894">
        <ele>1034.515869140625</ele>
        <time>2013-08-24T14:23:50Z</time>
      </trkpt>
      <trkpt lat="47.421991992741823" lon="11.228647017851472">
        <ele>1034.99658203125</ele>
        <time>2013-08-24T14:23:56Z</time>
      </trkpt>
      <trkpt lat="47.421981934458017" lon="11.228648526594043">
        <ele>1034.515869140625</ele>
        <time>2013-08-24T14:24:10Z</time>
      </trkpt>
      <trkpt lat="47.422082098200917" lon="11.228801580145955">
        <ele>1034.03515625</ele>
        <time>2013-08-24T14:24:15Z</time>
      </trkpt>
      <trkpt lat="47.422111267223954" lon="11.228851536288857">
        <ele>1035.957763671875</ele>
        <time>2013-08-24T14:24:16Z</time>
      </trkpt>
      <trkpt lat="47.422538241371512" lon="11.229287898167968">
        <ele>1034.515869140625</ele>
        <time>2013-08-24T14:24:25Z</time>
      </trkpt>
      <trkpt lat="47.423052052035928" lon="11.229725768789649">
        <ele>1033.554443359375</ele>
        <time>2013-08-24T14:24:34Z</time>
      </trkpt>
      <trkpt lat="47.423850176855922" lon="11.230417946353555">
        <ele>1033.07373046875</ele>
        <time>2013-08-24T14:24:48Z</time>
      </trkpt>
      <trkpt lat="47.424520393833518" lon="11.23113158158958">
        <ele>1030.670654296875</ele>
        <time>2013-08-24T14:25:01Z</time>
      </trkpt>
      <trkpt lat="47.424925155937672" lon="11.231665425002575">
        <ele>1029.709228515625</ele>
        <time>2013-08-24T14:25:10Z</time>
      </trkpt>
      <trkpt lat="47.425052644684911" lon="11.231853850185871">
        <ele>1031.1513671875</ele>
        <time>2013-08-24T14:25:13Z</time>
      </trkpt>
      <trkpt lat="47.4256990570575" lon="11.232755994424224">
        <ele>1030.18994140625</ele>
        <time>2013-08-24T14:25:27Z</time>
      </trkpt>
      <trkpt lat="47.426214711740613" lon="11.233331328257918">
        <ele>1030.670654296875</ele>
        <time>2013-08-24T14:25:37Z</time>
      </trkpt>
      <trkpt lat="47.426475556567311" lon="11.233626790344715">
        <ele>1031.1513671875</ele>
        <time>2013-08-24T14:25:42Z</time>
      </trkpt>
      <trkpt lat="47.426886186003685" lon="11.234089806675911">
        <ele>1031.6318359375</ele>
        <time>2013-08-24T14:25:50Z</time>
      </trkpt>
      <trkpt lat="47.42724752984941" lon="11.234432626515627">
        <ele>1031.6318359375</ele>
        <time>2013-08-24T14:25:58Z</time>
      </trkpt>
      <trkpt lat="47.427355740219355" lon="11.234517283737659">
        <ele>1032.59326171875</ele>
        <time>2013-08-24T14:26:02Z</time>
      </trkpt>
      <trkpt lat="47.427418017759919" lon="11.234568748623133">
        <ele>1030.670654296875</ele>
        <time>2013-08-24T14:26:39Z</time>
      </trkpt>
      <trkpt lat="47.4274483602494" lon="11.234603868797421">
        <ele>1030.670654296875</ele>
        <time>2013-08-24T14:26:40Z</time>
      </trkpt>
      <trkpt lat="47.427516169846058" lon="11.234689364209771">
        <ele>1031.1513671875</ele>
        <time>2013-08-24T14:26:42Z</time>
      </trkpt>
      <trkpt lat="47.427662182599306" lon="11.234791958704591">
        <ele>1030.670654296875</ele>
        <time>2013-08-24T14:26:47Z</time>
      </trkpt>
      <trkpt lat="47.427778607234359" lon="11.23481635004282">
        <ele>1030.670654296875</ele>
        <time>2013-08-24T14:26:50Z</time>
      </trkpt>
      <trkpt lat="47.42788321338594" lon="11.234852392226458">
        <ele>1030.670654296875</ele>
        <time>2013-08-24T14:26:52Z</time>
      </trkpt>
      <trkpt lat="47.428072979673743" lon="11.234950963407755">
        <ele>1030.670654296875</ele>
        <time>2013-08-24T14:26:55Z</time>
      </trkpt>
      <trkpt lat="47.428353186696768" lon="11.235543228685856">
        <ele>1032.112548828125</ele>
        <time>2013-08-24T14:27:03Z</time>
      </trkpt>
      <trkpt lat="47.428566422313452" lon="11.235863417387009">
        <ele>1032.112548828125</ele>
        <time>2013-08-24T14:27:08Z</time>
      </trkpt>
      <trkpt lat="47.428707992658019" lon="11.236096518114209">
        <ele>1032.112548828125</ele>
        <time>2013-08-24T14:27:12Z</time>
      </trkpt>
      <trkpt lat="47.428810419514775" lon="11.236357698217034">
        <ele>1033.07373046875</ele>
        <time>2013-08-24T14:27:16Z</time>
      </trkpt>
      <trkpt lat="47.428892059251666" lon="11.236610831692815">
        <ele>1032.59326171875</ele>
        <time>2013-08-24T14:27:19Z</time>
      </trkpt>
      <trkpt lat="47.428966155275702" lon="11.236842004582286">
        <ele>1033.554443359375</ele>
        <time>2013-08-24T14:27:22Z</time>
      </trkpt>
      <trkpt lat="47.429049974307418" lon="11.237605176866055">
        <ele>1034.03515625</ele>
        <time>2013-08-24T14:27:31Z</time>
      </trkpt>
      <trkpt lat="47.429046118631959" lon="11.23793869279325">
        <ele>1034.03515625</ele>
        <time>2013-08-24T14:27:35Z</time>
      </trkpt>
      <trkpt lat="47.42908182553947" lon="11.238376144319773">
        <ele>1034.99658203125</ele>
        <time>2013-08-24T14:27:40Z</time>
      </trkpt>
      <trkpt lat="47.429123064503074" lon="11.238945359364152">
        <ele>1034.99658203125</ele>
        <time>2013-08-24T14:27:47Z</time>
      </trkpt>
      <trkpt lat="47.429129770025611" lon="11.239015348255634">
        <ele>1035.47705078125</ele>
        <time>2013-08-24T14:27:48Z</time>
      </trkpt>
      <trkpt lat="47.429158519953489" lon="11.239232271909714">
        <ele>1035.47705078125</ele>
        <time>2013-08-24T14:27:51Z</time>
      </trkpt>
      <trkpt lat="47.429192047566175" lon="11.239460175856948">
        <ele>1034.99658203125</ele>
        <time>2013-08-24T14:27:54Z</time>
      </trkpt>
      <trkpt lat="47.429308891296387" lon="11.239815484732389">
        <ele>1034.99658203125</ele>
        <time>2013-08-24T14:28:00Z</time>
      </trkpt>
      <trkpt lat="47.429467141628265" lon="11.240204656496644">
        <ele>1036.438720703125</ele>
        <time>2013-08-24T14:28:07Z</time>
      </trkpt>
      <trkpt lat="47.429555905982852" lon="11.240502633154392">
        <ele>1035.957763671875</ele>
        <time>2013-08-24T14:28:11Z</time>
      </trkpt>
      <trkpt lat="47.429641988128424" lon="11.240965900942683">
        <ele>1036.919189453125</ele>
        <time>2013-08-24T14:28:17Z</time>
      </trkpt>
      <trkpt lat="47.429705271497369" lon="11.241110740229487">
        <ele>1036.438720703125</ele>
        <time>2013-08-24T14:28:20Z</time>
      </trkpt>
      <trkpt lat="47.429946167394519" lon="11.241363035514951">
        <ele>1036.919189453125</ele>
        <time>2013-08-24T14:28:25Z</time>
      </trkpt>
      <trkpt lat="47.430066950619221" lon="11.241675848141313">
        <ele>1036.919189453125</ele>
        <time>2013-08-24T14:28:29Z</time>
      </trkpt>
      <trkpt lat="47.430091174319386" lon="11.241903752088547">
        <ele>1036.919189453125</ele>
        <time>2013-08-24T14:28:32Z</time>
      </trkpt>
      <trkpt lat="47.430068124085665" lon="11.242153951898217">
        <ele>1037.39990234375</ele>
        <time>2013-08-24T14:28:35Z</time>
      </trkpt>
      <trkpt lat="47.429943149909377" lon="11.242481013759971">
        <ele>1037.880615234375</ele>
        <time>2013-08-24T14:28:40Z</time>
      </trkpt>
      <trkpt lat="47.429872406646609" lon="11.242667427286506">
        <ele>1037.880615234375</ele>
        <time>2013-08-24T14:28:43Z</time>
      </trkpt>
      <trkpt lat="47.429740726947784" lon="11.242914022877812">
        <ele>1037.880615234375</ele>
        <time>2013-08-24T14:28:47Z</time>
      </trkpt>
      <trkpt lat="47.429675264284015" lon="11.243150644004345">
        <ele>1038.361328125</ele>
        <time>2013-08-24T14:28:50Z</time>
      </trkpt>
      <trkpt lat="47.429720358923078" lon="11.243724888190627">
        <ele>1038.361328125</ele>
        <time>2013-08-24T14:28:56Z</time>
      </trkpt>
      <trkpt lat="47.429760089144111" lon="11.243908954784274">
        <ele>1038.842041015625</ele>
        <time>2013-08-24T14:28:59Z</time>
      </trkpt>
      <trkpt lat="47.429743325337768" lon="11.24381884932518">
        <ele>1038.842041015625</ele>
        <time>2013-08-24T14:29:09Z</time>
      </trkpt>
      <trkpt lat="47.429739972576499" lon="11.243819771334529">
        <ele>1037.880615234375</ele>
        <time>2013-08-24T14:29:26Z</time>
      </trkpt>
      <trkpt lat="47.429743241518736" lon="11.243924628943205">
        <ele>1037.39990234375</ele>
        <time>2013-08-24T14:29:46Z</time>
      </trkpt>
      <trkpt lat="47.429698314517736" lon="11.244182540103793">
        <ele>1037.39990234375</ele>
        <time>2013-08-24T14:29:50Z</time>
      </trkpt>
      <trkpt lat="47.42958121933043" lon="11.244486887007952">
        <ele>1037.880615234375</ele>
        <time>2013-08-24T14:29:55Z</time>
      </trkpt>
      <trkpt lat="47.429434955120087" lon="11.244789808988571">
        <ele>1037.880615234375</ele>
        <time>2013-08-24T14:30:00Z</time>
      </trkpt>
      <trkpt lat="47.429281817749143" lon="11.245192559435964">
        <ele>1036.438720703125</ele>
        <time>2013-08-24T14:30:06Z</time>
      </trkpt>
      <trkpt lat="47.429222306236625" lon="11.245465641841292">
        <ele>1037.39990234375</ele>
        <time>2013-08-24T14:30:09Z</time>
      </trkpt>
      <trkpt lat="47.429205207154155" lon="11.245656413957477">
        <ele>1037.39990234375</ele>
        <time>2013-08-24T14:30:11Z</time>
      </trkpt>
      <trkpt lat="47.429211912676692" lon="11.24581784941256">
        <ele>1037.39990234375</ele>
        <time>2013-08-24T14:30:13Z</time>
      </trkpt>
      <trkpt lat="47.429221887141466" lon="11.246157651767135">
        <ele>1037.39990234375</ele>
        <time>2013-08-24T14:30:18Z</time>
      </trkpt>
      <trkpt lat="47.429286176338792" lon="11.246624272316694">
        <ele>1038.842041015625</ele>
        <time>2013-08-24T14:30:24Z</time>
      </trkpt>
      <trkpt lat="47.429323727265" lon="11.246691662818193">
        <ele>1037.880615234375</ele>
        <time>2013-08-24T14:30:25Z</time>
      </trkpt>
      <trkpt lat="47.429452473297715" lon="11.247035572305322">
        <ele>1037.880615234375</ele>
        <time>2013-08-24T14:30:30Z</time>
      </trkpt>
      <trkpt lat="47.42950745858252" lon="11.247193654999137">
        <ele>1039.322509765625</ele>
        <time>2013-08-24T14:30:32Z</time>
      </trkpt>
      <trkpt lat="47.42970141582191" lon="11.247696904465556">
        <ele>1037.880615234375</ele>
        <time>2013-08-24T14:30:37Z</time>
      </trkpt>
      <trkpt lat="47.429657494649291" lon="11.248233765363693">
        <ele>1034.03515625</ele>
        <time>2013-08-24T14:30:42Z</time>
      </trkpt>
      <trkpt lat="47.42961642332375" lon="11.248623440042138">
        <ele>1033.07373046875</ele>
        <time>2013-08-24T14:30:45Z</time>
      </trkpt>
      <trkpt lat="47.429553139954805" lon="11.249455763027072">
        <ele>1029.228515625</ele>
        <time>2013-08-24T14:30:51Z</time>
      </trkpt>
      <trkpt lat="47.429535873234272" lon="11.249748626723886">
        <ele>1027.78662109375</ele>
        <time>2013-08-24T14:30:53Z</time>
      </trkpt>
      <trkpt lat="47.429545177146792" lon="11.250071916729212">
        <ele>1024.90283203125</ele>
        <time>2013-08-24T14:30:55Z</time>
      </trkpt>
      <trkpt lat="47.429552720859647" lon="11.250774990767241">
        <ele>1020.576904296875</ele>
        <time>2013-08-24T14:30:59Z</time>
      </trkpt>
      <trkpt lat="47.429523468017578" lon="11.251116134226322">
        <ele>1018.654052734375</ele>
        <time>2013-08-24T14:31:01Z</time>
      </trkpt>
      <trkpt lat="47.429510392248631" lon="11.251286789774895">
        <ele>1018.654052734375</ele>
        <time>2013-08-24T14:31:02Z</time>
      </trkpt>
      <trkpt lat="47.429580129683018" lon="11.251923646777868">
        <ele>1015.28955078125</ele>
        <time>2013-08-24T14:31:06Z</time>
      </trkpt>
      <trkpt lat="47.429611897096038" lon="11.252412647008896">
        <ele>1012.88623046875</ele>
        <time>2013-08-24T14:31:10Z</time>
      </trkpt>
      <trkpt lat="47.429560851305723" lon="11.252544242888689">
        <ele>1010.48291015625</ele>
        <time>2013-08-24T14:31:11Z</time>
      </trkpt>
      <trkpt lat="47.429430093616247" lon="11.252790922299027">
        <ele>1009.041015625</ele>
        <time>2013-08-24T14:31:13Z</time>
      </trkpt>
      <trkpt lat="47.429394386708736" lon="11.253236001357436">
        <ele>1008.560302734375</ele>
        <time>2013-08-24T14:31:17Z</time>
      </trkpt>
      <trkpt lat="47.429678365588188" lon="11.253545293584466">
        <ele>1004.715087890625</ele>
        <time>2013-08-24T14:31:21Z</time>
      </trkpt>
      <trkpt lat="47.429911885410547" lon="11.253857351839542">
        <ele>999.908447265625</ele>
        <time>2013-08-24T14:31:24Z</time>
      </trkpt>
      <trkpt lat="47.430055383592844" lon="11.254101265221834">
        <ele>997.98583984375</ele>
        <time>2013-08-24T14:31:26Z</time>
      </trkpt>
      <trkpt lat="47.43052720092237" lon="11.254518013447523">
        <ele>993.659912109375</ele>
        <time>2013-08-24T14:31:30Z</time>
      </trkpt>
      <trkpt lat="47.430851999670267" lon="11.25492344610393">
        <ele>989.333984375</ele>
        <time>2013-08-24T14:31:33Z</time>
      </trkpt>
      <trkpt lat="47.431298419833183" lon="11.255261655896902">
        <ele>986.449951171875</ele>
        <time>2013-08-24T14:31:36Z</time>
      </trkpt>
      <trkpt lat="47.43144728243351" lon="11.255383109673858">
        <ele>985.488525390625</ele>
        <time>2013-08-24T14:31:37Z</time>
      </trkpt>
      <trkpt lat="47.431864701211452" lon="11.255818465724587">
        <ele>980.201416015625</ele>
        <time>2013-08-24T14:31:40Z</time>
      </trkpt>
      <trkpt lat="47.432171478867531" lon="11.256357422098517">
        <ele>975.394775390625</ele>
        <time>2013-08-24T14:31:43Z</time>
      </trkpt>
      <trkpt lat="47.432678751647472" lon="11.257398286834359">
        <ele>971.54931640625</ele>
        <time>2013-08-24T14:31:49Z</time>
      </trkpt>
      <trkpt lat="47.432764330878854" lon="11.257569696754217">
        <ele>968.66552734375</ele>
        <time>2013-08-24T14:31:50Z</time>
      </trkpt>
      <trkpt lat="47.433208739385009" lon="11.258078394457698">
        <ele>963.37841796875</ele>
        <time>2013-08-24T14:31:54Z</time>
      </trkpt>
      <trkpt lat="47.433708719909191" lon="11.258516600355506">
        <ele>961.455810546875</ele>
        <time>2013-08-24T14:31:59Z</time>
      </trkpt>
      <trkpt lat="47.434175172820687" lon="11.258585248142481">
        <ele>956.649169921875</ele>
        <time>2013-08-24T14:32:04Z</time>
      </trkpt>
      <trkpt lat="47.434262176975608" lon="11.258493969216943">
        <ele>956.16845703125</ele>
        <time>2013-08-24T14:32:05Z</time>
      </trkpt>
      <trkpt lat="47.434593681246042" lon="11.258125752210617">
        <ele>953.76513671875</ele>
        <time>2013-08-24T14:32:09Z</time>
      </trkpt>
      <trkpt lat="47.434902638196945" lon="11.257556956261396">
        <ele>952.322998046875</ele>
        <time>2013-08-24T14:32:14Z</time>
      </trkpt>
      <trkpt lat="47.435125596821308" lon="11.25675187446177">
        <ele>948.95849609375</ele>
        <time>2013-08-24T14:32:20Z</time>
      </trkpt>
      <trkpt lat="47.435252917930484" lon="11.256155166774988">
        <ele>948.95849609375</ele>
        <time>2013-08-24T14:32:25Z</time>
      </trkpt>
      <trkpt lat="47.435283260419965" lon="11.255989791825414">
        <ele>947.997314453125</ele>
        <time>2013-08-24T14:32:27Z</time>
      </trkpt>
      <trkpt lat="47.435381161049008" lon="11.255641859024763">
        <ele>949.439208984375</ele>
        <time>2013-08-24T14:36:33Z</time>
      </trkpt>
      <trkpt lat="47.435369929298759" lon="11.255505569279194">
        <ele>949.919921875</ele>
        <time>2013-08-24T14:36:36Z</time>
      </trkpt>
      <trkpt lat="47.435370767489076" lon="11.255347738042474">
        <ele>951.842529296875</ele>
        <time>2013-08-24T14:36:43Z</time>
      </trkpt>
      <trkpt lat="47.435367666184902" lon="11.25529233366251">
        <ele>950.881103515625</ele>
        <time>2013-08-24T14:36:45Z</time>
      </trkpt>
      <trkpt lat="47.435368923470378" lon="11.255024364218116">
        <ele>951.842529296875</ele>
        <time>2013-08-24T14:36:51Z</time>
      </trkpt>
      <trkpt lat="47.435420891270041" lon="11.254917914047837">
        <ele>952.8037109375</ele>
        <time>2013-08-24T14:36:55Z</time>
      </trkpt>
      <trkpt lat="47.435529353097081" lon="11.254656314849854">
        <ele>954.245849609375</ele>
        <time>2013-08-24T14:37:03Z</time>
      </trkpt>
      <trkpt lat="47.435631528496742" lon="11.254508458077908">
        <ele>955.687744140625</ele>
        <time>2013-08-24T14:37:09Z</time>
      </trkpt>
      <trkpt lat="47.435646532103419" lon="11.254332857206464">
        <ele>956.649169921875</ele>
        <time>2013-08-24T14:37:15Z</time>
      </trkpt>
      <trkpt lat="47.435661368072033" lon="11.254273597151041">
        <ele>956.16845703125</ele>
        <time>2013-08-24T14:37:18Z</time>
      </trkpt>
      <trkpt lat="47.435651393607259" lon="11.254179300740361">
        <ele>957.1298828125</ele>
        <time>2013-08-24T14:37:22Z</time>
      </trkpt>
      <trkpt lat="47.435677964240313" lon="11.254006717354059">
        <ele>958.57177734375</ele>
        <time>2013-08-24T14:37:28Z</time>
      </trkpt>
      <trkpt lat="47.435673018917441" lon="11.253945026546717">
        <ele>959.533203125</ele>
        <time>2013-08-24T14:37:30Z</time>
      </trkpt>
      <trkpt lat="47.435738062486053" lon="11.253745201975107">
        <ele>961.9365234375</ele>
        <time>2013-08-24T14:37:36Z</time>
      </trkpt>
      <trkpt lat="47.435733452439308" lon="11.25354596413672">
        <ele>961.455810546875</ele>
        <time>2013-08-24T14:37:41Z</time>
      </trkpt>
      <trkpt lat="47.43573697283864" lon="11.25352886505425">
        <ele>961.455810546875</ele>
        <time>2013-08-24T14:37:42Z</time>
      </trkpt>
      <trkpt lat="47.435720125213265" lon="11.253279084339738">
        <ele>962.897705078125</ele>
        <time>2013-08-24T14:37:49Z</time>
      </trkpt>
      <trkpt lat="47.435711910948157" lon="11.253231475129724">
        <ele>963.37841796875</ele>
        <time>2013-08-24T14:37:50Z</time>
      </trkpt>
      <trkpt lat="47.435744097456336" lon="11.253067357465625">
        <ele>963.37841796875</ele>
        <time>2013-08-24T14:37:54Z</time>
      </trkpt>
      <trkpt lat="47.435874687507749" lon="11.252945819869637">
        <ele>963.37841796875</ele>
        <time>2013-08-24T14:37:59Z</time>
      </trkpt>
      <trkpt lat="47.435930175706744" lon="11.252887146547437">
        <ele>964.339599609375</ele>
        <time>2013-08-24T14:38:01Z</time>
      </trkpt>
      <trkpt lat="47.436037380248308" lon="11.252729399129748">
        <ele>964.8203125</ele>
        <time>2013-08-24T14:38:06Z</time>
      </trkpt>
      <trkpt lat="47.436080630868673" lon="11.252595540136099">
        <ele>964.8203125</ele>
        <time>2013-08-24T14:38:10Z</time>
      </trkpt>
      <trkpt lat="47.436156235635281" lon="11.252478109672666">
        <ele>965.301025390625</ele>
        <time>2013-08-24T14:38:14Z</time>
      </trkpt>
      <trkpt lat="47.436365028843284" lon="11.252312818542123">
        <ele>966.742919921875</ele>
        <time>2013-08-24T14:38:21Z</time>
      </trkpt>
      <trkpt lat="47.436418170109391" lon="11.251994306221604">
        <ele>967.2236328125</ele>
        <time>2013-08-24T14:38:27Z</time>
      </trkpt>
      <trkpt lat="47.436405345797539" lon="11.251836474984884">
        <ele>967.7041015625</ele>
        <time>2013-08-24T14:38:30Z</time>
      </trkpt>
      <trkpt lat="47.436505509540439" lon="11.251737903803587">
        <ele>968.184814453125</ele>
        <time>2013-08-24T14:38:36Z</time>
      </trkpt>
      <trkpt lat="47.436531074345112" lon="11.251714350655675">
        <ele>968.184814453125</ele>
        <time>2013-08-24T14:38:38Z</time>
      </trkpt>
      <trkpt lat="47.436517830938101" lon="11.25165643170476">
        <ele>970.107421875</ele>
        <time>2013-08-24T14:38:46Z</time>
      </trkpt>
      <trkpt lat="47.436735006049275" lon="11.251508072018623">
        <ele>970.588134765625</ele>
        <time>2013-08-24T14:38:52Z</time>
      </trkpt>
      <trkpt lat="47.436909852549434" lon="11.251359544694424">
        <ele>971.06884765625</ele>
        <time>2013-08-24T14:38:58Z</time>
      </trkpt>
      <trkpt lat="47.436968442052603" lon="11.251294249668717">
        <ele>972.0302734375</ele>
        <time>2013-08-24T14:39:00Z</time>
      </trkpt>
      <trkpt lat="47.437206907197833" lon="11.250953441485763">
        <ele>973.952880859375</ele>
        <time>2013-08-24T14:39:11Z</time>
      </trkpt>
      <trkpt lat="47.437399020418525" lon="11.250767195597291">
        <ele>975.394775390625</ele>
        <time>2013-08-24T14:39:20Z</time>
      </trkpt>
      <trkpt lat="47.437550649046898" lon="11.250509954988956">
        <ele>978.27880859375</ele>
        <time>2013-08-24T14:39:31Z</time>
      </trkpt>
      <trkpt lat="47.437609322369099" lon="11.250378275290132">
        <ele>980.201416015625</ele>
        <time>2013-08-24T14:39:36Z</time>
      </trkpt>
      <trkpt lat="47.437619296833873" lon="11.250349609181285">
        <ele>979.720703125</ele>
        <time>2013-08-24T14:39:37Z</time>
      </trkpt>
      <trkpt lat="47.437615692615509" lon="11.250185491517186">
        <ele>980.68212890625</ele>
        <time>2013-08-24T14:39:41Z</time>
      </trkpt>
      <trkpt lat="47.437602030113339" lon="11.249894639477134">
        <ele>982.604736328125</ele>
        <time>2013-08-24T14:39:51Z</time>
      </trkpt>
      <trkpt lat="47.437608148902655" lon="11.249676123261452">
        <ele>983.56591796875</ele>
        <time>2013-08-24T14:39:59Z</time>
      </trkpt>
      <trkpt lat="47.437605131417513" lon="11.24932567588985">
        <ele>985.008056640625</ele>
        <time>2013-08-24T14:40:07Z</time>
      </trkpt>
      <trkpt lat="47.43762357160449" lon="11.249177567660809">
        <ele>985.96923828125</ele>
        <time>2013-08-24T14:40:13Z</time>
      </trkpt>
      <trkpt lat="47.437606975436211" lon="11.249056030064821">
        <ele>987.4111328125</ele>
        <time>2013-08-24T14:40:18Z</time>
      </trkpt>
      <trkpt lat="47.437546122819185" lon="11.248843129724264">
        <ele>988.372802734375</ele>
        <time>2013-08-24T14:40:25Z</time>
      </trkpt>
      <trkpt lat="47.437460795044899" lon="11.248572897166014">
        <ele>988.372802734375</ele>
        <time>2013-08-24T14:40:33Z</time>
      </trkpt>
      <trkpt lat="47.437450904399157" lon="11.248368881642818">
        <ele>989.814697265625</ele>
        <time>2013-08-24T14:40:39Z</time>
      </trkpt>
      <trkpt lat="47.437458280473948" lon="11.248322278261185">
        <ele>990.77587890625</ele>
        <time>2013-08-24T14:40:41Z</time>
      </trkpt>
      <trkpt lat="47.437464231625199" lon="11.248248349875212">
        <ele>990.77587890625</ele>
        <time>2013-08-24T14:40:44Z</time>
      </trkpt>
      <trkpt lat="47.437447467818856" lon="11.248070821166039">
        <ele>991.256591796875</ele>
        <time>2013-08-24T14:40:50Z</time>
      </trkpt>
      <trkpt lat="47.437364486977458" lon="11.247819531708956">
        <ele>992.218017578125</ele>
        <time>2013-08-24T14:40:56Z</time>
      </trkpt>
      <trkpt lat="47.437304640188813" lon="11.24766924418509">
        <ele>992.218017578125</ele>
        <time>2013-08-24T14:40:59Z</time>
      </trkpt>
      <trkpt lat="47.437262143939734" lon="11.247411416843534">
        <ele>993.659912109375</ele>
        <time>2013-08-24T14:41:06Z</time>
      </trkpt>
      <trkpt lat="47.437263149768114" lon="11.247255429625511">
        <ele>994.140625</ele>
        <time>2013-08-24T14:41:11Z</time>
      </trkpt>
      <trkpt lat="47.437264826148748" lon="11.247225506231189">
        <ele>994.140625</ele>
        <time>2013-08-24T14:41:12Z</time>
      </trkpt>
      <trkpt lat="47.437244793400168" lon="11.246975222602487">
        <ele>995.58251953125</ele>
        <time>2013-08-24T14:41:19Z</time>
      </trkpt>
      <trkpt lat="47.437244458124042" lon="11.246909005567431">
        <ele>997.0244140625</ele>
        <time>2013-08-24T14:41:21Z</time>
      </trkpt>
      <trkpt lat="47.437210092321038" lon="11.246720077469945">
        <ele>997.505126953125</ele>
        <time>2013-08-24T14:41:27Z</time>
      </trkpt>
      <trkpt lat="47.43719357997179" lon="11.246688393875957">
        <ele>997.505126953125</ele>
        <time>2013-08-24T14:41:28Z</time>
      </trkpt>
      <trkpt lat="47.437029043212533" lon="11.246359571814537">
        <ele>998.46630859375</ele>
        <time>2013-08-24T14:41:36Z</time>
      </trkpt>
      <trkpt lat="47.436965676024556" lon="11.246080957353115">
        <ele>999.908447265625</ele>
        <time>2013-08-24T14:41:44Z</time>
      </trkpt>
      <trkpt lat="47.436865260824561" lon="11.245774934068322">
        <ele>1001.350341796875</ele>
        <time>2013-08-24T14:41:53Z</time>
      </trkpt>
      <trkpt lat="47.436757804825902" lon="11.245441753417253">
        <ele>1002.792236328125</ele>
        <time>2013-08-24T14:42:03Z</time>
      </trkpt>
      <trkpt lat="47.436682116240263" lon="11.245140423998237">
        <ele>1004.234619140625</ele>
        <time>2013-08-24T14:42:12Z</time>
      </trkpt>
      <trkpt lat="47.436637859791517" lon="11.244829539209604">
        <ele>1005.676513671875</ele>
        <time>2013-08-24T14:42:21Z</time>
      </trkpt>
      <trkpt lat="47.43663752451539" lon="11.244746055454016">
        <ele>1006.6376953125</ele>
        <time>2013-08-24T14:42:26Z</time>
      </trkpt>
      <trkpt lat="47.436637189239264" lon="11.244711270555854">
        <ele>1007.118408203125</ele>
        <time>2013-08-24T14:42:34Z</time>
      </trkpt>
      <trkpt lat="47.436613803729415" lon="11.244579842314124">
        <ele>1007.59912109375</ele>
        <time>2013-08-24T14:42:42Z</time>
      </trkpt>
      <trkpt lat="47.436544317752123" lon="11.244358727708459">
        <ele>1009.041015625</ele>
        <time>2013-08-24T14:42:55Z</time>
      </trkpt>
      <trkpt lat="47.436495870351791" lon="11.244244147092104">
        <ele>1010.002197265625</ele>
        <time>2013-08-24T14:43:03Z</time>
      </trkpt>
      <trkpt lat="47.436435604467988" lon="11.244073826819658">
        <ele>1012.405517578125</ele>
        <time>2013-08-24T14:43:13Z</time>
      </trkpt>
      <trkpt lat="47.436429904773831" lon="11.244052704423666">
        <ele>1012.405517578125</ele>
        <time>2013-08-24T14:43:14Z</time>
      </trkpt>
      <trkpt lat="47.436377517879009" lon="11.243920605629683">
        <ele>1012.405517578125</ele>
        <time>2013-08-24T14:43:21Z</time>
      </trkpt>
      <trkpt lat="47.436295710504055" lon="11.243730336427689">
        <ele>1013.366943359375</ele>
        <time>2013-08-24T14:43:33Z</time>
      </trkpt>
      <trkpt lat="47.436293363571167" lon="11.24371818266809">
        <ele>1013.366943359375</ele>
        <time>2013-08-24T14:43:44Z</time>
      </trkpt>
      <trkpt lat="47.436242904514074" lon="11.243603099137545">
        <ele>1014.328125</ele>
        <time>2013-08-24T14:43:51Z</time>
      </trkpt>
      <trkpt lat="47.436127569526434" lon="11.243390701711178">
        <ele>1015.770263671875</ele>
        <time>2013-08-24T14:43:57Z</time>
      </trkpt>
      <trkpt lat="47.436070991680026" lon="11.243210909888148">
        <ele>1017.212158203125</ele>
        <time>2013-08-24T14:44:03Z</time>
      </trkpt>
      <trkpt lat="47.436068141832948" lon="11.242988537997007">
        <ele>1017.692626953125</ele>
        <time>2013-08-24T14:44:09Z</time>
      </trkpt>
      <trkpt lat="47.436114577576518" lon="11.242761220782995">
        <ele>1019.615478515625</ele>
        <time>2013-08-24T14:44:15Z</time>
      </trkpt>
      <trkpt lat="47.436123210936785" lon="11.242733225226402">
        <ele>1019.615478515625</ele>
        <time>2013-08-24T14:44:16Z</time>
      </trkpt>
      <trkpt lat="47.436206191778183" lon="11.242492832243443">
        <ele>1021.0576171875</ele>
        <time>2013-08-24T14:44:24Z</time>
      </trkpt>
      <trkpt lat="47.436265787109733" lon="11.242295689880848">
        <ele>1022.018798828125</ele>
        <time>2013-08-24T14:44:30Z</time>
      </trkpt>
      <trkpt lat="47.43627886287868" lon="11.242223018780351">
        <ele>1022.018798828125</ele>
        <time>2013-08-24T14:44:32Z</time>
      </trkpt>
      <trkpt lat="47.436314150691032" lon="11.241825129836798">
        <ele>1024.90283203125</ele>
        <time>2013-08-24T14:44:43Z</time>
      </trkpt>
      <trkpt lat="47.436340050771832" lon="11.241460265591741">
        <ele>1025.38330078125</ele>
        <time>2013-08-24T14:44:53Z</time>
      </trkpt>
      <trkpt lat="47.436356982216239" lon="11.241168575361371">
        <ele>1027.78662109375</ele>
        <time>2013-08-24T14:45:01Z</time>
      </trkpt>
      <trkpt lat="47.436360334977508" lon="11.240790383890271">
        <ele>1028.267333984375</ele>
        <time>2013-08-24T14:45:11Z</time>
      </trkpt>
      <trkpt lat="47.436382127925754" lon="11.240336671471596">
        <ele>1030.18994140625</ele>
        <time>2013-08-24T14:45:23Z</time>
      </trkpt>
      <trkpt lat="47.436391599476337" lon="11.240010028705001">
        <ele>1031.1513671875</ele>
        <time>2013-08-24T14:45:33Z</time>
      </trkpt>
      <trkpt lat="47.436398137360811" lon="11.239724708721042">
        <ele>1031.6318359375</ele>
        <time>2013-08-24T14:45:41Z</time>
      </trkpt>
      <trkpt lat="47.436391012743115" lon="11.239509042352438">
        <ele>1032.59326171875</ele>
        <time>2013-08-24T14:45:47Z</time>
      </trkpt>
      <trkpt lat="47.436359832063317" lon="11.239311983808875">
        <ele>1031.6318359375</ele>
        <time>2013-08-24T14:45:52Z</time>
      </trkpt>
      <trkpt lat="47.436287999153137" lon="11.239061867818236">
        <ele>1031.1513671875</ele>
        <time>2013-08-24T14:45:57Z</time>
      </trkpt>
      <trkpt lat="47.436210885643959" lon="11.238756012171507">
        <ele>1030.670654296875</ele>
        <time>2013-08-24T14:46:03Z</time>
      </trkpt>
      <trkpt lat="47.436148775741458" lon="11.238585524260998">
        <ele>1030.670654296875</ele>
        <time>2013-08-24T14:46:06Z</time>
      </trkpt>
      <trkpt lat="47.436113823205233" lon="11.238476810976863">
        <ele>1030.670654296875</ele>
        <time>2013-08-24T14:46:08Z</time>
      </trkpt>
      <trkpt lat="47.43606143631041" lon="11.238262401893735">
        <ele>1030.670654296875</ele>
        <time>2013-08-24T14:46:13Z</time>
      </trkpt>
      <trkpt lat="47.435981305316091" lon="11.238063331693411">
        <ele>1030.18994140625</ele>
        <time>2013-08-24T14:46:18Z</time>
      </trkpt>
      <trkpt lat="47.435913998633623" lon="11.237905835732818">
        <ele>1030.670654296875</ele>
        <time>2013-08-24T14:46:21Z</time>
      </trkpt>
      <trkpt lat="47.435783408582211" lon="11.237463103607297">
        <ele>1028.748046875</ele>
        <time>2013-08-24T14:46:26Z</time>
      </trkpt>
      <trkpt lat="47.435769746080041" lon="11.237342655658722">
        <ele>1029.709228515625</ele>
        <time>2013-08-24T14:46:29Z</time>
      </trkpt>
      <trkpt lat="47.435765722766519" lon="11.237042080610991">
        <ele>1029.709228515625</ele>
        <time>2013-08-24T14:46:34Z</time>
      </trkpt>
      <trkpt lat="47.43577410466969" lon="11.236982485279441">
        <ele>1030.18994140625</ele>
        <time>2013-08-24T14:46:35Z</time>
      </trkpt>
      <trkpt lat="47.435846440494061" lon="11.236657602712512">
        <ele>1030.18994140625</ele>
        <time>2013-08-24T14:46:40Z</time>
      </trkpt>
      <trkpt lat="47.435889020562172" lon="11.236563306301832">
        <ele>1030.18994140625</ele>
        <time>2013-08-24T14:46:42Z</time>
      </trkpt>
      <trkpt lat="47.435917854309082" lon="11.236143121495843">
        <ele>1029.709228515625</ele>
        <time>2013-08-24T14:46:47Z</time>
      </trkpt>
      <trkpt lat="47.435869574546814" lon="11.235929634422064">
        <ele>1028.748046875</ele>
        <time>2013-08-24T14:46:49Z</time>
      </trkpt>
      <trkpt lat="47.435801764950156" lon="11.235648170113564">
        <ele>1028.267333984375</ele>
        <time>2013-08-24T14:46:53Z</time>
      </trkpt>
      <trkpt lat="47.435653824359179" lon="11.235265955328941">
        <ele>1027.30615234375</ele>
        <time>2013-08-24T14:46:59Z</time>
      </trkpt>
      <trkpt lat="47.435544105246663" lon="11.23459205031395">
        <ele>1028.748046875</ele>
        <time>2013-08-24T14:47:08Z</time>
      </trkpt>
      <trkpt lat="47.435498926788568" lon="11.234177649021149">
        <ele>1030.18994140625</ele>
        <time>2013-08-24T14:47:15Z</time>
      </trkpt>
      <trkpt lat="47.435506721958518" lon="11.233862154185772">
        <ele>1032.59326171875</ele>
        <time>2013-08-24T14:47:23Z</time>
      </trkpt>
      <trkpt lat="47.43549507111311" lon="11.233475580811501">
        <ele>1034.03515625</ele>
        <time>2013-08-24T14:47:33Z</time>
      </trkpt>
      <trkpt lat="47.435509487986565" lon="11.233277935534716">
        <ele>1035.47705078125</ele>
        <time>2013-08-24T14:47:39Z</time>
      </trkpt>
      <trkpt lat="47.435480570420623" lon="11.232915166765451">
        <ele>1034.99658203125</ele>
        <time>2013-08-24T14:47:47Z</time>
      </trkpt>
      <trkpt lat="47.435509236529469" lon="11.232624314725399">
        <ele>1034.99658203125</ele>
        <time>2013-08-24T14:47:53Z</time>
      </trkpt>
      <trkpt lat="47.43554150685668" lon="11.232389621436596">
        <ele>1036.438720703125</ele>
        <time>2013-08-24T14:48:00Z</time>
      </trkpt>
      <trkpt lat="47.43559674359858" lon="11.232219468802214">
        <ele>1036.438720703125</ele>
        <time>2013-08-24T14:48:06Z</time>
      </trkpt>
      <trkpt lat="47.435595821589231" lon="11.231961390003562">
        <ele>1037.39990234375</ele>
        <time>2013-08-24T14:48:11Z</time>
      </trkpt>
      <trkpt lat="47.435581237077713" lon="11.23169451020658">
        <ele>1039.322509765625</ele>
        <time>2013-08-24T14:48:19Z</time>
      </trkpt>
      <trkpt lat="47.435663463547826" lon="11.231375159695745">
        <ele>1039.80322265625</ele>
        <time>2013-08-24T14:48:27Z</time>
      </trkpt>
      <trkpt lat="47.435733200982213" lon="11.231203163042665">
        <ele>1040.764404296875</ele>
        <time>2013-08-24T14:48:33Z</time>
      </trkpt>
      <trkpt lat="47.435780726373196" lon="11.231073830276728">
        <ele>1040.764404296875</ele>
        <time>2013-08-24T14:48:42Z</time>
      </trkpt>
      <trkpt lat="47.435790197923779" lon="11.231063017621636">
        <ele>1040.283935546875</ele>
        <time>2013-08-24T14:49:03Z</time>
      </trkpt>
      <trkpt lat="47.435824144631624" lon="11.231025382876396">
        <ele>1040.283935546875</ele>
        <time>2013-08-24T14:49:12Z</time>
      </trkpt>
      <trkpt lat="47.435823725536466" lon="11.231024544686079">
        <ele>1040.283935546875</ele>
        <time>2013-08-24T14:49:16Z</time>
      </trkpt>
      <trkpt lat="47.43587770499289" lon="11.230859672650695">
        <ele>1040.764404296875</ele>
        <time>2013-08-24T14:49:24Z</time>
      </trkpt>
      <trkpt lat="47.435929840430617" lon="11.230739559978247">
        <ele>1041.2451171875</ele>
        <time>2013-08-24T14:49:29Z</time>
      </trkpt>
      <trkpt lat="47.436131509020925" lon="11.230574017390609">
        <ele>1043.6484375</ele>
        <time>2013-08-24T14:49:38Z</time>
      </trkpt>
      <trkpt lat="47.436244580894709" lon="11.230497071519494">
        <ele>1045.09033203125</ele>
        <time>2013-08-24T14:49:43Z</time>
      </trkpt>
      <trkpt lat="47.436296129599214" lon="11.230484833940864">
        <ele>1046.0517578125</ele>
        <time>2013-08-24T14:49:45Z</time>
      </trkpt>
      <trkpt lat="47.436371818184853" lon="11.230281824246049">
        <ele>1047.012939453125</ele>
        <time>2013-08-24T14:49:54Z</time>
      </trkpt>
      <trkpt lat="47.436439963057637" lon="11.230045035481453">
        <ele>1050.377685546875</ele>
        <time>2013-08-24T14:50:02Z</time>
      </trkpt>
      <trkpt lat="47.436447758227587" lon="11.230034893378615">
        <ele>1049.89697265625</ele>
        <time>2013-08-24T14:50:03Z</time>
      </trkpt>
      <trkpt lat="47.436515651643276" lon="11.229835990816355">
        <ele>1050.858154296875</ele>
        <time>2013-08-24T14:50:13Z</time>
      </trkpt>
      <trkpt lat="47.436537360772491" lon="11.229648403823376">
        <ele>1053.26171875</ele>
        <time>2013-08-24T14:50:21Z</time>
      </trkpt>
      <trkpt lat="47.436549179255962" lon="11.229609679430723">
        <ele>1053.742431640625</ele>
        <time>2013-08-24T14:50:23Z</time>
      </trkpt>
      <trkpt lat="47.436613216996193" lon="11.229508761316538">
        <ele>1054.70361328125</ele>
        <time>2013-08-24T14:50:29Z</time>
      </trkpt>
      <trkpt lat="47.436613636091352" lon="11.229410609230399">
        <ele>1055.184326171875</ele>
        <time>2013-08-24T14:50:34Z</time>
      </trkpt>
      <trkpt lat="47.436606343835592" lon="11.229206845164299">
        <ele>1055.6650390625</ele>
        <time>2013-08-24T14:50:43Z</time>
      </trkpt>
      <trkpt lat="47.436594944447279" lon="11.22901875525713">
        <ele>1057.10693359375</ele>
        <time>2013-08-24T14:50:52Z</time>
      </trkpt>
      <trkpt lat="47.436555298045278" lon="11.228837370872498">
        <ele>1058.548828125</ele>
        <time>2013-08-24T14:51:01Z</time>
      </trkpt>
      <trkpt lat="47.436564853414893" lon="11.22869286686182">
        <ele>1059.029541015625</ele>
        <time>2013-08-24T14:51:07Z</time>
      </trkpt>
      <trkpt lat="47.43649972602725" lon="11.228494634851813">
        <ele>1059.99072265625</ele>
        <time>2013-08-24T14:51:15Z</time>
      </trkpt>
      <trkpt lat="47.436470221728086" lon="11.228299839422107">
        <ele>1060.9521484375</ele>
        <time>2013-08-24T14:51:23Z</time>
      </trkpt>
      <trkpt lat="47.436461336910725" lon="11.228034216910601">
        <ele>1062.874755859375</ele>
        <time>2013-08-24T14:51:33Z</time>
      </trkpt>
      <trkpt lat="47.436488159000874" lon="11.227805307134986">
        <ele>1065.278076171875</ele>
        <time>2013-08-24T14:51:44Z</time>
      </trkpt>
      <trkpt lat="47.436507605016232" lon="11.227653175592422">
        <ele>1067.20068359375</ele>
        <time>2013-08-24T14:51:52Z</time>
      </trkpt>
      <trkpt lat="47.436527721583843" lon="11.227440778166056">
        <ele>1068.642822265625</ele>
        <time>2013-08-24T14:52:02Z</time>
      </trkpt>
      <trkpt lat="47.436549598351121" lon="11.227265512570739">
        <ele>1070.5654296875</ele>
        <time>2013-08-24T14:52:11Z</time>
      </trkpt>
      <trkpt lat="47.436567535623908" lon="11.227194853127003">
        <ele>1071.526611328125</ele>
        <time>2013-08-24T14:52:15Z</time>
      </trkpt>
      <trkpt lat="47.43656761944294" lon="11.226991256698966">
        <ele>1073.929931640625</ele>
        <time>2013-08-24T14:52:25Z</time>
      </trkpt>
      <trkpt lat="47.436587149277329" lon="11.226836526766419">
        <ele>1074.41064453125</ele>
        <time>2013-08-24T14:52:32Z</time>
      </trkpt>
      <trkpt lat="47.436606679111719" lon="11.226608622819185">
        <ele>1075.8525390625</ele>
        <time>2013-08-24T14:52:42Z</time>
      </trkpt>
      <trkpt lat="47.436663592234254" lon="11.226325565949082">
        <ele>1078.255859375</ele>
        <time>2013-08-24T14:52:55Z</time>
      </trkpt>
      <trkpt lat="47.436702819541097" lon="11.226116437464952">
        <ele>1079.69775390625</ele>
        <time>2013-08-24T14:53:04Z</time>
      </trkpt>
      <trkpt lat="47.436770545318723" lon="11.225720811635256">
        <ele>1081.620361328125</ele>
        <time>2013-08-24T14:53:23Z</time>
      </trkpt>
      <trkpt lat="47.436821004375815" lon="11.225605057552457">
        <ele>1082.581787109375</ele>
        <time>2013-08-24T14:53:32Z</time>
      </trkpt>
      <trkpt lat="47.436827793717384" lon="11.225630706176162">
        <ele>1082.10107421875</ele>
        <time>2013-08-24T14:53:44Z</time>
      </trkpt>
      <trkpt lat="47.436832990497351" lon="11.225630035623908">
        <ele>1078.255859375</ele>
        <time>2013-08-24T14:54:04Z</time>
      </trkpt>
      <trkpt lat="47.436833074316382" lon="11.225630035623908">
        <ele>1081.620361328125</ele>
        <time>2013-08-24T14:54:05Z</time>
      </trkpt>
      <trkpt lat="47.436833325773478" lon="11.225628107786179">
        <ele>1082.10107421875</ele>
        <time>2013-08-24T14:54:19Z</time>
      </trkpt>
      <trkpt lat="47.436910020187497" lon="11.225488381460309">
        <ele>1082.10107421875</ele>
        <time>2013-08-24T14:54:27Z</time>
      </trkpt>
      <trkpt lat="47.437028540298343" lon="11.225247737020254">
        <ele>1082.581787109375</ele>
        <time>2013-08-24T14:54:35Z</time>
      </trkpt>
      <trkpt lat="47.437111688777804" lon="11.225042212754488">
        <ele>1083.062255859375</ele>
        <time>2013-08-24T14:54:41Z</time>
      </trkpt>
      <trkpt lat="47.437201291322708" lon="11.224682629108429">
        <ele>1083.062255859375</ele>
        <time>2013-08-24T14:54:49Z</time>
      </trkpt>
      <trkpt lat="47.437229035422206" lon="11.224301001057029">
        <ele>1083.54296875</ele>
        <time>2013-08-24T14:54:56Z</time>
      </trkpt>
      <trkpt lat="47.437216211110353" lon="11.22378702275455">
        <ele>1082.10107421875</ele>
        <time>2013-08-24T14:55:04Z</time>
      </trkpt>
      <trkpt lat="47.437080508098006" lon="11.223266003653407">
        <ele>1081.139892578125</ele>
        <time>2013-08-24T14:55:12Z</time>
      </trkpt>
      <trkpt lat="47.43702937848866" lon="11.22280147857964">
        <ele>1080.178466796875</ele>
        <time>2013-08-24T14:55:18Z</time>
      </trkpt>
      <trkpt lat="47.43704597465694" lon="11.222740290686488">
        <ele>1079.217041015625</ele>
        <time>2013-08-24T14:55:19Z</time>
      </trkpt>
      <trkpt lat="47.437176732346416" lon="11.222241735085845">
        <ele>1076.333251953125</ele>
        <time>2013-08-24T14:55:25Z</time>
      </trkpt>
      <trkpt lat="47.437315871939063" lon="11.221793554723263">
        <ele>1072.488037109375</ele>
        <time>2013-08-24T14:55:29Z</time>
      </trkpt>
      <trkpt lat="47.437350992113352" lon="11.221667490899563">
        <ele>1072.488037109375</ele>
        <time>2013-08-24T14:55:30Z</time>
      </trkpt>
      <trkpt lat="47.437458448112011" lon="11.221261387690902">
        <ele>1070.084716796875</ele>
        <time>2013-08-24T14:55:33Z</time>
      </trkpt>
      <trkpt lat="47.437532125040889" lon="11.220971373841166">
        <ele>1068.162109375</ele>
        <time>2013-08-24T14:55:35Z</time>
      </trkpt>
      <trkpt lat="47.43769247084856" lon="11.220381036400795">
        <ele>1064.316650390625</ele>
        <time>2013-08-24T14:55:39Z</time>
      </trkpt>
      <trkpt lat="47.437809901311994" lon="11.219821544364095">
        <ele>1065.7587890625</ele>
        <time>2013-08-24T14:55:43Z</time>
      </trkpt>
      <trkpt lat="47.437794730067253" lon="11.219073040410876">
        <ele>1067.20068359375</ele>
        <time>2013-08-24T14:55:49Z</time>
      </trkpt>
      <trkpt lat="47.437599766999483" lon="11.218543220311403">
        <ele>1067.68115234375</ele>
        <time>2013-08-24T14:55:55Z</time>
      </trkpt>
      <trkpt lat="47.437487030401826" lon="11.218168716877699">
        <ele>1065.7587890625</ele>
        <time>2013-08-24T14:55:59Z</time>
      </trkpt>
      <trkpt lat="47.437471942976117" lon="11.217931089922786">
        <ele>1065.278076171875</ele>
        <time>2013-08-24T14:56:01Z</time>
      </trkpt>
      <trkpt lat="47.437475128099322" lon="11.217658761888742">
        <ele>1063.35546875</ele>
        <time>2013-08-24T14:56:03Z</time>
      </trkpt>
      <trkpt lat="47.437515864148736" lon="11.217248383909464">
        <ele>1060.471435546875</ele>
        <time>2013-08-24T14:56:06Z</time>
      </trkpt>
      <trkpt lat="47.437742678448558" lon="11.21669115498662">
        <ele>1059.99072265625</ele>
        <time>2013-08-24T14:56:11Z</time>
      </trkpt>
      <trkpt lat="47.437879135832191" lon="11.216435171663761">
        <ele>1060.471435546875</ele>
        <time>2013-08-24T14:56:15Z</time>
      </trkpt>
      <trkpt lat="47.438002014532685" lon="11.216354621574283">
        <ele>1059.029541015625</ele>
        <time>2013-08-24T14:56:20Z</time>
      </trkpt>
      <trkpt lat="47.438035542145371" lon="11.216329392045736">
        <ele>1059.029541015625</ele>
        <time>2013-08-24T14:56:21Z</time>
      </trkpt>
      <trkpt lat="47.438202677294612" lon="11.216065781190991">
        <ele>1057.587646484375</ele>
        <time>2013-08-24T14:56:26Z</time>
      </trkpt>
      <trkpt lat="47.438655635342002" lon="11.215512994676828">
        <ele>1057.10693359375</ele>
        <time>2013-08-24T14:56:35Z</time>
      </trkpt>
      <trkpt lat="47.439058972522616" lon="11.215034974738955">
        <ele>1056.626220703125</ele>
        <time>2013-08-24T14:56:43Z</time>
      </trkpt>
      <trkpt lat="47.439324846491218" lon="11.214547147974372">
        <ele>1056.626220703125</ele>
        <time>2013-08-24T14:56:50Z</time>
      </trkpt>
      <trkpt lat="47.439451413229108" lon="11.214387640357018">
        <ele>1057.10693359375</ele>
        <time>2013-08-24T14:56:55Z</time>
      </trkpt>
      <trkpt lat="47.439431883394718" lon="11.214417731389403">
        <ele>1057.10693359375</ele>
        <time>2013-08-24T14:57:01Z</time>
      </trkpt>
      <trkpt lat="47.439436744898558" lon="11.214412786066532">
        <ele>1057.587646484375</ele>
        <time>2013-08-24T14:57:34Z</time>
      </trkpt>
      <trkpt lat="47.439559288322926" lon="11.214292757213116">
        <ele>1056.1455078125</ele>
        <time>2013-08-24T14:57:40Z</time>
      </trkpt>
      <trkpt lat="47.439674623310566" lon="11.214180774986744">
        <ele>1055.184326171875</ele>
        <time>2013-08-24T14:57:43Z</time>
      </trkpt>
      <trkpt lat="47.439996069297194" lon="11.21361575089395">
        <ele>1056.1455078125</ele>
        <time>2013-08-24T14:57:53Z</time>
      </trkpt>
      <trkpt lat="47.440489763393998" lon="11.212776051834226">
        <ele>1056.626220703125</ele>
        <time>2013-08-24T14:58:07Z</time>
      </trkpt>
      <trkpt lat="47.440584730356932" lon="11.212599026039243">
        <ele>1056.1455078125</ele>
        <time>2013-08-24T14:58:10Z</time>
      </trkpt>
      <trkpt lat="47.440648432821035" lon="11.212440608069301">
        <ele>1057.587646484375</ele>
        <time>2013-08-24T14:58:13Z</time>
      </trkpt>
      <trkpt lat="47.440751362591982" lon="11.212248411029577">
        <ele>1057.587646484375</ele>
        <time>2013-08-24T14:58:19Z</time>
      </trkpt>
      <trkpt lat="47.440970633178949" lon="11.212115474045277">
        <ele>1059.029541015625</ele>
        <time>2013-08-24T14:58:27Z</time>
      </trkpt>
      <trkpt lat="47.441096948459744" lon="11.211955463513732">
        <ele>1059.51025390625</ele>
        <time>2013-08-24T14:58:32Z</time>
      </trkpt>
      <trkpt lat="47.441256958991289" lon="11.211790088564157">
        <ele>1059.029541015625</ele>
        <time>2013-08-24T14:58:38Z</time>
      </trkpt>
      <trkpt lat="47.441518809646368" lon="11.211420949548483">
        <ele>1058.548828125</ele>
        <time>2013-08-24T14:58:47Z</time>
      </trkpt>
      <trkpt lat="47.441813601180911" lon="11.210909318178892">
        <ele>1060.471435546875</ele>
        <time>2013-08-24T14:58:57Z</time>
      </trkpt>
      <trkpt lat="47.442025747150183" lon="11.210404895246029">
        <ele>1058.068359375</ele>
        <time>2013-08-24T14:59:05Z</time>
      </trkpt>
      <trkpt lat="47.442065225914121" lon="11.210230216383934">
        <ele>1057.587646484375</ele>
        <time>2013-08-24T14:59:07Z</time>
      </trkpt>
      <trkpt lat="47.442187601700425" lon="11.209863508120179">
        <ele>1054.70361328125</ele>
        <time>2013-08-24T14:59:11Z</time>
      </trkpt>
      <trkpt lat="47.442273013293743" lon="11.209677346050739">
        <ele>1053.742431640625</ele>
        <time>2013-08-24T14:59:13Z</time>
      </trkpt>
      <trkpt lat="47.442508209496737" lon="11.209232183173299">
        <ele>1051.3388671875</ele>
        <time>2013-08-24T14:59:18Z</time>
      </trkpt>
      <trkpt lat="47.443172726780176" lon="11.208225851878524">
        <ele>1050.377685546875</ele>
        <time>2013-08-24T14:59:31Z</time>
      </trkpt>
      <trkpt lat="47.443668935447931" lon="11.207386907190084">
        <ele>1049.416259765625</ele>
        <time>2013-08-24T14:59:42Z</time>
      </trkpt>
      <trkpt lat="47.443838333711028" lon="11.206765472888947">
        <ele>1049.416259765625</ele>
        <time>2013-08-24T14:59:49Z</time>
      </trkpt>
      <trkpt lat="47.443857276812196" lon="11.206684755161405">
        <ele>1050.377685546875</ele>
        <time>2013-08-24T14:59:50Z</time>
      </trkpt>
      <trkpt lat="47.444061879068613" lon="11.206087712198496">
        <ele>1051.819580078125</ele>
        <time>2013-08-24T14:59:59Z</time>
      </trkpt>
      <trkpt lat="47.444377625361085" lon="11.205441299825907">
        <ele>1051.819580078125</ele>
        <time>2013-08-24T15:00:10Z</time>
      </trkpt>
      <trkpt lat="47.444510897621512" lon="11.205222196877003">
        <ele>1051.3388671875</ele>
        <time>2013-08-24T15:00:14Z</time>
      </trkpt>
      <trkpt lat="47.444570912048221" lon="11.205104514956474">
        <ele>1051.3388671875</ele>
        <time>2013-08-24T15:00:16Z</time>
      </trkpt>
      <trkpt lat="47.444789595901966" lon="11.204404290765524">
        <ele>1049.416259765625</ele>
        <time>2013-08-24T15:00:26Z</time>
      </trkpt>
      <trkpt lat="47.444810131564736" lon="11.204323992133141">
        <ele>1049.89697265625</ele>
        <time>2013-08-24T15:00:27Z</time>
      </trkpt>
      <trkpt lat="47.44490023702383" lon="11.203903974965215">
        <ele>1049.416259765625</ele>
        <time>2013-08-24T15:00:33Z</time>
      </trkpt>
      <trkpt lat="47.444910295307636" lon="11.203893162310123">
        <ele>1049.89697265625</ele>
        <time>2013-08-24T15:00:38Z</time>
      </trkpt>
      <trkpt lat="47.444908702746034" lon="11.2039047293365">
        <ele>1049.416259765625</ele>
        <time>2013-08-24T15:01:06Z</time>
      </trkpt>
      <trkpt lat="47.444908199831843" lon="11.203912775963545">
        <ele>1049.416259765625</ele>
        <time>2013-08-24T15:01:17Z</time>
      </trkpt>
      <trkpt lat="47.444857908412814" lon="11.203711945563555">
        <ele>1047.974365234375</ele>
        <time>2013-08-24T15:01:23Z</time>
      </trkpt>
      <trkpt lat="47.444880288094282" lon="11.203308440744877">
        <ele>1046.532470703125</ele>
        <time>2013-08-24T15:01:29Z</time>
      </trkpt>
      <trkpt lat="47.444895040243864" lon="11.202733358368278">
        <ele>1046.532470703125</ele>
        <time>2013-08-24T15:01:37Z</time>
      </trkpt>
      <trkpt lat="47.444904092699289" lon="11.202662782743573">
        <ele>1046.0517578125</ele>
        <time>2013-08-24T15:01:38Z</time>
      </trkpt>
      <trkpt lat="47.445065192878246" lon="11.202188367024064">
        <ele>1045.571044921875</ele>
        <time>2013-08-24T15:01:45Z</time>
      </trkpt>
      <trkpt lat="47.445136774331331" lon="11.201977981254458">
        <ele>1045.09033203125</ele>
        <time>2013-08-24T15:01:48Z</time>
      </trkpt>
      <trkpt lat="47.445235596969724" lon="11.201567351818085">
        <ele>1045.09033203125</ele>
        <time>2013-08-24T15:01:53Z</time>
      </trkpt>
      <trkpt lat="47.445443384349346" lon="11.201320169493556">
        <ele>1044.609619140625</ele>
        <time>2013-08-24T15:01:58Z</time>
      </trkpt>
      <trkpt lat="47.445692159235477" lon="11.201247666031122">
        <ele>1042.687255859375</ele>
        <time>2013-08-24T15:02:02Z</time>
      </trkpt>
      <trkpt lat="47.445921404287219" lon="11.201087404042482">
        <ele>1043.167724609375</ele>
        <time>2013-08-24T15:02:06Z</time>
      </trkpt>
      <trkpt lat="47.446173531934619" lon="11.200657328590751">
        <ele>1042.687255859375</ele>
        <time>2013-08-24T15:02:12Z</time>
      </trkpt>
      <trkpt lat="47.446353742852807" lon="11.200170172378421">
        <ele>1041.2451171875</ele>
        <time>2013-08-24T15:02:18Z</time>
      </trkpt>
      <trkpt lat="47.446380145847797" lon="11.200081072747707">
        <ele>1041.2451171875</ele>
        <time>2013-08-24T15:02:19Z</time>
      </trkpt>
      <trkpt lat="47.446457343176007" lon="11.199799859896302">
        <ele>1040.764404296875</ele>
        <time>2013-08-24T15:02:22Z</time>
      </trkpt>
      <trkpt lat="47.446709554642439" lon="11.199445305392146">
        <ele>1038.842041015625</ele>
        <time>2013-08-24T15:02:27Z</time>
      </trkpt>
      <trkpt lat="47.446900578215718" lon="11.19932234287262">
        <ele>1038.361328125</ele>
        <time>2013-08-24T15:02:30Z</time>
      </trkpt>
      <trkpt lat="47.447076849639416" lon="11.199044063687325">
        <ele>1037.880615234375</ele>
        <time>2013-08-24T15:02:34Z</time>
      </trkpt>
      <trkpt lat="47.447254126891494" lon="11.198164047673345">
        <ele>1036.438720703125</ele>
        <time>2013-08-24T15:02:43Z</time>
      </trkpt>
      <trkpt lat="47.447264101356268" lon="11.198073271661997">
        <ele>1036.919189453125</ele>
        <time>2013-08-24T15:02:44Z</time>
      </trkpt>
      <trkpt lat="47.447228813543916" lon="11.197386458516121">
        <ele>1035.957763671875</ele>
        <time>2013-08-24T15:02:51Z</time>
      </trkpt>
      <trkpt lat="47.447236608713865" lon="11.196941798552871">
        <ele>1034.99658203125</ele>
        <time>2013-08-24T15:02:55Z</time>
      </trkpt>
      <trkpt lat="47.447447245940566" lon="11.19641650468111">
        <ele>1034.515869140625</ele>
        <time>2013-08-24T15:03:01Z</time>
      </trkpt>
      <trkpt lat="47.447884529829025" lon="11.19582574814558">
        <ele>1033.554443359375</ele>
        <time>2013-08-24T15:03:10Z</time>
      </trkpt>
      <trkpt lat="47.448048815131187" lon="11.195541098713875">
        <ele>1033.07373046875</ele>
        <time>2013-08-24T15:03:14Z</time>
      </trkpt>
      <trkpt lat="47.448141854256392" lon="11.195185035467148">
        <ele>1032.59326171875</ele>
        <time>2013-08-24T15:03:18Z</time>
      </trkpt>
      <trkpt lat="47.44818426668644" lon="11.194609785452485">
        <ele>1033.07373046875</ele>
        <time>2013-08-24T15:03:24Z</time>
      </trkpt>
      <trkpt lat="47.448303960263729" lon="11.194082228466868">
        <ele>1032.112548828125</ele>
        <time>2013-08-24T15:03:30Z</time>
      </trkpt>
      <trkpt lat="47.448673099279404" lon="11.193229872733355">
        <ele>1032.112548828125</ele>
        <time>2013-08-24T15:03:41Z</time>
      </trkpt>
      <trkpt lat="47.44870075955987" lon="11.193143790587783">
        <ele>1032.112548828125</ele>
        <time>2013-08-24T15:03:42Z</time>
      </trkpt>
      <trkpt lat="47.448990270495415" lon="11.19262813590467">
        <ele>1030.670654296875</ele>
        <time>2013-08-24T15:03:49Z</time>
      </trkpt>
      <trkpt lat="47.44935991242528" lon="11.191939814016223">
        <ele>1029.709228515625</ele>
        <time>2013-08-24T15:03:58Z</time>
      </trkpt>
      <trkpt lat="47.449596785008907" lon="11.191737726330757">
        <ele>1028.267333984375</ele>
        <time>2013-08-24T15:04:02Z</time>
      </trkpt>
      <trkpt lat="47.45032349601388" lon="11.191359283402562">
        <ele>1026.3447265625</ele>
        <time>2013-08-24T15:04:13Z</time>
      </trkpt>
      <trkpt lat="47.451043585315347" lon="11.190786547958851">
        <ele>1025.38330078125</ele>
        <time>2013-08-24T15:04:25Z</time>
      </trkpt>
      <trkpt lat="47.451091529801488" lon="11.190733406692743">
        <ele>1026.3447265625</ele>
        <time>2013-08-24T15:04:28Z</time>
      </trkpt>
      <trkpt lat="47.451046099886298" lon="11.190784620121121">
        <ele>1026.3447265625</ele>
        <time>2013-08-24T15:04:35Z</time>
      </trkpt>
      <trkpt lat="47.451019361615181" lon="11.190839102491736">
        <ele>1025.864013671875</ele>
        <time>2013-08-24T15:04:41Z</time>
      </trkpt>
      <trkpt lat="47.450985331088305" lon="11.190780010074377">
        <ele>1025.38330078125</ele>
        <time>2013-08-24T15:04:46Z</time>
      </trkpt>
      <trkpt lat="47.450993712991476" lon="11.19072200730443">
        <ele>1025.38330078125</ele>
        <time>2013-08-24T15:04:47Z</time>
      </trkpt>
      <trkpt lat="47.451067641377449" lon="11.190522601827979">
        <ele>1023.4609375</ele>
        <time>2013-08-24T15:04:50Z</time>
      </trkpt>
      <trkpt lat="47.451211642473936" lon="11.190259326249361">
        <ele>1022.980224609375</ele>
        <time>2013-08-24T15:04:55Z</time>
      </trkpt>
      <trkpt lat="47.451445329934359" lon="11.189968809485435">
        <ele>1022.980224609375</ele>
        <time>2013-08-24T15:05:01Z</time>
      </trkpt>
      <trkpt lat="47.451674155890942" lon="11.18978725746274">
        <ele>1021.0576171875</ele>
        <time>2013-08-24T15:05:06Z</time>
      </trkpt>
      <trkpt lat="47.451752526685596" lon="11.189695224165916">
        <ele>1021.5380859375</ele>
        <time>2013-08-24T15:05:08Z</time>
      </trkpt>
      <trkpt lat="47.451870879158378" lon="11.189382998272777">
        <ele>1021.0576171875</ele>
        <time>2013-08-24T15:05:14Z</time>
      </trkpt>
      <trkpt lat="47.451926786452532" lon="11.189197422936559">
        <ele>1019.615478515625</ele>
        <time>2013-08-24T15:05:17Z</time>
      </trkpt>
      <trkpt lat="47.452048575505614" lon="11.188956862315536">
        <ele>1020.09619140625</ele>
        <time>2013-08-24T15:05:21Z</time>
      </trkpt>
      <trkpt lat="47.452146895229816" lon="11.188715044409037">
        <ele>1019.615478515625</ele>
        <time>2013-08-24T15:05:25Z</time>
      </trkpt>
      <trkpt lat="47.452406482771039" lon="11.188281951472163">
        <ele>1017.692626953125</ele>
        <time>2013-08-24T15:05:33Z</time>
      </trkpt>
      <trkpt lat="47.452622903510928" lon="11.187870567664504">
        <ele>1014.808837890625</ele>
        <time>2013-08-24T15:05:38Z</time>
      </trkpt>
      <trkpt lat="47.452716277912259" lon="11.187613410875201">
        <ele>1014.808837890625</ele>
        <time>2013-08-24T15:05:42Z</time>
      </trkpt>
      <trkpt lat="47.452749721705914" lon="11.18759916163981">
        <ele>1014.808837890625</ele>
        <time>2013-08-24T15:05:43Z</time>
      </trkpt>
      <trkpt lat="47.452838150784373" lon="11.187620619311929">
        <ele>1013.847412109375</ele>
        <time>2013-08-24T15:05:45Z</time>
      </trkpt>
      <trkpt lat="47.453057924285531" lon="11.187711646780372">
        <ele>1013.847412109375</ele>
        <time>2013-08-24T15:05:49Z</time>
      </trkpt>
      <trkpt lat="47.453169571235776" lon="11.187741234898567">
        <ele>1012.405517578125</ele>
        <time>2013-08-24T15:05:51Z</time>
      </trkpt>
      <trkpt lat="47.453406779095531" lon="11.187661606818438">
        <ele>1011.925048828125</ele>
        <time>2013-08-24T15:05:56Z</time>
      </trkpt>
      <trkpt lat="47.453760327771306" lon="11.187543673440814">
        <ele>1010.963623046875</ele>
        <time>2013-08-24T15:06:03Z</time>
      </trkpt>
      <trkpt lat="47.453919416293502" lon="11.187467314302921">
        <ele>1010.002197265625</ele>
        <time>2013-08-24T15:06:06Z</time>
      </trkpt>
      <trkpt lat="47.454023016616702" lon="11.18736807256937">
        <ele>1010.002197265625</ele>
        <time>2013-08-24T15:06:08Z</time>
      </trkpt>
      <trkpt lat="47.45415922254324" lon="11.187261706218123">
        <ele>1009.521728515625</ele>
        <time>2013-08-24T15:06:11Z</time>
      </trkpt>
      <trkpt lat="47.454526433721185" lon="11.187284253537655">
        <ele>1009.041015625</ele>
        <time>2013-08-24T15:06:18Z</time>
      </trkpt>
      <trkpt lat="47.454786775633693" lon="11.1873182002455">
        <ele>1008.079833984375</ele>
        <time>2013-08-24T15:06:23Z</time>
      </trkpt>
      <trkpt lat="47.455368731170893" lon="11.187450885772705">
        <ele>1006.156982421875</ele>
        <time>2013-08-24T15:06:32Z</time>
      </trkpt>
      <trkpt lat="47.45557576417923" lon="11.187501009553671">
        <ele>1004.715087890625</ele>
        <time>2013-08-24T15:06:35Z</time>
      </trkpt>
      <trkpt lat="47.455917494371533" lon="11.187527244910598">
        <ele>1004.234619140625</ele>
        <time>2013-08-24T15:06:41Z</time>
      </trkpt>
      <trkpt lat="47.45607272721827" lon="11.187536465004086">
        <ele>1005.19580078125</ele>
        <time>2013-08-24T15:06:46Z</time>
      </trkpt>
      <trkpt lat="47.456217901781201" lon="11.187530346214771">
        <ele>1004.234619140625</ele>
        <time>2013-08-24T15:06:49Z</time>
      </trkpt>
      <trkpt lat="47.456788374111056" lon="11.187660014256835">
        <ele>1001.350341796875</ele>
        <time>2013-08-24T15:06:58Z</time>
      </trkpt>
      <trkpt lat="47.45701476931572" lon="11.187627743929625">
        <ele>1002.3115234375</ele>
        <time>2013-08-24T15:07:03Z</time>
      </trkpt>
      <trkpt lat="47.457244098186493" lon="11.187721621245146">
        <ele>1000.86962890625</ele>
        <time>2013-08-24T15:07:09Z</time>
      </trkpt>
      <trkpt lat="47.457606447860599" lon="11.187745174393058">
        <ele>999.427734375</ele>
        <time>2013-08-24T15:07:15Z</time>
      </trkpt>
      <trkpt lat="47.457969719544053" lon="11.187708042562008">
        <ele>999.427734375</ele>
        <time>2013-08-24T15:07:21Z</time>
      </trkpt>
      <trkpt lat="47.458256464451551" lon="11.187798315659165">
        <ele>998.46630859375</ele>
        <time>2013-08-24T15:07:26Z</time>
      </trkpt>
      <trkpt lat="47.458621244877577" lon="11.187803344801068">
        <ele>999.427734375</ele>
        <time>2013-08-24T15:07:32Z</time>
      </trkpt>
      <trkpt lat="47.458726689219475" lon="11.187780294567347">
        <ele>999.427734375</ele>
        <time>2013-08-24T15:07:34Z</time>
      </trkpt>
      <trkpt lat="47.458905559033155" lon="11.187676023691893">
        <ele>1001.350341796875</ele>
        <time>2013-08-24T15:07:38Z</time>
      </trkpt>
      <trkpt lat="47.459221305325627" lon="11.187378633767366">
        <ele>1002.792236328125</ele>
        <time>2013-08-24T15:07:47Z</time>
      </trkpt>
      <trkpt lat="47.459361953660846" lon="11.187204793095589">
        <ele>1003.27294921875</ele>
        <time>2013-08-24T15:07:53Z</time>
      </trkpt>
      <trkpt lat="47.459471756592393" lon="11.187090966850519">
        <ele>1004.234619140625</ele>
        <time>2013-08-24T15:07:58Z</time>
      </trkpt>
      <trkpt lat="47.459713239222765" lon="11.186924921348691">
        <ele>1006.6376953125</ele>
        <time>2013-08-24T15:08:07Z</time>
      </trkpt>
      <trkpt lat="47.459933599457145" lon="11.186806736513972">
        <ele>1006.6376953125</ele>
        <time>2013-08-24T15:08:16Z</time>
      </trkpt>
      <trkpt lat="47.460199305787683" lon="11.186742363497615">
        <ele>1008.560302734375</ele>
        <time>2013-08-24T15:08:26Z</time>
      </trkpt>
      <trkpt lat="47.460402902215719" lon="11.186750996857882">
        <ele>1008.560302734375</ele>
        <time>2013-08-24T15:08:33Z</time>
      </trkpt>
      <trkpt lat="47.460559979081154" lon="11.186839090660214">
        <ele>1008.560302734375</ele>
        <time>2013-08-24T15:08:39Z</time>
      </trkpt>
      <trkpt lat="47.460684198886156" lon="11.186925172805786">
        <ele>1008.560302734375</ele>
        <time>2013-08-24T15:08:43Z</time>
      </trkpt>
      <trkpt lat="47.460964489728212" lon="11.187308141961694">
        <ele>1007.59912109375</ele>
        <time>2013-08-24T15:08:52Z</time>
      </trkpt>
      <trkpt lat="47.461314853280783" lon="11.187803093343973">
        <ele>1007.118408203125</ele>
        <time>2013-08-24T15:09:03Z</time>
      </trkpt>
      <trkpt lat="47.461531106382608" lon="11.188019514083862">
        <ele>1007.118408203125</ele>
        <time>2013-08-24T15:09:09Z</time>
      </trkpt>
      <trkpt lat="47.461670245975256" lon="11.188206095248461">
        <ele>1006.6376953125</ele>
        <time>2013-08-24T15:09:13Z</time>
      </trkpt>
      <trkpt lat="47.462075762450695" lon="11.188540030270815">
        <ele>1002.792236328125</ele>
        <time>2013-08-24T15:09:22Z</time>
      </trkpt>
      <trkpt lat="47.462355382740498" lon="11.188654778525233">
        <ele>999.908447265625</ele>
        <time>2013-08-24T15:09:28Z</time>
      </trkpt>
      <trkpt lat="47.462405674159527" lon="11.18867757730186">
        <ele>999.908447265625</ele>
        <time>2013-08-24T15:09:29Z</time>
      </trkpt>
      <trkpt lat="47.462563421577215" lon="11.188739603385329">
        <ele>997.0244140625</ele>
        <time>2013-08-24T15:09:32Z</time>
      </trkpt>
      <trkpt lat="47.462797863408923" lon="11.188686713576317">
        <ele>996.5439453125</ele>
        <time>2013-08-24T15:09:37Z</time>
      </trkpt>
      <trkpt lat="47.46282753534615" lon="11.188631812110543">
        <ele>996.063232421875</ele>
        <time>2013-08-24T15:09:38Z</time>
      </trkpt>
      <trkpt lat="47.4628871306777" lon="11.188499880954623">
        <ele>994.62109375</ele>
        <time>2013-08-24T15:09:40Z</time>
      </trkpt>
      <trkpt lat="47.463188376277685" lon="11.188008869066834">
        <ele>991.7373046875</ele>
        <time>2013-08-24T15:09:47Z</time>
      </trkpt>
      <trkpt lat="47.463414017111063" lon="11.187874507158995">
        <ele>991.256591796875</ele>
        <time>2013-08-24T15:09:52Z</time>
      </trkpt>
      <trkpt lat="47.46359758079052" lon="11.187864867970347">
        <ele>991.7373046875</ele>
        <time>2013-08-24T15:09:59Z</time>
      </trkpt>
      <trkpt lat="47.463588863611221" lon="11.187870986759663">
        <ele>991.256591796875</ele>
        <time>2013-08-24T15:10:13Z</time>
      </trkpt>
      <trkpt lat="47.463585343211889" lon="11.187869058921933">
        <ele>991.7373046875</ele>
        <time>2013-08-24T15:10:25Z</time>
      </trkpt>
      <trkpt lat="47.463580314069986" lon="11.187809882685542">
        <ele>991.7373046875</ele>
        <time>2013-08-24T15:10:33Z</time>
      </trkpt>
      <trkpt lat="47.463574698194861" lon="11.187777779996395">
        <ele>991.256591796875</ele>
        <time>2013-08-24T15:11:25Z</time>
      </trkpt>
      <trkpt lat="47.463527927175164" lon="11.187507547438145">
        <ele>989.814697265625</ele>
        <time>2013-08-24T15:11:30Z</time>
      </trkpt>
      <trkpt lat="47.463386608287692" lon="11.186779495328665">
        <ele>988.853515625</ele>
        <time>2013-08-24T15:11:40Z</time>
      </trkpt>
      <trkpt lat="47.463190890848637" lon="11.185653638094664">
        <ele>988.372802734375</ele>
        <time>2013-08-24T15:11:54Z</time>
      </trkpt>
      <trkpt lat="47.462919317185879" lon="11.184214549139142">
        <ele>986.930419921875</ele>
        <time>2013-08-24T15:12:12Z</time>
      </trkpt>
      <trkpt lat="47.462680265307426" lon="11.182975620031357">
        <ele>985.96923828125</ele>
        <time>2013-08-24T15:12:27Z</time>
      </trkpt>
      <trkpt lat="47.462645312771201" lon="11.182442363351583">
        <ele>988.372802734375</ele>
        <time>2013-08-24T15:12:34Z</time>
      </trkpt>
      <trkpt lat="47.46272929944098" lon="11.181857641786337">
        <ele>990.29541015625</ele>
        <time>2013-08-24T15:12:42Z</time>
      </trkpt>
      <trkpt lat="47.462843712419271" lon="11.181134367361665">
        <ele>987.891845703125</ele>
        <time>2013-08-24T15:12:51Z</time>
      </trkpt>
      <trkpt lat="47.462865170091391" lon="11.180920880287886">
        <ele>985.488525390625</ele>
        <time>2013-08-24T15:12:53Z</time>
      </trkpt>
      <trkpt lat="47.462742878124118" lon="11.180344875901937">
        <ele>982.604736328125</ele>
        <time>2013-08-24T15:12:58Z</time>
      </trkpt>
      <trkpt lat="47.462586220353842" lon="11.179886721074581">
        <ele>980.201416015625</ele>
        <time>2013-08-24T15:13:02Z</time>
      </trkpt>
      <trkpt lat="47.462278604507446" lon="11.179321696981788">
        <ele>981.643310546875</ele>
        <time>2013-08-24T15:13:09Z</time>
      </trkpt>
      <trkpt lat="47.462212638929486" lon="11.179213570430875">
        <ele>982.604736328125</ele>
        <time>2013-08-24T15:13:11Z</time>
      </trkpt>
      <trkpt lat="47.462127981707454" lon="11.179037718102336">
        <ele>984.046630859375</ele>
        <time>2013-08-24T15:13:17Z</time>
      </trkpt>
      <trkpt lat="47.46204131282866" lon="11.178856752812862">
        <ele>984.52734375</ele>
        <time>2013-08-24T15:13:22Z</time>
      </trkpt>
      <trkpt lat="47.461965288966894" lon="11.178755164146423">
        <ele>985.488525390625</ele>
        <time>2013-08-24T15:13:26Z</time>
      </trkpt>
      <trkpt lat="47.461846182122827" lon="11.17851410061121">
        <ele>987.4111328125</ele>
        <time>2013-08-24T15:13:35Z</time>
      </trkpt>
      <trkpt lat="47.461751215159893" lon="11.178341098129749">
        <ele>988.372802734375</ele>
        <time>2013-08-24T15:13:42Z</time>
      </trkpt>
      <trkpt lat="47.461623894050717" lon="11.178142447024584">
        <ele>990.29541015625</ele>
        <time>2013-08-24T15:13:51Z</time>
      </trkpt>
      <trkpt lat="47.46155952103436" lon="11.178019065409899">
        <ele>991.7373046875</ele>
        <time>2013-08-24T15:13:57Z</time>
      </trkpt>
      <trkpt lat="47.461463045328856" lon="11.177856037393212">
        <ele>993.17919921875</ele>
        <time>2013-08-24T15:14:05Z</time>
      </trkpt>
      <trkpt lat="47.46139976195991" lon="11.177729219198227">
        <ele>995.101806640625</ele>
        <time>2013-08-24T15:14:11Z</time>
      </trkpt>
      <trkpt lat="47.461279649287462" lon="11.177646238356829">
        <ele>996.5439453125</ele>
        <time>2013-08-24T15:14:18Z</time>
      </trkpt>
      <trkpt lat="47.461195662617683" lon="11.177588235586882">
        <ele>997.0244140625</ele>
        <time>2013-08-24T15:14:24Z</time>
      </trkpt>
      <trkpt lat="47.46111293323338" lon="11.177500309422612">
        <ele>998.947021484375</ele>
        <time>2013-08-24T15:14:31Z</time>
      </trkpt>
      <trkpt lat="47.460927693173289" lon="11.177397714927793">
        <ele>1000.86962890625</ele>
        <time>2013-08-24T15:14:40Z</time>
      </trkpt>
      <trkpt lat="47.460836581885815" lon="11.177316661924124">
        <ele>1001.8310546875</ele>
        <time>2013-08-24T15:14:46Z</time>
      </trkpt>
      <trkpt lat="47.460790481418371" lon="11.1771244648844">
        <ele>1001.8310546875</ele>
        <time>2013-08-24T15:14:54Z</time>
      </trkpt>
      <trkpt lat="47.460852926596999" lon="11.176749709993601">
        <ele>1002.792236328125</ele>
        <time>2013-08-24T15:15:05Z</time>
      </trkpt>
      <trkpt lat="47.460955437272787" lon="11.176484758034348">
        <ele>1002.792236328125</ele>
        <time>2013-08-24T15:15:13Z</time>
      </trkpt>
      <trkpt lat="47.461159955710173" lon="11.176137663424015">
        <ele>1001.8310546875</ele>
        <time>2013-08-24T15:15:23Z</time>
      </trkpt>
      <trkpt lat="47.461372604593635" lon="11.175935240462422">
        <ele>1000.86962890625</ele>
        <time>2013-08-24T15:15:31Z</time>
      </trkpt>
      <trkpt lat="47.461661864072084" lon="11.175640029832721">
        <ele>998.947021484375</ele>
        <time>2013-08-24T15:15:41Z</time>
      </trkpt>
      <trkpt lat="47.461992362514138" lon="11.175277344882488">
        <ele>997.0244140625</ele>
        <time>2013-08-24T15:15:50Z</time>
      </trkpt>
      <trkpt lat="47.462127646431327" lon="11.175113813951612">
        <ele>996.063232421875</ele>
        <time>2013-08-24T15:15:57Z</time>
      </trkpt>
      <trkpt lat="47.462167292833328" lon="11.175104090943933">
        <ele>996.5439453125</ele>
        <time>2013-08-24T15:16:02Z</time>
      </trkpt>
      <trkpt lat="47.462182296440005" lon="11.175084393471479">
        <ele>996.063232421875</ele>
        <time>2013-08-24T15:16:17Z</time>
      </trkpt>
      <trkpt lat="47.462268965318799" lon="11.17501063272357">
        <ele>994.62109375</ele>
        <time>2013-08-24T15:16:20Z</time>
      </trkpt>
      <trkpt lat="47.462427467107773" lon="11.174905858933926">
        <ele>992.69873046875</ele>
        <time>2013-08-24T15:16:24Z</time>
      </trkpt>
      <trkpt lat="47.462504832074046" lon="11.174810556694865">
        <ele>991.7373046875</ele>
        <time>2013-08-24T15:16:26Z</time>
      </trkpt>
      <trkpt lat="47.462599044665694" lon="11.174687761813402">
        <ele>990.29541015625</ele>
        <time>2013-08-24T15:16:28Z</time>
      </trkpt>
      <trkpt lat="47.462853267788887" lon="11.174494726583362">
        <ele>989.333984375</ele>
        <time>2013-08-24T15:16:32Z</time>
      </trkpt>
      <trkpt lat="47.463170606642962" lon="11.17425031028688">
        <ele>988.853515625</ele>
        <time>2013-08-24T15:16:38Z</time>
      </trkpt>
      <trkpt lat="47.463257694616914" lon="11.174205131828785">
        <ele>987.891845703125</ele>
        <time>2013-08-24T15:16:40Z</time>
      </trkpt>
      <trkpt lat="47.46354142203927" lon="11.173936491832137">
        <ele>988.372802734375</ele>
        <time>2013-08-24T15:16:47Z</time>
      </trkpt>
      <trkpt lat="47.463727416470647" lon="11.173758124932647">
        <ele>986.449951171875</ele>
        <time>2013-08-24T15:16:51Z</time>
      </trkpt>
      <trkpt lat="47.463888013735414" lon="11.173507254570723">
        <ele>983.085205078125</ele>
        <time>2013-08-24T15:16:55Z</time>
      </trkpt>
      <trkpt lat="47.46389857493341" lon="11.173443635925651">
        <ele>983.085205078125</ele>
        <time>2013-08-24T15:16:56Z</time>
      </trkpt>
      <trkpt lat="47.463829088956118" lon="11.173252444714308">
        <ele>982.1240234375</ele>
        <time>2013-08-24T15:16:59Z</time>
      </trkpt>
      <trkpt lat="47.463532704859972" lon="11.172805521637201">
        <ele>979.239990234375</ele>
        <time>2013-08-24T15:17:05Z</time>
      </trkpt>
      <trkpt lat="47.463437737897038" lon="11.1726881749928">
        <ele>976.8369140625</ele>
        <time>2013-08-24T15:17:07Z</time>
      </trkpt>
      <trkpt lat="47.463018726557493" lon="11.172104375436902">
        <ele>972.510986328125</ele>
        <time>2013-08-24T15:17:13Z</time>
      </trkpt>
      <trkpt lat="47.462754026055336" lon="11.171725429594517">
        <ele>971.06884765625</ele>
        <time>2013-08-24T15:17:16Z</time>
      </trkpt>
      <trkpt lat="47.4625573027879" lon="11.171435415744781">
        <ele>968.184814453125</ele>
        <time>2013-08-24T15:17:19Z</time>
      </trkpt>
      <trkpt lat="47.462544227018952" lon="11.171081950888038">
        <ele>964.8203125</ele>
        <time>2013-08-24T15:17:22Z</time>
      </trkpt>
      <trkpt lat="47.46265260502696" lon="11.170666962862015">
        <ele>961.9365234375</ele>
        <time>2013-08-24T15:17:25Z</time>
      </trkpt>
      <trkpt lat="47.462824182584882" lon="11.170287095010281">
        <ele>959.533203125</ele>
        <time>2013-08-24T15:17:30Z</time>
      </trkpt>
      <trkpt lat="47.462982097640634" lon="11.170368567109108">
        <ele>957.610595703125</ele>
        <time>2013-08-24T15:17:33Z</time>
      </trkpt>
      <trkpt lat="47.463030712679029" lon="11.170565709471703">
        <ele>955.687744140625</ele>
        <time>2013-08-24T15:17:35Z</time>
      </trkpt>
      <trkpt lat="47.462997520342469" lon="11.170917246490717">
        <ele>952.8037109375</ele>
        <time>2013-08-24T15:17:38Z</time>
      </trkpt>
      <trkpt lat="47.463090475648642" lon="11.171278590336442">
        <ele>949.439208984375</ele>
        <time>2013-08-24T15:17:42Z</time>
      </trkpt>
      <trkpt lat="47.463221736252308" lon="11.171387890353799">
        <ele>947.5166015625</ele>
        <time>2013-08-24T15:17:44Z</time>
      </trkpt>
      <trkpt lat="47.463466990739107" lon="11.171425441280007">
        <ele>947.5166015625</ele>
        <time>2013-08-24T15:17:48Z</time>
      </trkpt>
      <trkpt lat="47.463636724278331" lon="11.171206338331103">
        <ele>947.997314453125</ele>
        <time>2013-08-24T15:17:52Z</time>
      </trkpt>
      <trkpt lat="47.463659606873989" lon="11.171030821278691">
        <ele>948.95849609375</ele>
        <time>2013-08-24T15:17:55Z</time>
      </trkpt>
      <trkpt lat="47.463619625195861" lon="11.170695042237639">
        <ele>952.8037109375</ele>
        <time>2013-08-24T15:18:06Z</time>
      </trkpt>
      <trkpt lat="47.463624654337764" lon="11.17038918659091">
        <ele>953.284423828125</ele>
        <time>2013-08-24T15:18:16Z</time>
      </trkpt>
      <trkpt lat="47.463642423972487" lon="11.170081654563546">
        <ele>954.726318359375</ele>
        <time>2013-08-24T15:18:25Z</time>
      </trkpt>
      <trkpt lat="47.463615098968148" lon="11.169836232438684">
        <ele>956.16845703125</ele>
        <time>2013-08-24T15:18:33Z</time>
      </trkpt>
      <trkpt lat="47.463497584685683" lon="11.169504979625344">
        <ele>957.610595703125</ele>
        <time>2013-08-24T15:18:44Z</time>
      </trkpt>
      <trkpt lat="47.463444862514734" lon="11.169345304369926">
        <ele>958.09130859375</ele>
        <time>2013-08-24T15:18:50Z</time>
      </trkpt>
      <trkpt lat="47.463411837816238" lon="11.169144976884127">
        <ele>958.09130859375</ele>
        <time>2013-08-24T15:18:56Z</time>
      </trkpt>
      <trkpt lat="47.463334808126092" lon="11.168784387409687">
        <ele>959.533203125</ele>
        <time>2013-08-24T15:19:08Z</time>
      </trkpt>
      <trkpt lat="47.463338496163487" lon="11.168795116245747">
        <ele>959.533203125</ele>
        <time>2013-08-24T15:19:25Z</time>
      </trkpt>
      <trkpt lat="47.463338160887361" lon="11.168795451521873">
        <ele>959.533203125</ele>
        <time>2013-08-24T15:19:29Z</time>
      </trkpt>
      <trkpt lat="47.463321313261986" lon="11.168763767927885">
        <ele>959.533203125</ele>
        <time>2013-08-24T15:19:32Z</time>
      </trkpt>
      <trkpt lat="47.463402701541781" lon="11.168674416840076">
        <ele>960.494384765625</ele>
        <time>2013-08-24T15:19:38Z</time>
      </trkpt>
      <trkpt lat="47.463442180305719" lon="11.168602583929896">
        <ele>960.97509765625</ele>
        <time>2013-08-24T15:19:43Z</time>
      </trkpt>
      <trkpt lat="47.463407982140779" lon="11.168385157361627">
        <ele>963.37841796875</ele>
        <time>2013-08-24T15:19:53Z</time>
      </trkpt>
      <trkpt lat="47.463381662964821" lon="11.168156499043107">
        <ele>965.78173828125</ele>
        <time>2013-08-24T15:20:04Z</time>
      </trkpt>
      <trkpt lat="47.463347045704722" lon="11.167903868481517">
        <ele>968.66552734375</ele>
        <time>2013-08-24T15:20:16Z</time>
      </trkpt>
      <trkpt lat="47.46337478980422" lon="11.167688453570008">
        <ele>970.588134765625</ele>
        <time>2013-08-24T15:20:26Z</time>
      </trkpt>
      <trkpt lat="47.463418459519744" lon="11.167486282065511">
        <ele>972.510986328125</ele>
        <time>2013-08-24T15:20:36Z</time>
      </trkpt>
      <trkpt lat="47.463472187519073" lon="11.167276818305254">
        <ele>975.394775390625</ele>
        <time>2013-08-24T15:20:47Z</time>
      </trkpt>
      <trkpt lat="47.463498255237937" lon="11.167165758088231">
        <ele>976.356201171875</ele>
        <time>2013-08-24T15:20:55Z</time>
      </trkpt>
      <trkpt lat="47.463516108691692" lon="11.167072299867868">
        <ele>977.798095703125</ele>
        <time>2013-08-24T15:21:03Z</time>
      </trkpt>
      <trkpt lat="47.463542092591524" lon="11.166867781430483">
        <ele>979.720703125</ele>
        <time>2013-08-24T15:21:16Z</time>
      </trkpt>
      <trkpt lat="47.463587690144777" lon="11.166597465053201">
        <ele>982.1240234375</ele>
        <time>2013-08-24T15:21:33Z</time>
      </trkpt>
      <trkpt lat="47.463610824197531" lon="11.166476933285594">
        <ele>984.046630859375</ele>
        <time>2013-08-24T15:21:43Z</time>
      </trkpt>
      <trkpt lat="47.463666060939431" lon="11.166270738467574">
        <ele>985.96923828125</ele>
        <time>2013-08-24T15:21:56Z</time>
      </trkpt>
      <trkpt lat="47.463686009868979" lon="11.166095975786448">
        <ele>988.372802734375</ele>
        <time>2013-08-24T15:22:07Z</time>
      </trkpt>
      <trkpt lat="47.463687853887677" lon="11.165863545611501">
        <ele>990.77587890625</ele>
        <time>2013-08-24T15:22:23Z</time>
      </trkpt>
      <trkpt lat="47.463658014312387" lon="11.165588200092316">
        <ele>993.659912109375</ele>
        <time>2013-08-24T15:22:39Z</time>
      </trkpt>
      <trkpt lat="47.463642256334424" lon="11.165312267839909">
        <ele>997.0244140625</ele>
        <time>2013-08-24T15:22:55Z</time>
      </trkpt>
      <trkpt lat="47.463650302961469" lon="11.164890406653285">
        <ele>999.908447265625</ele>
        <time>2013-08-24T15:23:19Z</time>
      </trkpt>
      <trkpt lat="47.463724398985505" lon="11.164676919579506">
        <ele>1001.8310546875</ele>
        <time>2013-08-24T15:23:32Z</time>
      </trkpt>
      <trkpt lat="47.463879631832242" lon="11.164433592930436">
        <ele>1004.234619140625</ele>
        <time>2013-08-24T15:23:49Z</time>
      </trkpt>
      <trkpt lat="47.463964037597179" lon="11.164236031472683">
        <ele>1005.676513671875</ele>
        <time>2013-08-24T15:24:02Z</time>
      </trkpt>
      <trkpt lat="47.463991697877645" lon="11.164028914645314">
        <ele>1007.118408203125</ele>
        <time>2013-08-24T15:24:14Z</time>
      </trkpt>
      <trkpt lat="47.463988177478313" lon="11.163974683731794">
        <ele>1007.118408203125</ele>
        <time>2013-08-24T15:24:21Z</time>
      </trkpt>
      <trkpt lat="47.463985159993172" lon="11.16396420635283">
        <ele>1008.079833984375</ele>
        <time>2013-08-24T15:24:23Z</time>
      </trkpt>
      <trkpt lat="47.463971162214875" lon="11.163801345974207">
        <ele>1008.079833984375</ele>
        <time>2013-08-24T15:24:31Z</time>
      </trkpt>
      <trkpt lat="47.46392740868032" lon="11.16357478313148">
        <ele>1008.560302734375</ele>
        <time>2013-08-24T15:24:38Z</time>
      </trkpt>
      <trkpt lat="47.463792124763131" lon="11.163213355466723">
        <ele>1010.002197265625</ele>
        <time>2013-08-24T15:24:50Z</time>
      </trkpt>
      <trkpt lat="47.4637212138623" lon="11.162689737975597">
        <ele>1011.925048828125</ele>
        <time>2013-08-24T15:25:05Z</time>
      </trkpt>
      <trkpt lat="47.463620211929083" lon="11.162249352782965">
        <ele>1012.88623046875</ele>
        <time>2013-08-24T15:25:18Z</time>
      </trkpt>
      <trkpt lat="47.463618200272322" lon="11.161886248737574">
        <ele>1013.366943359375</ele>
        <time>2013-08-24T15:25:27Z</time>
      </trkpt>
      <trkpt lat="47.463633622974157" lon="11.16162171587348">
        <ele>1014.328125</ele>
        <time>2013-08-24T15:25:34Z</time>
      </trkpt>
      <trkpt lat="47.463633790612221" lon="11.161247380077839">
        <ele>1016.250732421875</ele>
        <time>2013-08-24T15:25:43Z</time>
      </trkpt>
      <trkpt lat="47.463629599660635" lon="11.160873463377357">
        <ele>1017.212158203125</ele>
        <time>2013-08-24T15:25:53Z</time>
      </trkpt>
      <trkpt lat="47.463647620752454" lon="11.160432994365692">
        <ele>1018.17333984375</ele>
        <time>2013-08-24T15:26:04Z</time>
      </trkpt>
      <trkpt lat="47.463707802817225" lon="11.160098724067211">
        <ele>1019.134765625</ele>
        <time>2013-08-24T15:26:14Z</time>
      </trkpt>
      <trkpt lat="47.463785670697689" lon="11.159641910344362">
        <ele>1021.5380859375</ele>
        <time>2013-08-24T15:26:27Z</time>
      </trkpt>
      <trkpt lat="47.463841158896685" lon="11.159391878172755">
        <ele>1022.49951171875</ele>
        <time>2013-08-24T15:26:35Z</time>
      </trkpt>
      <trkpt lat="47.463913997635245" lon="11.159019554033875">
        <ele>1024.90283203125</ele>
        <time>2013-08-24T15:26:46Z</time>
      </trkpt>
      <trkpt lat="47.463954901322722" lon="11.158850910142064">
        <ele>1024.422119140625</ele>
        <time>2013-08-24T15:26:52Z</time>
      </trkpt>
      <trkpt lat="47.463990189135075" lon="11.158499037846923">
        <ele>1025.38330078125</ele>
        <time>2013-08-24T15:27:02Z</time>
      </trkpt>
      <trkpt lat="47.464027991518378" lon="11.158158564940095">
        <ele>1026.3447265625</ele>
        <time>2013-08-24T15:27:11Z</time>
      </trkpt>
      <trkpt lat="47.464093035086989" lon="11.157567137852311">
        <ele>1028.748046875</ele>
        <time>2013-08-24T15:27:27Z</time>
      </trkpt>
      <trkpt lat="47.464118767529726" lon="11.157147539779544">
        <ele>1031.1513671875</ele>
        <time>2013-08-24T15:27:39Z</time>
      </trkpt>
      <trkpt lat="47.464118683710694" lon="11.157113928347826">
        <ele>1031.6318359375</ele>
        <time>2013-08-24T15:27:40Z</time>
      </trkpt>
      <trkpt lat="47.464108290150762" lon="11.156690809875727">
        <ele>1032.59326171875</ele>
        <time>2013-08-24T15:27:52Z</time>
      </trkpt>
      <trkpt lat="47.464113906025887" lon="11.15628881379962">
        <ele>1033.07373046875</ele>
        <time>2013-08-24T15:28:03Z</time>
      </trkpt>
      <trkpt lat="47.464161347597837" lon="11.155882040038705">
        <ele>1033.554443359375</ele>
        <time>2013-08-24T15:28:14Z</time>
      </trkpt>
      <trkpt lat="47.464128155261278" lon="11.155522875487804">
        <ele>1035.957763671875</ele>
        <time>2013-08-24T15:28:25Z</time>
      </trkpt>
      <trkpt lat="47.4641028419137" lon="11.155264796689153">
        <ele>1036.919189453125</ele>
        <time>2013-08-24T15:28:35Z</time>
      </trkpt>
      <trkpt lat="47.464105859398842" lon="11.155269993469119">
        <ele>1036.919189453125</ele>
        <time>2013-08-24T15:29:03Z</time>
      </trkpt>
      <trkpt lat="47.464087083935738" lon="11.155193047598004">
        <ele>1035.957763671875</ele>
        <time>2013-08-24T15:29:10Z</time>
      </trkpt>
      <trkpt lat="47.464071409776807" lon="11.155148623511195">
        <ele>1035.47705078125</ele>
        <time>2013-08-24T15:29:18Z</time>
      </trkpt>
      <trkpt lat="47.464060178026557" lon="11.154814353212714">
        <ele>1034.99658203125</ele>
        <time>2013-08-24T15:29:26Z</time>
      </trkpt>
      <trkpt lat="47.464062105864286" lon="11.154288221150637">
        <ele>1034.99658203125</ele>
        <time>2013-08-24T15:29:36Z</time>
      </trkpt>
      <trkpt lat="47.464035283774137" lon="11.153693357482553">
        <ele>1033.07373046875</ele>
        <time>2013-08-24T15:29:44Z</time>
      </trkpt>
      <trkpt lat="47.464046264067292" lon="11.153009478002787">
        <ele>1033.07373046875</ele>
        <time>2013-08-24T15:29:52Z</time>
      </trkpt>
      <trkpt lat="47.464086748659611" lon="11.15277998149395">
        <ele>1034.515869140625</ele>
        <time>2013-08-24T15:29:56Z</time>
      </trkpt>
      <trkpt lat="47.464090269058943" lon="11.152738071978092">
        <ele>1035.47705078125</ele>
        <time>2013-08-24T15:30:00Z</time>
      </trkpt>
      <trkpt lat="47.464137878268957" lon="11.152627430856228">
        <ele>1035.957763671875</ele>
        <time>2013-08-24T15:30:07Z</time>
      </trkpt>
      <trkpt lat="47.464159838855267" lon="11.152582000941038">
        <ele>1036.438720703125</ele>
        <time>2013-08-24T15:30:10Z</time>
      </trkpt>
      <trkpt lat="47.464268216863275" lon="11.152442023158073">
        <ele>1038.361328125</ele>
        <time>2013-08-24T15:30:21Z</time>
      </trkpt>
      <trkpt lat="47.464308701455593" lon="11.152367005124688">
        <ele>1037.880615234375</ele>
        <time>2013-08-24T15:30:27Z</time>
      </trkpt>
      <trkpt lat="47.464327057823539" lon="11.152181681245565">
        <ele>1036.438720703125</ele>
        <time>2013-08-24T15:30:31Z</time>
      </trkpt>
      <trkpt lat="47.464332925155759" lon="11.151798460632563">
        <ele>1034.99658203125</ele>
        <time>2013-08-24T15:30:36Z</time>
      </trkpt>
      <trkpt lat="47.464320687577128" lon="11.151471482589841">
        <ele>1034.99658203125</ele>
        <time>2013-08-24T15:30:41Z</time>
      </trkpt>
      <trkpt lat="47.464361004531384" lon="11.15111181512475">
        <ele>1032.112548828125</ele>
        <time>2013-08-24T15:30:47Z</time>
      </trkpt>
      <trkpt lat="47.464384054765105" lon="11.150793805718422">
        <ele>1027.30615234375</ele>
        <time>2013-08-24T15:30:50Z</time>
      </trkpt>
      <trkpt lat="47.464356059208512" lon="11.150505049154162">
        <ele>1023.94140625</ele>
        <time>2013-08-24T15:30:52Z</time>
      </trkpt>
      <trkpt lat="47.464281124994159" lon="11.150100287050009">
        <ele>1020.576904296875</ele>
        <time>2013-08-24T15:30:55Z</time>
      </trkpt>
      <trkpt lat="47.464217757806182" lon="11.149752018973231">
        <ele>1018.654052734375</ele>
        <time>2013-08-24T15:30:58Z</time>
      </trkpt>
      <trkpt lat="47.464202754199505" lon="11.149565270170569">
        <ele>1015.28955078125</ele>
        <time>2013-08-24T15:31:00Z</time>
      </trkpt>
      <trkpt lat="47.46419420465827" lon="11.149370055645704">
        <ele>1011.925048828125</ele>
        <time>2013-08-24T15:31:02Z</time>
      </trkpt>
      <trkpt lat="47.464176267385483" lon="11.149072162806988">
        <ele>1008.560302734375</ele>
        <time>2013-08-24T15:31:05Z</time>
      </trkpt>
      <trkpt lat="47.464146092534065" lon="11.148863201960921">
        <ele>1005.19580078125</ele>
        <time>2013-08-24T15:31:07Z</time>
      </trkpt>
      <trkpt lat="47.46410041116178" lon="11.14860906265676">
        <ele>1000.86962890625</ele>
        <time>2013-08-24T15:31:09Z</time>
      </trkpt>
      <trkpt lat="47.464025896042585" lon="11.148311756551266">
        <ele>997.505126953125</ele>
        <time>2013-08-24T15:31:11Z</time>
      </trkpt>
      <trkpt lat="47.46386831626296" lon="11.147702392190695">
        <ele>995.58251953125</ele>
        <time>2013-08-24T15:31:15Z</time>
      </trkpt>
      <trkpt lat="47.463897485285997" lon="11.147120101377368">
        <ele>994.62109375</ele>
        <time>2013-08-24T15:31:20Z</time>
      </trkpt>
      <trkpt lat="47.463916428387165" lon="11.147018847987056">
        <ele>993.17919921875</ele>
        <time>2013-08-24T15:31:21Z</time>
      </trkpt>
      <trkpt lat="47.464016173034906" lon="11.146593382582068">
        <ele>986.930419921875</ele>
        <time>2013-08-24T15:31:24Z</time>
      </trkpt>
      <trkpt lat="47.464110217988491" lon="11.146237067878246">
        <ele>982.604736328125</ele>
        <time>2013-08-24T15:31:26Z</time>
      </trkpt>
      <trkpt lat="47.464186074212193" lon="11.14595141261816">
        <ele>983.56591796875</ele>
        <time>2013-08-24T15:31:28Z</time>
      </trkpt>
      <trkpt lat="47.464313060045242" lon="11.145606162026525">
        <ele>982.604736328125</ele>
        <time>2013-08-24T15:31:31Z</time>
      </trkpt>
      <trkpt lat="47.464355975389481" lon="11.145408600568771">
        <ele>984.52734375</ele>
        <time>2013-08-24T15:31:35Z</time>
      </trkpt>
      <trkpt lat="47.464323369786143" lon="11.145471800118685">
        <ele>984.046630859375</ele>
        <time>2013-08-24T15:31:45Z</time>
      </trkpt>
      <trkpt lat="47.464321106672287" lon="11.14546861499548">
        <ele>985.008056640625</ele>
        <time>2013-08-24T15:31:48Z</time>
      </trkpt>
      <trkpt lat="47.464299481362104" lon="11.145425699651241">
        <ele>985.008056640625</ele>
        <time>2013-08-24T15:31:52Z</time>
      </trkpt>
      <trkpt lat="47.464157156646252" lon="11.145219337195158">
        <ele>985.96923828125</ele>
        <time>2013-08-24T15:32:00Z</time>
      </trkpt>
      <trkpt lat="47.463999073952436" lon="11.144948014989495">
        <ele>985.008056640625</ele>
        <time>2013-08-24T15:32:06Z</time>
      </trkpt>
      <trkpt lat="47.46390787884593" lon="11.144753219559789">
        <ele>984.52734375</ele>
        <time>2013-08-24T15:32:09Z</time>
      </trkpt>
      <trkpt lat="47.463826071470976" lon="11.144496062770486">
        <ele>985.008056640625</ele>
        <time>2013-08-24T15:32:13Z</time>
      </trkpt>
      <trkpt lat="47.46380478143692" lon="11.144174365326762">
        <ele>982.1240234375</ele>
        <time>2013-08-24T15:32:18Z</time>
      </trkpt>
      <trkpt lat="47.463842919096351" lon="11.143783684819937">
        <ele>979.720703125</ele>
        <time>2013-08-24T15:32:22Z</time>
      </trkpt>
      <trkpt lat="47.463817689567804" lon="11.143694585189223">
        <ele>978.27880859375</ele>
        <time>2013-08-24T15:32:23Z</time>
      </trkpt>
      <trkpt lat="47.463706210255623" lon="11.143400967121124">
        <ele>976.8369140625</ele>
        <time>2013-08-24T15:32:26Z</time>
      </trkpt>
      <trkpt lat="47.463498339056969" lon="11.143016740679741">
        <ele>978.759521484375</ele>
        <time>2013-08-24T15:32:31Z</time>
      </trkpt>
      <trkpt lat="47.463472271338105" lon="11.142967538908124">
        <ele>979.239990234375</ele>
        <time>2013-08-24T15:32:32Z</time>
      </trkpt>
      <trkpt lat="47.463293988257647" lon="11.142807779833674">
        <ele>978.759521484375</ele>
        <time>2013-08-24T15:32:38Z</time>
      </trkpt>
      <trkpt lat="47.463210253044963" lon="11.142740054056048">
        <ele>975.394775390625</ele>
        <time>2013-08-24T15:32:44Z</time>
      </trkpt>
      <trkpt lat="47.463188292458653" lon="11.142721027135849">
        <ele>975.394775390625</ele>
        <time>2013-08-24T15:32:45Z</time>
      </trkpt>
      <trkpt lat="47.463074801489711" lon="11.142617845907807">
        <ele>972.0302734375</ele>
        <time>2013-08-24T15:32:51Z</time>
      </trkpt>
      <trkpt lat="47.463033981621265" lon="11.142518939450383">
        <ele>969.626953125</ele>
        <time>2013-08-24T15:32:56Z</time>
      </trkpt>
      <trkpt lat="47.463003639131784" lon="11.14241567440331">
        <ele>968.66552734375</ele>
        <time>2013-08-24T15:32:59Z</time>
      </trkpt>
      <trkpt lat="47.462997268885374" lon="11.142318276688457">
        <ele>966.742919921875</ele>
        <time>2013-08-24T15:33:02Z</time>
      </trkpt>
      <trkpt lat="47.463087709620595" lon="11.142226494848728">
        <ele>963.85888671875</ele>
        <time>2013-08-24T15:33:06Z</time>
      </trkpt>
      <trkpt lat="47.46310455724597" lon="11.142077464610338">
        <ele>960.97509765625</ele>
        <time>2013-08-24T15:33:08Z</time>
      </trkpt>
      <trkpt lat="47.463085781782866" lon="11.141964644193649">
        <ele>959.533203125</ele>
        <time>2013-08-24T15:33:09Z</time>
      </trkpt>
      <trkpt lat="47.462974889203906" lon="11.141204321756959">
        <ele>960.97509765625</ele>
        <time>2013-08-24T15:33:17Z</time>
      </trkpt>
      <trkpt lat="47.462987713515759" lon="11.140807354822755">
        <ele>959.533203125</ele>
        <time>2013-08-24T15:33:23Z</time>
      </trkpt>
      <trkpt lat="47.462980672717094" lon="11.140670478343964">
        <ele>958.57177734375</ele>
        <time>2013-08-24T15:33:25Z</time>
      </trkpt>
      <trkpt lat="47.462915629148483" lon="11.140325143933296">
        <ele>955.20703125</ele>
        <time>2013-08-24T15:33:29Z</time>
      </trkpt>
      <trkpt lat="47.462841616943479" lon="11.13984108902514">
        <ele>956.16845703125</ele>
        <time>2013-08-24T15:33:35Z</time>
      </trkpt>
      <trkpt lat="47.462817477062345" lon="11.139736650511622">
        <ele>957.1298828125</ele>
        <time>2013-08-24T15:33:37Z</time>
      </trkpt>
      <trkpt lat="47.462809765711427" lon="11.139490138739347">
        <ele>956.16845703125</ele>
        <time>2013-08-24T15:33:43Z</time>
      </trkpt>
      <trkpt lat="47.46279182843864" lon="11.13925033248961">
        <ele>953.284423828125</ele>
        <time>2013-08-24T15:33:46Z</time>
      </trkpt>
      <trkpt lat="47.462741872295737" lon="11.138962497934699">
        <ele>950.881103515625</ele>
        <time>2013-08-24T15:33:49Z</time>
      </trkpt>
      <trkpt lat="47.462661238387227" lon="11.138445334509015">
        <ele>947.5166015625</ele>
        <time>2013-08-24T15:33:54Z</time>
      </trkpt>
      <trkpt lat="47.462551100179553" lon="11.137811997905374">
        <ele>947.035888671875</ele>
        <time>2013-08-24T15:34:00Z</time>
      </trkpt>
      <trkpt lat="47.462527127936482" lon="11.137068020179868">
        <ele>944.632568359375</ele>
        <time>2013-08-24T15:34:07Z</time>
      </trkpt>
      <trkpt lat="47.462599379941821" lon="11.136676082387567">
        <ele>945.593994140625</ele>
        <time>2013-08-24T15:34:11Z</time>
      </trkpt>
      <trkpt lat="47.462582448497415" lon="11.136347260326147">
        <ele>945.593994140625</ele>
        <time>2013-08-24T15:34:15Z</time>
      </trkpt>
      <trkpt lat="47.46249670162797" lon="11.136158164590597">
        <ele>946.07470703125</ele>
        <time>2013-08-24T15:34:18Z</time>
      </trkpt>
      <trkpt lat="47.462306180968881" lon="11.135729514062405">
        <ele>946.07470703125</ele>
        <time>2013-08-24T15:34:25Z</time>
      </trkpt>
      <trkpt lat="47.462231330573559" lon="11.135570174083114">
        <ele>947.997314453125</ele>
        <time>2013-08-24T15:34:32Z</time>
      </trkpt>
      <trkpt lat="47.46215958148241" lon="11.135327937081456">
        <ele>950.400634765625</ele>
        <time>2013-08-24T15:34:43Z</time>
      </trkpt>
      <trkpt lat="47.462045419961214" lon="11.135075222700834">
        <ele>951.842529296875</ele>
        <time>2013-08-24T15:34:54Z</time>
      </trkpt>
      <trkpt lat="47.461999738588929" lon="11.134976064786315">
        <ele>953.76513671875</ele>
        <time>2013-08-24T15:35:02Z</time>
      </trkpt>
      <trkpt lat="47.46199051849544" lon="11.134938849136233">
        <ele>954.245849609375</ele>
        <time>2013-08-24T15:35:08Z</time>
      </trkpt>
      <trkpt lat="47.461953721940517" lon="11.134720416739583">
        <ele>957.1298828125</ele>
        <time>2013-08-24T15:35:22Z</time>
      </trkpt>
      <trkpt lat="47.461881386116147" lon="11.134569961577654">
        <ele>959.533203125</ele>
        <time>2013-08-24T15:35:34Z</time>
      </trkpt>
      <trkpt lat="47.461769236251712" lon="11.134373741224408">
        <ele>961.9365234375</ele>
        <time>2013-08-24T15:35:50Z</time>
      </trkpt>
      <trkpt lat="47.461739312857389" lon="11.13431179895997">
        <ele>962.897705078125</ele>
        <time>2013-08-24T15:35:58Z</time>
      </trkpt>
      <trkpt lat="47.461741240695119" lon="11.134314062073827">
        <ele>963.37841796875</ele>
        <time>2013-08-24T15:36:10Z</time>
      </trkpt>
      <trkpt lat="47.461738390848041" lon="11.134312301874161">
        <ele>962.4169921875</ele>
        <time>2013-08-24T15:36:19Z</time>
      </trkpt>
      <trkpt lat="47.461680974811316" lon="11.134042320773005">
        <ele>962.4169921875</ele>
        <time>2013-08-24T15:36:29Z</time>
      </trkpt>
      <trkpt lat="47.461682902649045" lon="11.134025054052472">
        <ele>962.4169921875</ele>
        <time>2013-08-24T15:36:35Z</time>
      </trkpt>
      <trkpt lat="47.461644010618329" lon="11.133868563920259">
        <ele>960.97509765625</ele>
        <time>2013-08-24T15:36:41Z</time>
      </trkpt>
      <trkpt lat="47.461624816060066" lon="11.133403033018112">
        <ele>960.013671875</ele>
        <time>2013-08-24T15:36:48Z</time>
      </trkpt>
      <trkpt lat="47.461625235155225" lon="11.132998690009117">
        <ele>956.649169921875</ele>
        <time>2013-08-24T15:36:54Z</time>
      </trkpt>
      <trkpt lat="47.461660355329514" lon="11.132658468559384">
        <ele>955.20703125</ele>
        <time>2013-08-24T15:36:58Z</time>
      </trkpt>
      <trkpt lat="47.461707629263401" lon="11.13225563429296">
        <ele>955.687744140625</ele>
        <time>2013-08-24T15:37:04Z</time>
      </trkpt>
      <trkpt lat="47.461671838536859" lon="11.131812147796154">
        <ele>954.726318359375</ele>
        <time>2013-08-24T15:37:11Z</time>
      </trkpt>
      <trkpt lat="47.461661696434021" lon="11.131742745637894">
        <ele>954.245849609375</ele>
        <time>2013-08-24T15:37:12Z</time>
      </trkpt>
      <trkpt lat="47.46167678385973" lon="11.13146991468966">
        <ele>951.842529296875</ele>
        <time>2013-08-24T15:37:16Z</time>
      </trkpt>
      <trkpt lat="47.461600508540869" lon="11.131028020754457">
        <ele>950.400634765625</ele>
        <time>2013-08-24T15:37:23Z</time>
      </trkpt>
      <trkpt lat="47.461609225720167" lon="11.130907405167818">
        <ele>947.5166015625</ele>
        <time>2013-08-24T15:37:27Z</time>
      </trkpt>
      <trkpt lat="47.461607214063406" lon="11.130645051598549">
        <ele>943.190673828125</ele>
        <time>2013-08-24T15:37:31Z</time>
      </trkpt>
      <trkpt lat="47.461601179093122" lon="11.130506163462996">
        <ele>943.190673828125</ele>
        <time>2013-08-24T15:37:33Z</time>
      </trkpt>
      <trkpt lat="47.461561867967248" lon="11.130201313644648">
        <ele>940.787353515625</ele>
        <time>2013-08-24T15:37:36Z</time>
      </trkpt>
      <trkpt lat="47.461533788591623" lon="11.129802083596587">
        <ele>940.306884765625</ele>
        <time>2013-08-24T15:37:40Z</time>
      </trkpt>
      <trkpt lat="47.461562789976597" lon="11.129580298438668">
        <ele>941.748779296875</ele>
        <time>2013-08-24T15:37:44Z</time>
      </trkpt>
      <trkpt lat="47.461549127474427" lon="11.129573928192258">
        <ele>941.748779296875</ele>
        <time>2013-08-24T15:37:51Z</time>
      </trkpt>
      <trkpt lat="47.461528675630689" lon="11.129353903234005">
        <ele>944.152099609375</ele>
        <time>2013-08-24T15:38:07Z</time>
      </trkpt>
      <trkpt lat="47.461511828005314" lon="11.129170591011643">
        <ele>946.07470703125</ele>
        <time>2013-08-24T15:38:20Z</time>
      </trkpt>
      <trkpt lat="47.461500512436032" lon="11.129182912409306">
        <ele>945.593994140625</ele>
        <time>2013-08-24T15:38:33Z</time>
      </trkpt>
      <trkpt lat="47.461506966501474" lon="11.129045952111483">
        <ele>946.07470703125</ele>
        <time>2013-08-24T15:39:37Z</time>
      </trkpt>
      <trkpt lat="47.461515096947551" lon="11.128832548856735">
        <ele>946.07470703125</ele>
        <time>2013-08-24T15:39:41Z</time>
      </trkpt>
      <trkpt lat="47.46152582578361" lon="11.128801200538874">
        <ele>946.555419921875</ele>
        <time>2013-08-24T15:39:42Z</time>
      </trkpt>
      <trkpt lat="47.46154242195189" lon="11.128547396510839">
        <ele>947.5166015625</ele>
        <time>2013-08-24T15:39:49Z</time>
      </trkpt>
      <trkpt lat="47.461545607075095" lon="11.128426361829042">
        <ele>948.95849609375</ele>
        <time>2013-08-24T15:39:56Z</time>
      </trkpt>
      <trkpt lat="47.461556000635028" lon="11.128297699615359">
        <ele>949.919921875</ele>
        <time>2013-08-24T15:40:03Z</time>
      </trkpt>
      <trkpt lat="47.461569830775261" lon="11.128197116777301">
        <ele>952.322998046875</ele>
        <time>2013-08-24T15:40:11Z</time>
      </trkpt>
      <trkpt lat="47.461589612066746" lon="11.12806024029851">
        <ele>954.245849609375</ele>
        <time>2013-08-24T15:40:19Z</time>
      </trkpt>
      <trkpt lat="47.461591120809317" lon="11.127957310527563">
        <ele>955.687744140625</ele>
        <time>2013-08-24T15:40:26Z</time>
      </trkpt>
      <trkpt lat="47.461560359224677" lon="11.127799060195684">
        <ele>957.610595703125</ele>
        <time>2013-08-24T15:40:35Z</time>
      </trkpt>
      <trkpt lat="47.46155465953052" lon="11.127731166779995">
        <ele>958.09130859375</ele>
        <time>2013-08-24T15:40:41Z</time>
      </trkpt>
      <trkpt lat="47.46156002394855" lon="11.127669475972652">
        <ele>959.052490234375</ele>
        <time>2013-08-24T15:40:45Z</time>
      </trkpt>
      <trkpt lat="47.461571088060737" lon="11.127526564523578">
        <ele>960.013671875</ele>
        <time>2013-08-24T15:40:53Z</time>
      </trkpt>
      <trkpt lat="47.461568154394627" lon="11.127505023032427">
        <ele>960.97509765625</ele>
        <time>2013-08-24T15:40:55Z</time>
      </trkpt>
      <trkpt lat="47.461549881845713" lon="11.127374684438109">
        <ele>962.4169921875</ele>
        <time>2013-08-24T15:41:04Z</time>
      </trkpt>
      <trkpt lat="47.461555246263742" lon="11.127199418842793">
        <ele>964.8203125</ele>
        <time>2013-08-24T15:41:15Z</time>
      </trkpt>
      <trkpt lat="47.461628671735525" lon="11.127069918438792">
        <ele>965.78173828125</ele>
        <time>2013-08-24T15:41:24Z</time>
      </trkpt>
      <trkpt lat="47.461639568209648" lon="11.127031361684203">
        <ele>965.78173828125</ele>
        <time>2013-08-24T15:41:26Z</time>
      </trkpt>
      <trkpt lat="47.461690278723836" lon="11.126901609823108">
        <ele>965.301025390625</ele>
        <time>2013-08-24T15:41:33Z</time>
      </trkpt>
      <trkpt lat="47.461782731115818" lon="11.126806056126952">
        <ele>966.742919921875</ele>
        <time>2013-08-24T15:41:43Z</time>
      </trkpt>
      <trkpt lat="47.461832603439689" lon="11.126759117469192">
        <ele>966.26220703125</ele>
        <time>2013-08-24T15:41:52Z</time>
      </trkpt>
      <trkpt lat="47.461860263720155" lon="11.126778814941645">
        <ele>965.78173828125</ele>
        <time>2013-08-24T15:41:59Z</time>
      </trkpt>
      <trkpt lat="47.461866717785597" lon="11.126781078055501">
        <ele>966.26220703125</ele>
        <time>2013-08-24T15:42:00Z</time>
      </trkpt>
      <trkpt lat="47.461992613971233" lon="11.126816282048821">
        <ele>963.85888671875</ele>
        <time>2013-08-24T15:42:06Z</time>
      </trkpt>
      <trkpt lat="47.462123455479741" lon="11.126840002834797">
        <ele>962.4169921875</ele>
        <time>2013-08-24T15:42:09Z</time>
      </trkpt>
      <trkpt lat="47.462432999163866" lon="11.126893479377031">
        <ele>961.9365234375</ele>
        <time>2013-08-24T15:42:14Z</time>
      </trkpt>
      <trkpt lat="47.462632907554507" lon="11.126870764419436">
        <ele>960.013671875</ele>
        <time>2013-08-24T15:42:18Z</time>
      </trkpt>
      <trkpt lat="47.462719827890396" lon="11.12680496647954">
        <ele>957.610595703125</ele>
        <time>2013-08-24T15:42:20Z</time>
      </trkpt>
      <trkpt lat="47.462842538952827" lon="11.126692648977041">
        <ele>955.687744140625</ele>
        <time>2013-08-24T15:42:23Z</time>
      </trkpt>
      <trkpt lat="47.46306742541492" lon="11.126559628173709">
        <ele>951.36181640625</ele>
        <time>2013-08-24T15:42:27Z</time>
      </trkpt>
      <trkpt lat="47.463275548070669" lon="11.12647270783782">
        <ele>947.5166015625</ele>
        <time>2013-08-24T15:42:30Z</time>
      </trkpt>
      <trkpt lat="47.463480150327086" lon="11.126345722004771">
        <ele>944.152099609375</ele>
        <time>2013-08-24T15:42:33Z</time>
      </trkpt>
      <trkpt lat="47.46361224912107" lon="11.126270536333323">
        <ele>942.2294921875</ele>
        <time>2013-08-24T15:42:35Z</time>
      </trkpt>
      <trkpt lat="47.463798075914383" lon="11.126196356490254">
        <ele>936.94189453125</ele>
        <time>2013-08-24T15:42:38Z</time>
      </trkpt>
      <trkpt lat="47.464015502482653" lon="11.126087559387088">
        <ele>934.538818359375</ele>
        <time>2013-08-24T15:42:41Z</time>
      </trkpt>
      <trkpt lat="47.464140309020877" lon="11.126013128086925">
        <ele>935.01953125</ele>
        <time>2013-08-24T15:42:43Z</time>
      </trkpt>
      <trkpt lat="47.464415151625872" lon="11.125837191939354">
        <ele>931.17431640625</ele>
        <time>2013-08-24T15:42:48Z</time>
      </trkpt>
      <trkpt lat="47.464467789977789" lon="11.12580232322216">
        <ele>929.732177734375</ele>
        <time>2013-08-24T15:42:49Z</time>
      </trkpt>
      <trkpt lat="47.464702315628529" lon="11.125620771199465">
        <ele>926.36767578125</ele>
        <time>2013-08-24T15:42:54Z</time>
      </trkpt>
      <trkpt lat="47.4648108612746" lon="11.125533850863576">
        <ele>923.483642578125</ele>
        <time>2013-08-24T15:42:56Z</time>
      </trkpt>
      <trkpt lat="47.464986126869917" lon="11.125375013798475">
        <ele>919.638427734375</ele>
        <time>2013-08-24T15:42:59Z</time>
      </trkpt>
      <trkpt lat="47.465354930609465" lon="11.125178541988134">
        <ele>917.715576171875</ele>
        <time>2013-08-24T15:43:04Z</time>
      </trkpt>
      <trkpt lat="47.465643184259534" lon="11.124845948070288">
        <ele>916.273681640625</ele>
        <time>2013-08-24T15:43:10Z</time>
      </trkpt>
      <trkpt lat="47.465823143720627" lon="11.124630114063621">
        <ele>911.947998046875</ele>
        <time>2013-08-24T15:43:14Z</time>
      </trkpt>
      <trkpt lat="47.465936047956347" lon="11.12448493950069">
        <ele>910.025146484375</ele>
        <time>2013-08-24T15:43:16Z</time>
      </trkpt>
      <trkpt lat="47.466235281899571" lon="11.124183442443609">
        <ele>906.1796875</ele>
        <time>2013-08-24T15:43:21Z</time>
      </trkpt>
      <trkpt lat="47.466288590803742" lon="11.124133402481675">
        <ele>906.1796875</ele>
        <time>2013-08-24T15:43:22Z</time>
      </trkpt>
      <trkpt lat="47.466403925791383" lon="11.124018570408225">
        <ele>905.218505859375</ele>
        <time>2013-08-24T15:43:24Z</time>
      </trkpt>
      <trkpt lat="47.466565780341625" lon="11.123810615390539">
        <ele>901.373291015625</ele>
        <time>2013-08-24T15:43:27Z</time>
      </trkpt>
      <trkpt lat="47.466611210256815" lon="11.123730652034283">
        <ele>899.45068359375</ele>
        <time>2013-08-24T15:43:28Z</time>
      </trkpt>
      <trkpt lat="47.46688018552959" lon="11.123445918783545">
        <ele>896.56689453125</ele>
        <time>2013-08-24T15:43:33Z</time>
      </trkpt>
      <trkpt lat="47.466957550495863" lon="11.123213488608599">
        <ele>892.240966796875</ele>
        <time>2013-08-24T15:43:36Z</time>
      </trkpt>
      <trkpt lat="47.466986970975995" lon="11.122987344861031">
        <ele>891.279296875</ele>
        <time>2013-08-24T15:43:38Z</time>
      </trkpt>
      <trkpt lat="47.467010021209717" lon="11.122690876945853">
        <ele>887.914794921875</ele>
        <time>2013-08-24T15:43:41Z</time>
      </trkpt>
      <trkpt lat="47.46704732067883" lon="11.122497422620654">
        <ele>884.069580078125</ele>
        <time>2013-08-24T15:43:44Z</time>
      </trkpt>
      <trkpt lat="47.467075316235423" lon="11.122454172000289">
        <ele>883.5888671875</ele>
        <time>2013-08-24T15:43:45Z</time>
      </trkpt>
      <trkpt lat="47.467182688415051" lon="11.122436821460724">
        <ele>883.5888671875</ele>
        <time>2013-08-24T15:43:48Z</time>
      </trkpt>
      <trkpt lat="47.467260556295514" lon="11.12248208373785">
        <ele>883.108154296875</ele>
        <time>2013-08-24T15:43:50Z</time>
      </trkpt>
      <trkpt lat="47.467431714758277" lon="11.122478563338518">
        <ele>882.14697265625</ele>
        <time>2013-08-24T15:43:54Z</time>
      </trkpt>
      <trkpt lat="47.467591473832726" lon="11.122187711298466">
        <ele>881.185791015625</ele>
        <time>2013-08-24T15:44:00Z</time>
      </trkpt>
      <trkpt lat="47.467620894312859" lon="11.122046811506152">
        <ele>880.705078125</ele>
        <time>2013-08-24T15:44:02Z</time>
      </trkpt>
      <trkpt lat="47.467738492414355" lon="11.121841119602323">
        <ele>880.224365234375</ele>
        <time>2013-08-24T15:44:06Z</time>
      </trkpt>
      <trkpt lat="47.467943262308836" lon="11.121751936152577">
        <ele>880.224365234375</ele>
        <time>2013-08-24T15:44:11Z</time>
      </trkpt>
      <trkpt lat="47.468070667237043" lon="11.121753947809339">
        <ele>880.705078125</ele>
        <time>2013-08-24T15:44:14Z</time>
      </trkpt>
      <trkpt lat="47.468237550929189" lon="11.121695945039392">
        <ele>879.74365234375</ele>
        <time>2013-08-24T15:44:19Z</time>
      </trkpt>
      <trkpt lat="47.468376941978931" lon="11.121694939211011">
        <ele>878.3017578125</ele>
        <time>2013-08-24T15:44:25Z</time>
      </trkpt>
      <trkpt lat="47.468452043831348" lon="11.121686138212681">
        <ele>875.898193359375</ele>
        <time>2013-08-24T15:44:27Z</time>
      </trkpt>
      <trkpt lat="47.46854105964303" lon="11.121549429371953">
        <ele>873.4951171875</ele>
        <time>2013-08-24T15:44:31Z</time>
      </trkpt>
      <trkpt lat="47.468543741852045" lon="11.121491761878133">
        <ele>871.572265625</ele>
        <time>2013-08-24T15:44:32Z</time>
      </trkpt>
      <trkpt lat="47.468527732416987" lon="11.12127517350018">
        <ele>867.72705078125</ele>
        <time>2013-08-24T15:44:36Z</time>
      </trkpt>
      <trkpt lat="47.468519518151879" lon="11.121228318661451">
        <ele>866.765869140625</ele>
        <time>2013-08-24T15:44:37Z</time>
      </trkpt>
      <trkpt lat="47.468488421291113" lon="11.120894383639097">
        <ele>860.998046875</ele>
        <time>2013-08-24T15:44:42Z</time>
      </trkpt>
      <trkpt lat="47.468488421291113" lon="11.120837470516562">
        <ele>860.03662109375</ele>
        <time>2013-08-24T15:44:43Z</time>
      </trkpt>
      <trkpt lat="47.468452798202634" lon="11.120650051161647">
        <ele>855.710693359375</ele>
        <time>2013-08-24T15:44:48Z</time>
      </trkpt>
      <trkpt lat="47.468467215076089" lon="11.120515102520585">
        <ele>852.82666015625</ele>
        <time>2013-08-24T15:44:52Z</time>
      </trkpt>
      <trkpt lat="47.468482302501798" lon="11.120523065328598">
        <ele>851.865478515625</ele>
        <time>2013-08-24T15:44:53Z</time>
      </trkpt>
      <trkpt lat="47.468583891168237" lon="11.120706042274833">
        <ele>844.655517578125</ele>
        <time>2013-08-24T15:44:57Z</time>
      </trkpt>
      <trkpt lat="47.468774663284421" lon="11.120870746672153">
        <ele>840.32958984375</ele>
        <time>2013-08-24T15:45:01Z</time>
      </trkpt>
      <trkpt lat="47.468856638297439" lon="11.12094484269619">
        <ele>836.484375</ele>
        <time>2013-08-24T15:45:04Z</time>
      </trkpt>
      <trkpt lat="47.46887968853116" lon="11.120950877666473">
        <ele>836.003662109375</ele>
        <time>2013-08-24T15:45:05Z</time>
      </trkpt>
      <trkpt lat="47.468939702957869" lon="11.120784496888518">
        <ele>832.158447265625</ele>
        <time>2013-08-24T15:45:09Z</time>
      </trkpt>
      <trkpt lat="47.468958143144846" lon="11.120724985376">
        <ele>830.716552734375</ele>
        <time>2013-08-24T15:45:10Z</time>
      </trkpt>
      <trkpt lat="47.469033328816295" lon="11.12051292322576">
        <ele>828.7939453125</ele>
        <time>2013-08-24T15:45:13Z</time>
      </trkpt>
      <trkpt lat="47.469078591093421" lon="11.120393732562661">
        <ele>826.390380859375</ele>
        <time>2013-08-24T15:45:16Z</time>
      </trkpt>
      <trkpt lat="47.469177581369877" lon="11.120492806658149">
        <ele>822.064453125</ele>
        <time>2013-08-24T15:45:19Z</time>
      </trkpt>
      <trkpt lat="47.469214126467705" lon="11.120557598769665">
        <ele>818.21923828125</ele>
        <time>2013-08-24T15:45:20Z</time>
      </trkpt>
      <trkpt lat="47.469241451472044" lon="11.120625827461481">
        <ele>816.77734375</ele>
        <time>2013-08-24T15:45:21Z</time>
      </trkpt>
      <trkpt lat="47.469295179471374" lon="11.120765134692192">
        <ele>814.3740234375</ele>
        <time>2013-08-24T15:45:23Z</time>
      </trkpt>
      <trkpt lat="47.469375478103757" lon="11.120984992012382">
        <ele>808.60595703125</ele>
        <time>2013-08-24T15:45:28Z</time>
      </trkpt>
      <trkpt lat="47.469449322670698" lon="11.121088089421391">
        <ele>804.7607421875</ele>
        <time>2013-08-24T15:45:31Z</time>
      </trkpt>
      <trkpt lat="47.46950170956552" lon="11.121175177395344">
        <ele>802.838134765625</ele>
        <time>2013-08-24T15:45:33Z</time>
      </trkpt>
      <trkpt lat="47.469525933265686" lon="11.121170483529568">
        <ele>800.43505859375</ele>
        <time>2013-08-24T15:45:36Z</time>
      </trkpt>
      <trkpt lat="47.469562562182546" lon="11.121002174913883">
        <ele>796.58984375</ele>
        <time>2013-08-24T15:45:40Z</time>
      </trkpt>
      <trkpt lat="47.46954713948071" lon="11.120856162160635">
        <ele>793.70556640625</ele>
        <time>2013-08-24T15:45:42Z</time>
      </trkpt>
      <trkpt lat="47.469642860814929" lon="11.120655331760645">
        <ele>784.5732421875</ele>
        <time>2013-08-24T15:45:45Z</time>
      </trkpt>
      <trkpt lat="47.469610339030623" lon="11.12044838257134">
        <ele>780.72802734375</ele>
        <time>2013-08-24T15:45:47Z</time>
      </trkpt>
      <trkpt lat="47.469579745084047" lon="11.120258867740631">
        <ele>777.36328125</ele>
        <time>2013-08-24T15:45:49Z</time>
      </trkpt>
      <trkpt lat="47.469586450606585" lon="11.120087541639805">
        <ele>773.99853515625</ele>
        <time>2013-08-24T15:45:51Z</time>
      </trkpt>
      <trkpt lat="47.46958133764565" lon="11.119906073436141">
        <ele>771.11474609375</ele>
        <time>2013-08-24T15:45:53Z</time>
      </trkpt>
      <trkpt lat="47.469625845551491" lon="11.119698202237487">
        <ele>765.346923828125</ele>
        <time>2013-08-24T15:45:56Z</time>
      </trkpt>
      <trkpt lat="47.469643699005246" lon="11.119639277458191">
        <ele>763.904541015625</ele>
        <time>2013-08-24T15:45:57Z</time>
      </trkpt>
      <trkpt lat="47.469711592420936" lon="11.119351694360375">
        <ele>761.020751953125</ele>
        <time>2013-08-24T15:46:01Z</time>
      </trkpt>
      <trkpt lat="47.469873363152146" lon="11.11912228167057">
        <ele>759.09814453125</ele>
        <time>2013-08-24T15:46:06Z</time>
      </trkpt>
      <trkpt lat="47.470092717558146" lon="11.118946596980095">
        <ele>757.65625</ele>
        <time>2013-08-24T15:46:11Z</time>
      </trkpt>
      <trkpt lat="47.470274185761809" lon="11.118827741593122">
        <ele>757.65625</ele>
        <time>2013-08-24T15:46:15Z</time>
      </trkpt>
      <trkpt lat="47.470607785508037" lon="11.118567986413836">
        <ele>758.136962890625</ele>
        <time>2013-08-24T15:46:24Z</time>
      </trkpt>
      <trkpt lat="47.470716079697013" lon="11.118385763838887">
        <ele>756.69482421875</ele>
        <time>2013-08-24T15:46:28Z</time>
      </trkpt>
      <trkpt lat="47.470985474064946" lon="11.117855189368129">
        <ele>753.330322265625</ele>
        <time>2013-08-24T15:46:35Z</time>
      </trkpt>
      <trkpt lat="47.471163002774119" lon="11.117527289316058">
        <ele>752.368896484375</ele>
        <time>2013-08-24T15:46:39Z</time>
      </trkpt>
      <trkpt lat="47.471531219780445" lon="11.117220176383853">
        <ele>751.40771484375</ele>
        <time>2013-08-24T15:46:45Z</time>
      </trkpt>
      <trkpt lat="47.471670359373093" lon="11.117178685963154">
        <ele>751.40771484375</ele>
        <time>2013-08-24T15:46:47Z</time>
      </trkpt>
      <trkpt lat="47.472207136452198" lon="11.11678171902895">
        <ele>750.446533203125</ele>
        <time>2013-08-24T15:46:56Z</time>
      </trkpt>
      <trkpt lat="47.47226731851697" lon="11.116739558055997">
        <ele>749.9658203125</ele>
        <time>2013-08-24T15:46:57Z</time>
      </trkpt>
      <trkpt lat="47.472387095913291" lon="11.116647273302078">
        <ele>748.523681640625</ele>
        <time>2013-08-24T15:46:59Z</time>
      </trkpt>
      <trkpt lat="47.47267484664917" lon="11.116322474554181">
        <ele>748.043212890625</ele>
        <time>2013-08-24T15:47:05Z</time>
      </trkpt>
      <trkpt lat="47.472722120583057" lon="11.11626916565001">
        <ele>748.043212890625</ele>
        <time>2013-08-24T15:47:06Z</time>
      </trkpt>
      <trkpt lat="47.473070891574025" lon="11.116041429340839">
        <ele>747.08154296875</ele>
        <time>2013-08-24T15:47:12Z</time>
      </trkpt>
      <trkpt lat="47.473162086680532" lon="11.115948054939508">
        <ele>747.08154296875</ele>
        <time>2013-08-24T15:47:14Z</time>
      </trkpt>
      <trkpt lat="47.47344883158803" lon="11.115694167092443">
        <ele>746.120361328125</ele>
        <time>2013-08-24T15:47:20Z</time>
      </trkpt>
      <trkpt lat="47.473836578428745" lon="11.115384371951222">
        <ele>745.6396484375</ele>
        <time>2013-08-24T15:47:27Z</time>
      </trkpt>
      <trkpt lat="47.474072361364961" lon="11.115257972851396">
        <ele>745.158935546875</ele>
        <time>2013-08-24T15:47:31Z</time>
      </trkpt>
      <trkpt lat="47.474215105175972" lon="11.115120761096478">
        <ele>746.120361328125</ele>
        <time>2013-08-24T15:47:34Z</time>
      </trkpt>
      <trkpt lat="47.474562115967274" lon="11.114593790844083">
        <ele>745.6396484375</ele>
        <time>2013-08-24T15:47:43Z</time>
      </trkpt>
      <trkpt lat="47.474831342697144" lon="11.114441826939583">
        <ele>746.120361328125</ele>
        <time>2013-08-24T15:47:48Z</time>
      </trkpt>
      <trkpt lat="47.474989257752895" lon="11.114461775869131">
        <ele>747.08154296875</ele>
        <time>2013-08-24T15:47:51Z</time>
      </trkpt>
      <trkpt lat="47.475185394287109" lon="11.114424392580986">
        <ele>747.08154296875</ele>
        <time>2013-08-24T15:47:55Z</time>
      </trkpt>
      <trkpt lat="47.475357474759221" lon="11.11430193297565">
        <ele>745.6396484375</ele>
        <time>2013-08-24T15:47:58Z</time>
      </trkpt>
      <trkpt lat="47.475467277690768" lon="11.114180143922567">
        <ele>744.19775390625</ele>
        <time>2013-08-24T15:48:00Z</time>
      </trkpt>
      <trkpt lat="47.475863909348845" lon="11.113620987161994">
        <ele>741.79443359375</ele>
        <time>2013-08-24T15:48:07Z</time>
      </trkpt>
      <trkpt lat="47.476215194910765" lon="11.113208346068859">
        <ele>740.3525390625</ele>
        <time>2013-08-24T15:48:13Z</time>
      </trkpt>
      <trkpt lat="47.476585255935788" lon="11.112778689712286">
        <ele>740.3525390625</ele>
        <time>2013-08-24T15:48:20Z</time>
      </trkpt>
      <trkpt lat="47.476628925651312" lon="11.112718759104609">
        <ele>739.871826171875</ele>
        <time>2013-08-24T15:48:21Z</time>
      </trkpt>
      <trkpt lat="47.476928997784853" lon="11.112527986988425">
        <ele>741.313720703125</ele>
        <time>2013-08-24T15:48:27Z</time>
      </trkpt>
      <trkpt lat="47.477043410763144" lon="11.112544750794768">
        <ele>740.3525390625</ele>
        <time>2013-08-24T15:48:29Z</time>
      </trkpt>
      <trkpt lat="47.477611200883985" lon="11.112757651135325">
        <ele>738.91064453125</ele>
        <time>2013-08-24T15:48:38Z</time>
      </trkpt>
      <trkpt lat="47.478014035150409" lon="11.112987734377384">
        <ele>737.468505859375</ele>
        <time>2013-08-24T15:48:45Z</time>
      </trkpt>
      <trkpt lat="47.478168345987797" lon="11.113063171505928">
        <ele>737.94921875</ele>
        <time>2013-08-24T15:48:48Z</time>
      </trkpt>
      <trkpt lat="47.478402704000473" lon="11.113141039386392">
        <ele>736.98779296875</ele>
        <time>2013-08-24T15:48:52Z</time>
      </trkpt>
      <trkpt lat="47.478762622922659" lon="11.113521493971348">
        <ele>736.026611328125</ele>
        <time>2013-08-24T15:49:00Z</time>
      </trkpt>
      <trkpt lat="47.479105861857533" lon="11.113889459520578">
        <ele>735.5458984375</ele>
        <time>2013-08-24T15:49:07Z</time>
      </trkpt>
      <trkpt lat="47.479390846565366" lon="11.114432858303189">
        <ele>731.700439453125</ele>
        <time>2013-08-24T15:49:13Z</time>
      </trkpt>
      <trkpt lat="47.479648422449827" lon="11.114800069481134">
        <ele>731.219970703125</ele>
        <time>2013-08-24T15:49:18Z</time>
      </trkpt>
      <trkpt lat="47.479903902858496" lon="11.115268031135201">
        <ele>730.258544921875</ele>
        <time>2013-08-24T15:49:25Z</time>
      </trkpt>
      <trkpt lat="47.480346383526921" lon="11.115972865372896">
        <ele>729.77783203125</ele>
        <time>2013-08-24T15:49:35Z</time>
      </trkpt>
      <trkpt lat="47.480711918324232" lon="11.116290036588907">
        <ele>729.77783203125</ele>
        <time>2013-08-24T15:49:42Z</time>
      </trkpt>
      <trkpt lat="47.480757599696517" lon="11.116328425705433">
        <ele>729.297119140625</ele>
        <time>2013-08-24T15:49:43Z</time>
      </trkpt>
      <trkpt lat="47.480958597734571" lon="11.116428757086396">
        <ele>729.297119140625</ele>
        <time>2013-08-24T15:49:47Z</time>
      </trkpt>
      <trkpt lat="47.481411304324865" lon="11.116288527846336">
        <ele>728.816650390625</ele>
        <time>2013-08-24T15:49:56Z</time>
      </trkpt>
      <trkpt lat="47.481498308479786" lon="11.116241170093417">
        <ele>728.816650390625</ele>
        <time>2013-08-24T15:49:58Z</time>
      </trkpt>
      <trkpt lat="47.481735683977604" lon="11.116241337731481">
        <ele>727.855224609375</ele>
        <time>2013-08-24T15:50:03Z</time>
      </trkpt>
      <trkpt lat="47.482179254293442" lon="11.116587845608592">
        <ele>727.855224609375</ele>
        <time>2013-08-24T15:50:13Z</time>
      </trkpt>
      <trkpt lat="47.482482763007283" lon="11.116801165044308">
        <ele>727.374755859375</ele>
        <time>2013-08-24T15:50:20Z</time>
      </trkpt>
      <trkpt lat="47.482557781040668" lon="11.116964193060994">
        <ele>727.374755859375</ele>
        <time>2013-08-24T15:50:24Z</time>
      </trkpt>
      <trkpt lat="47.482467256486416" lon="11.117354622110724">
        <ele>727.374755859375</ele>
        <time>2013-08-24T15:50:32Z</time>
      </trkpt>
      <trkpt lat="47.482359213754535" lon="11.117944959551096">
        <ele>728.3359375</ele>
        <time>2013-08-24T15:50:43Z</time>
      </trkpt>
      <trkpt lat="47.482245471328497" lon="11.118403449654579">
        <ele>727.855224609375</ele>
        <time>2013-08-24T15:50:54Z</time>
      </trkpt>
      <trkpt lat="47.482196856290102" lon="11.11882422119379">
        <ele>727.855224609375</ele>
        <time>2013-08-24T15:51:02Z</time>
      </trkpt>
      <trkpt lat="47.482104571536183" lon="11.119040725752711">
        <ele>727.855224609375</ele>
        <time>2013-08-24T15:51:08Z</time>
      </trkpt>
      <trkpt lat="47.482083197683096" lon="11.119042905047536">
        <ele>728.3359375</ele>
        <time>2013-08-24T15:51:09Z</time>
      </trkpt>
      <trkpt lat="47.482052436098456" lon="11.119132004678249">
        <ele>728.3359375</ele>
        <time>2013-08-24T15:51:15Z</time>
      </trkpt>
      <trkpt lat="47.48207506723702" lon="11.119133429601789">
        <ele>728.3359375</ele>
        <time>2013-08-24T15:51:22Z</time>
      </trkpt>
      <trkpt lat="47.482067607343197" lon="11.11911247484386">
        <ele>727.374755859375</ele>
        <time>2013-08-24T15:51:32Z</time>
      </trkpt>
      <trkpt lat="47.482075486332178" lon="11.119114737957716">
        <ele>727.374755859375</ele>
        <time>2013-08-24T15:52:01Z</time>
      </trkpt>
      <trkpt lat="47.482093088328838" lon="11.119131753221154">
        <ele>727.855224609375</ele>
        <time>2013-08-24T15:52:13Z</time>
      </trkpt>
      <trkpt lat="47.482090573757887" lon="11.1191276460886">
        <ele>723.529541015625</ele>
        <time>2013-08-24T15:58:09Z</time>
      </trkpt>
      <trkpt lat="47.482089065015316" lon="11.119125802069902">
        <ele>725.451904296875</ele>
        <time>2013-08-24T15:59:19Z</time>
      </trkpt>
    </trkseg>
  </trk>

</gpx>
